<?xml version="1.0" encoding="UTF-8" standalone="no" ?>
<gpx xmlns="http://www.topografix.com/GPX/1/1" xmlns:xsi="http://www.w3.org/2001/XMLSchema-instance" xsi:schemaLocation="http://www.topografix.com/GPX/1/1 http://www.topografix.com/GPX/1/1/gpx.xsd" version="1.1" creator="VisuGPX - https://www.visugpx.com">
  <metadata>
    <name>Tour en Thur 2023-05 17-21</name>
  </metadata>
  <trk>
    <name><![CDATA[20 mai 2023 à 07:26:50]]></name>
    <extensions>
      <line xmlns="http://www.topografix.com/GPX/gpx_style/0/2">
        <color>00ffff</color>
        <width>9</width>
      </line>
    </extensions>
    <trkseg>
      <trkpt lat="48.0376" lon="7.02676">
        <ele>1206.8</ele>
        <time>2023-05-20T05:26:50Z</time>
      </trkpt>
      <trkpt lat="48.03759" lon="7.02671">
        <ele>1207.9</ele>
        <time>2023-05-20T05:26:52Z</time>
      </trkpt>
      <trkpt lat="48.03756" lon="7.02676">
        <ele>1207.7</ele>
        <time>2023-05-20T05:27:03Z</time>
      </trkpt>
      <trkpt lat="48.03751" lon="7.02678">
        <ele>1208.3</ele>
        <time>2023-05-20T05:27:09Z</time>
      </trkpt>
      <trkpt lat="48.03746" lon="7.02684">
        <ele>1207.8</ele>
        <time>2023-05-20T05:27:15Z</time>
      </trkpt>
      <trkpt lat="48.0374" lon="7.02682">
        <ele>1209</ele>
        <time>2023-05-20T05:27:19Z</time>
      </trkpt>
      <trkpt lat="48.03729" lon="7.02672">
        <ele>1211.8</ele>
        <time>2023-05-20T05:27:34Z</time>
      </trkpt>
      <trkpt lat="48.03723" lon="7.02668">
        <ele>1212.8</ele>
        <time>2023-05-20T05:27:47Z</time>
      </trkpt>
      <trkpt lat="48.03719" lon="7.02663">
        <ele>1213.9</ele>
        <time>2023-05-20T05:28:17Z</time>
      </trkpt>
      <trkpt lat="48.03698" lon="7.02645">
        <ele>1218.8</ele>
        <time>2023-05-20T05:29:36Z</time>
      </trkpt>
      <trkpt lat="48.03698" lon="7.02646">
        <ele>1218.7</ele>
        <time>2023-05-20T05:29:37Z</time>
      </trkpt>
      <trkpt lat="48.03685" lon="7.02651">
        <ele>1220.2</ele>
        <time>2023-05-20T05:29:50Z</time>
      </trkpt>
      <trkpt lat="48.03654" lon="7.02647">
        <ele>1225.1</ele>
        <time>2023-05-20T05:30:18Z</time>
      </trkpt>
      <trkpt lat="48.03643" lon="7.02642">
        <ele>1226.5</ele>
        <time>2023-05-20T05:30:30Z</time>
      </trkpt>
      <trkpt lat="48.0364" lon="7.02638">
        <ele>1226.9</ele>
        <time>2023-05-20T05:30:35Z</time>
      </trkpt>
      <trkpt lat="48.03636" lon="7.02633">
        <ele>1227.3</ele>
        <time>2023-05-20T05:30:40Z</time>
      </trkpt>
      <trkpt lat="48.03635" lon="7.02617">
        <ele>1228.3</ele>
        <time>2023-05-20T05:30:51Z</time>
      </trkpt>
      <trkpt lat="48.03636" lon="7.0261">
        <ele>1228.9</ele>
        <time>2023-05-20T05:30:55Z</time>
      </trkpt>
      <trkpt lat="48.03637" lon="7.02595">
        <ele>1230.6</ele>
        <time>2023-05-20T05:31:04Z</time>
      </trkpt>
      <trkpt lat="48.0364" lon="7.02564">
        <ele>1233.4</ele>
        <time>2023-05-20T05:31:24Z</time>
      </trkpt>
      <trkpt lat="48.03655" lon="7.02533">
        <ele>1237.4</ele>
        <time>2023-05-20T05:31:49Z</time>
      </trkpt>
      <trkpt lat="48.03655" lon="7.02524">
        <ele>1239</ele>
        <time>2023-05-20T05:31:58Z</time>
      </trkpt>
      <trkpt lat="48.03647" lon="7.02508">
        <ele>1242.2</ele>
        <time>2023-05-20T05:32:12Z</time>
      </trkpt>
      <trkpt lat="48.03645" lon="7.02501">
        <ele>1243.8</ele>
        <time>2023-05-20T05:32:20Z</time>
      </trkpt>
      <trkpt lat="48.03638" lon="7.02493">
        <ele>1245.7</ele>
        <time>2023-05-20T05:32:43Z</time>
      </trkpt>
      <trkpt lat="48.03636" lon="7.02485">
        <ele>1247.5</ele>
        <time>2023-05-20T05:32:50Z</time>
      </trkpt>
      <trkpt lat="48.03629" lon="7.02478">
        <ele>1248.7</ele>
        <time>2023-05-20T05:32:59Z</time>
      </trkpt>
      <trkpt lat="48.03627" lon="7.02472">
        <ele>1250.2</ele>
        <time>2023-05-20T05:33:07Z</time>
      </trkpt>
      <trkpt lat="48.03622" lon="7.02468">
        <ele>1250.9</ele>
        <time>2023-05-20T05:33:19Z</time>
      </trkpt>
      <trkpt lat="48.03621" lon="7.02449">
        <ele>1256.1</ele>
        <time>2023-05-20T05:33:40Z</time>
      </trkpt>
      <trkpt lat="48.03616" lon="7.02448">
        <ele>1256.2</ele>
        <time>2023-05-20T05:33:46Z</time>
      </trkpt>
      <trkpt lat="48.03612" lon="7.02443">
        <ele>1257.3</ele>
        <time>2023-05-20T05:33:53Z</time>
      </trkpt>
      <trkpt lat="48.03608" lon="7.02438">
        <ele>1257.5</ele>
        <time>2023-05-20T05:34:01Z</time>
      </trkpt>
      <trkpt lat="48.03607" lon="7.02432">
        <ele>1258.3</ele>
        <time>2023-05-20T05:34:06Z</time>
      </trkpt>
      <trkpt lat="48.03604" lon="7.02426">
        <ele>1258.6</ele>
        <time>2023-05-20T05:34:12Z</time>
      </trkpt>
      <trkpt lat="48.036" lon="7.02412">
        <ele>1259.4</ele>
        <time>2023-05-20T05:34:23Z</time>
      </trkpt>
      <trkpt lat="48.03599" lon="7.02405">
        <ele>1259.3</ele>
        <time>2023-05-20T05:34:29Z</time>
      </trkpt>
      <trkpt lat="48.03599" lon="7.02398">
        <ele>1259.6</ele>
        <time>2023-05-20T05:34:34Z</time>
      </trkpt>
      <trkpt lat="48.03598" lon="7.0239">
        <ele>1259.4</ele>
        <time>2023-05-20T05:34:42Z</time>
      </trkpt>
      <trkpt lat="48.03601" lon="7.02381">
        <ele>1261.2</ele>
        <time>2023-05-20T05:34:54Z</time>
      </trkpt>
      <trkpt lat="48.03603" lon="7.02371">
        <ele>1262.9</ele>
        <time>2023-05-20T05:35:06Z</time>
      </trkpt>
      <trkpt lat="48.03605" lon="7.02364">
        <ele>1264.6</ele>
        <time>2023-05-20T05:35:12Z</time>
      </trkpt>
      <trkpt lat="48.03606" lon="7.02345">
        <ele>1266</ele>
        <time>2023-05-20T05:35:29Z</time>
      </trkpt>
      <trkpt lat="48.03608" lon="7.02337">
        <ele>1267.6</ele>
        <time>2023-05-20T05:35:41Z</time>
      </trkpt>
      <trkpt lat="48.03622" lon="7.02331">
        <ele>1271.7</ele>
        <time>2023-05-20T05:36:02Z</time>
      </trkpt>
      <trkpt lat="48.03626" lon="7.02328">
        <ele>1272.3</ele>
        <time>2023-05-20T05:36:06Z</time>
      </trkpt>
      <trkpt lat="48.03631" lon="7.0232">
        <ele>1273.3</ele>
        <time>2023-05-20T05:36:13Z</time>
      </trkpt>
      <trkpt lat="48.03633" lon="7.02314">
        <ele>1274</ele>
        <time>2023-05-20T05:36:20Z</time>
      </trkpt>
      <trkpt lat="48.03634" lon="7.02307">
        <ele>1274.5</ele>
        <time>2023-05-20T05:36:25Z</time>
      </trkpt>
      <trkpt lat="48.03636" lon="7.02298">
        <ele>1276</ele>
        <time>2023-05-20T05:36:32Z</time>
      </trkpt>
      <trkpt lat="48.03639" lon="7.02277">
        <ele>1279.1</ele>
        <time>2023-05-20T05:36:50Z</time>
      </trkpt>
      <trkpt lat="48.03643" lon="7.02267">
        <ele>1280.6</ele>
        <time>2023-05-20T05:37:02Z</time>
      </trkpt>
      <trkpt lat="48.03648" lon="7.02233">
        <ele>1284.7</ele>
        <time>2023-05-20T05:37:33Z</time>
      </trkpt>
      <trkpt lat="48.03654" lon="7.02192">
        <ele>1289.4</ele>
        <time>2023-05-20T05:38:04Z</time>
      </trkpt>
      <trkpt lat="48.03656" lon="7.02184">
        <ele>1290.3</ele>
        <time>2023-05-20T05:38:12Z</time>
      </trkpt>
      <trkpt lat="48.03662" lon="7.02154">
        <ele>1293</ele>
        <time>2023-05-20T05:38:33Z</time>
      </trkpt>
      <trkpt lat="48.03664" lon="7.02147">
        <ele>1293.9</ele>
        <time>2023-05-20T05:38:38Z</time>
      </trkpt>
      <trkpt lat="48.03665" lon="7.02141">
        <ele>1294.4</ele>
        <time>2023-05-20T05:38:42Z</time>
      </trkpt>
      <trkpt lat="48.03665" lon="7.02133">
        <ele>1294.6</ele>
        <time>2023-05-20T05:38:46Z</time>
      </trkpt>
      <trkpt lat="48.03667" lon="7.02081">
        <ele>1296.1</ele>
        <time>2023-05-20T05:39:20Z</time>
      </trkpt>
      <trkpt lat="48.03668" lon="7.0203">
        <ele>1299.3</ele>
        <time>2023-05-20T05:39:52Z</time>
      </trkpt>
      <trkpt lat="48.03659" lon="7.01975">
        <ele>1304</ele>
        <time>2023-05-20T05:40:29Z</time>
      </trkpt>
      <trkpt lat="48.03659" lon="7.01968">
        <ele>1305.4</ele>
        <time>2023-05-20T05:40:35Z</time>
      </trkpt>
      <trkpt lat="48.03656" lon="7.01962">
        <ele>1305.9</ele>
        <time>2023-05-20T05:40:41Z</time>
      </trkpt>
      <trkpt lat="48.03656" lon="7.01954">
        <ele>1307.8</ele>
        <time>2023-05-20T05:40:49Z</time>
      </trkpt>
      <trkpt lat="48.03651" lon="7.01947">
        <ele>1308.5</ele>
        <time>2023-05-20T05:41:00Z</time>
      </trkpt>
      <trkpt lat="48.03645" lon="7.01944">
        <ele>1308.2</ele>
        <time>2023-05-20T05:41:08Z</time>
      </trkpt>
      <trkpt lat="48.03645" lon="7.01933">
        <ele>1311.4</ele>
        <time>2023-05-20T05:41:20Z</time>
      </trkpt>
      <trkpt lat="48.03633" lon="7.01922">
        <ele>1312.9</ele>
        <time>2023-05-20T05:41:36Z</time>
      </trkpt>
      <trkpt lat="48.03625" lon="7.01911">
        <ele>1314.5</ele>
        <time>2023-05-20T05:41:50Z</time>
      </trkpt>
      <trkpt lat="48.0362" lon="7.01904">
        <ele>1315.6</ele>
        <time>2023-05-20T05:42:02Z</time>
      </trkpt>
      <trkpt lat="48.03619" lon="7.01896">
        <ele>1317.8</ele>
        <time>2023-05-20T05:42:08Z</time>
      </trkpt>
      <trkpt lat="48.03611" lon="7.01888">
        <ele>1319.1</ele>
        <time>2023-05-20T05:42:19Z</time>
      </trkpt>
      <trkpt lat="48.0361" lon="7.01882">
        <ele>1319.5</ele>
        <time>2023-05-20T05:42:27Z</time>
      </trkpt>
      <trkpt lat="48.03621" lon="7.01867">
        <ele>1323.2</ele>
        <time>2023-05-20T05:42:50Z</time>
      </trkpt>
      <trkpt lat="48.03624" lon="7.01861">
        <ele>1324.4</ele>
        <time>2023-05-20T05:42:55Z</time>
      </trkpt>
      <trkpt lat="48.03623" lon="7.01853">
        <ele>1323.6</ele>
        <time>2023-05-20T05:43:01Z</time>
      </trkpt>
      <trkpt lat="48.03627" lon="7.01848">
        <ele>1324</ele>
        <time>2023-05-20T05:43:06Z</time>
      </trkpt>
      <trkpt lat="48.03635" lon="7.01843">
        <ele>1325.7</ele>
        <time>2023-05-20T05:43:15Z</time>
      </trkpt>
      <trkpt lat="48.03639" lon="7.01836">
        <ele>1326.9</ele>
        <time>2023-05-20T05:43:22Z</time>
      </trkpt>
      <trkpt lat="48.03643" lon="7.01832">
        <ele>1327.5</ele>
        <time>2023-05-20T05:43:27Z</time>
      </trkpt>
      <trkpt lat="48.03648" lon="7.01826">
        <ele>1328.1</ele>
        <time>2023-05-20T05:43:34Z</time>
      </trkpt>
      <trkpt lat="48.03666" lon="7.01793">
        <ele>1334.7</ele>
        <time>2023-05-20T05:44:12Z</time>
      </trkpt>
      <trkpt lat="48.03678" lon="7.0177">
        <ele>1337.2</ele>
        <time>2023-05-20T05:44:34Z</time>
      </trkpt>
      <trkpt lat="48.03683" lon="7.01759">
        <ele>1338.5</ele>
        <time>2023-05-20T05:44:44Z</time>
      </trkpt>
      <trkpt lat="48.03686" lon="7.01752">
        <ele>1339.6</ele>
        <time>2023-05-20T05:44:52Z</time>
      </trkpt>
      <trkpt lat="48.03691" lon="7.01739">
        <ele>1341.4</ele>
        <time>2023-05-20T05:45:10Z</time>
      </trkpt>
      <trkpt lat="48.03695" lon="7.01735">
        <ele>1343.1</ele>
        <time>2023-05-20T05:45:51Z</time>
      </trkpt>
      <trkpt lat="48.03699" lon="7.01732">
        <ele>1344.1</ele>
        <time>2023-05-20T05:46:38Z</time>
      </trkpt>
      <trkpt lat="48.0371" lon="7.01723">
        <ele>1347.4</ele>
        <time>2023-05-20T05:47:02Z</time>
      </trkpt>
      <trkpt lat="48.03718" lon="7.01706">
        <ele>1351.2</ele>
        <time>2023-05-20T05:47:21Z</time>
      </trkpt>
      <trkpt lat="48.03721" lon="7.01701">
        <ele>1352.8</ele>
        <time>2023-05-20T05:47:29Z</time>
      </trkpt>
      <trkpt lat="48.03723" lon="7.01695">
        <ele>1354.1</ele>
        <time>2023-05-20T05:47:35Z</time>
      </trkpt>
      <trkpt lat="48.03725" lon="7.01686">
        <ele>1355.4</ele>
        <time>2023-05-20T05:47:47Z</time>
      </trkpt>
      <trkpt lat="48.03728" lon="7.01679">
        <ele>1356.6</ele>
        <time>2023-05-20T05:47:58Z</time>
      </trkpt>
      <trkpt lat="48.0373" lon="7.01672">
        <ele>1357.6</ele>
        <time>2023-05-20T05:48:09Z</time>
      </trkpt>
      <trkpt lat="48.03739" lon="7.01656">
        <ele>1359.8</ele>
        <time>2023-05-20T05:48:32Z</time>
      </trkpt>
      <trkpt lat="48.03746" lon="7.01649">
        <ele>1361.1</ele>
        <time>2023-05-20T05:48:42Z</time>
      </trkpt>
      <trkpt lat="48.03749" lon="7.01644">
        <ele>1361.7</ele>
        <time>2023-05-20T05:48:47Z</time>
      </trkpt>
      <trkpt lat="48.03751" lon="7.01636">
        <ele>1362</ele>
        <time>2023-05-20T05:48:52Z</time>
      </trkpt>
      <trkpt lat="48.03751" lon="7.01617">
        <ele>1362</ele>
        <time>2023-05-20T05:49:05Z</time>
      </trkpt>
      <trkpt lat="48.03748" lon="7.01599">
        <ele>1361.6</ele>
        <time>2023-05-20T05:49:20Z</time>
      </trkpt>
      <trkpt lat="48.03744" lon="7.01584">
        <ele>1360.7</ele>
        <time>2023-05-20T05:49:33Z</time>
      </trkpt>
      <trkpt lat="48.03743" lon="7.01578">
        <ele>1360.3</ele>
        <time>2023-05-20T05:49:41Z</time>
      </trkpt>
      <trkpt lat="48.03741" lon="7.0157">
        <ele>1359.6</ele>
        <time>2023-05-20T05:49:53Z</time>
      </trkpt>
      <trkpt lat="48.03738" lon="7.01563">
        <ele>1358.7</ele>
        <time>2023-05-20T05:50:04Z</time>
      </trkpt>
      <trkpt lat="48.03734" lon="7.01558">
        <ele>1357.6</ele>
        <time>2023-05-20T05:50:09Z</time>
      </trkpt>
      <trkpt lat="48.03732" lon="7.01544">
        <ele>1356.4</ele>
        <time>2023-05-20T05:50:19Z</time>
      </trkpt>
      <trkpt lat="48.03732" lon="7.01536">
        <ele>1355.9</ele>
        <time>2023-05-20T05:50:24Z</time>
      </trkpt>
      <trkpt lat="48.03727" lon="7.0152">
        <ele>1354.3</ele>
        <time>2023-05-20T05:50:38Z</time>
      </trkpt>
      <trkpt lat="48.0372" lon="7.01507">
        <ele>1351.7</ele>
        <time>2023-05-20T05:50:48Z</time>
      </trkpt>
      <trkpt lat="48.0372" lon="7.01499">
        <ele>1351.2</ele>
        <time>2023-05-20T05:50:52Z</time>
      </trkpt>
      <trkpt lat="48.03718" lon="7.01489">
        <ele>1349.4</ele>
        <time>2023-05-20T05:51:00Z</time>
      </trkpt>
      <trkpt lat="48.03719" lon="7.01482">
        <ele>1349.6</ele>
        <time>2023-05-20T05:51:05Z</time>
      </trkpt>
      <trkpt lat="48.03713" lon="7.01472">
        <ele>1347.7</ele>
        <time>2023-05-20T05:51:14Z</time>
      </trkpt>
      <trkpt lat="48.03705" lon="7.01466">
        <ele>1345.3</ele>
        <time>2023-05-20T05:51:23Z</time>
      </trkpt>
      <trkpt lat="48.03703" lon="7.01461">
        <ele>1344.5</ele>
        <time>2023-05-20T05:51:27Z</time>
      </trkpt>
      <trkpt lat="48.03703" lon="7.01454">
        <ele>1344.1</ele>
        <time>2023-05-20T05:51:31Z</time>
      </trkpt>
      <trkpt lat="48.03703" lon="7.01447">
        <ele>1343.7</ele>
        <time>2023-05-20T05:51:35Z</time>
      </trkpt>
      <trkpt lat="48.037" lon="7.01431">
        <ele>1341.9</ele>
        <time>2023-05-20T05:51:47Z</time>
      </trkpt>
      <trkpt lat="48.03696" lon="7.01419">
        <ele>1340.4</ele>
        <time>2023-05-20T05:51:55Z</time>
      </trkpt>
      <trkpt lat="48.03698" lon="7.01412">
        <ele>1340.1</ele>
        <time>2023-05-20T05:51:59Z</time>
      </trkpt>
      <trkpt lat="48.037" lon="7.01406">
        <ele>1339.9</ele>
        <time>2023-05-20T05:52:04Z</time>
      </trkpt>
      <trkpt lat="48.03706" lon="7.01387">
        <ele>1338.6</ele>
        <time>2023-05-20T05:52:15Z</time>
      </trkpt>
      <trkpt lat="48.03708" lon="7.01381">
        <ele>1337.8</ele>
        <time>2023-05-20T05:52:19Z</time>
      </trkpt>
      <trkpt lat="48.03709" lon="7.01367">
        <ele>1335.9</ele>
        <time>2023-05-20T05:52:27Z</time>
      </trkpt>
      <trkpt lat="48.03703" lon="7.01364">
        <ele>1335</ele>
        <time>2023-05-20T05:52:34Z</time>
      </trkpt>
      <trkpt lat="48.03683" lon="7.01364">
        <ele>1331.3</ele>
        <time>2023-05-20T05:52:51Z</time>
      </trkpt>
      <trkpt lat="48.03679" lon="7.0136">
        <ele>1330</ele>
        <time>2023-05-20T05:52:56Z</time>
      </trkpt>
      <trkpt lat="48.03682" lon="7.01353">
        <ele>1330.1</ele>
        <time>2023-05-20T05:53:00Z</time>
      </trkpt>
      <trkpt lat="48.03687" lon="7.01341">
        <ele>1329.8</ele>
        <time>2023-05-20T05:53:07Z</time>
      </trkpt>
      <trkpt lat="48.03682" lon="7.01339">
        <ele>1328.7</ele>
        <time>2023-05-20T05:53:13Z</time>
      </trkpt>
      <trkpt lat="48.03677" lon="7.0134">
        <ele>1328</ele>
        <time>2023-05-20T05:53:18Z</time>
      </trkpt>
      <trkpt lat="48.03673" lon="7.0134">
        <ele>1327.3</ele>
        <time>2023-05-20T05:53:23Z</time>
      </trkpt>
      <trkpt lat="48.03671" lon="7.01328">
        <ele>1325.8</ele>
        <time>2023-05-20T05:53:32Z</time>
      </trkpt>
      <trkpt lat="48.03683" lon="7.01284">
        <ele>1320.1</ele>
        <time>2023-05-20T05:54:02Z</time>
      </trkpt>
      <trkpt lat="48.03668" lon="7.01277">
        <ele>1318</ele>
        <time>2023-05-20T05:54:18Z</time>
      </trkpt>
      <trkpt lat="48.03663" lon="7.01277">
        <ele>1317.2</ele>
        <time>2023-05-20T05:54:22Z</time>
      </trkpt>
      <trkpt lat="48.03658" lon="7.01277">
        <ele>1316.3</ele>
        <time>2023-05-20T05:54:27Z</time>
      </trkpt>
      <trkpt lat="48.03652" lon="7.01274">
        <ele>1314.9</ele>
        <time>2023-05-20T05:54:34Z</time>
      </trkpt>
      <trkpt lat="48.03648" lon="7.01276">
        <ele>1314.4</ele>
        <time>2023-05-20T05:54:39Z</time>
      </trkpt>
      <trkpt lat="48.03645" lon="7.01271">
        <ele>1313.3</ele>
        <time>2023-05-20T05:54:46Z</time>
      </trkpt>
      <trkpt lat="48.03645" lon="7.01264">
        <ele>1312.5</ele>
        <time>2023-05-20T05:54:50Z</time>
      </trkpt>
      <trkpt lat="48.03641" lon="7.01258">
        <ele>1311.2</ele>
        <time>2023-05-20T05:54:56Z</time>
      </trkpt>
      <trkpt lat="48.0364" lon="7.01251">
        <ele>1310.3</ele>
        <time>2023-05-20T05:55:00Z</time>
      </trkpt>
      <trkpt lat="48.03642" lon="7.01243">
        <ele>1309.7</ele>
        <time>2023-05-20T05:55:04Z</time>
      </trkpt>
      <trkpt lat="48.03639" lon="7.01237">
        <ele>1308.6</ele>
        <time>2023-05-20T05:55:12Z</time>
      </trkpt>
      <trkpt lat="48.0363" lon="7.01241">
        <ele>1307.9</ele>
        <time>2023-05-20T05:55:20Z</time>
      </trkpt>
      <trkpt lat="48.03626" lon="7.01242">
        <ele>1307.4</ele>
        <time>2023-05-20T05:55:24Z</time>
      </trkpt>
      <trkpt lat="48.03617" lon="7.01245">
        <ele>1306.4</ele>
        <time>2023-05-20T05:55:32Z</time>
      </trkpt>
      <trkpt lat="48.03612" lon="7.01246">
        <ele>1305.8</ele>
        <time>2023-05-20T05:55:36Z</time>
      </trkpt>
      <trkpt lat="48.03603" lon="7.01249">
        <ele>1304.8</ele>
        <time>2023-05-20T05:55:44Z</time>
      </trkpt>
      <trkpt lat="48.0359" lon="7.01254">
        <ele>1302.6</ele>
        <time>2023-05-20T05:55:56Z</time>
      </trkpt>
      <trkpt lat="48.0359" lon="7.01267">
        <ele>1301.4</ele>
        <time>2023-05-20T05:56:04Z</time>
      </trkpt>
      <trkpt lat="48.0358" lon="7.01262">
        <ele>1298.7</ele>
        <time>2023-05-20T05:56:16Z</time>
      </trkpt>
      <trkpt lat="48.03576" lon="7.01259">
        <ele>1297.7</ele>
        <time>2023-05-20T05:56:20Z</time>
      </trkpt>
      <trkpt lat="48.03572" lon="7.01255">
        <ele>1297.2</ele>
        <time>2023-05-20T05:56:25Z</time>
      </trkpt>
      <trkpt lat="48.03568" lon="7.01252">
        <ele>1296.9</ele>
        <time>2023-05-20T05:56:29Z</time>
      </trkpt>
      <trkpt lat="48.03563" lon="7.01249">
        <ele>1296.2</ele>
        <time>2023-05-20T05:56:33Z</time>
      </trkpt>
      <trkpt lat="48.03559" lon="7.01244">
        <ele>1295.2</ele>
        <time>2023-05-20T05:56:38Z</time>
      </trkpt>
      <trkpt lat="48.03556" lon="7.0124">
        <ele>1294.5</ele>
        <time>2023-05-20T05:56:42Z</time>
      </trkpt>
      <trkpt lat="48.03555" lon="7.01233">
        <ele>1294.4</ele>
        <time>2023-05-20T05:56:46Z</time>
      </trkpt>
      <trkpt lat="48.03554" lon="7.01225">
        <ele>1294.3</ele>
        <time>2023-05-20T05:56:50Z</time>
      </trkpt>
      <trkpt lat="48.03553" lon="7.01213">
        <ele>1293.4</ele>
        <time>2023-05-20T05:56:57Z</time>
      </trkpt>
      <trkpt lat="48.03552" lon="7.01199">
        <ele>1292.1</ele>
        <time>2023-05-20T05:57:05Z</time>
      </trkpt>
      <trkpt lat="48.03551" lon="7.01191">
        <ele>1291.2</ele>
        <time>2023-05-20T05:57:09Z</time>
      </trkpt>
      <trkpt lat="48.03553" lon="7.01178">
        <ele>1290.5</ele>
        <time>2023-05-20T05:57:16Z</time>
      </trkpt>
      <trkpt lat="48.03554" lon="7.01172">
        <ele>1290.2</ele>
        <time>2023-05-20T05:57:20Z</time>
      </trkpt>
      <trkpt lat="48.03556" lon="7.01164">
        <ele>1289.7</ele>
        <time>2023-05-20T05:57:24Z</time>
      </trkpt>
      <trkpt lat="48.03557" lon="7.01157">
        <ele>1288.8</ele>
        <time>2023-05-20T05:57:28Z</time>
      </trkpt>
      <trkpt lat="48.03559" lon="7.01149">
        <ele>1288</ele>
        <time>2023-05-20T05:57:32Z</time>
      </trkpt>
      <trkpt lat="48.03561" lon="7.01144">
        <ele>1287.6</ele>
        <time>2023-05-20T05:57:36Z</time>
      </trkpt>
      <trkpt lat="48.03562" lon="7.01136">
        <ele>1286.6</ele>
        <time>2023-05-20T05:57:40Z</time>
      </trkpt>
      <trkpt lat="48.03564" lon="7.0113">
        <ele>1286.2</ele>
        <time>2023-05-20T05:57:45Z</time>
      </trkpt>
      <trkpt lat="48.03558" lon="7.01131">
        <ele>1285.5</ele>
        <time>2023-05-20T05:57:49Z</time>
      </trkpt>
      <trkpt lat="48.03554" lon="7.01133">
        <ele>1285.2</ele>
        <time>2023-05-20T05:57:52Z</time>
      </trkpt>
      <trkpt lat="48.03549" lon="7.01134">
        <ele>1284.6</ele>
        <time>2023-05-20T05:57:56Z</time>
      </trkpt>
      <trkpt lat="48.03544" lon="7.01137">
        <ele>1284.2</ele>
        <time>2023-05-20T05:58:00Z</time>
      </trkpt>
      <trkpt lat="48.03533" lon="7.01141">
        <ele>1282.9</ele>
        <time>2023-05-20T05:58:09Z</time>
      </trkpt>
      <trkpt lat="48.03529" lon="7.01141">
        <ele>1282.3</ele>
        <time>2023-05-20T05:58:13Z</time>
      </trkpt>
      <trkpt lat="48.03524" lon="7.01142">
        <ele>1281.5</ele>
        <time>2023-05-20T05:58:18Z</time>
      </trkpt>
      <trkpt lat="48.03515" lon="7.01134">
        <ele>1280.1</ele>
        <time>2023-05-20T05:58:29Z</time>
      </trkpt>
      <trkpt lat="48.03506" lon="7.01131">
        <ele>1278.8</ele>
        <time>2023-05-20T05:58:36Z</time>
      </trkpt>
      <trkpt lat="48.03502" lon="7.01129">
        <ele>1278.3</ele>
        <time>2023-05-20T05:58:40Z</time>
      </trkpt>
      <trkpt lat="48.03497" lon="7.01127">
        <ele>1277.4</ele>
        <time>2023-05-20T05:58:44Z</time>
      </trkpt>
      <trkpt lat="48.03493" lon="7.01123">
        <ele>1276.8</ele>
        <time>2023-05-20T05:58:48Z</time>
      </trkpt>
      <trkpt lat="48.0349" lon="7.01119">
        <ele>1276.7</ele>
        <time>2023-05-20T05:58:51Z</time>
      </trkpt>
      <trkpt lat="48.03478" lon="7.01102">
        <ele>1276.9</ele>
        <time>2023-05-20T05:59:05Z</time>
      </trkpt>
      <trkpt lat="48.03474" lon="7.01097">
        <ele>1277.1</ele>
        <time>2023-05-20T05:59:10Z</time>
      </trkpt>
      <trkpt lat="48.03471" lon="7.01093">
        <ele>1277.2</ele>
        <time>2023-05-20T05:59:13Z</time>
      </trkpt>
      <trkpt lat="48.03466" lon="7.01089">
        <ele>1277.4</ele>
        <time>2023-05-20T05:59:17Z</time>
      </trkpt>
      <trkpt lat="48.03463" lon="7.01085">
        <ele>1277.8</ele>
        <time>2023-05-20T05:59:21Z</time>
      </trkpt>
      <trkpt lat="48.03458" lon="7.01083">
        <ele>1278</ele>
        <time>2023-05-20T05:59:25Z</time>
      </trkpt>
      <trkpt lat="48.03452" lon="7.01077">
        <ele>1278.5</ele>
        <time>2023-05-20T05:59:32Z</time>
      </trkpt>
      <trkpt lat="48.03447" lon="7.01075">
        <ele>1278.8</ele>
        <time>2023-05-20T05:59:36Z</time>
      </trkpt>
      <trkpt lat="48.03443" lon="7.01071">
        <ele>1279.3</ele>
        <time>2023-05-20T05:59:40Z</time>
      </trkpt>
      <trkpt lat="48.03436" lon="7.01067">
        <ele>1280</ele>
        <time>2023-05-20T05:59:49Z</time>
      </trkpt>
      <trkpt lat="48.03412" lon="7.01048">
        <ele>1285.6</ele>
        <time>2023-05-20T06:00:21Z</time>
      </trkpt>
      <trkpt lat="48.03407" lon="7.01044">
        <ele>1286.7</ele>
        <time>2023-05-20T06:00:27Z</time>
      </trkpt>
      <trkpt lat="48.03403" lon="7.01042">
        <ele>1287.4</ele>
        <time>2023-05-20T06:00:32Z</time>
      </trkpt>
      <trkpt lat="48.03399" lon="7.0104">
        <ele>1288.1</ele>
        <time>2023-05-20T06:00:37Z</time>
      </trkpt>
      <trkpt lat="48.03372" lon="7.0103">
        <ele>1293.2</ele>
        <time>2023-05-20T06:01:08Z</time>
      </trkpt>
      <trkpt lat="48.03367" lon="7.0103">
        <ele>1293.7</ele>
        <time>2023-05-20T06:01:12Z</time>
      </trkpt>
      <trkpt lat="48.03362" lon="7.01032">
        <ele>1293.5</ele>
        <time>2023-05-20T06:01:16Z</time>
      </trkpt>
      <trkpt lat="48.03345" lon="7.01029">
        <ele>1296.9</ele>
        <time>2023-05-20T06:01:31Z</time>
      </trkpt>
      <trkpt lat="48.0334" lon="7.01031">
        <ele>1297.1</ele>
        <time>2023-05-20T06:01:35Z</time>
      </trkpt>
      <trkpt lat="48.03336" lon="7.01032">
        <ele>1297.4</ele>
        <time>2023-05-20T06:01:39Z</time>
      </trkpt>
      <trkpt lat="48.0333" lon="7.01036">
        <ele>1297.2</ele>
        <time>2023-05-20T06:01:43Z</time>
      </trkpt>
      <trkpt lat="48.03327" lon="7.0104">
        <ele>1296.8</ele>
        <time>2023-05-20T06:01:47Z</time>
      </trkpt>
      <trkpt lat="48.03323" lon="7.01043">
        <ele>1297</ele>
        <time>2023-05-20T06:01:51Z</time>
      </trkpt>
      <trkpt lat="48.03313" lon="7.01053">
        <ele>1297.9</ele>
        <time>2023-05-20T06:02:01Z</time>
      </trkpt>
      <trkpt lat="48.0331" lon="7.01057">
        <ele>1298.2</ele>
        <time>2023-05-20T06:02:06Z</time>
      </trkpt>
      <trkpt lat="48.03305" lon="7.01061">
        <ele>1298.7</ele>
        <time>2023-05-20T06:02:10Z</time>
      </trkpt>
      <trkpt lat="48.03298" lon="7.0107">
        <ele>1297.3</ele>
        <time>2023-05-20T06:02:17Z</time>
      </trkpt>
      <trkpt lat="48.03291" lon="7.01082">
        <ele>1296.4</ele>
        <time>2023-05-20T06:02:25Z</time>
      </trkpt>
      <trkpt lat="48.03287" lon="7.01089">
        <ele>1296.1</ele>
        <time>2023-05-20T06:02:30Z</time>
      </trkpt>
      <trkpt lat="48.03284" lon="7.01094">
        <ele>1296.2</ele>
        <time>2023-05-20T06:02:34Z</time>
      </trkpt>
      <trkpt lat="48.03277" lon="7.01106">
        <ele>1296.7</ele>
        <time>2023-05-20T06:02:43Z</time>
      </trkpt>
      <trkpt lat="48.03274" lon="7.01111">
        <ele>1296.7</ele>
        <time>2023-05-20T06:02:47Z</time>
      </trkpt>
      <trkpt lat="48.03267" lon="7.0113">
        <ele>1295.9</ele>
        <time>2023-05-20T06:02:58Z</time>
      </trkpt>
      <trkpt lat="48.03266" lon="7.01138">
        <ele>1295.3</ele>
        <time>2023-05-20T06:03:02Z</time>
      </trkpt>
      <trkpt lat="48.03264" lon="7.01145">
        <ele>1295.2</ele>
        <time>2023-05-20T06:03:06Z</time>
      </trkpt>
      <trkpt lat="48.03262" lon="7.01152">
        <ele>1295.1</ele>
        <time>2023-05-20T06:03:10Z</time>
      </trkpt>
      <trkpt lat="48.03259" lon="7.01158">
        <ele>1295.7</ele>
        <time>2023-05-20T06:03:14Z</time>
      </trkpt>
      <trkpt lat="48.03252" lon="7.01178">
        <ele>1297.2</ele>
        <time>2023-05-20T06:03:25Z</time>
      </trkpt>
      <trkpt lat="48.0325" lon="7.01185">
        <ele>1297.7</ele>
        <time>2023-05-20T06:03:28Z</time>
      </trkpt>
      <trkpt lat="48.03248" lon="7.01191">
        <ele>1297.7</ele>
        <time>2023-05-20T06:03:32Z</time>
      </trkpt>
      <trkpt lat="48.03239" lon="7.01207">
        <ele>1299.2</ele>
        <time>2023-05-20T06:03:43Z</time>
      </trkpt>
      <trkpt lat="48.03235" lon="7.01216">
        <ele>1300.1</ele>
        <time>2023-05-20T06:03:50Z</time>
      </trkpt>
      <trkpt lat="48.03229" lon="7.01227">
        <ele>1301.4</ele>
        <time>2023-05-20T06:03:59Z</time>
      </trkpt>
      <trkpt lat="48.03225" lon="7.01233">
        <ele>1302.3</ele>
        <time>2023-05-20T06:04:04Z</time>
      </trkpt>
      <trkpt lat="48.03221" lon="7.01238">
        <ele>1303</ele>
        <time>2023-05-20T06:04:08Z</time>
      </trkpt>
      <trkpt lat="48.03216" lon="7.01241">
        <ele>1303.2</ele>
        <time>2023-05-20T06:04:12Z</time>
      </trkpt>
      <trkpt lat="48.03211" lon="7.0124">
        <ele>1303.7</ele>
        <time>2023-05-20T06:04:16Z</time>
      </trkpt>
      <trkpt lat="48.03207" lon="7.01242">
        <ele>1303.8</ele>
        <time>2023-05-20T06:04:20Z</time>
      </trkpt>
      <trkpt lat="48.03202" lon="7.01244">
        <ele>1304</ele>
        <time>2023-05-20T06:04:24Z</time>
      </trkpt>
      <trkpt lat="48.03197" lon="7.01244">
        <ele>1304.4</ele>
        <time>2023-05-20T06:04:28Z</time>
      </trkpt>
      <trkpt lat="48.03193" lon="7.01248">
        <ele>1304.3</ele>
        <time>2023-05-20T06:04:32Z</time>
      </trkpt>
      <trkpt lat="48.03187" lon="7.01261">
        <ele>1300.1</ele>
        <time>2023-05-20T06:04:41Z</time>
      </trkpt>
      <trkpt lat="48.0318" lon="7.0127">
        <ele>1299.5</ele>
        <time>2023-05-20T06:04:49Z</time>
      </trkpt>
      <trkpt lat="48.03176" lon="7.01273">
        <ele>1300.6</ele>
        <time>2023-05-20T06:04:53Z</time>
      </trkpt>
      <trkpt lat="48.03172" lon="7.01276">
        <ele>1302.2</ele>
        <time>2023-05-20T06:04:57Z</time>
      </trkpt>
      <trkpt lat="48.03166" lon="7.01288">
        <ele>1303.6</ele>
        <time>2023-05-20T06:05:05Z</time>
      </trkpt>
      <trkpt lat="48.03165" lon="7.01296">
        <ele>1302.5</ele>
        <time>2023-05-20T06:05:09Z</time>
      </trkpt>
      <trkpt lat="48.03162" lon="7.01301">
        <ele>1302.1</ele>
        <time>2023-05-20T06:05:13Z</time>
      </trkpt>
      <trkpt lat="48.03158" lon="7.01314">
        <ele>1299.9</ele>
        <time>2023-05-20T06:05:21Z</time>
      </trkpt>
      <trkpt lat="48.03148" lon="7.01331">
        <ele>1298.2</ele>
        <time>2023-05-20T06:05:34Z</time>
      </trkpt>
      <trkpt lat="48.03144" lon="7.01343">
        <ele>1297.2</ele>
        <time>2023-05-20T06:05:41Z</time>
      </trkpt>
      <trkpt lat="48.03142" lon="7.0135">
        <ele>1296.7</ele>
        <time>2023-05-20T06:05:45Z</time>
      </trkpt>
      <trkpt lat="48.03139" lon="7.01356">
        <ele>1296.7</ele>
        <time>2023-05-20T06:05:50Z</time>
      </trkpt>
      <trkpt lat="48.03133" lon="7.01354">
        <ele>1295.8</ele>
        <time>2023-05-20T06:05:57Z</time>
      </trkpt>
      <trkpt lat="48.03129" lon="7.01351">
        <ele>1295.6</ele>
        <time>2023-05-20T06:06:02Z</time>
      </trkpt>
      <trkpt lat="48.03121" lon="7.01343">
        <ele>1296.2</ele>
        <time>2023-05-20T06:06:15Z</time>
      </trkpt>
      <trkpt lat="48.03113" lon="7.01334">
        <ele>1297.9</ele>
        <time>2023-05-20T06:06:23Z</time>
      </trkpt>
      <trkpt lat="48.03109" lon="7.01331">
        <ele>1296.9</ele>
        <time>2023-05-20T06:06:27Z</time>
      </trkpt>
      <trkpt lat="48.03105" lon="7.01328">
        <ele>1294.8</ele>
        <time>2023-05-20T06:06:31Z</time>
      </trkpt>
      <trkpt lat="48.03102" lon="7.01322">
        <ele>1294.3</ele>
        <time>2023-05-20T06:06:35Z</time>
      </trkpt>
      <trkpt lat="48.031" lon="7.01316">
        <ele>1294.8</ele>
        <time>2023-05-20T06:06:39Z</time>
      </trkpt>
      <trkpt lat="48.03097" lon="7.01311">
        <ele>1294.8</ele>
        <time>2023-05-20T06:06:43Z</time>
      </trkpt>
      <trkpt lat="48.03093" lon="7.01305">
        <ele>1295.2</ele>
        <time>2023-05-20T06:06:48Z</time>
      </trkpt>
      <trkpt lat="48.03091" lon="7.01299">
        <ele>1295.8</ele>
        <time>2023-05-20T06:06:52Z</time>
      </trkpt>
      <trkpt lat="48.03088" lon="7.01292">
        <ele>1296.5</ele>
        <time>2023-05-20T06:06:56Z</time>
      </trkpt>
      <trkpt lat="48.03078" lon="7.01276">
        <ele>1294.5</ele>
        <time>2023-05-20T06:07:08Z</time>
      </trkpt>
      <trkpt lat="48.03076" lon="7.01269">
        <ele>1294.5</ele>
        <time>2023-05-20T06:07:12Z</time>
      </trkpt>
      <trkpt lat="48.03063" lon="7.01239">
        <ele>1297.4</ele>
        <time>2023-05-20T06:07:32Z</time>
      </trkpt>
      <trkpt lat="48.0306" lon="7.01233">
        <ele>1297.8</ele>
        <time>2023-05-20T06:07:36Z</time>
      </trkpt>
      <trkpt lat="48.03058" lon="7.01226">
        <ele>1298.6</ele>
        <time>2023-05-20T06:07:39Z</time>
      </trkpt>
      <trkpt lat="48.03055" lon="7.01222">
        <ele>1298.7</ele>
        <time>2023-05-20T06:07:43Z</time>
      </trkpt>
      <trkpt lat="48.03043" lon="7.01199">
        <ele>1296.6</ele>
        <time>2023-05-20T06:07:59Z</time>
      </trkpt>
      <trkpt lat="48.03034" lon="7.0119">
        <ele>1296.7</ele>
        <time>2023-05-20T06:08:07Z</time>
      </trkpt>
      <trkpt lat="48.03022" lon="7.01177">
        <ele>1296</ele>
        <time>2023-05-20T06:08:19Z</time>
      </trkpt>
      <trkpt lat="48.0301" lon="7.01164">
        <ele>1297.2</ele>
        <time>2023-05-20T06:08:30Z</time>
      </trkpt>
      <trkpt lat="48.03007" lon="7.0116">
        <ele>1297.2</ele>
        <time>2023-05-20T06:08:34Z</time>
      </trkpt>
      <trkpt lat="48.03002" lon="7.01157">
        <ele>1296.9</ele>
        <time>2023-05-20T06:08:38Z</time>
      </trkpt>
      <trkpt lat="48.02993" lon="7.0115">
        <ele>1295.6</ele>
        <time>2023-05-20T06:08:47Z</time>
      </trkpt>
      <trkpt lat="48.02981" lon="7.01139">
        <ele>1295.9</ele>
        <time>2023-05-20T06:09:00Z</time>
      </trkpt>
      <trkpt lat="48.02969" lon="7.01129">
        <ele>1295.2</ele>
        <time>2023-05-20T06:09:12Z</time>
      </trkpt>
      <trkpt lat="48.02965" lon="7.01124">
        <ele>1294.9</ele>
        <time>2023-05-20T06:09:16Z</time>
      </trkpt>
      <trkpt lat="48.02962" lon="7.01119">
        <ele>1294.9</ele>
        <time>2023-05-20T06:09:20Z</time>
      </trkpt>
      <trkpt lat="48.02953" lon="7.01112">
        <ele>1294.1</ele>
        <time>2023-05-20T06:09:28Z</time>
      </trkpt>
      <trkpt lat="48.02948" lon="7.01109">
        <ele>1293.7</ele>
        <time>2023-05-20T06:09:32Z</time>
      </trkpt>
      <trkpt lat="48.02944" lon="7.01104">
        <ele>1293.4</ele>
        <time>2023-05-20T06:09:36Z</time>
      </trkpt>
      <trkpt lat="48.02933" lon="7.0109">
        <ele>1292.8</ele>
        <time>2023-05-20T06:09:47Z</time>
      </trkpt>
      <trkpt lat="48.0293" lon="7.01086">
        <ele>1292.7</ele>
        <time>2023-05-20T06:09:51Z</time>
      </trkpt>
      <trkpt lat="48.02924" lon="7.01075">
        <ele>1292.1</ele>
        <time>2023-05-20T06:09:59Z</time>
      </trkpt>
      <trkpt lat="48.02921" lon="7.01069">
        <ele>1291.7</ele>
        <time>2023-05-20T06:10:03Z</time>
      </trkpt>
      <trkpt lat="48.02918" lon="7.01063">
        <ele>1291.2</ele>
        <time>2023-05-20T06:10:07Z</time>
      </trkpt>
      <trkpt lat="48.02906" lon="7.01026">
        <ele>1287.2</ele>
        <time>2023-05-20T06:10:30Z</time>
      </trkpt>
      <trkpt lat="48.02904" lon="7.01012">
        <ele>1286.4</ele>
        <time>2023-05-20T06:10:38Z</time>
      </trkpt>
      <trkpt lat="48.02902" lon="7.01004">
        <ele>1285.7</ele>
        <time>2023-05-20T06:10:42Z</time>
      </trkpt>
      <trkpt lat="48.02898" lon="7.00983">
        <ele>1283.7</ele>
        <time>2023-05-20T06:10:54Z</time>
      </trkpt>
      <trkpt lat="48.02898" lon="7.00976">
        <ele>1283.4</ele>
        <time>2023-05-20T06:10:59Z</time>
      </trkpt>
      <trkpt lat="48.02897" lon="7.00968">
        <ele>1282.9</ele>
        <time>2023-05-20T06:11:03Z</time>
      </trkpt>
      <trkpt lat="48.02896" lon="7.00961">
        <ele>1282.7</ele>
        <time>2023-05-20T06:11:08Z</time>
      </trkpt>
      <trkpt lat="48.02895" lon="7.00954">
        <ele>1282.4</ele>
        <time>2023-05-20T06:11:13Z</time>
      </trkpt>
      <trkpt lat="48.02892" lon="7.00949">
        <ele>1281.7</ele>
        <time>2023-05-20T06:11:17Z</time>
      </trkpt>
      <trkpt lat="48.02887" lon="7.00938">
        <ele>1280.6</ele>
        <time>2023-05-20T06:11:25Z</time>
      </trkpt>
      <trkpt lat="48.02882" lon="7.00927">
        <ele>1279.7</ele>
        <time>2023-05-20T06:11:32Z</time>
      </trkpt>
      <trkpt lat="48.02877" lon="7.00916">
        <ele>1279.5</ele>
        <time>2023-05-20T06:11:41Z</time>
      </trkpt>
      <trkpt lat="48.02874" lon="7.00912">
        <ele>1279.2</ele>
        <time>2023-05-20T06:11:45Z</time>
      </trkpt>
      <trkpt lat="48.02871" lon="7.00907">
        <ele>1279.2</ele>
        <time>2023-05-20T06:11:48Z</time>
      </trkpt>
      <trkpt lat="48.02867" lon="7.00899">
        <ele>1279.4</ele>
        <time>2023-05-20T06:11:54Z</time>
      </trkpt>
      <trkpt lat="48.02862" lon="7.00898">
        <ele>1278.8</ele>
        <time>2023-05-20T06:11:59Z</time>
      </trkpt>
      <trkpt lat="48.02856" lon="7.00899">
        <ele>1278.8</ele>
        <time>2023-05-20T06:12:03Z</time>
      </trkpt>
      <trkpt lat="48.02846" lon="7.00899">
        <ele>1279.4</ele>
        <time>2023-05-20T06:12:11Z</time>
      </trkpt>
      <trkpt lat="48.02842" lon="7.00896">
        <ele>1280.2</ele>
        <time>2023-05-20T06:12:15Z</time>
      </trkpt>
      <trkpt lat="48.02836" lon="7.00892">
        <ele>1281.3</ele>
        <time>2023-05-20T06:12:21Z</time>
      </trkpt>
      <trkpt lat="48.02832" lon="7.00893">
        <ele>1281.4</ele>
        <time>2023-05-20T06:12:25Z</time>
      </trkpt>
      <trkpt lat="48.02827" lon="7.00895">
        <ele>1281.4</ele>
        <time>2023-05-20T06:12:29Z</time>
      </trkpt>
      <trkpt lat="48.02817" lon="7.00896">
        <ele>1281.9</ele>
        <time>2023-05-20T06:12:37Z</time>
      </trkpt>
      <trkpt lat="48.02813" lon="7.00895">
        <ele>1282.4</ele>
        <time>2023-05-20T06:12:41Z</time>
      </trkpt>
      <trkpt lat="48.02806" lon="7.00894">
        <ele>1283</ele>
        <time>2023-05-20T06:12:49Z</time>
      </trkpt>
      <trkpt lat="48.02802" lon="7.00894">
        <ele>1283.3</ele>
        <time>2023-05-20T06:12:53Z</time>
      </trkpt>
      <trkpt lat="48.02794" lon="7.00896">
        <ele>1283.4</ele>
        <time>2023-05-20T06:13:01Z</time>
      </trkpt>
      <trkpt lat="48.02786" lon="7.00896">
        <ele>1283.9</ele>
        <time>2023-05-20T06:13:09Z</time>
      </trkpt>
      <trkpt lat="48.02782" lon="7.00896">
        <ele>1284.2</ele>
        <time>2023-05-20T06:13:13Z</time>
      </trkpt>
      <trkpt lat="48.02778" lon="7.00896">
        <ele>1284.4</ele>
        <time>2023-05-20T06:13:17Z</time>
      </trkpt>
      <trkpt lat="48.02774" lon="7.00893">
        <ele>1285.4</ele>
        <time>2023-05-20T06:13:21Z</time>
      </trkpt>
      <trkpt lat="48.02769" lon="7.00891">
        <ele>1286.1</ele>
        <time>2023-05-20T06:13:25Z</time>
      </trkpt>
      <trkpt lat="48.02765" lon="7.00892">
        <ele>1285.5</ele>
        <time>2023-05-20T06:13:28Z</time>
      </trkpt>
      <trkpt lat="48.0276" lon="7.00891">
        <ele>1285.9</ele>
        <time>2023-05-20T06:13:32Z</time>
      </trkpt>
      <trkpt lat="48.02755" lon="7.00889">
        <ele>1286.9</ele>
        <time>2023-05-20T06:13:36Z</time>
      </trkpt>
      <trkpt lat="48.02747" lon="7.00885">
        <ele>1287.1</ele>
        <time>2023-05-20T06:13:44Z</time>
      </trkpt>
      <trkpt lat="48.02742" lon="7.00883">
        <ele>1287</ele>
        <time>2023-05-20T06:13:48Z</time>
      </trkpt>
      <trkpt lat="48.02738" lon="7.00881">
        <ele>1286.9</ele>
        <time>2023-05-20T06:13:52Z</time>
      </trkpt>
      <trkpt lat="48.02729" lon="7.00878">
        <ele>1286.8</ele>
        <time>2023-05-20T06:13:59Z</time>
      </trkpt>
      <trkpt lat="48.02724" lon="7.00877">
        <ele>1286.7</ele>
        <time>2023-05-20T06:14:03Z</time>
      </trkpt>
      <trkpt lat="48.0272" lon="7.00878">
        <ele>1286.5</ele>
        <time>2023-05-20T06:14:07Z</time>
      </trkpt>
      <trkpt lat="48.02715" lon="7.00881">
        <ele>1286.3</ele>
        <time>2023-05-20T06:14:11Z</time>
      </trkpt>
      <trkpt lat="48.0271" lon="7.00881">
        <ele>1286.8</ele>
        <time>2023-05-20T06:14:15Z</time>
      </trkpt>
      <trkpt lat="48.02687" lon="7.00879">
        <ele>1286.9</ele>
        <time>2023-05-20T06:14:35Z</time>
      </trkpt>
      <trkpt lat="48.02682" lon="7.00877">
        <ele>1286.4</ele>
        <time>2023-05-20T06:14:40Z</time>
      </trkpt>
      <trkpt lat="48.02677" lon="7.00876">
        <ele>1285.8</ele>
        <time>2023-05-20T06:14:44Z</time>
      </trkpt>
      <trkpt lat="48.02673" lon="7.00874">
        <ele>1285.9</ele>
        <time>2023-05-20T06:14:48Z</time>
      </trkpt>
      <trkpt lat="48.02665" lon="7.0087">
        <ele>1286.7</ele>
        <time>2023-05-20T06:14:57Z</time>
      </trkpt>
      <trkpt lat="48.0266" lon="7.00869">
        <ele>1286.6</ele>
        <time>2023-05-20T06:15:01Z</time>
      </trkpt>
      <trkpt lat="48.0265" lon="7.00868">
        <ele>1286.1</ele>
        <time>2023-05-20T06:15:11Z</time>
      </trkpt>
      <trkpt lat="48.02645" lon="7.00866">
        <ele>1286.7</ele>
        <time>2023-05-20T06:15:15Z</time>
      </trkpt>
      <trkpt lat="48.02641" lon="7.00867">
        <ele>1285.8</ele>
        <time>2023-05-20T06:15:19Z</time>
      </trkpt>
      <trkpt lat="48.02636" lon="7.00866">
        <ele>1286.1</ele>
        <time>2023-05-20T06:15:23Z</time>
      </trkpt>
      <trkpt lat="48.02631" lon="7.00867">
        <ele>1285.5</ele>
        <time>2023-05-20T06:15:26Z</time>
      </trkpt>
      <trkpt lat="48.02627" lon="7.00867">
        <ele>1285.5</ele>
        <time>2023-05-20T06:15:30Z</time>
      </trkpt>
      <trkpt lat="48.02622" lon="7.00866">
        <ele>1285.8</ele>
        <time>2023-05-20T06:15:34Z</time>
      </trkpt>
      <trkpt lat="48.02617" lon="7.00865">
        <ele>1286.1</ele>
        <time>2023-05-20T06:15:38Z</time>
      </trkpt>
      <trkpt lat="48.02611" lon="7.00864">
        <ele>1286.2</ele>
        <time>2023-05-20T06:15:42Z</time>
      </trkpt>
      <trkpt lat="48.02606" lon="7.00862">
        <ele>1286.4</ele>
        <time>2023-05-20T06:15:46Z</time>
      </trkpt>
      <trkpt lat="48.02601" lon="7.00862">
        <ele>1286</ele>
        <time>2023-05-20T06:15:50Z</time>
      </trkpt>
      <trkpt lat="48.02591" lon="7.00863">
        <ele>1285.1</ele>
        <time>2023-05-20T06:15:58Z</time>
      </trkpt>
      <trkpt lat="48.02581" lon="7.00863">
        <ele>1284.4</ele>
        <time>2023-05-20T06:16:05Z</time>
      </trkpt>
      <trkpt lat="48.02576" lon="7.00862">
        <ele>1284.3</ele>
        <time>2023-05-20T06:16:09Z</time>
      </trkpt>
      <trkpt lat="48.02572" lon="7.00859">
        <ele>1284.5</ele>
        <time>2023-05-20T06:16:13Z</time>
      </trkpt>
      <trkpt lat="48.02567" lon="7.00856">
        <ele>1284.6</ele>
        <time>2023-05-20T06:16:17Z</time>
      </trkpt>
      <trkpt lat="48.02563" lon="7.00853">
        <ele>1284.7</ele>
        <time>2023-05-20T06:16:21Z</time>
      </trkpt>
      <trkpt lat="48.02556" lon="7.00842">
        <ele>1285.8</ele>
        <time>2023-05-20T06:16:29Z</time>
      </trkpt>
      <trkpt lat="48.02548" lon="7.00834">
        <ele>1286.4</ele>
        <time>2023-05-20T06:16:37Z</time>
      </trkpt>
      <trkpt lat="48.02544" lon="7.0083">
        <ele>1286.6</ele>
        <time>2023-05-20T06:16:42Z</time>
      </trkpt>
      <trkpt lat="48.02539" lon="7.00827">
        <ele>1286.6</ele>
        <time>2023-05-20T06:16:46Z</time>
      </trkpt>
      <trkpt lat="48.02536" lon="7.00823">
        <ele>1286.8</ele>
        <time>2023-05-20T06:16:50Z</time>
      </trkpt>
      <trkpt lat="48.02528" lon="7.00816">
        <ele>1286.9</ele>
        <time>2023-05-20T06:16:58Z</time>
      </trkpt>
      <trkpt lat="48.02515" lon="7.00808">
        <ele>1287.2</ele>
        <time>2023-05-20T06:17:10Z</time>
      </trkpt>
      <trkpt lat="48.02512" lon="7.00803">
        <ele>1287.7</ele>
        <time>2023-05-20T06:17:15Z</time>
      </trkpt>
      <trkpt lat="48.02508" lon="7.008">
        <ele>1287.9</ele>
        <time>2023-05-20T06:17:19Z</time>
      </trkpt>
      <trkpt lat="48.02505" lon="7.00796">
        <ele>1288.3</ele>
        <time>2023-05-20T06:17:22Z</time>
      </trkpt>
      <trkpt lat="48.02501" lon="7.00792">
        <ele>1288.5</ele>
        <time>2023-05-20T06:17:26Z</time>
      </trkpt>
      <trkpt lat="48.02497" lon="7.00788">
        <ele>1288.4</ele>
        <time>2023-05-20T06:17:30Z</time>
      </trkpt>
      <trkpt lat="48.02495" lon="7.00782">
        <ele>1288.8</ele>
        <time>2023-05-20T06:17:34Z</time>
      </trkpt>
      <trkpt lat="48.02484" lon="7.00769">
        <ele>1288.6</ele>
        <time>2023-05-20T06:17:45Z</time>
      </trkpt>
      <trkpt lat="48.0248" lon="7.00766">
        <ele>1288.4</ele>
        <time>2023-05-20T06:17:49Z</time>
      </trkpt>
      <trkpt lat="48.02466" lon="7.00759">
        <ele>1287.4</ele>
        <time>2023-05-20T06:18:02Z</time>
      </trkpt>
      <trkpt lat="48.02452" lon="7.00741">
        <ele>1288.7</ele>
        <time>2023-05-20T06:18:16Z</time>
      </trkpt>
      <trkpt lat="48.02445" lon="7.00727">
        <ele>1289.6</ele>
        <time>2023-05-20T06:18:26Z</time>
      </trkpt>
      <trkpt lat="48.02435" lon="7.00724">
        <ele>1288.4</ele>
        <time>2023-05-20T06:18:34Z</time>
      </trkpt>
      <trkpt lat="48.0243" lon="7.0072">
        <ele>1288.2</ele>
        <time>2023-05-20T06:18:38Z</time>
      </trkpt>
      <trkpt lat="48.02409" lon="7.00703">
        <ele>1287.5</ele>
        <time>2023-05-20T06:18:58Z</time>
      </trkpt>
      <trkpt lat="48.02404" lon="7.007">
        <ele>1287.2</ele>
        <time>2023-05-20T06:19:02Z</time>
      </trkpt>
      <trkpt lat="48.02395" lon="7.00694">
        <ele>1287</ele>
        <time>2023-05-20T06:19:10Z</time>
      </trkpt>
      <trkpt lat="48.02391" lon="7.00691">
        <ele>1287</ele>
        <time>2023-05-20T06:19:14Z</time>
      </trkpt>
      <trkpt lat="48.02381" lon="7.00685">
        <ele>1286.9</ele>
        <time>2023-05-20T06:19:23Z</time>
      </trkpt>
      <trkpt lat="48.02377" lon="7.00681">
        <ele>1287.2</ele>
        <time>2023-05-20T06:19:27Z</time>
      </trkpt>
      <trkpt lat="48.0235" lon="7.00662">
        <ele>1288.2</ele>
        <time>2023-05-20T06:19:51Z</time>
      </trkpt>
      <trkpt lat="48.02344" lon="7.0066">
        <ele>1288.2</ele>
        <time>2023-05-20T06:19:55Z</time>
      </trkpt>
      <trkpt lat="48.02339" lon="7.00662">
        <ele>1287.4</ele>
        <time>2023-05-20T06:20:00Z</time>
      </trkpt>
      <trkpt lat="48.02334" lon="7.00666">
        <ele>1286.2</ele>
        <time>2023-05-20T06:20:05Z</time>
      </trkpt>
      <trkpt lat="48.0233" lon="7.00669">
        <ele>1286.3</ele>
        <time>2023-05-20T06:20:09Z</time>
      </trkpt>
      <trkpt lat="48.02296" lon="7.00676">
        <ele>1291.6</ele>
        <time>2023-05-20T06:20:41Z</time>
      </trkpt>
      <trkpt lat="48.02291" lon="7.00678">
        <ele>1292</ele>
        <time>2023-05-20T06:20:45Z</time>
      </trkpt>
      <trkpt lat="48.02287" lon="7.00678">
        <ele>1292.6</ele>
        <time>2023-05-20T06:20:49Z</time>
      </trkpt>
      <trkpt lat="48.02282" lon="7.00679">
        <ele>1293.2</ele>
        <time>2023-05-20T06:20:53Z</time>
      </trkpt>
      <trkpt lat="48.02269" lon="7.00675">
        <ele>1296.2</ele>
        <time>2023-05-20T06:21:06Z</time>
      </trkpt>
      <trkpt lat="48.02264" lon="7.00676">
        <ele>1296.6</ele>
        <time>2023-05-20T06:21:11Z</time>
      </trkpt>
      <trkpt lat="48.0226" lon="7.00678">
        <ele>1296.7</ele>
        <time>2023-05-20T06:21:14Z</time>
      </trkpt>
      <trkpt lat="48.02255" lon="7.00678">
        <ele>1297.4</ele>
        <time>2023-05-20T06:21:18Z</time>
      </trkpt>
      <trkpt lat="48.02248" lon="7.00677">
        <ele>1298.7</ele>
        <time>2023-05-20T06:21:25Z</time>
      </trkpt>
      <trkpt lat="48.02243" lon="7.00677">
        <ele>1299.6</ele>
        <time>2023-05-20T06:21:31Z</time>
      </trkpt>
      <trkpt lat="48.02239" lon="7.00677">
        <ele>1300.3</ele>
        <time>2023-05-20T06:21:35Z</time>
      </trkpt>
      <trkpt lat="48.02234" lon="7.00677">
        <ele>1301.1</ele>
        <time>2023-05-20T06:21:39Z</time>
      </trkpt>
      <trkpt lat="48.02198" lon="7.0068">
        <ele>1307</ele>
        <time>2023-05-20T06:22:15Z</time>
      </trkpt>
      <trkpt lat="48.02192" lon="7.00682">
        <ele>1307.6</ele>
        <time>2023-05-20T06:22:20Z</time>
      </trkpt>
      <trkpt lat="48.02176" lon="7.007">
        <ele>1306.9</ele>
        <time>2023-05-20T06:22:36Z</time>
      </trkpt>
      <trkpt lat="48.02167" lon="7.00703">
        <ele>1308.1</ele>
        <time>2023-05-20T06:22:44Z</time>
      </trkpt>
      <trkpt lat="48.02161" lon="7.00708">
        <ele>1308.4</ele>
        <time>2023-05-20T06:22:51Z</time>
      </trkpt>
      <trkpt lat="48.02154" lon="7.0072">
        <ele>1308</ele>
        <time>2023-05-20T06:22:59Z</time>
      </trkpt>
      <trkpt lat="48.0215" lon="7.00725">
        <ele>1308.3</ele>
        <time>2023-05-20T06:23:04Z</time>
      </trkpt>
      <trkpt lat="48.02141" lon="7.00739">
        <ele>1308.3</ele>
        <time>2023-05-20T06:23:16Z</time>
      </trkpt>
      <trkpt lat="48.02133" lon="7.0075">
        <ele>1308.5</ele>
        <time>2023-05-20T06:23:26Z</time>
      </trkpt>
      <trkpt lat="48.02123" lon="7.00769">
        <ele>1307.7</ele>
        <time>2023-05-20T06:23:41Z</time>
      </trkpt>
      <trkpt lat="48.02115" lon="7.00787">
        <ele>1306.7</ele>
        <time>2023-05-20T06:23:54Z</time>
      </trkpt>
      <trkpt lat="48.02112" lon="7.00792">
        <ele>1306.6</ele>
        <time>2023-05-20T06:23:58Z</time>
      </trkpt>
      <trkpt lat="48.02109" lon="7.00797">
        <ele>1306.3</ele>
        <time>2023-05-20T06:24:02Z</time>
      </trkpt>
      <trkpt lat="48.02107" lon="7.00803">
        <ele>1305.4</ele>
        <time>2023-05-20T06:24:06Z</time>
      </trkpt>
      <trkpt lat="48.02087" lon="7.00836">
        <ele>1304.3</ele>
        <time>2023-05-20T06:24:30Z</time>
      </trkpt>
      <trkpt lat="48.02083" lon="7.00842">
        <ele>1304.2</ele>
        <time>2023-05-20T06:24:36Z</time>
      </trkpt>
      <trkpt lat="48.0208" lon="7.00847">
        <ele>1303.6</ele>
        <time>2023-05-20T06:24:40Z</time>
      </trkpt>
      <trkpt lat="48.02078" lon="7.00852">
        <ele>1303</ele>
        <time>2023-05-20T06:24:44Z</time>
      </trkpt>
      <trkpt lat="48.02074" lon="7.00856">
        <ele>1303</ele>
        <time>2023-05-20T06:24:48Z</time>
      </trkpt>
      <trkpt lat="48.02071" lon="7.00862">
        <ele>1302.4</ele>
        <time>2023-05-20T06:24:52Z</time>
      </trkpt>
      <trkpt lat="48.02068" lon="7.00868">
        <ele>1301.4</ele>
        <time>2023-05-20T06:24:57Z</time>
      </trkpt>
      <trkpt lat="48.02066" lon="7.00874">
        <ele>1300.4</ele>
        <time>2023-05-20T06:25:01Z</time>
      </trkpt>
      <trkpt lat="48.02064" lon="7.0088">
        <ele>1299.5</ele>
        <time>2023-05-20T06:25:05Z</time>
      </trkpt>
      <trkpt lat="48.02061" lon="7.00886">
        <ele>1299.3</ele>
        <time>2023-05-20T06:25:09Z</time>
      </trkpt>
      <trkpt lat="48.02056" lon="7.00896">
        <ele>1299.7</ele>
        <time>2023-05-20T06:25:17Z</time>
      </trkpt>
      <trkpt lat="48.02053" lon="7.00901">
        <ele>1299.6</ele>
        <time>2023-05-20T06:25:21Z</time>
      </trkpt>
      <trkpt lat="48.02046" lon="7.00919">
        <ele>1297.6</ele>
        <time>2023-05-20T06:25:34Z</time>
      </trkpt>
      <trkpt lat="48.02043" lon="7.00924">
        <ele>1296.6</ele>
        <time>2023-05-20T06:25:39Z</time>
      </trkpt>
      <trkpt lat="48.02037" lon="7.00935">
        <ele>1295.3</ele>
        <time>2023-05-20T06:25:47Z</time>
      </trkpt>
      <trkpt lat="48.02034" lon="7.00941">
        <ele>1295</ele>
        <time>2023-05-20T06:25:52Z</time>
      </trkpt>
      <trkpt lat="48.02027" lon="7.00959">
        <ele>1294.4</ele>
        <time>2023-05-20T06:26:04Z</time>
      </trkpt>
      <trkpt lat="48.02024" lon="7.00963">
        <ele>1294</ele>
        <time>2023-05-20T06:26:08Z</time>
      </trkpt>
      <trkpt lat="48.02014" lon="7.00987">
        <ele>1290.8</ele>
        <time>2023-05-20T06:26:31Z</time>
      </trkpt>
      <trkpt lat="48.02002" lon="7.01013">
        <ele>1287.9</ele>
        <time>2023-05-20T06:26:49Z</time>
      </trkpt>
      <trkpt lat="48.01998" lon="7.01024">
        <ele>1286.6</ele>
        <time>2023-05-20T06:26:57Z</time>
      </trkpt>
      <trkpt lat="48.01996" lon="7.0103">
        <ele>1285.8</ele>
        <time>2023-05-20T06:27:05Z</time>
      </trkpt>
      <trkpt lat="48.01985" lon="7.01057">
        <ele>1282.3</ele>
        <time>2023-05-20T06:27:23Z</time>
      </trkpt>
      <trkpt lat="48.0198" lon="7.01079">
        <ele>1277.9</ele>
        <time>2023-05-20T06:27:37Z</time>
      </trkpt>
      <trkpt lat="48.01977" lon="7.01085">
        <ele>1276.7</ele>
        <time>2023-05-20T06:27:41Z</time>
      </trkpt>
      <trkpt lat="48.01974" lon="7.01091">
        <ele>1275.6</ele>
        <time>2023-05-20T06:27:46Z</time>
      </trkpt>
      <trkpt lat="48.01967" lon="7.01108">
        <ele>1272.2</ele>
        <time>2023-05-20T06:27:58Z</time>
      </trkpt>
      <trkpt lat="48.01963" lon="7.01112">
        <ele>1271.1</ele>
        <time>2023-05-20T06:28:02Z</time>
      </trkpt>
      <trkpt lat="48.01956" lon="7.01122">
        <ele>1268.5</ele>
        <time>2023-05-20T06:28:10Z</time>
      </trkpt>
      <trkpt lat="48.01954" lon="7.01128">
        <ele>1267</ele>
        <time>2023-05-20T06:28:14Z</time>
      </trkpt>
      <trkpt lat="48.01951" lon="7.01134">
        <ele>1265.5</ele>
        <time>2023-05-20T06:28:18Z</time>
      </trkpt>
      <trkpt lat="48.01949" lon="7.0114">
        <ele>1264.1</ele>
        <time>2023-05-20T06:28:22Z</time>
      </trkpt>
      <trkpt lat="48.01946" lon="7.01145">
        <ele>1263</ele>
        <time>2023-05-20T06:28:26Z</time>
      </trkpt>
      <trkpt lat="48.01941" lon="7.01149">
        <ele>1261.9</ele>
        <time>2023-05-20T06:28:30Z</time>
      </trkpt>
      <trkpt lat="48.01933" lon="7.01153">
        <ele>1260.6</ele>
        <time>2023-05-20T06:28:37Z</time>
      </trkpt>
      <trkpt lat="48.01929" lon="7.01157">
        <ele>1259.6</ele>
        <time>2023-05-20T06:28:41Z</time>
      </trkpt>
      <trkpt lat="48.01924" lon="7.0116">
        <ele>1258.7</ele>
        <time>2023-05-20T06:28:45Z</time>
      </trkpt>
      <trkpt lat="48.01916" lon="7.01168">
        <ele>1256.8</ele>
        <time>2023-05-20T06:29:17Z</time>
      </trkpt>
      <trkpt lat="48.01893" lon="7.01191">
        <ele>1251.8</ele>
        <time>2023-05-20T06:29:42Z</time>
      </trkpt>
      <trkpt lat="48.01889" lon="7.01195">
        <ele>1250.9</ele>
        <time>2023-05-20T06:29:46Z</time>
      </trkpt>
      <trkpt lat="48.01881" lon="7.01204">
        <ele>1249.3</ele>
        <time>2023-05-20T06:29:56Z</time>
      </trkpt>
      <trkpt lat="48.01876" lon="7.01205">
        <ele>1248.8</ele>
        <time>2023-05-20T06:30:00Z</time>
      </trkpt>
      <trkpt lat="48.01846" lon="7.01228">
        <ele>1242.7</ele>
        <time>2023-05-20T06:30:28Z</time>
      </trkpt>
      <trkpt lat="48.01836" lon="7.01231">
        <ele>1241.3</ele>
        <time>2023-05-20T06:30:37Z</time>
      </trkpt>
      <trkpt lat="48.01808" lon="7.01276">
        <ele>1232.6</ele>
        <time>2023-05-20T06:31:12Z</time>
      </trkpt>
      <trkpt lat="48.01798" lon="7.01287">
        <ele>1229.6</ele>
        <time>2023-05-20T06:31:23Z</time>
      </trkpt>
      <trkpt lat="48.01794" lon="7.01289">
        <ele>1228.7</ele>
        <time>2023-05-20T06:31:27Z</time>
      </trkpt>
      <trkpt lat="48.0179" lon="7.01289">
        <ele>1228.1</ele>
        <time>2023-05-20T06:31:31Z</time>
      </trkpt>
      <trkpt lat="48.01782" lon="7.01295">
        <ele>1226.1</ele>
        <time>2023-05-20T06:31:40Z</time>
      </trkpt>
      <trkpt lat="48.01775" lon="7.01299">
        <ele>1224.4</ele>
        <time>2023-05-20T06:31:49Z</time>
      </trkpt>
      <trkpt lat="48.0177" lon="7.01303">
        <ele>1222.9</ele>
        <time>2023-05-20T06:31:57Z</time>
      </trkpt>
      <trkpt lat="48.01765" lon="7.01305">
        <ele>1221.8</ele>
        <time>2023-05-20T06:32:02Z</time>
      </trkpt>
      <trkpt lat="48.01761" lon="7.01308">
        <ele>1220.6</ele>
        <time>2023-05-20T06:32:06Z</time>
      </trkpt>
      <trkpt lat="48.01757" lon="7.01309">
        <ele>1219.8</ele>
        <time>2023-05-20T06:32:10Z</time>
      </trkpt>
      <trkpt lat="48.01748" lon="7.01315">
        <ele>1217.2</ele>
        <time>2023-05-20T06:32:19Z</time>
      </trkpt>
      <trkpt lat="48.0171" lon="7.01318">
        <ele>1208.6</ele>
        <time>2023-05-20T06:32:51Z</time>
      </trkpt>
      <trkpt lat="48.01706" lon="7.01316">
        <ele>1208</ele>
        <time>2023-05-20T06:32:54Z</time>
      </trkpt>
      <trkpt lat="48.01701" lon="7.01315">
        <ele>1207.1</ele>
        <time>2023-05-20T06:32:58Z</time>
      </trkpt>
      <trkpt lat="48.01673" lon="7.01316">
        <ele>1200.9</ele>
        <time>2023-05-20T06:33:27Z</time>
      </trkpt>
      <trkpt lat="48.01669" lon="7.01315">
        <ele>1200.1</ele>
        <time>2023-05-20T06:33:32Z</time>
      </trkpt>
      <trkpt lat="48.01663" lon="7.01314">
        <ele>1198.7</ele>
        <time>2023-05-20T06:33:37Z</time>
      </trkpt>
      <trkpt lat="48.01656" lon="7.0131">
        <ele>1197.3</ele>
        <time>2023-05-20T06:33:47Z</time>
      </trkpt>
      <trkpt lat="48.01651" lon="7.01308">
        <ele>1196.1</ele>
        <time>2023-05-20T06:33:52Z</time>
      </trkpt>
      <trkpt lat="48.01636" lon="7.01302">
        <ele>1192.8</ele>
        <time>2023-05-20T06:34:08Z</time>
      </trkpt>
      <trkpt lat="48.01633" lon="7.01298">
        <ele>1192.5</ele>
        <time>2023-05-20T06:34:12Z</time>
      </trkpt>
      <trkpt lat="48.01629" lon="7.01293">
        <ele>1192.2</ele>
        <time>2023-05-20T06:34:16Z</time>
      </trkpt>
      <trkpt lat="48.01625" lon="7.01293">
        <ele>1191.1</ele>
        <time>2023-05-20T06:34:21Z</time>
      </trkpt>
      <trkpt lat="48.0162" lon="7.01293">
        <ele>1189.7</ele>
        <time>2023-05-20T06:34:25Z</time>
      </trkpt>
      <trkpt lat="48.01589" lon="7.01282">
        <ele>1182.9</ele>
        <time>2023-05-20T06:34:56Z</time>
      </trkpt>
      <trkpt lat="48.01582" lon="7.0128">
        <ele>1181.3</ele>
        <time>2023-05-20T06:35:02Z</time>
      </trkpt>
      <trkpt lat="48.01578" lon="7.01276">
        <ele>1180.8</ele>
        <time>2023-05-20T06:35:07Z</time>
      </trkpt>
      <trkpt lat="48.01574" lon="7.01276">
        <ele>1179.8</ele>
        <time>2023-05-20T06:35:12Z</time>
      </trkpt>
      <trkpt lat="48.01565" lon="7.0127">
        <ele>1178.2</ele>
        <time>2023-05-20T06:35:20Z</time>
      </trkpt>
      <trkpt lat="48.01558" lon="7.01263">
        <ele>1177.2</ele>
        <time>2023-05-20T06:35:29Z</time>
      </trkpt>
      <trkpt lat="48.01548" lon="7.0126">
        <ele>1175.3</ele>
        <time>2023-05-20T06:35:37Z</time>
      </trkpt>
      <trkpt lat="48.01534" lon="7.01253">
        <ele>1173</ele>
        <time>2023-05-20T06:35:51Z</time>
      </trkpt>
      <trkpt lat="48.01529" lon="7.01253">
        <ele>1171.9</ele>
        <time>2023-05-20T06:35:55Z</time>
      </trkpt>
      <trkpt lat="48.01525" lon="7.0125">
        <ele>1171.4</ele>
        <time>2023-05-20T06:36:00Z</time>
      </trkpt>
      <trkpt lat="48.01522" lon="7.0124">
        <ele>1171.4</ele>
        <time>2023-05-20T06:36:12Z</time>
      </trkpt>
      <trkpt lat="48.01522" lon="7.01233">
        <ele>1171.8</ele>
        <time>2023-05-20T06:36:16Z</time>
      </trkpt>
      <trkpt lat="48.0152" lon="7.01226">
        <ele>1171.8</ele>
        <time>2023-05-20T06:36:20Z</time>
      </trkpt>
      <trkpt lat="48.01515" lon="7.01214">
        <ele>1170.8</ele>
        <time>2023-05-20T06:36:29Z</time>
      </trkpt>
      <trkpt lat="48.01511" lon="7.01209">
        <ele>1169.8</ele>
        <time>2023-05-20T06:36:34Z</time>
      </trkpt>
      <trkpt lat="48.01511" lon="7.01199">
        <ele>1169.8</ele>
        <time>2023-05-20T06:36:59Z</time>
      </trkpt>
      <trkpt lat="48.01511" lon="7.01192">
        <ele>1169.6</ele>
        <time>2023-05-20T06:37:03Z</time>
      </trkpt>
      <trkpt lat="48.01515" lon="7.0118">
        <ele>1170</ele>
        <time>2023-05-20T06:37:10Z</time>
      </trkpt>
      <trkpt lat="48.01527" lon="7.01158">
        <ele>1171.9</ele>
        <time>2023-05-20T06:37:26Z</time>
      </trkpt>
      <trkpt lat="48.01531" lon="7.01154">
        <ele>1172.5</ele>
        <time>2023-05-20T06:37:31Z</time>
      </trkpt>
      <trkpt lat="48.01536" lon="7.0115">
        <ele>1173.4</ele>
        <time>2023-05-20T06:37:39Z</time>
      </trkpt>
      <trkpt lat="48.0154" lon="7.01144">
        <ele>1174</ele>
        <time>2023-05-20T06:37:44Z</time>
      </trkpt>
      <trkpt lat="48.01543" lon="7.01139">
        <ele>1174.4</ele>
        <time>2023-05-20T06:37:48Z</time>
      </trkpt>
      <trkpt lat="48.01551" lon="7.0113">
        <ele>1175.4</ele>
        <time>2023-05-20T06:37:56Z</time>
      </trkpt>
      <trkpt lat="48.01554" lon="7.01125">
        <ele>1175.6</ele>
        <time>2023-05-20T06:38:00Z</time>
      </trkpt>
      <trkpt lat="48.01558" lon="7.01121">
        <ele>1176.2</ele>
        <time>2023-05-20T06:38:04Z</time>
      </trkpt>
      <trkpt lat="48.01572" lon="7.01099">
        <ele>1177.1</ele>
        <time>2023-05-20T06:38:21Z</time>
      </trkpt>
      <trkpt lat="48.0158" lon="7.01091">
        <ele>1178.3</ele>
        <time>2023-05-20T06:38:29Z</time>
      </trkpt>
      <trkpt lat="48.01589" lon="7.01074">
        <ele>1178.8</ele>
        <time>2023-05-20T06:38:41Z</time>
      </trkpt>
      <trkpt lat="48.01591" lon="7.01068">
        <ele>1178.7</ele>
        <time>2023-05-20T06:38:45Z</time>
      </trkpt>
      <trkpt lat="48.01601" lon="7.01051">
        <ele>1180.3</ele>
        <time>2023-05-20T06:38:58Z</time>
      </trkpt>
      <trkpt lat="48.01605" lon="7.01046">
        <ele>1181.2</ele>
        <time>2023-05-20T06:39:01Z</time>
      </trkpt>
      <trkpt lat="48.01609" lon="7.01037">
        <ele>1181.5</ele>
        <time>2023-05-20T06:39:08Z</time>
      </trkpt>
      <trkpt lat="48.01614" lon="7.01028">
        <ele>1182.3</ele>
        <time>2023-05-20T06:40:53Z</time>
      </trkpt>
      <trkpt lat="48.01617" lon="7.01022">
        <ele>1183</ele>
        <time>2023-05-20T06:40:57Z</time>
      </trkpt>
      <trkpt lat="48.0162" lon="7.01017">
        <ele>1183.8</ele>
        <time>2023-05-20T06:41:01Z</time>
      </trkpt>
      <trkpt lat="48.01632" lon="7.00977">
        <ele>1186.1</ele>
        <time>2023-05-20T06:41:32Z</time>
      </trkpt>
      <trkpt lat="48.01634" lon="7.00971">
        <ele>1186.8</ele>
        <time>2023-05-20T06:41:36Z</time>
      </trkpt>
      <trkpt lat="48.01635" lon="7.00923">
        <ele>1189.6</ele>
        <time>2023-05-20T06:42:07Z</time>
      </trkpt>
      <trkpt lat="48.01633" lon="7.00912">
        <ele>1188.9</ele>
        <time>2023-05-20T06:42:14Z</time>
      </trkpt>
      <trkpt lat="48.01634" lon="7.00902">
        <ele>1190.2</ele>
        <time>2023-05-20T06:42:20Z</time>
      </trkpt>
      <trkpt lat="48.01633" lon="7.0088">
        <ele>1190.7</ele>
        <time>2023-05-20T06:42:36Z</time>
      </trkpt>
      <trkpt lat="48.01634" lon="7.00873">
        <ele>1191.4</ele>
        <time>2023-05-20T06:42:40Z</time>
      </trkpt>
      <trkpt lat="48.01633" lon="7.00857">
        <ele>1191.4</ele>
        <time>2023-05-20T06:42:50Z</time>
      </trkpt>
      <trkpt lat="48.01634" lon="7.00849">
        <ele>1192.5</ele>
        <time>2023-05-20T06:42:55Z</time>
      </trkpt>
      <trkpt lat="48.01633" lon="7.00842">
        <ele>1192.6</ele>
        <time>2023-05-20T06:42:58Z</time>
      </trkpt>
      <trkpt lat="48.01634" lon="7.00836">
        <ele>1193.5</ele>
        <time>2023-05-20T06:43:02Z</time>
      </trkpt>
      <trkpt lat="48.01633" lon="7.00828">
        <ele>1193.3</ele>
        <time>2023-05-20T06:43:06Z</time>
      </trkpt>
      <trkpt lat="48.01634" lon="7.00816">
        <ele>1193.8</ele>
        <time>2023-05-20T06:43:13Z</time>
      </trkpt>
      <trkpt lat="48.01636" lon="7.0081">
        <ele>1194.7</ele>
        <time>2023-05-20T06:43:17Z</time>
      </trkpt>
      <trkpt lat="48.01636" lon="7.00803">
        <ele>1194.9</ele>
        <time>2023-05-20T06:43:21Z</time>
      </trkpt>
      <trkpt lat="48.01638" lon="7.00798">
        <ele>1195.9</ele>
        <time>2023-05-20T06:43:24Z</time>
      </trkpt>
      <trkpt lat="48.01635" lon="7.00748">
        <ele>1196.5</ele>
        <time>2023-05-20T06:43:53Z</time>
      </trkpt>
      <trkpt lat="48.01637" lon="7.00741">
        <ele>1197.6</ele>
        <time>2023-05-20T06:43:57Z</time>
      </trkpt>
      <trkpt lat="48.01635" lon="7.00728">
        <ele>1197.4</ele>
        <time>2023-05-20T06:44:05Z</time>
      </trkpt>
      <trkpt lat="48.01635" lon="7.00699">
        <ele>1197.5</ele>
        <time>2023-05-20T06:44:21Z</time>
      </trkpt>
      <trkpt lat="48.01648" lon="7.00653">
        <ele>1200.9</ele>
        <time>2023-05-20T06:44:54Z</time>
      </trkpt>
      <trkpt lat="48.01654" lon="7.00625">
        <ele>1202.1</ele>
        <time>2023-05-20T06:45:11Z</time>
      </trkpt>
      <trkpt lat="48.01657" lon="7.0062">
        <ele>1203.1</ele>
        <time>2023-05-20T06:45:16Z</time>
      </trkpt>
      <trkpt lat="48.01659" lon="7.00613">
        <ele>1203.5</ele>
        <time>2023-05-20T06:45:19Z</time>
      </trkpt>
      <trkpt lat="48.01662" lon="7.00608">
        <ele>1204.5</ele>
        <time>2023-05-20T06:45:23Z</time>
      </trkpt>
      <trkpt lat="48.01663" lon="7.00602">
        <ele>1204.3</ele>
        <time>2023-05-20T06:45:26Z</time>
      </trkpt>
      <trkpt lat="48.01665" lon="7.00589">
        <ele>1203.8</ele>
        <time>2023-05-20T06:45:34Z</time>
      </trkpt>
      <trkpt lat="48.01668" lon="7.00584">
        <ele>1204.6</ele>
        <time>2023-05-20T06:45:38Z</time>
      </trkpt>
      <trkpt lat="48.01673" lon="7.00577">
        <ele>1205.1</ele>
        <time>2023-05-20T06:45:45Z</time>
      </trkpt>
      <trkpt lat="48.01679" lon="7.00566">
        <ele>1205.1</ele>
        <time>2023-05-20T06:45:53Z</time>
      </trkpt>
      <trkpt lat="48.01687" lon="7.00557">
        <ele>1206.4</ele>
        <time>2023-05-20T06:46:01Z</time>
      </trkpt>
      <trkpt lat="48.01693" lon="7.00547">
        <ele>1206.6</ele>
        <time>2023-05-20T06:46:09Z</time>
      </trkpt>
      <trkpt lat="48.01698" lon="7.00541">
        <ele>1207.1</ele>
        <time>2023-05-20T06:46:14Z</time>
      </trkpt>
      <trkpt lat="48.01704" lon="7.00529">
        <ele>1206.7</ele>
        <time>2023-05-20T06:46:23Z</time>
      </trkpt>
      <trkpt lat="48.01712" lon="7.00522">
        <ele>1208.6</ele>
        <time>2023-05-20T06:46:30Z</time>
      </trkpt>
      <trkpt lat="48.01714" lon="7.00516">
        <ele>1208.6</ele>
        <time>2023-05-20T06:46:34Z</time>
      </trkpt>
      <trkpt lat="48.01728" lon="7.00491">
        <ele>1211.2</ele>
        <time>2023-05-20T06:46:55Z</time>
      </trkpt>
      <trkpt lat="48.01733" lon="7.00479">
        <ele>1212.2</ele>
        <time>2023-05-20T06:47:03Z</time>
      </trkpt>
      <trkpt lat="48.01734" lon="7.00471">
        <ele>1212</ele>
        <time>2023-05-20T06:47:07Z</time>
      </trkpt>
      <trkpt lat="48.0174" lon="7.00455">
        <ele>1212.8</ele>
        <time>2023-05-20T06:47:19Z</time>
      </trkpt>
      <trkpt lat="48.01743" lon="7.00446">
        <ele>1213.1</ele>
        <time>2023-05-20T06:47:25Z</time>
      </trkpt>
      <trkpt lat="48.01749" lon="7.00432">
        <ele>1215.1</ele>
        <time>2023-05-20T06:47:36Z</time>
      </trkpt>
      <trkpt lat="48.01752" lon="7.00424">
        <ele>1216.2</ele>
        <time>2023-05-20T06:47:41Z</time>
      </trkpt>
      <trkpt lat="48.01761" lon="7.00376">
        <ele>1219.3</ele>
        <time>2023-05-20T06:48:13Z</time>
      </trkpt>
      <trkpt lat="48.01771" lon="7.00337">
        <ele>1222.9</ele>
        <time>2023-05-20T06:48:37Z</time>
      </trkpt>
      <trkpt lat="48.01772" lon="7.00309">
        <ele>1224.7</ele>
        <time>2023-05-20T06:48:58Z</time>
      </trkpt>
      <trkpt lat="48.01771" lon="7.00303">
        <ele>1224.6</ele>
        <time>2023-05-20T06:49:02Z</time>
      </trkpt>
      <trkpt lat="48.01771" lon="7.00257">
        <ele>1228.3</ele>
        <time>2023-05-20T06:49:29Z</time>
      </trkpt>
      <trkpt lat="48.01774" lon="7.00254">
        <ele>1229.9</ele>
        <time>2023-05-20T06:50:07Z</time>
      </trkpt>
      <trkpt lat="48.01782" lon="7.00252">
        <ele>1233.9</ele>
        <time>2023-05-20T06:51:05Z</time>
      </trkpt>
      <trkpt lat="48.01776" lon="7.00246">
        <ele>1231.4</ele>
        <time>2023-05-20T06:52:37Z</time>
      </trkpt>
      <trkpt lat="48.01771" lon="7.0025">
        <ele>1228.6</ele>
        <time>2023-05-20T06:52:40Z</time>
      </trkpt>
      <trkpt lat="48.01787" lon="7.00249">
        <ele>1236.4</ele>
        <time>2023-05-20T06:52:53Z</time>
      </trkpt>
      <trkpt lat="48.01781" lon="7.00245">
        <ele>1233.9</ele>
        <time>2023-05-20T06:53:32Z</time>
      </trkpt>
      <trkpt lat="48.01774" lon="7.00247">
        <ele>1230.3</ele>
        <time>2023-05-20T06:53:44Z</time>
      </trkpt>
      <trkpt lat="48.01769" lon="7.00241">
        <ele>1228.3</ele>
        <time>2023-05-20T06:53:46Z</time>
      </trkpt>
      <trkpt lat="48.01765" lon="7.00226">
        <ele>1227.7</ele>
        <time>2023-05-20T06:53:52Z</time>
      </trkpt>
      <trkpt lat="48.01761" lon="7.00223">
        <ele>1226.1</ele>
        <time>2023-05-20T06:54:00Z</time>
      </trkpt>
      <trkpt lat="48.01753" lon="7.00213">
        <ele>1223.4</ele>
        <time>2023-05-20T06:54:05Z</time>
      </trkpt>
      <trkpt lat="48.01753" lon="7.00199">
        <ele>1224.9</ele>
        <time>2023-05-20T06:54:13Z</time>
      </trkpt>
      <trkpt lat="48.01747" lon="7.00197">
        <ele>1222.3</ele>
        <time>2023-05-20T06:54:16Z</time>
      </trkpt>
      <trkpt lat="48.01748" lon="7.00189">
        <ele>1223.8</ele>
        <time>2023-05-20T06:54:20Z</time>
      </trkpt>
      <trkpt lat="48.01749" lon="7.00183">
        <ele>1225.2</ele>
        <time>2023-05-20T06:54:24Z</time>
      </trkpt>
      <trkpt lat="48.01744" lon="7.00168">
        <ele>1225</ele>
        <time>2023-05-20T06:54:34Z</time>
      </trkpt>
      <trkpt lat="48.01736" lon="7.00132">
        <ele>1227.3</ele>
        <time>2023-05-20T06:54:58Z</time>
      </trkpt>
      <trkpt lat="48.01737" lon="7.00123">
        <ele>1228.9</ele>
        <time>2023-05-20T06:55:06Z</time>
      </trkpt>
      <trkpt lat="48.01734" lon="7.00118">
        <ele>1228.2</ele>
        <time>2023-05-20T06:55:10Z</time>
      </trkpt>
      <trkpt lat="48.01731" lon="7.00113">
        <ele>1227.5</ele>
        <time>2023-05-20T06:55:14Z</time>
      </trkpt>
      <trkpt lat="48.0173" lon="7.00105">
        <ele>1228</ele>
        <time>2023-05-20T06:55:17Z</time>
      </trkpt>
      <trkpt lat="48.01729" lon="7.0009">
        <ele>1229.2</ele>
        <time>2023-05-20T06:55:26Z</time>
      </trkpt>
      <trkpt lat="48.0173" lon="7.00083">
        <ele>1230.4</ele>
        <time>2023-05-20T06:55:29Z</time>
      </trkpt>
      <trkpt lat="48.01726" lon="7.00073">
        <ele>1229.7</ele>
        <time>2023-05-20T06:55:37Z</time>
      </trkpt>
      <trkpt lat="48.01725" lon="7.00065">
        <ele>1230.2</ele>
        <time>2023-05-20T06:55:42Z</time>
      </trkpt>
      <trkpt lat="48.01727" lon="7.00057">
        <ele>1231.9</ele>
        <time>2023-05-20T06:55:47Z</time>
      </trkpt>
      <trkpt lat="48.01722" lon="7.00034">
        <ele>1231.5</ele>
        <time>2023-05-20T06:55:58Z</time>
      </trkpt>
      <trkpt lat="48.01721" lon="7.00023">
        <ele>1232</ele>
        <time>2023-05-20T06:56:06Z</time>
      </trkpt>
      <trkpt lat="48.01722" lon="7.00017">
        <ele>1233.1</ele>
        <time>2023-05-20T06:56:10Z</time>
      </trkpt>
      <trkpt lat="48.01727" lon="7.00005">
        <ele>1236.4</ele>
        <time>2023-05-20T06:56:21Z</time>
      </trkpt>
      <trkpt lat="48.01726" lon="6.99969">
        <ele>1237.7</ele>
        <time>2023-05-20T06:56:42Z</time>
      </trkpt>
      <trkpt lat="48.01726" lon="6.99961">
        <ele>1238.2</ele>
        <time>2023-05-20T06:56:47Z</time>
      </trkpt>
      <trkpt lat="48.01726" lon="6.99953">
        <ele>1238.8</ele>
        <time>2023-05-20T06:56:51Z</time>
      </trkpt>
      <trkpt lat="48.01726" lon="6.9994">
        <ele>1239.5</ele>
        <time>2023-05-20T06:56:59Z</time>
      </trkpt>
      <trkpt lat="48.01726" lon="6.99924">
        <ele>1240</ele>
        <time>2023-05-20T06:57:07Z</time>
      </trkpt>
      <trkpt lat="48.01725" lon="6.99917">
        <ele>1239.9</ele>
        <time>2023-05-20T06:57:12Z</time>
      </trkpt>
      <trkpt lat="48.01727" lon="6.99902">
        <ele>1240.6</ele>
        <time>2023-05-20T06:57:20Z</time>
      </trkpt>
      <trkpt lat="48.01727" lon="6.99888">
        <ele>1240.7</ele>
        <time>2023-05-20T06:57:28Z</time>
      </trkpt>
      <trkpt lat="48.0173" lon="6.99874">
        <ele>1241.4</ele>
        <time>2023-05-20T06:57:36Z</time>
      </trkpt>
      <trkpt lat="48.01733" lon="6.99866">
        <ele>1242.4</ele>
        <time>2023-05-20T06:57:42Z</time>
      </trkpt>
      <trkpt lat="48.01733" lon="6.99859">
        <ele>1242.3</ele>
        <time>2023-05-20T06:57:46Z</time>
      </trkpt>
      <trkpt lat="48.01733" lon="6.99848">
        <ele>1242.5</ele>
        <time>2023-05-20T06:57:54Z</time>
      </trkpt>
      <trkpt lat="48.01735" lon="6.99841">
        <ele>1243.4</ele>
        <time>2023-05-20T06:57:58Z</time>
      </trkpt>
      <trkpt lat="48.01734" lon="6.99826">
        <ele>1243</ele>
        <time>2023-05-20T06:58:06Z</time>
      </trkpt>
      <trkpt lat="48.01736" lon="6.99818">
        <ele>1243.7</ele>
        <time>2023-05-20T06:58:10Z</time>
      </trkpt>
      <trkpt lat="48.01739" lon="6.99813">
        <ele>1244.8</ele>
        <time>2023-05-20T06:58:14Z</time>
      </trkpt>
      <trkpt lat="48.01742" lon="6.99808">
        <ele>1245.9</ele>
        <time>2023-05-20T06:58:18Z</time>
      </trkpt>
      <trkpt lat="48.01744" lon="6.99793">
        <ele>1245.4</ele>
        <time>2023-05-20T06:58:28Z</time>
      </trkpt>
      <trkpt lat="48.01747" lon="6.99788">
        <ele>1246</ele>
        <time>2023-05-20T06:58:32Z</time>
      </trkpt>
      <trkpt lat="48.01752" lon="6.99785">
        <ele>1247.5</ele>
        <time>2023-05-20T06:58:37Z</time>
      </trkpt>
      <trkpt lat="48.01754" lon="6.99779">
        <ele>1247.6</ele>
        <time>2023-05-20T06:58:45Z</time>
      </trkpt>
      <trkpt lat="48.01757" lon="6.99774">
        <ele>1247.8</ele>
        <time>2023-05-20T06:58:50Z</time>
      </trkpt>
      <trkpt lat="48.0176" lon="6.99768">
        <ele>1247.8</ele>
        <time>2023-05-20T06:58:55Z</time>
      </trkpt>
      <trkpt lat="48.01768" lon="6.99759">
        <ele>1249.1</ele>
        <time>2023-05-20T06:59:05Z</time>
      </trkpt>
      <trkpt lat="48.01774" lon="6.99755">
        <ele>1250.5</ele>
        <time>2023-05-20T06:59:09Z</time>
      </trkpt>
      <trkpt lat="48.01781" lon="6.99745">
        <ele>1250.8</ele>
        <time>2023-05-20T06:59:17Z</time>
      </trkpt>
      <trkpt lat="48.01784" lon="6.9974">
        <ele>1250.6</ele>
        <time>2023-05-20T06:59:21Z</time>
      </trkpt>
      <trkpt lat="48.01787" lon="6.99734">
        <ele>1250.1</ele>
        <time>2023-05-20T06:59:24Z</time>
      </trkpt>
      <trkpt lat="48.01791" lon="6.9973">
        <ele>1250.6</ele>
        <time>2023-05-20T06:59:28Z</time>
      </trkpt>
      <trkpt lat="48.01794" lon="6.99725">
        <ele>1250.5</ele>
        <time>2023-05-20T06:59:32Z</time>
      </trkpt>
      <trkpt lat="48.01798" lon="6.99721">
        <ele>1251</ele>
        <time>2023-05-20T06:59:35Z</time>
      </trkpt>
      <trkpt lat="48.01804" lon="6.99716">
        <ele>1251.9</ele>
        <time>2023-05-20T06:59:42Z</time>
      </trkpt>
      <trkpt lat="48.0181" lon="6.99705">
        <ele>1251.3</ele>
        <time>2023-05-20T06:59:51Z</time>
      </trkpt>
      <trkpt lat="48.01819" lon="6.99696">
        <ele>1252.3</ele>
        <time>2023-05-20T07:00:00Z</time>
      </trkpt>
      <trkpt lat="48.01824" lon="6.99695">
        <ele>1253.8</ele>
        <time>2023-05-20T07:00:03Z</time>
      </trkpt>
      <trkpt lat="48.01827" lon="6.99689">
        <ele>1253.6</ele>
        <time>2023-05-20T07:00:07Z</time>
      </trkpt>
      <trkpt lat="48.0183" lon="6.99683">
        <ele>1253.6</ele>
        <time>2023-05-20T07:00:12Z</time>
      </trkpt>
      <trkpt lat="48.01834" lon="6.9968">
        <ele>1254.7</ele>
        <time>2023-05-20T07:00:21Z</time>
      </trkpt>
      <trkpt lat="48.01837" lon="6.99659">
        <ele>1252.3</ele>
        <time>2023-05-20T07:00:33Z</time>
      </trkpt>
      <trkpt lat="48.01841" lon="6.99655">
        <ele>1253.5</ele>
        <time>2023-05-20T07:00:38Z</time>
      </trkpt>
      <trkpt lat="48.01846" lon="6.9965">
        <ele>1254.9</ele>
        <time>2023-05-20T07:00:45Z</time>
      </trkpt>
      <trkpt lat="48.01849" lon="6.99645">
        <ele>1255.4</ele>
        <time>2023-05-20T07:00:49Z</time>
      </trkpt>
      <trkpt lat="48.01849" lon="6.99637">
        <ele>1254</ele>
        <time>2023-05-20T07:00:55Z</time>
      </trkpt>
      <trkpt lat="48.01871" lon="6.99598">
        <ele>1256.6</ele>
        <time>2023-05-20T07:01:25Z</time>
      </trkpt>
      <trkpt lat="48.01881" lon="6.99589">
        <ele>1259.4</ele>
        <time>2023-05-20T07:01:36Z</time>
      </trkpt>
      <trkpt lat="48.01882" lon="6.99576">
        <ele>1256.5</ele>
        <time>2023-05-20T07:01:50Z</time>
      </trkpt>
      <trkpt lat="48.01889" lon="6.99566">
        <ele>1257.1</ele>
        <time>2023-05-20T07:01:58Z</time>
      </trkpt>
      <trkpt lat="48.01893" lon="6.99553">
        <ele>1255.6</ele>
        <time>2023-05-20T07:02:07Z</time>
      </trkpt>
      <trkpt lat="48.01896" lon="6.99549">
        <ele>1256.4</ele>
        <time>2023-05-20T07:02:11Z</time>
      </trkpt>
      <trkpt lat="48.019" lon="6.99545">
        <ele>1257.7</ele>
        <time>2023-05-20T07:02:13Z</time>
      </trkpt>
      <trkpt lat="48.01901" lon="6.99538">
        <ele>1256.9</ele>
        <time>2023-05-20T07:02:16Z</time>
      </trkpt>
      <trkpt lat="48.01906" lon="6.99524">
        <ele>1256.8</ele>
        <time>2023-05-20T07:02:25Z</time>
      </trkpt>
      <trkpt lat="48.01909" lon="6.99516">
        <ele>1256.5</ele>
        <time>2023-05-20T07:02:34Z</time>
      </trkpt>
      <trkpt lat="48.01909" lon="6.99509">
        <ele>1254.9</ele>
        <time>2023-05-20T07:02:38Z</time>
      </trkpt>
      <trkpt lat="48.01917" lon="6.99487">
        <ele>1252.9</ele>
        <time>2023-05-20T07:02:54Z</time>
      </trkpt>
      <trkpt lat="48.01921" lon="6.99479">
        <ele>1252.3</ele>
        <time>2023-05-20T07:03:00Z</time>
      </trkpt>
      <trkpt lat="48.01923" lon="6.99473">
        <ele>1251.4</ele>
        <time>2023-05-20T07:03:05Z</time>
      </trkpt>
      <trkpt lat="48.01925" lon="6.99466">
        <ele>1250.5</ele>
        <time>2023-05-20T07:03:10Z</time>
      </trkpt>
      <trkpt lat="48.01927" lon="6.99459">
        <ele>1249.6</ele>
        <time>2023-05-20T07:03:15Z</time>
      </trkpt>
      <trkpt lat="48.01931" lon="6.99446">
        <ele>1248.7</ele>
        <time>2023-05-20T07:03:22Z</time>
      </trkpt>
      <trkpt lat="48.01931" lon="6.99439">
        <ele>1247.6</ele>
        <time>2023-05-20T07:03:27Z</time>
      </trkpt>
      <trkpt lat="48.01929" lon="6.99425">
        <ele>1244.6</ele>
        <time>2023-05-20T07:03:38Z</time>
      </trkpt>
      <trkpt lat="48.01929" lon="6.99418">
        <ele>1243.7</ele>
        <time>2023-05-20T07:03:42Z</time>
      </trkpt>
      <trkpt lat="48.01935" lon="6.99413">
        <ele>1246.8</ele>
        <time>2023-05-20T07:03:47Z</time>
      </trkpt>
      <trkpt lat="48.01935" lon="6.99406">
        <ele>1245.9</ele>
        <time>2023-05-20T07:03:51Z</time>
      </trkpt>
      <trkpt lat="48.01937" lon="6.99397">
        <ele>1246</ele>
        <time>2023-05-20T07:03:56Z</time>
      </trkpt>
      <trkpt lat="48.0194" lon="6.99383">
        <ele>1245.5</ele>
        <time>2023-05-20T07:04:03Z</time>
      </trkpt>
      <trkpt lat="48.01939" lon="6.99377">
        <ele>1243.8</ele>
        <time>2023-05-20T07:04:07Z</time>
      </trkpt>
      <trkpt lat="48.01947" lon="6.99355">
        <ele>1243.9</ele>
        <time>2023-05-20T07:04:21Z</time>
      </trkpt>
      <trkpt lat="48.01948" lon="6.99347">
        <ele>1243.8</ele>
        <time>2023-05-20T07:04:23Z</time>
      </trkpt>
      <trkpt lat="48.01951" lon="6.99339">
        <ele>1244.6</ele>
        <time>2023-05-20T07:04:27Z</time>
      </trkpt>
      <trkpt lat="48.0195" lon="6.99326">
        <ele>1243.8</ele>
        <time>2023-05-20T07:04:34Z</time>
      </trkpt>
      <trkpt lat="48.01949" lon="6.9932">
        <ele>1243.5</ele>
        <time>2023-05-20T07:04:38Z</time>
      </trkpt>
      <trkpt lat="48.01949" lon="6.99301">
        <ele>1244.2</ele>
        <time>2023-05-20T07:04:51Z</time>
      </trkpt>
      <trkpt lat="48.01946" lon="6.99292">
        <ele>1244</ele>
        <time>2023-05-20T07:05:00Z</time>
      </trkpt>
      <trkpt lat="48.01945" lon="6.99285">
        <ele>1244.4</ele>
        <time>2023-05-20T07:05:04Z</time>
      </trkpt>
      <trkpt lat="48.01945" lon="6.99278">
        <ele>1245.2</ele>
        <time>2023-05-20T07:05:08Z</time>
      </trkpt>
      <trkpt lat="48.01951" lon="6.99258">
        <ele>1246.6</ele>
        <time>2023-05-20T07:05:20Z</time>
      </trkpt>
      <trkpt lat="48.01948" lon="6.99251">
        <ele>1245.3</ele>
        <time>2023-05-20T07:05:25Z</time>
      </trkpt>
      <trkpt lat="48.01945" lon="6.99243">
        <ele>1246.4</ele>
        <time>2023-05-20T07:05:28Z</time>
      </trkpt>
      <trkpt lat="48.01938" lon="6.99237">
        <ele>1247.3</ele>
        <time>2023-05-20T07:05:37Z</time>
      </trkpt>
      <trkpt lat="48.01928" lon="6.99229">
        <ele>1248.7</ele>
        <time>2023-05-20T07:05:51Z</time>
      </trkpt>
      <trkpt lat="48.01924" lon="6.99227">
        <ele>1249</ele>
        <time>2023-05-20T07:05:59Z</time>
      </trkpt>
      <trkpt lat="48.01919" lon="6.99227">
        <ele>1248.4</ele>
        <time>2023-05-20T07:06:05Z</time>
      </trkpt>
      <trkpt lat="48.01915" lon="6.99223">
        <ele>1249</ele>
        <time>2023-05-20T07:06:09Z</time>
      </trkpt>
      <trkpt lat="48.01914" lon="6.99216">
        <ele>1250.6</ele>
        <time>2023-05-20T07:06:12Z</time>
      </trkpt>
      <trkpt lat="48.0191" lon="6.99211">
        <ele>1250.5</ele>
        <time>2023-05-20T07:06:16Z</time>
      </trkpt>
      <trkpt lat="48.01906" lon="6.9921">
        <ele>1249.4</ele>
        <time>2023-05-20T07:06:19Z</time>
      </trkpt>
      <trkpt lat="48.019" lon="6.99201">
        <ele>1250.1</ele>
        <time>2023-05-20T07:06:27Z</time>
      </trkpt>
      <trkpt lat="48.01897" lon="6.99185">
        <ele>1251.9</ele>
        <time>2023-05-20T07:06:36Z</time>
      </trkpt>
      <trkpt lat="48.01899" lon="6.99171">
        <ele>1253.4</ele>
        <time>2023-05-20T07:06:44Z</time>
      </trkpt>
      <trkpt lat="48.01896" lon="6.99167">
        <ele>1252.5</ele>
        <time>2023-05-20T07:06:47Z</time>
      </trkpt>
      <trkpt lat="48.01894" lon="6.99157">
        <ele>1252.2</ele>
        <time>2023-05-20T07:06:53Z</time>
      </trkpt>
      <trkpt lat="48.01891" lon="6.99151">
        <ele>1251.3</ele>
        <time>2023-05-20T07:06:57Z</time>
      </trkpt>
      <trkpt lat="48.01888" lon="6.99146">
        <ele>1250.4</ele>
        <time>2023-05-20T07:07:02Z</time>
      </trkpt>
      <trkpt lat="48.01886" lon="6.99137">
        <ele>1250</ele>
        <time>2023-05-20T07:07:08Z</time>
      </trkpt>
      <trkpt lat="48.01881" lon="6.99134">
        <ele>1248.3</ele>
        <time>2023-05-20T07:07:13Z</time>
      </trkpt>
      <trkpt lat="48.01878" lon="6.99128">
        <ele>1247.4</ele>
        <time>2023-05-20T07:07:16Z</time>
      </trkpt>
      <trkpt lat="48.01881" lon="6.99122">
        <ele>1248.5</ele>
        <time>2023-05-20T07:07:19Z</time>
      </trkpt>
      <trkpt lat="48.01881" lon="6.99107">
        <ele>1248.7</ele>
        <time>2023-05-20T07:07:26Z</time>
      </trkpt>
      <trkpt lat="48.0188" lon="6.99101">
        <ele>1248.4</ele>
        <time>2023-05-20T07:07:30Z</time>
      </trkpt>
      <trkpt lat="48.01871" lon="6.99069">
        <ele>1247.3</ele>
        <time>2023-05-20T07:07:47Z</time>
      </trkpt>
      <trkpt lat="48.01871" lon="6.99061">
        <ele>1247.6</ele>
        <time>2023-05-20T07:07:50Z</time>
      </trkpt>
      <trkpt lat="48.01868" lon="6.99047">
        <ele>1247.2</ele>
        <time>2023-05-20T07:07:57Z</time>
      </trkpt>
      <trkpt lat="48.01867" lon="6.9904">
        <ele>1247.1</ele>
        <time>2023-05-20T07:08:01Z</time>
      </trkpt>
      <trkpt lat="48.01853" lon="6.98989">
        <ele>1244.3</ele>
        <time>2023-05-20T07:08:29Z</time>
      </trkpt>
      <trkpt lat="48.01851" lon="6.98982">
        <ele>1243.8</ele>
        <time>2023-05-20T07:08:32Z</time>
      </trkpt>
      <trkpt lat="48.01849" lon="6.98976">
        <ele>1243.3</ele>
        <time>2023-05-20T07:08:36Z</time>
      </trkpt>
      <trkpt lat="48.01848" lon="6.9897">
        <ele>1243</ele>
        <time>2023-05-20T07:08:40Z</time>
      </trkpt>
      <trkpt lat="48.01844" lon="6.98957">
        <ele>1242</ele>
        <time>2023-05-20T07:08:49Z</time>
      </trkpt>
      <trkpt lat="48.01845" lon="6.98949">
        <ele>1241.8</ele>
        <time>2023-05-20T07:08:53Z</time>
      </trkpt>
      <trkpt lat="48.01842" lon="6.98943">
        <ele>1241.2</ele>
        <time>2023-05-20T07:08:58Z</time>
      </trkpt>
      <trkpt lat="48.01834" lon="6.98936">
        <ele>1239.8</ele>
        <time>2023-05-20T07:09:06Z</time>
      </trkpt>
      <trkpt lat="48.01832" lon="6.98931">
        <ele>1239.3</ele>
        <time>2023-05-20T07:09:10Z</time>
      </trkpt>
      <trkpt lat="48.01807" lon="6.98905">
        <ele>1234.3</ele>
        <time>2023-05-20T07:09:38Z</time>
      </trkpt>
      <trkpt lat="48.01797" lon="6.98901">
        <ele>1232.5</ele>
        <time>2023-05-20T07:09:48Z</time>
      </trkpt>
      <trkpt lat="48.01789" lon="6.98893">
        <ele>1230.8</ele>
        <time>2023-05-20T07:09:56Z</time>
      </trkpt>
      <trkpt lat="48.01786" lon="6.98888">
        <ele>1230.1</ele>
        <time>2023-05-20T07:10:00Z</time>
      </trkpt>
      <trkpt lat="48.01778" lon="6.9888">
        <ele>1228.7</ele>
        <time>2023-05-20T07:10:08Z</time>
      </trkpt>
      <trkpt lat="48.01769" lon="6.98875">
        <ele>1227.2</ele>
        <time>2023-05-20T07:10:17Z</time>
      </trkpt>
      <trkpt lat="48.01762" lon="6.98866">
        <ele>1225.9</ele>
        <time>2023-05-20T07:10:26Z</time>
      </trkpt>
      <trkpt lat="48.01758" lon="6.98863">
        <ele>1225.2</ele>
        <time>2023-05-20T07:10:30Z</time>
      </trkpt>
      <trkpt lat="48.01749" lon="6.98852">
        <ele>1222.9</ele>
        <time>2023-05-20T07:10:40Z</time>
      </trkpt>
      <trkpt lat="48.01744" lon="6.98851">
        <ele>1222.3</ele>
        <time>2023-05-20T07:10:45Z</time>
      </trkpt>
      <trkpt lat="48.01739" lon="6.98844">
        <ele>1221</ele>
        <time>2023-05-20T07:10:53Z</time>
      </trkpt>
      <trkpt lat="48.01734" lon="6.98841">
        <ele>1220.1</ele>
        <time>2023-05-20T07:10:58Z</time>
      </trkpt>
      <trkpt lat="48.01728" lon="6.98833">
        <ele>1218.6</ele>
        <time>2023-05-20T07:11:07Z</time>
      </trkpt>
      <trkpt lat="48.01729" lon="6.98823">
        <ele>1218.2</ele>
        <time>2023-05-20T07:11:22Z</time>
      </trkpt>
      <trkpt lat="48.01729" lon="6.98816">
        <ele>1217.8</ele>
        <time>2023-05-20T07:11:28Z</time>
      </trkpt>
      <trkpt lat="48.01729" lon="6.98809">
        <ele>1217.4</ele>
        <time>2023-05-20T07:11:33Z</time>
      </trkpt>
      <trkpt lat="48.01731" lon="6.98802">
        <ele>1217.1</ele>
        <time>2023-05-20T07:11:37Z</time>
      </trkpt>
      <trkpt lat="48.01734" lon="6.98789">
        <ele>1216.2</ele>
        <time>2023-05-20T07:11:46Z</time>
      </trkpt>
      <trkpt lat="48.01736" lon="6.98775">
        <ele>1215.3</ele>
        <time>2023-05-20T07:11:55Z</time>
      </trkpt>
      <trkpt lat="48.01741" lon="6.98763">
        <ele>1214.6</ele>
        <time>2023-05-20T07:12:04Z</time>
      </trkpt>
      <trkpt lat="48.01745" lon="6.98759">
        <ele>1214.5</ele>
        <time>2023-05-20T07:12:09Z</time>
      </trkpt>
      <trkpt lat="48.0175" lon="6.98752">
        <ele>1214.1</ele>
        <time>2023-05-20T07:12:17Z</time>
      </trkpt>
      <trkpt lat="48.0175" lon="6.98743">
        <ele>1213.7</ele>
        <time>2023-05-20T07:12:24Z</time>
      </trkpt>
      <trkpt lat="48.0175" lon="6.98715">
        <ele>1212.5</ele>
        <time>2023-05-20T07:12:40Z</time>
      </trkpt>
      <trkpt lat="48.01749" lon="6.98709">
        <ele>1212</ele>
        <time>2023-05-20T07:12:44Z</time>
      </trkpt>
      <trkpt lat="48.01748" lon="6.98701">
        <ele>1211.4</ele>
        <time>2023-05-20T07:12:48Z</time>
      </trkpt>
      <trkpt lat="48.01752" lon="6.98688">
        <ele>1210.5</ele>
        <time>2023-05-20T07:13:00Z</time>
      </trkpt>
      <trkpt lat="48.01756" lon="6.98684">
        <ele>1210.2</ele>
        <time>2023-05-20T07:13:12Z</time>
      </trkpt>
      <trkpt lat="48.01756" lon="6.9868">
        <ele>1209.8</ele>
        <time>2023-05-20T07:51:44Z</time>
      </trkpt>
      <trkpt lat="48.01756" lon="6.9868">
        <ele>1209.8</ele>
        <time>2023-05-20T07:51:45Z</time>
      </trkpt>
      <trkpt lat="48.01751" lon="6.98682">
        <ele>1210.1</ele>
        <time>2023-05-20T07:51:51Z</time>
      </trkpt>
      <trkpt lat="48.01746" lon="6.98681">
        <ele>1209.9</ele>
        <time>2023-05-20T07:51:56Z</time>
      </trkpt>
      <trkpt lat="48.0174" lon="6.98681">
        <ele>1209.7</ele>
        <time>2023-05-20T07:52:03Z</time>
      </trkpt>
      <trkpt lat="48.01736" lon="6.98686">
        <ele>1209.9</ele>
        <time>2023-05-20T07:52:08Z</time>
      </trkpt>
      <trkpt lat="48.01736" lon="6.98693">
        <ele>1210.4</ele>
        <time>2023-05-20T07:52:12Z</time>
      </trkpt>
      <trkpt lat="48.0174" lon="6.98698">
        <ele>1210.8</ele>
        <time>2023-05-20T07:52:17Z</time>
      </trkpt>
      <trkpt lat="48.01745" lon="6.987">
        <ele>1211.2</ele>
        <time>2023-05-20T07:52:22Z</time>
      </trkpt>
      <trkpt lat="48.01746" lon="6.98707">
        <ele>1211.7</ele>
        <time>2023-05-20T07:52:26Z</time>
      </trkpt>
      <trkpt lat="48.01748" lon="6.9872">
        <ele>1212.7</ele>
        <time>2023-05-20T07:52:35Z</time>
      </trkpt>
      <trkpt lat="48.01748" lon="6.98728">
        <ele>1213.1</ele>
        <time>2023-05-20T07:52:40Z</time>
      </trkpt>
      <trkpt lat="48.01752" lon="6.9874">
        <ele>1213.8</ele>
        <time>2023-05-20T07:52:47Z</time>
      </trkpt>
      <trkpt lat="48.01753" lon="6.98747">
        <ele>1214.1</ele>
        <time>2023-05-20T07:52:51Z</time>
      </trkpt>
      <trkpt lat="48.0175" lon="6.98752">
        <ele>1214.1</ele>
        <time>2023-05-20T07:52:55Z</time>
      </trkpt>
      <trkpt lat="48.01747" lon="6.98758">
        <ele>1214.5</ele>
        <time>2023-05-20T07:52:59Z</time>
      </trkpt>
      <trkpt lat="48.01736" lon="6.9876">
        <ele>1214.2</ele>
        <time>2023-05-20T07:53:10Z</time>
      </trkpt>
      <trkpt lat="48.01731" lon="6.98763">
        <ele>1214.3</ele>
        <time>2023-05-20T07:53:14Z</time>
      </trkpt>
      <trkpt lat="48.01723" lon="6.98767">
        <ele>1214.3</ele>
        <time>2023-05-20T07:53:21Z</time>
      </trkpt>
      <trkpt lat="48.01719" lon="6.98767">
        <ele>1214.1</ele>
        <time>2023-05-20T07:53:25Z</time>
      </trkpt>
      <trkpt lat="48.0171" lon="6.98771">
        <ele>1214.1</ele>
        <time>2023-05-20T07:53:32Z</time>
      </trkpt>
      <trkpt lat="48.01705" lon="6.98773">
        <ele>1214</ele>
        <time>2023-05-20T07:53:36Z</time>
      </trkpt>
      <trkpt lat="48.01689" lon="6.98777">
        <ele>1214.1</ele>
        <time>2023-05-20T07:53:49Z</time>
      </trkpt>
      <trkpt lat="48.01684" lon="6.98775">
        <ele>1214.1</ele>
        <time>2023-05-20T07:53:53Z</time>
      </trkpt>
      <trkpt lat="48.0168" lon="6.98771">
        <ele>1213.9</ele>
        <time>2023-05-20T07:53:57Z</time>
      </trkpt>
      <trkpt lat="48.01656" lon="6.98732">
        <ele>1210.2</ele>
        <time>2023-05-20T07:54:25Z</time>
      </trkpt>
      <trkpt lat="48.01651" lon="6.9872">
        <ele>1209.2</ele>
        <time>2023-05-20T07:54:33Z</time>
      </trkpt>
      <trkpt lat="48.01644" lon="6.98712">
        <ele>1208.4</ele>
        <time>2023-05-20T07:54:39Z</time>
      </trkpt>
      <trkpt lat="48.01635" lon="6.98694">
        <ele>1206.8</ele>
        <time>2023-05-20T07:54:50Z</time>
      </trkpt>
      <trkpt lat="48.01632" lon="6.98689">
        <ele>1206.3</ele>
        <time>2023-05-20T07:54:53Z</time>
      </trkpt>
      <trkpt lat="48.01627" lon="6.98685">
        <ele>1206</ele>
        <time>2023-05-20T07:54:57Z</time>
      </trkpt>
      <trkpt lat="48.01624" lon="6.98679">
        <ele>1205.7</ele>
        <time>2023-05-20T07:55:01Z</time>
      </trkpt>
      <trkpt lat="48.01622" lon="6.98672">
        <ele>1205.4</ele>
        <time>2023-05-20T07:55:05Z</time>
      </trkpt>
      <trkpt lat="48.01613" lon="6.98664">
        <ele>1205.6</ele>
        <time>2023-05-20T07:55:13Z</time>
      </trkpt>
      <trkpt lat="48.0161" lon="6.98657">
        <ele>1205.1</ele>
        <time>2023-05-20T07:55:17Z</time>
      </trkpt>
      <trkpt lat="48.01609" lon="6.98643">
        <ele>1203.6</ele>
        <time>2023-05-20T07:55:25Z</time>
      </trkpt>
      <trkpt lat="48.01605" lon="6.98631">
        <ele>1201.6</ele>
        <time>2023-05-20T07:55:33Z</time>
      </trkpt>
      <trkpt lat="48.01597" lon="6.9862">
        <ele>1199.8</ele>
        <time>2023-05-20T07:55:45Z</time>
      </trkpt>
      <trkpt lat="48.0159" lon="6.98618">
        <ele>1199.8</ele>
        <time>2023-05-20T07:55:56Z</time>
      </trkpt>
      <trkpt lat="48.01585" lon="6.98618">
        <ele>1200.1</ele>
        <time>2023-05-20T07:56:00Z</time>
      </trkpt>
      <trkpt lat="48.01581" lon="6.98616">
        <ele>1199.9</ele>
        <time>2023-05-20T07:56:03Z</time>
      </trkpt>
      <trkpt lat="48.01571" lon="6.98613">
        <ele>1199.3</ele>
        <time>2023-05-20T07:56:11Z</time>
      </trkpt>
      <trkpt lat="48.01566" lon="6.98612">
        <ele>1199.1</ele>
        <time>2023-05-20T07:56:15Z</time>
      </trkpt>
      <trkpt lat="48.01561" lon="6.98612">
        <ele>1199.1</ele>
        <time>2023-05-20T07:56:19Z</time>
      </trkpt>
      <trkpt lat="48.01547" lon="6.98611">
        <ele>1198.1</ele>
        <time>2023-05-20T07:56:32Z</time>
      </trkpt>
      <trkpt lat="48.01543" lon="6.98607">
        <ele>1197.1</ele>
        <time>2023-05-20T07:56:37Z</time>
      </trkpt>
      <trkpt lat="48.01529" lon="6.98592">
        <ele>1194.7</ele>
        <time>2023-05-20T07:56:50Z</time>
      </trkpt>
      <trkpt lat="48.01525" lon="6.98588">
        <ele>1194.2</ele>
        <time>2023-05-20T07:56:54Z</time>
      </trkpt>
      <trkpt lat="48.01515" lon="6.98585">
        <ele>1193.5</ele>
        <time>2023-05-20T07:57:02Z</time>
      </trkpt>
      <trkpt lat="48.01499" lon="6.98566">
        <ele>1191.8</ele>
        <time>2023-05-20T07:57:18Z</time>
      </trkpt>
      <trkpt lat="48.01494" lon="6.98564">
        <ele>1191.8</ele>
        <time>2023-05-20T07:57:22Z</time>
      </trkpt>
      <trkpt lat="48.01484" lon="6.9856">
        <ele>1192.2</ele>
        <time>2023-05-20T07:57:30Z</time>
      </trkpt>
      <trkpt lat="48.0148" lon="6.98555">
        <ele>1192.4</ele>
        <time>2023-05-20T07:57:34Z</time>
      </trkpt>
      <trkpt lat="48.01471" lon="6.98547">
        <ele>1192.9</ele>
        <time>2023-05-20T07:57:42Z</time>
      </trkpt>
      <trkpt lat="48.01461" lon="6.98542">
        <ele>1194.3</ele>
        <time>2023-05-20T07:57:50Z</time>
      </trkpt>
      <trkpt lat="48.01453" lon="6.98534">
        <ele>1195.1</ele>
        <time>2023-05-20T07:57:59Z</time>
      </trkpt>
      <trkpt lat="48.01442" lon="6.98519">
        <ele>1195.9</ele>
        <time>2023-05-20T07:58:11Z</time>
      </trkpt>
      <trkpt lat="48.01438" lon="6.98515">
        <ele>1196.5</ele>
        <time>2023-05-20T07:58:14Z</time>
      </trkpt>
      <trkpt lat="48.01433" lon="6.98514">
        <ele>1197.5</ele>
        <time>2023-05-20T07:58:18Z</time>
      </trkpt>
      <trkpt lat="48.01428" lon="6.98508">
        <ele>1198.1</ele>
        <time>2023-05-20T07:58:25Z</time>
      </trkpt>
      <trkpt lat="48.01417" lon="6.98505">
        <ele>1200.3</ele>
        <time>2023-05-20T07:58:39Z</time>
      </trkpt>
      <trkpt lat="48.01413" lon="6.98499">
        <ele>1200.4</ele>
        <time>2023-05-20T07:58:45Z</time>
      </trkpt>
      <trkpt lat="48.01397" lon="6.98488">
        <ele>1201.8</ele>
        <time>2023-05-20T07:58:59Z</time>
      </trkpt>
      <trkpt lat="48.01392" lon="6.98489">
        <ele>1202.7</ele>
        <time>2023-05-20T07:59:03Z</time>
      </trkpt>
      <trkpt lat="48.0138" lon="6.98478">
        <ele>1204.3</ele>
        <time>2023-05-20T07:59:14Z</time>
      </trkpt>
      <trkpt lat="48.01377" lon="6.98475">
        <ele>1204.7</ele>
        <time>2023-05-20T07:59:18Z</time>
      </trkpt>
      <trkpt lat="48.01374" lon="6.9847">
        <ele>1205.1</ele>
        <time>2023-05-20T07:59:21Z</time>
      </trkpt>
      <trkpt lat="48.0137" lon="6.98463">
        <ele>1205.6</ele>
        <time>2023-05-20T07:59:28Z</time>
      </trkpt>
      <trkpt lat="48.01365" lon="6.9845">
        <ele>1206.2</ele>
        <time>2023-05-20T07:59:37Z</time>
      </trkpt>
      <trkpt lat="48.01349" lon="6.98432">
        <ele>1208.5</ele>
        <time>2023-05-20T07:59:54Z</time>
      </trkpt>
      <trkpt lat="48.01343" lon="6.98428">
        <ele>1209.4</ele>
        <time>2023-05-20T07:59:58Z</time>
      </trkpt>
      <trkpt lat="48.01337" lon="6.98421">
        <ele>1209.8</ele>
        <time>2023-05-20T08:00:06Z</time>
      </trkpt>
      <trkpt lat="48.01334" lon="6.98414">
        <ele>1209.4</ele>
        <time>2023-05-20T08:00:10Z</time>
      </trkpt>
      <trkpt lat="48.0133" lon="6.9841">
        <ele>1209.7</ele>
        <time>2023-05-20T08:00:14Z</time>
      </trkpt>
      <trkpt lat="48.01326" lon="6.98409">
        <ele>1210.5</ele>
        <time>2023-05-20T08:00:18Z</time>
      </trkpt>
      <trkpt lat="48.01317" lon="6.98401">
        <ele>1211.6</ele>
        <time>2023-05-20T08:00:26Z</time>
      </trkpt>
      <trkpt lat="48.01311" lon="6.984">
        <ele>1213.1</ele>
        <time>2023-05-20T08:00:34Z</time>
      </trkpt>
      <trkpt lat="48.01296" lon="6.98384">
        <ele>1214.7</ele>
        <time>2023-05-20T08:00:49Z</time>
      </trkpt>
      <trkpt lat="48.01292" lon="6.98381">
        <ele>1215.3</ele>
        <time>2023-05-20T08:00:54Z</time>
      </trkpt>
      <trkpt lat="48.01285" lon="6.98376">
        <ele>1216.3</ele>
        <time>2023-05-20T08:01:00Z</time>
      </trkpt>
      <trkpt lat="48.01277" lon="6.98367">
        <ele>1217</ele>
        <time>2023-05-20T08:01:07Z</time>
      </trkpt>
      <trkpt lat="48.01272" lon="6.98362">
        <ele>1217.6</ele>
        <time>2023-05-20T08:01:11Z</time>
      </trkpt>
      <trkpt lat="48.01269" lon="6.98356">
        <ele>1217.5</ele>
        <time>2023-05-20T08:01:15Z</time>
      </trkpt>
      <trkpt lat="48.01246" lon="6.98333">
        <ele>1221</ele>
        <time>2023-05-20T08:01:40Z</time>
      </trkpt>
      <trkpt lat="48.01231" lon="6.98298">
        <ele>1221.1</ele>
        <time>2023-05-20T08:02:01Z</time>
      </trkpt>
      <trkpt lat="48.01226" lon="6.98294">
        <ele>1222.4</ele>
        <time>2023-05-20T08:02:05Z</time>
      </trkpt>
      <trkpt lat="48.01207" lon="6.98248">
        <ele>1224.9</ele>
        <time>2023-05-20T08:02:37Z</time>
      </trkpt>
      <trkpt lat="48.01204" lon="6.98235">
        <ele>1224.5</ele>
        <time>2023-05-20T08:02:45Z</time>
      </trkpt>
      <trkpt lat="48.012" lon="6.98227">
        <ele>1225.5</ele>
        <time>2023-05-20T08:02:52Z</time>
      </trkpt>
      <trkpt lat="48.01188" lon="6.98201">
        <ele>1227.7</ele>
        <time>2023-05-20T08:03:07Z</time>
      </trkpt>
      <trkpt lat="48.01184" lon="6.98197">
        <ele>1229.1</ele>
        <time>2023-05-20T08:03:10Z</time>
      </trkpt>
      <trkpt lat="48.0118" lon="6.98194">
        <ele>1230.7</ele>
        <time>2023-05-20T08:03:14Z</time>
      </trkpt>
      <trkpt lat="48.01178" lon="6.98179">
        <ele>1229.4</ele>
        <time>2023-05-20T08:03:23Z</time>
      </trkpt>
      <trkpt lat="48.01174" lon="6.98172">
        <ele>1230.6</ele>
        <time>2023-05-20T08:03:29Z</time>
      </trkpt>
      <trkpt lat="48.0117" lon="6.98159">
        <ele>1230.3</ele>
        <time>2023-05-20T08:03:37Z</time>
      </trkpt>
      <trkpt lat="48.01163" lon="6.9815">
        <ele>1232.3</ele>
        <time>2023-05-20T08:03:45Z</time>
      </trkpt>
      <trkpt lat="48.01161" lon="6.98144">
        <ele>1232.1</ele>
        <time>2023-05-20T08:03:49Z</time>
      </trkpt>
      <trkpt lat="48.01158" lon="6.98139">
        <ele>1232.7</ele>
        <time>2023-05-20T08:03:52Z</time>
      </trkpt>
      <trkpt lat="48.01152" lon="6.98129">
        <ele>1234</ele>
        <time>2023-05-20T08:04:00Z</time>
      </trkpt>
      <trkpt lat="48.01148" lon="6.98124">
        <ele>1235.4</ele>
        <time>2023-05-20T08:04:04Z</time>
      </trkpt>
      <trkpt lat="48.01146" lon="6.98118">
        <ele>1235.6</ele>
        <time>2023-05-20T08:04:07Z</time>
      </trkpt>
      <trkpt lat="48.01141" lon="6.98105">
        <ele>1236.3</ele>
        <time>2023-05-20T08:04:16Z</time>
      </trkpt>
      <trkpt lat="48.01123" lon="6.98076">
        <ele>1240</ele>
        <time>2023-05-20T08:04:40Z</time>
      </trkpt>
      <trkpt lat="48.01116" lon="6.98059">
        <ele>1240.7</ele>
        <time>2023-05-20T08:04:51Z</time>
      </trkpt>
      <trkpt lat="48.01113" lon="6.98053">
        <ele>1241.4</ele>
        <time>2023-05-20T08:04:55Z</time>
      </trkpt>
      <trkpt lat="48.01108" lon="6.98039">
        <ele>1241.7</ele>
        <time>2023-05-20T08:05:05Z</time>
      </trkpt>
      <trkpt lat="48.01102" lon="6.98027">
        <ele>1242.8</ele>
        <time>2023-05-20T08:05:12Z</time>
      </trkpt>
      <trkpt lat="48.011" lon="6.98021">
        <ele>1242.5</ele>
        <time>2023-05-20T08:05:16Z</time>
      </trkpt>
      <trkpt lat="48.01098" lon="6.98011">
        <ele>1241.5</ele>
        <time>2023-05-20T08:05:22Z</time>
      </trkpt>
      <trkpt lat="48.01095" lon="6.98005">
        <ele>1241.8</ele>
        <time>2023-05-20T08:05:26Z</time>
      </trkpt>
      <trkpt lat="48.01088" lon="6.97995">
        <ele>1243.2</ele>
        <time>2023-05-20T08:05:35Z</time>
      </trkpt>
      <trkpt lat="48.01085" lon="6.97988">
        <ele>1243.1</ele>
        <time>2023-05-20T08:05:39Z</time>
      </trkpt>
      <trkpt lat="48.01083" lon="6.97983">
        <ele>1242.9</ele>
        <time>2023-05-20T08:05:42Z</time>
      </trkpt>
      <trkpt lat="48.01068" lon="6.97966">
        <ele>1243</ele>
        <time>2023-05-20T08:05:57Z</time>
      </trkpt>
      <trkpt lat="48.01057" lon="6.97962">
        <ele>1245</ele>
        <time>2023-05-20T08:06:08Z</time>
      </trkpt>
      <trkpt lat="48.01053" lon="6.9796">
        <ele>1245.4</ele>
        <time>2023-05-20T08:06:13Z</time>
      </trkpt>
      <trkpt lat="48.0105" lon="6.97954">
        <ele>1243.9</ele>
        <time>2023-05-20T08:06:17Z</time>
      </trkpt>
      <trkpt lat="48.01045" lon="6.97951">
        <ele>1245.1</ele>
        <time>2023-05-20T08:06:22Z</time>
      </trkpt>
      <trkpt lat="48.01042" lon="6.97946">
        <ele>1244.9</ele>
        <time>2023-05-20T08:06:25Z</time>
      </trkpt>
      <trkpt lat="48.0104" lon="6.97923">
        <ele>1242.6</ele>
        <time>2023-05-20T08:07:22Z</time>
      </trkpt>
      <trkpt lat="48.01038" lon="6.97917">
        <ele>1243.3</ele>
        <time>2023-05-20T08:07:28Z</time>
      </trkpt>
      <trkpt lat="48.01037" lon="6.9791">
        <ele>1242.8</ele>
        <time>2023-05-20T08:07:33Z</time>
      </trkpt>
      <trkpt lat="48.01035" lon="6.97904">
        <ele>1243.2</ele>
        <time>2023-05-20T08:07:37Z</time>
      </trkpt>
      <trkpt lat="48.0103" lon="6.97884">
        <ele>1242.3</ele>
        <time>2023-05-20T08:07:47Z</time>
      </trkpt>
      <trkpt lat="48.01028" lon="6.97879">
        <ele>1242.4</ele>
        <time>2023-05-20T08:07:51Z</time>
      </trkpt>
      <trkpt lat="48.01025" lon="6.97871">
        <ele>1242.1</ele>
        <time>2023-05-20T08:07:55Z</time>
      </trkpt>
      <trkpt lat="48.01022" lon="6.97865">
        <ele>1242.3</ele>
        <time>2023-05-20T08:07:58Z</time>
      </trkpt>
      <trkpt lat="48.01018" lon="6.9785">
        <ele>1241.4</ele>
        <time>2023-05-20T08:08:07Z</time>
      </trkpt>
      <trkpt lat="48.01016" lon="6.97843">
        <ele>1241.1</ele>
        <time>2023-05-20T08:08:11Z</time>
      </trkpt>
      <trkpt lat="48.01011" lon="6.9783">
        <ele>1241.4</ele>
        <time>2023-05-20T08:08:19Z</time>
      </trkpt>
      <trkpt lat="48.01008" lon="6.97825">
        <ele>1242</ele>
        <time>2023-05-20T08:08:23Z</time>
      </trkpt>
      <trkpt lat="48.01005" lon="6.97818">
        <ele>1242.1</ele>
        <time>2023-05-20T08:08:29Z</time>
      </trkpt>
      <trkpt lat="48.01003" lon="6.97813">
        <ele>1242</ele>
        <time>2023-05-20T08:08:33Z</time>
      </trkpt>
      <trkpt lat="48.01001" lon="6.97798">
        <ele>1239.7</ele>
        <time>2023-05-20T08:08:41Z</time>
      </trkpt>
      <trkpt lat="48.0099" lon="6.9777">
        <ele>1239.7</ele>
        <time>2023-05-20T08:08:54Z</time>
      </trkpt>
      <trkpt lat="48.00975" lon="6.97739">
        <ele>1241.7</ele>
        <time>2023-05-20T08:09:15Z</time>
      </trkpt>
      <trkpt lat="48.00973" lon="6.97725">
        <ele>1240</ele>
        <time>2023-05-20T08:09:22Z</time>
      </trkpt>
      <trkpt lat="48.00969" lon="6.97719">
        <ele>1240.8</ele>
        <time>2023-05-20T08:09:26Z</time>
      </trkpt>
      <trkpt lat="48.0096" lon="6.97686">
        <ele>1238.3</ele>
        <time>2023-05-20T08:09:45Z</time>
      </trkpt>
      <trkpt lat="48.00957" lon="6.97674">
        <ele>1237.4</ele>
        <time>2023-05-20T08:09:53Z</time>
      </trkpt>
      <trkpt lat="48.00948" lon="6.97647">
        <ele>1237.9</ele>
        <time>2023-05-20T08:10:09Z</time>
      </trkpt>
      <trkpt lat="48.00945" lon="6.97643">
        <ele>1239.3</ele>
        <time>2023-05-20T08:10:13Z</time>
      </trkpt>
      <trkpt lat="48.00938" lon="6.97631">
        <ele>1238.3</ele>
        <time>2023-05-20T08:10:21Z</time>
      </trkpt>
      <trkpt lat="48.00932" lon="6.97619">
        <ele>1237.1</ele>
        <time>2023-05-20T08:10:29Z</time>
      </trkpt>
      <trkpt lat="48.00932" lon="6.97583">
        <ele>1231.2</ele>
        <time>2023-05-20T08:10:51Z</time>
      </trkpt>
      <trkpt lat="48.00928" lon="6.9755">
        <ele>1228.7</ele>
        <time>2023-05-20T08:11:08Z</time>
      </trkpt>
      <trkpt lat="48.0093" lon="6.97543">
        <ele>1228.1</ele>
        <time>2023-05-20T08:11:12Z</time>
      </trkpt>
      <trkpt lat="48.00929" lon="6.97536">
        <ele>1227.6</ele>
        <time>2023-05-20T08:11:15Z</time>
      </trkpt>
      <trkpt lat="48.00928" lon="6.9753">
        <ele>1227.2</ele>
        <time>2023-05-20T08:11:19Z</time>
      </trkpt>
      <trkpt lat="48.00924" lon="6.97527">
        <ele>1226.9</ele>
        <time>2023-05-20T08:11:22Z</time>
      </trkpt>
      <trkpt lat="48.00919" lon="6.97516">
        <ele>1225.8</ele>
        <time>2023-05-20T08:11:29Z</time>
      </trkpt>
      <trkpt lat="48.00915" lon="6.97512">
        <ele>1225.1</ele>
        <time>2023-05-20T08:11:33Z</time>
      </trkpt>
      <trkpt lat="48.00909" lon="6.97508">
        <ele>1224.1</ele>
        <time>2023-05-20T08:11:37Z</time>
      </trkpt>
      <trkpt lat="48.00907" lon="6.97498">
        <ele>1222.7</ele>
        <time>2023-05-20T08:11:44Z</time>
      </trkpt>
      <trkpt lat="48.00903" lon="6.97493">
        <ele>1221.8</ele>
        <time>2023-05-20T08:11:50Z</time>
      </trkpt>
      <trkpt lat="48.00902" lon="6.97482">
        <ele>1220.5</ele>
        <time>2023-05-20T08:11:58Z</time>
      </trkpt>
      <trkpt lat="48.0089" lon="6.9747">
        <ele>1217.7</ele>
        <time>2023-05-20T08:12:11Z</time>
      </trkpt>
      <trkpt lat="48.00886" lon="6.97466">
        <ele>1216.3</ele>
        <time>2023-05-20T08:12:16Z</time>
      </trkpt>
      <trkpt lat="48.0088" lon="6.97462">
        <ele>1214.4</ele>
        <time>2023-05-20T08:12:23Z</time>
      </trkpt>
      <trkpt lat="48.00877" lon="6.97457">
        <ele>1212.9</ele>
        <time>2023-05-20T08:12:28Z</time>
      </trkpt>
      <trkpt lat="48.00875" lon="6.9745">
        <ele>1211.4</ele>
        <time>2023-05-20T08:12:34Z</time>
      </trkpt>
      <trkpt lat="48.00871" lon="6.97445">
        <ele>1209.9</ele>
        <time>2023-05-20T08:12:42Z</time>
      </trkpt>
      <trkpt lat="48.00861" lon="6.97438">
        <ele>1207.1</ele>
        <time>2023-05-20T08:12:52Z</time>
      </trkpt>
      <trkpt lat="48.00861" lon="6.97431">
        <ele>1206</ele>
        <time>2023-05-20T08:12:57Z</time>
      </trkpt>
      <trkpt lat="48.00858" lon="6.97426">
        <ele>1204.7</ele>
        <time>2023-05-20T08:13:01Z</time>
      </trkpt>
      <trkpt lat="48.00852" lon="6.97423">
        <ele>1203</ele>
        <time>2023-05-20T08:13:12Z</time>
      </trkpt>
      <trkpt lat="48.00852" lon="6.97417">
        <ele>1202.1</ele>
        <time>2023-05-20T08:13:17Z</time>
      </trkpt>
      <trkpt lat="48.00849" lon="6.9741">
        <ele>1200.3</ele>
        <time>2023-05-20T08:13:22Z</time>
      </trkpt>
      <trkpt lat="48.0084" lon="6.97406">
        <ele>1197.8</ele>
        <time>2023-05-20T08:13:30Z</time>
      </trkpt>
      <trkpt lat="48.00839" lon="6.97398">
        <ele>1196.4</ele>
        <time>2023-05-20T08:13:35Z</time>
      </trkpt>
      <trkpt lat="48.00841" lon="6.9739">
        <ele>1195.6</ele>
        <time>2023-05-20T08:13:39Z</time>
      </trkpt>
      <trkpt lat="48.00835" lon="6.97369">
        <ele>1192.1</ele>
        <time>2023-05-20T08:13:53Z</time>
      </trkpt>
      <trkpt lat="48.00829" lon="6.97364">
        <ele>1190.5</ele>
        <time>2023-05-20T08:14:00Z</time>
      </trkpt>
      <trkpt lat="48.00816" lon="6.97329">
        <ele>1183.4</ele>
        <time>2023-05-20T08:14:26Z</time>
      </trkpt>
      <trkpt lat="48.0081" lon="6.97317">
        <ele>1181.3</ele>
        <time>2023-05-20T08:14:34Z</time>
      </trkpt>
      <trkpt lat="48.00806" lon="6.97324">
        <ele>1181.4</ele>
        <time>2023-05-20T08:14:47Z</time>
      </trkpt>
      <trkpt lat="48.00796" lon="6.97376">
        <ele>1184.3</ele>
        <time>2023-05-20T08:15:17Z</time>
      </trkpt>
      <trkpt lat="48.00798" lon="6.97385">
        <ele>1185.3</ele>
        <time>2023-05-20T08:15:24Z</time>
      </trkpt>
      <trkpt lat="48.00794" lon="6.97399">
        <ele>1185.3</ele>
        <time>2023-05-20T08:15:32Z</time>
      </trkpt>
      <trkpt lat="48.00795" lon="6.97421">
        <ele>1188</ele>
        <time>2023-05-20T08:15:44Z</time>
      </trkpt>
      <trkpt lat="48.00797" lon="6.97428">
        <ele>1189.3</ele>
        <time>2023-05-20T08:15:48Z</time>
      </trkpt>
      <trkpt lat="48.00796" lon="6.97438">
        <ele>1189.9</ele>
        <time>2023-05-20T08:15:55Z</time>
      </trkpt>
      <trkpt lat="48.00794" lon="6.97447">
        <ele>1190.1</ele>
        <time>2023-05-20T08:16:02Z</time>
      </trkpt>
      <trkpt lat="48.00794" lon="6.97457">
        <ele>1191.1</ele>
        <time>2023-05-20T08:16:09Z</time>
      </trkpt>
      <trkpt lat="48.00791" lon="6.97474">
        <ele>1191.5</ele>
        <time>2023-05-20T08:16:20Z</time>
      </trkpt>
      <trkpt lat="48.00788" lon="6.97479">
        <ele>1191.2</ele>
        <time>2023-05-20T08:16:23Z</time>
      </trkpt>
      <trkpt lat="48.00783" lon="6.97492">
        <ele>1192</ele>
        <time>2023-05-20T08:16:30Z</time>
      </trkpt>
      <trkpt lat="48.00781" lon="6.97498">
        <ele>1192.7</ele>
        <time>2023-05-20T08:16:34Z</time>
      </trkpt>
      <trkpt lat="48.00778" lon="6.97503">
        <ele>1192.7</ele>
        <time>2023-05-20T08:16:38Z</time>
      </trkpt>
      <trkpt lat="48.00775" lon="6.975">
        <ele>1191</ele>
        <time>2023-05-20T08:17:30Z</time>
      </trkpt>
      <trkpt lat="48.00788" lon="6.97462">
        <ele>1189</ele>
        <time>2023-05-20T08:22:22Z</time>
      </trkpt>
      <trkpt lat="48.00789" lon="6.9746">
        <ele>1189.3</ele>
        <time>2023-05-20T08:22:23Z</time>
      </trkpt>
      <trkpt lat="48.00793" lon="6.97441">
        <ele>1189.2</ele>
        <time>2023-05-20T08:22:32Z</time>
      </trkpt>
      <trkpt lat="48.00793" lon="6.97406">
        <ele>1185.8</ele>
        <time>2023-05-20T08:22:51Z</time>
      </trkpt>
      <trkpt lat="48.00795" lon="6.97384">
        <ele>1184.4</ele>
        <time>2023-05-20T08:23:03Z</time>
      </trkpt>
      <trkpt lat="48.00795" lon="6.9737">
        <ele>1183.7</ele>
        <time>2023-05-20T08:23:11Z</time>
      </trkpt>
      <trkpt lat="48.00795" lon="6.97362">
        <ele>1183.4</ele>
        <time>2023-05-20T08:23:14Z</time>
      </trkpt>
      <trkpt lat="48.00806" lon="6.97317">
        <ele>1180.9</ele>
        <time>2023-05-20T08:23:39Z</time>
      </trkpt>
      <trkpt lat="48.00801" lon="6.97317">
        <ele>1179.9</ele>
        <time>2023-05-20T08:23:47Z</time>
      </trkpt>
      <trkpt lat="48.00798" lon="6.9732">
        <ele>1179.5</ele>
        <time>2023-05-20T08:23:52Z</time>
      </trkpt>
      <trkpt lat="48.0079" lon="6.97314">
        <ele>1177.6</ele>
        <time>2023-05-20T08:24:01Z</time>
      </trkpt>
      <trkpt lat="48.00785" lon="6.97312">
        <ele>1176.6</ele>
        <time>2023-05-20T08:24:05Z</time>
      </trkpt>
      <trkpt lat="48.00782" lon="6.973">
        <ele>1174.9</ele>
        <time>2023-05-20T08:24:13Z</time>
      </trkpt>
      <trkpt lat="48.00766" lon="6.97258">
        <ele>1165.8</ele>
        <time>2023-05-20T08:24:45Z</time>
      </trkpt>
      <trkpt lat="48.00763" lon="6.97251">
        <ele>1164.9</ele>
        <time>2023-05-20T08:24:48Z</time>
      </trkpt>
      <trkpt lat="48.00759" lon="6.97247">
        <ele>1164</ele>
        <time>2023-05-20T08:24:51Z</time>
      </trkpt>
      <trkpt lat="48.00755" lon="6.97245">
        <ele>1163.3</ele>
        <time>2023-05-20T08:24:55Z</time>
      </trkpt>
      <trkpt lat="48.00752" lon="6.9724">
        <ele>1162.5</ele>
        <time>2023-05-20T08:24:59Z</time>
      </trkpt>
      <trkpt lat="48.00745" lon="6.97211">
        <ele>1159</ele>
        <time>2023-05-20T08:25:20Z</time>
      </trkpt>
      <trkpt lat="48.00744" lon="6.97204">
        <ele>1158</ele>
        <time>2023-05-20T08:25:24Z</time>
      </trkpt>
      <trkpt lat="48.00746" lon="6.97197">
        <ele>1157.2</ele>
        <time>2023-05-20T08:25:29Z</time>
      </trkpt>
      <trkpt lat="48.00747" lon="6.97189">
        <ele>1156.3</ele>
        <time>2023-05-20T08:25:32Z</time>
      </trkpt>
      <trkpt lat="48.00742" lon="6.97175">
        <ele>1154.2</ele>
        <time>2023-05-20T08:25:42Z</time>
      </trkpt>
      <trkpt lat="48.00739" lon="6.97168">
        <ele>1153</ele>
        <time>2023-05-20T08:25:47Z</time>
      </trkpt>
      <trkpt lat="48.00728" lon="6.97156">
        <ele>1151.3</ele>
        <time>2023-05-20T08:26:00Z</time>
      </trkpt>
      <trkpt lat="48.00723" lon="6.97155">
        <ele>1151</ele>
        <time>2023-05-20T08:26:03Z</time>
      </trkpt>
      <trkpt lat="48.0072" lon="6.97151">
        <ele>1150.7</ele>
        <time>2023-05-20T08:26:06Z</time>
      </trkpt>
      <trkpt lat="48.00711" lon="6.97136">
        <ele>1148.7</ele>
        <time>2023-05-20T08:26:16Z</time>
      </trkpt>
      <trkpt lat="48.00692" lon="6.97102">
        <ele>1144.8</ele>
        <time>2023-05-20T08:26:43Z</time>
      </trkpt>
      <trkpt lat="48.0069" lon="6.97097">
        <ele>1144.2</ele>
        <time>2023-05-20T08:26:48Z</time>
      </trkpt>
      <trkpt lat="48.00686" lon="6.97094">
        <ele>1143.6</ele>
        <time>2023-05-20T08:26:53Z</time>
      </trkpt>
      <trkpt lat="48.00685" lon="6.97088">
        <ele>1143</ele>
        <time>2023-05-20T08:26:56Z</time>
      </trkpt>
      <trkpt lat="48.00682" lon="6.97083">
        <ele>1142.5</ele>
        <time>2023-05-20T08:27:00Z</time>
      </trkpt>
      <trkpt lat="48.00675" lon="6.97071">
        <ele>1141.3</ele>
        <time>2023-05-20T08:27:09Z</time>
      </trkpt>
      <trkpt lat="48.00673" lon="6.97065">
        <ele>1140.8</ele>
        <time>2023-05-20T08:27:13Z</time>
      </trkpt>
      <trkpt lat="48.00655" lon="6.97038">
        <ele>1137.3</ele>
        <time>2023-05-20T08:27:37Z</time>
      </trkpt>
      <trkpt lat="48.0065" lon="6.97022">
        <ele>1135.4</ele>
        <time>2023-05-20T08:27:49Z</time>
      </trkpt>
      <trkpt lat="48.00646" lon="6.96993">
        <ele>1131.1</ele>
        <time>2023-05-20T08:28:10Z</time>
      </trkpt>
      <trkpt lat="48.00646" lon="6.96985">
        <ele>1129.8</ele>
        <time>2023-05-20T08:28:14Z</time>
      </trkpt>
      <trkpt lat="48.00642" lon="6.96973">
        <ele>1128</ele>
        <time>2023-05-20T08:28:20Z</time>
      </trkpt>
      <trkpt lat="48.00639" lon="6.96968">
        <ele>1127.4</ele>
        <time>2023-05-20T08:28:24Z</time>
      </trkpt>
      <trkpt lat="48.00638" lon="6.9696">
        <ele>1126.1</ele>
        <time>2023-05-20T08:28:29Z</time>
      </trkpt>
      <trkpt lat="48.00634" lon="6.96953">
        <ele>1124.3</ele>
        <time>2023-05-20T08:28:37Z</time>
      </trkpt>
      <trkpt lat="48.00633" lon="6.9693">
        <ele>1120.3</ele>
        <time>2023-05-20T08:28:50Z</time>
      </trkpt>
      <trkpt lat="48.0063" lon="6.96924">
        <ele>1118.9</ele>
        <time>2023-05-20T08:28:54Z</time>
      </trkpt>
      <trkpt lat="48.00628" lon="6.96914">
        <ele>1117.1</ele>
        <time>2023-05-20T08:29:02Z</time>
      </trkpt>
      <trkpt lat="48.00628" lon="6.96906">
        <ele>1116.2</ele>
        <time>2023-05-20T08:29:06Z</time>
      </trkpt>
      <trkpt lat="48.00625" lon="6.969">
        <ele>1115.2</ele>
        <time>2023-05-20T08:29:10Z</time>
      </trkpt>
      <trkpt lat="48.00611" lon="6.96885">
        <ele>1112</ele>
        <time>2023-05-20T08:29:33Z</time>
      </trkpt>
      <trkpt lat="48.00607" lon="6.96895">
        <ele>1111.6</ele>
        <time>2023-05-20T08:29:45Z</time>
      </trkpt>
      <trkpt lat="48.00604" lon="6.9691">
        <ele>1110.9</ele>
        <time>2023-05-20T08:29:55Z</time>
      </trkpt>
      <trkpt lat="48.00602" lon="6.96916">
        <ele>1110.1</ele>
        <time>2023-05-20T08:29:59Z</time>
      </trkpt>
      <trkpt lat="48.006" lon="6.96924">
        <ele>1109.9</ele>
        <time>2023-05-20T08:30:03Z</time>
      </trkpt>
      <trkpt lat="48.00597" lon="6.9693">
        <ele>1109.1</ele>
        <time>2023-05-20T08:30:07Z</time>
      </trkpt>
      <trkpt lat="48.00589" lon="6.96938">
        <ele>1106</ele>
        <time>2023-05-20T08:30:16Z</time>
      </trkpt>
      <trkpt lat="48.00581" lon="6.96954">
        <ele>1105.7</ele>
        <time>2023-05-20T08:30:27Z</time>
      </trkpt>
      <trkpt lat="48.00577" lon="6.96948">
        <ele>1101.5</ele>
        <time>2023-05-20T08:30:35Z</time>
      </trkpt>
      <trkpt lat="48.00577" lon="6.96941">
        <ele>1099.9</ele>
        <time>2023-05-20T08:30:38Z</time>
      </trkpt>
      <trkpt lat="48.00575" lon="6.96933">
        <ele>1097.6</ele>
        <time>2023-05-20T08:30:42Z</time>
      </trkpt>
      <trkpt lat="48.00578" lon="6.96919">
        <ele>1097.3</ele>
        <time>2023-05-20T08:30:50Z</time>
      </trkpt>
      <trkpt lat="48.00575" lon="6.96904">
        <ele>1096.2</ele>
        <time>2023-05-20T08:30:58Z</time>
      </trkpt>
      <trkpt lat="48.00573" lon="6.96911">
        <ele>1094.6</ele>
        <time>2023-05-20T08:31:05Z</time>
      </trkpt>
      <trkpt lat="48.00574" lon="6.9692">
        <ele>1095.1</ele>
        <time>2023-05-20T08:31:09Z</time>
      </trkpt>
      <trkpt lat="48.0057" lon="6.96933">
        <ele>1094.7</ele>
        <time>2023-05-20T08:31:16Z</time>
      </trkpt>
      <trkpt lat="48.00566" lon="6.96942">
        <ele>1093.7</ele>
        <time>2023-05-20T08:31:23Z</time>
      </trkpt>
      <trkpt lat="48.00559" lon="6.96946">
        <ele>1090.4</ele>
        <time>2023-05-20T08:31:29Z</time>
      </trkpt>
      <trkpt lat="48.00557" lon="6.96941">
        <ele>1088.3</ele>
        <time>2023-05-20T08:31:33Z</time>
      </trkpt>
      <trkpt lat="48.00559" lon="6.96914">
        <ele>1086.4</ele>
        <time>2023-05-20T08:31:46Z</time>
      </trkpt>
      <trkpt lat="48.00554" lon="6.9692">
        <ele>1083.6</ele>
        <time>2023-05-20T08:31:53Z</time>
      </trkpt>
      <trkpt lat="48.00551" lon="6.96934">
        <ele>1083.7</ele>
        <time>2023-05-20T08:31:59Z</time>
      </trkpt>
      <trkpt lat="48.00548" lon="6.9694">
        <ele>1082.6</ele>
        <time>2023-05-20T08:32:04Z</time>
      </trkpt>
      <trkpt lat="48.00545" lon="6.96933">
        <ele>1080</ele>
        <time>2023-05-20T08:32:07Z</time>
      </trkpt>
      <trkpt lat="48.00541" lon="6.9692">
        <ele>1076.4</ele>
        <time>2023-05-20T08:32:13Z</time>
      </trkpt>
      <trkpt lat="48.00539" lon="6.96929">
        <ele>1076</ele>
        <time>2023-05-20T08:32:22Z</time>
      </trkpt>
      <trkpt lat="48.00539" lon="6.96938">
        <ele>1076.8</ele>
        <time>2023-05-20T08:32:27Z</time>
      </trkpt>
      <trkpt lat="48.00537" lon="6.96945">
        <ele>1076.1</ele>
        <time>2023-05-20T08:32:30Z</time>
      </trkpt>
      <trkpt lat="48.00531" lon="6.96954">
        <ele>1074.5</ele>
        <time>2023-05-20T08:32:37Z</time>
      </trkpt>
      <trkpt lat="48.00526" lon="6.96949">
        <ele>1069.9</ele>
        <time>2023-05-20T08:32:43Z</time>
      </trkpt>
      <trkpt lat="48.00526" lon="6.96942">
        <ele>1068.6</ele>
        <time>2023-05-20T08:32:46Z</time>
      </trkpt>
      <trkpt lat="48.00525" lon="6.96935">
        <ele>1067.7</ele>
        <time>2023-05-20T08:32:49Z</time>
      </trkpt>
      <trkpt lat="48.00518" lon="6.96917">
        <ele>1062.3</ele>
        <time>2023-05-20T08:33:00Z</time>
      </trkpt>
      <trkpt lat="48.00518" lon="6.96908">
        <ele>1063</ele>
        <time>2023-05-20T08:33:07Z</time>
      </trkpt>
      <trkpt lat="48.00516" lon="6.96911">
        <ele>1061.4</ele>
        <time>2023-05-20T08:33:26Z</time>
      </trkpt>
      <trkpt lat="48.00516" lon="6.96918">
        <ele>1061</ele>
        <time>2023-05-20T08:33:29Z</time>
      </trkpt>
      <trkpt lat="48.00515" lon="6.96925">
        <ele>1060.4</ele>
        <time>2023-05-20T08:33:34Z</time>
      </trkpt>
      <trkpt lat="48.00511" lon="6.96918">
        <ele>1057.5</ele>
        <time>2023-05-20T08:33:42Z</time>
      </trkpt>
      <trkpt lat="48.00509" lon="6.96912">
        <ele>1056.6</ele>
        <time>2023-05-20T08:33:46Z</time>
      </trkpt>
      <trkpt lat="48.00505" lon="6.96906">
        <ele>1054.5</ele>
        <time>2023-05-20T08:33:51Z</time>
      </trkpt>
      <trkpt lat="48.00502" lon="6.96902">
        <ele>1052.9</ele>
        <time>2023-05-20T08:33:55Z</time>
      </trkpt>
      <trkpt lat="48.00494" lon="6.96889">
        <ele>1049.1</ele>
        <time>2023-05-20T08:34:05Z</time>
      </trkpt>
      <trkpt lat="48.00492" lon="6.96881">
        <ele>1048.6</ele>
        <time>2023-05-20T08:34:09Z</time>
      </trkpt>
      <trkpt lat="48.00485" lon="6.96871">
        <ele>1045.6</ele>
        <time>2023-05-20T08:34:18Z</time>
      </trkpt>
      <trkpt lat="48.00485" lon="6.96865">
        <ele>1046.4</ele>
        <time>2023-05-20T08:34:22Z</time>
      </trkpt>
      <trkpt lat="48.00482" lon="6.96861">
        <ele>1045.3</ele>
        <time>2023-05-20T08:34:31Z</time>
      </trkpt>
      <trkpt lat="48.00476" lon="6.9685">
        <ele>1042.2</ele>
        <time>2023-05-20T08:34:39Z</time>
      </trkpt>
      <trkpt lat="48.00474" lon="6.96844">
        <ele>1041.4</ele>
        <time>2023-05-20T08:34:43Z</time>
      </trkpt>
      <trkpt lat="48.00472" lon="6.9683">
        <ele>1040.6</ele>
        <time>2023-05-20T08:34:53Z</time>
      </trkpt>
      <trkpt lat="48.00468" lon="6.96826">
        <ele>1038.9</ele>
        <time>2023-05-20T08:35:03Z</time>
      </trkpt>
      <trkpt lat="48.00464" lon="6.96831">
        <ele>1037.9</ele>
        <time>2023-05-20T08:35:07Z</time>
      </trkpt>
      <trkpt lat="48.00457" lon="6.96836">
        <ele>1035.4</ele>
        <time>2023-05-20T08:35:17Z</time>
      </trkpt>
      <trkpt lat="48.00454" lon="6.9683">
        <ele>1034.5</ele>
        <time>2023-05-20T08:35:21Z</time>
      </trkpt>
      <trkpt lat="48.00452" lon="6.96824">
        <ele>1033.9</ele>
        <time>2023-05-20T08:35:25Z</time>
      </trkpt>
      <trkpt lat="48.00448" lon="6.9682">
        <ele>1032.9</ele>
        <time>2023-05-20T08:35:29Z</time>
      </trkpt>
      <trkpt lat="48.00444" lon="6.9682">
        <ele>1031.9</ele>
        <time>2023-05-20T08:35:33Z</time>
      </trkpt>
      <trkpt lat="48.00439" lon="6.96823">
        <ele>1030.5</ele>
        <time>2023-05-20T08:35:38Z</time>
      </trkpt>
      <trkpt lat="48.00435" lon="6.96821">
        <ele>1029.9</ele>
        <time>2023-05-20T08:35:43Z</time>
      </trkpt>
      <trkpt lat="48.0043" lon="6.96822">
        <ele>1028.7</ele>
        <time>2023-05-20T08:35:48Z</time>
      </trkpt>
      <trkpt lat="48.00417" lon="6.96815">
        <ele>1027.7</ele>
        <time>2023-05-20T08:36:01Z</time>
      </trkpt>
      <trkpt lat="48.00413" lon="6.96805">
        <ele>1028.9</ele>
        <time>2023-05-20T08:36:10Z</time>
      </trkpt>
      <trkpt lat="48.00412" lon="6.96799">
        <ele>1028.2</ele>
        <time>2023-05-20T08:36:14Z</time>
      </trkpt>
      <trkpt lat="48.00414" lon="6.96791">
        <ele>1028</ele>
        <time>2023-05-20T08:36:18Z</time>
      </trkpt>
      <trkpt lat="48.00413" lon="6.96785">
        <ele>1027.3</ele>
        <time>2023-05-20T08:36:22Z</time>
      </trkpt>
      <trkpt lat="48.00408" lon="6.96768">
        <ele>1025.8</ele>
        <time>2023-05-20T08:36:34Z</time>
      </trkpt>
      <trkpt lat="48.00405" lon="6.96763">
        <ele>1025.3</ele>
        <time>2023-05-20T08:36:36Z</time>
      </trkpt>
      <trkpt lat="48.00397" lon="6.96754">
        <ele>1024.5</ele>
        <time>2023-05-20T08:36:43Z</time>
      </trkpt>
      <trkpt lat="48.00393" lon="6.96753">
        <ele>1024.3</ele>
        <time>2023-05-20T08:36:47Z</time>
      </trkpt>
      <trkpt lat="48.00386" lon="6.96743">
        <ele>1023.4</ele>
        <time>2023-05-20T08:36:54Z</time>
      </trkpt>
      <trkpt lat="48.00384" lon="6.96737">
        <ele>1023</ele>
        <time>2023-05-20T08:37:14Z</time>
      </trkpt>
      <trkpt lat="48.00381" lon="6.96718">
        <ele>1022.2</ele>
        <time>2023-05-20T08:37:30Z</time>
      </trkpt>
      <trkpt lat="48.00378" lon="6.96712">
        <ele>1021.6</ele>
        <time>2023-05-20T08:37:35Z</time>
      </trkpt>
      <trkpt lat="48.00376" lon="6.96702">
        <ele>1021</ele>
        <time>2023-05-20T08:37:42Z</time>
      </trkpt>
      <trkpt lat="48.00373" lon="6.96696">
        <ele>1020.5</ele>
        <time>2023-05-20T08:37:45Z</time>
      </trkpt>
      <trkpt lat="48.0037" lon="6.96683">
        <ele>1020.6</ele>
        <time>2023-05-20T08:37:53Z</time>
      </trkpt>
      <trkpt lat="48.00367" lon="6.96676">
        <ele>1021</ele>
        <time>2023-05-20T08:38:01Z</time>
      </trkpt>
      <trkpt lat="48.00366" lon="6.96669">
        <ele>1021.4</ele>
        <time>2023-05-20T08:38:05Z</time>
      </trkpt>
      <trkpt lat="48.0036" lon="6.96651">
        <ele>1022</ele>
        <time>2023-05-20T08:38:16Z</time>
      </trkpt>
      <trkpt lat="48.00353" lon="6.96642">
        <ele>1022.5</ele>
        <time>2023-05-20T08:38:24Z</time>
      </trkpt>
      <trkpt lat="48.00347" lon="6.9663">
        <ele>1023.8</ele>
        <time>2023-05-20T08:38:32Z</time>
      </trkpt>
      <trkpt lat="48.00346" lon="6.96609">
        <ele>1025.8</ele>
        <time>2023-05-20T08:38:43Z</time>
      </trkpt>
      <trkpt lat="48.00344" lon="6.96602">
        <ele>1026.4</ele>
        <time>2023-05-20T08:38:50Z</time>
      </trkpt>
      <trkpt lat="48.00344" lon="6.96594">
        <ele>1026.5</ele>
        <time>2023-05-20T08:38:53Z</time>
      </trkpt>
      <trkpt lat="48.00341" lon="6.96589">
        <ele>1027.4</ele>
        <time>2023-05-20T08:38:57Z</time>
      </trkpt>
      <trkpt lat="48.00337" lon="6.96581">
        <ele>1028.5</ele>
        <time>2023-05-20T08:39:05Z</time>
      </trkpt>
      <trkpt lat="48.00332" lon="6.96582">
        <ele>1030.1</ele>
        <time>2023-05-20T08:39:09Z</time>
      </trkpt>
      <trkpt lat="48.00328" lon="6.96574">
        <ele>1030.1</ele>
        <time>2023-05-20T08:39:12Z</time>
      </trkpt>
      <trkpt lat="48.0033" lon="6.96568">
        <ele>1029.1</ele>
        <time>2023-05-20T08:39:14Z</time>
      </trkpt>
      <trkpt lat="48.00324" lon="6.96564">
        <ele>1030.3</ele>
        <time>2023-05-20T08:39:20Z</time>
      </trkpt>
      <trkpt lat="48.00314" lon="6.96553">
        <ele>1032.4</ele>
        <time>2023-05-20T08:39:31Z</time>
      </trkpt>
      <trkpt lat="48.00309" lon="6.96556">
        <ele>1034</ele>
        <time>2023-05-20T08:39:39Z</time>
      </trkpt>
      <trkpt lat="48.00303" lon="6.96554">
        <ele>1035.4</ele>
        <time>2023-05-20T08:39:49Z</time>
      </trkpt>
      <trkpt lat="48.00301" lon="6.96547">
        <ele>1035.7</ele>
        <time>2023-05-20T08:39:52Z</time>
      </trkpt>
      <trkpt lat="48.00295" lon="6.96544">
        <ele>1037</ele>
        <time>2023-05-20T08:40:02Z</time>
      </trkpt>
      <trkpt lat="48.00276" lon="6.96523">
        <ele>1042.3</ele>
        <time>2023-05-20T08:40:29Z</time>
      </trkpt>
      <trkpt lat="48.00276" lon="6.96516">
        <ele>1042.3</ele>
        <time>2023-05-20T08:40:34Z</time>
      </trkpt>
      <trkpt lat="48.0026" lon="6.96496">
        <ele>1046.2</ele>
        <time>2023-05-20T08:41:00Z</time>
      </trkpt>
      <trkpt lat="48.00254" lon="6.96492">
        <ele>1047.5</ele>
        <time>2023-05-20T08:41:07Z</time>
      </trkpt>
      <trkpt lat="48.00252" lon="6.9648">
        <ele>1047.1</ele>
        <time>2023-05-20T08:41:15Z</time>
      </trkpt>
      <trkpt lat="48.00245" lon="6.96469">
        <ele>1047.6</ele>
        <time>2023-05-20T08:41:26Z</time>
      </trkpt>
      <trkpt lat="48.00242" lon="6.96465">
        <ele>1048</ele>
        <time>2023-05-20T08:41:31Z</time>
      </trkpt>
      <trkpt lat="48.00237" lon="6.96464">
        <ele>1048.7</ele>
        <time>2023-05-20T08:41:36Z</time>
      </trkpt>
      <trkpt lat="48.00231" lon="6.96456">
        <ele>1049.9</ele>
        <time>2023-05-20T08:41:45Z</time>
      </trkpt>
      <trkpt lat="48.00213" lon="6.96457">
        <ele>1051.1</ele>
        <time>2023-05-20T08:42:00Z</time>
      </trkpt>
      <trkpt lat="48.00209" lon="6.96456">
        <ele>1051.2</ele>
        <time>2023-05-20T08:42:05Z</time>
      </trkpt>
      <trkpt lat="48.00198" lon="6.96456">
        <ele>1051.3</ele>
        <time>2023-05-20T08:42:14Z</time>
      </trkpt>
      <trkpt lat="48.00192" lon="6.96447">
        <ele>1052.7</ele>
        <time>2023-05-20T08:42:21Z</time>
      </trkpt>
      <trkpt lat="48.0018" lon="6.96435">
        <ele>1054.5</ele>
        <time>2023-05-20T08:42:30Z</time>
      </trkpt>
      <trkpt lat="48.00169" lon="6.96432">
        <ele>1055.3</ele>
        <time>2023-05-20T08:42:40Z</time>
      </trkpt>
      <trkpt lat="48.00166" lon="6.96438">
        <ele>1054.7</ele>
        <time>2023-05-20T08:42:45Z</time>
      </trkpt>
      <trkpt lat="48.0016" lon="6.96439">
        <ele>1054.2</ele>
        <time>2023-05-20T08:42:49Z</time>
      </trkpt>
      <trkpt lat="48.00155" lon="6.96437">
        <ele>1054.2</ele>
        <time>2023-05-20T08:42:53Z</time>
      </trkpt>
      <trkpt lat="48.00149" lon="6.96434">
        <ele>1054.7</ele>
        <time>2023-05-20T08:42:58Z</time>
      </trkpt>
      <trkpt lat="48.00144" lon="6.96436">
        <ele>1054</ele>
        <time>2023-05-20T08:43:03Z</time>
      </trkpt>
      <trkpt lat="48.00127" lon="6.96438">
        <ele>1052.7</ele>
        <time>2023-05-20T08:43:16Z</time>
      </trkpt>
      <trkpt lat="48.00123" lon="6.96436">
        <ele>1053.2</ele>
        <time>2023-05-20T08:43:20Z</time>
      </trkpt>
      <trkpt lat="48.00119" lon="6.9644">
        <ele>1051.7</ele>
        <time>2023-05-20T08:43:30Z</time>
      </trkpt>
      <trkpt lat="48.00114" lon="6.9644">
        <ele>1051.5</ele>
        <time>2023-05-20T08:43:36Z</time>
      </trkpt>
      <trkpt lat="48.00109" lon="6.96438">
        <ele>1051.9</ele>
        <time>2023-05-20T08:43:40Z</time>
      </trkpt>
      <trkpt lat="48.00104" lon="6.9644">
        <ele>1050.9</ele>
        <time>2023-05-20T08:43:43Z</time>
      </trkpt>
      <trkpt lat="48.00086" lon="6.96443">
        <ele>1048.6</ele>
        <time>2023-05-20T08:43:58Z</time>
      </trkpt>
      <trkpt lat="48.00067" lon="6.96441">
        <ele>1047.4</ele>
        <time>2023-05-20T08:44:15Z</time>
      </trkpt>
      <trkpt lat="48.00054" lon="6.96443">
        <ele>1045.5</ele>
        <time>2023-05-20T08:44:26Z</time>
      </trkpt>
      <trkpt lat="48.00049" lon="6.96442">
        <ele>1045.9</ele>
        <time>2023-05-20T08:44:29Z</time>
      </trkpt>
      <trkpt lat="48.00045" lon="6.96443">
        <ele>1045.5</ele>
        <time>2023-05-20T08:44:33Z</time>
      </trkpt>
      <trkpt lat="48.0004" lon="6.9644">
        <ele>1046.6</ele>
        <time>2023-05-20T08:44:37Z</time>
      </trkpt>
      <trkpt lat="48.0002" lon="6.96426">
        <ele>1050.8</ele>
        <time>2023-05-20T08:44:54Z</time>
      </trkpt>
      <trkpt lat="48.00016" lon="6.96426">
        <ele>1050.4</ele>
        <time>2023-05-20T08:44:58Z</time>
      </trkpt>
      <trkpt lat="47.99999" lon="6.96415">
        <ele>1052.4</ele>
        <time>2023-05-20T08:45:13Z</time>
      </trkpt>
      <trkpt lat="47.99994" lon="6.96413">
        <ele>1052.1</ele>
        <time>2023-05-20T08:45:17Z</time>
      </trkpt>
      <trkpt lat="47.99985" lon="6.96404">
        <ele>1053.6</ele>
        <time>2023-05-20T08:45:26Z</time>
      </trkpt>
      <trkpt lat="47.99979" lon="6.96402">
        <ele>1053.1</ele>
        <time>2023-05-20T08:45:32Z</time>
      </trkpt>
      <trkpt lat="47.99974" lon="6.96398">
        <ele>1053.7</ele>
        <time>2023-05-20T08:45:35Z</time>
      </trkpt>
      <trkpt lat="47.99972" lon="6.96392">
        <ele>1055.7</ele>
        <time>2023-05-20T08:45:39Z</time>
      </trkpt>
      <trkpt lat="47.99967" lon="6.96387">
        <ele>1056.6</ele>
        <time>2023-05-20T08:45:48Z</time>
      </trkpt>
      <trkpt lat="47.99961" lon="6.96386">
        <ele>1055.7</ele>
        <time>2023-05-20T08:45:51Z</time>
      </trkpt>
      <trkpt lat="47.99956" lon="6.96385">
        <ele>1055</ele>
        <time>2023-05-20T08:45:55Z</time>
      </trkpt>
      <trkpt lat="47.99952" lon="6.9638">
        <ele>1056.2</ele>
        <time>2023-05-20T08:46:00Z</time>
      </trkpt>
      <trkpt lat="47.99939" lon="6.96362">
        <ele>1060.7</ele>
        <time>2023-05-20T08:46:18Z</time>
      </trkpt>
      <trkpt lat="47.99936" lon="6.96352">
        <ele>1064</ele>
        <time>2023-05-20T08:46:24Z</time>
      </trkpt>
      <trkpt lat="47.99928" lon="6.96345">
        <ele>1065.1</ele>
        <time>2023-05-20T08:46:30Z</time>
      </trkpt>
      <trkpt lat="47.9992" lon="6.9634">
        <ele>1065.3</ele>
        <time>2023-05-20T08:46:37Z</time>
      </trkpt>
      <trkpt lat="47.99916" lon="6.96338">
        <ele>1065.2</ele>
        <time>2023-05-20T08:46:39Z</time>
      </trkpt>
      <trkpt lat="47.99904" lon="6.96334">
        <ele>1064.9</ele>
        <time>2023-05-20T08:46:52Z</time>
      </trkpt>
      <trkpt lat="47.99899" lon="6.96329">
        <ele>1066.4</ele>
        <time>2023-05-20T08:46:55Z</time>
      </trkpt>
      <trkpt lat="47.99892" lon="6.96324">
        <ele>1067.5</ele>
        <time>2023-05-20T08:47:05Z</time>
      </trkpt>
      <trkpt lat="47.99888" lon="6.9632">
        <ele>1068.6</ele>
        <time>2023-05-20T08:47:08Z</time>
      </trkpt>
      <trkpt lat="47.99879" lon="6.96317">
        <ele>1068</ele>
        <time>2023-05-20T08:47:18Z</time>
      </trkpt>
      <trkpt lat="47.99873" lon="6.96309">
        <ele>1070.5</ele>
        <time>2023-05-20T08:47:28Z</time>
      </trkpt>
      <trkpt lat="47.99869" lon="6.96303">
        <ele>1072.8</ele>
        <time>2023-05-20T08:47:31Z</time>
      </trkpt>
      <trkpt lat="47.99862" lon="6.96307">
        <ele>1069.4</ele>
        <time>2023-05-20T08:47:39Z</time>
      </trkpt>
      <trkpt lat="47.99853" lon="6.96307">
        <ele>1068.1</ele>
        <time>2023-05-20T08:47:44Z</time>
      </trkpt>
      <trkpt lat="47.99848" lon="6.96302">
        <ele>1070</ele>
        <time>2023-05-20T08:47:46Z</time>
      </trkpt>
      <trkpt lat="47.99843" lon="6.96293">
        <ele>1073.9</ele>
        <time>2023-05-20T08:47:56Z</time>
      </trkpt>
      <trkpt lat="47.99837" lon="6.96293">
        <ele>1072.9</ele>
        <time>2023-05-20T08:48:00Z</time>
      </trkpt>
      <trkpt lat="47.99825" lon="6.96284">
        <ele>1076.6</ele>
        <time>2023-05-20T08:48:12Z</time>
      </trkpt>
      <trkpt lat="47.99821" lon="6.96284">
        <ele>1076.5</ele>
        <time>2023-05-20T08:48:17Z</time>
      </trkpt>
      <trkpt lat="47.99814" lon="6.96281">
        <ele>1077.8</ele>
        <time>2023-05-20T08:48:27Z</time>
      </trkpt>
      <trkpt lat="47.99808" lon="6.96281">
        <ele>1077.6</ele>
        <time>2023-05-20T08:48:33Z</time>
      </trkpt>
      <trkpt lat="47.99804" lon="6.9628">
        <ele>1077.7</ele>
        <time>2023-05-20T08:48:37Z</time>
      </trkpt>
      <trkpt lat="47.99798" lon="6.96273">
        <ele>1079.2</ele>
        <time>2023-05-20T08:48:46Z</time>
      </trkpt>
      <trkpt lat="47.99794" lon="6.9627">
        <ele>1079.5</ele>
        <time>2023-05-20T08:48:52Z</time>
      </trkpt>
      <trkpt lat="47.99789" lon="6.96268">
        <ele>1079.2</ele>
        <time>2023-05-20T08:48:56Z</time>
      </trkpt>
      <trkpt lat="47.99785" lon="6.96263">
        <ele>1079.9</ele>
        <time>2023-05-20T08:49:00Z</time>
      </trkpt>
      <trkpt lat="47.99771" lon="6.96245">
        <ele>1080.9</ele>
        <time>2023-05-20T08:49:12Z</time>
      </trkpt>
      <trkpt lat="47.99772" lon="6.96237">
        <ele>1081.9</ele>
        <time>2023-05-20T08:49:15Z</time>
      </trkpt>
      <trkpt lat="47.9977" lon="6.96232">
        <ele>1081.7</ele>
        <time>2023-05-20T08:49:19Z</time>
      </trkpt>
      <trkpt lat="47.9977" lon="6.96222">
        <ele>1082.5</ele>
        <time>2023-05-20T08:49:25Z</time>
      </trkpt>
      <trkpt lat="47.99769" lon="6.96213">
        <ele>1081.7</ele>
        <time>2023-05-20T08:49:29Z</time>
      </trkpt>
      <trkpt lat="47.99772" lon="6.96205">
        <ele>1082.6</ele>
        <time>2023-05-20T08:49:36Z</time>
      </trkpt>
      <trkpt lat="47.99776" lon="6.962">
        <ele>1084.2</ele>
        <time>2023-05-20T08:49:40Z</time>
      </trkpt>
      <trkpt lat="47.99778" lon="6.96193">
        <ele>1085.1</ele>
        <time>2023-05-20T08:49:45Z</time>
      </trkpt>
      <trkpt lat="47.99778" lon="6.96185">
        <ele>1085.1</ele>
        <time>2023-05-20T08:49:48Z</time>
      </trkpt>
      <trkpt lat="47.99782" lon="6.96172">
        <ele>1086.5</ele>
        <time>2023-05-20T08:49:56Z</time>
      </trkpt>
      <trkpt lat="47.99781" lon="6.96165">
        <ele>1086.2</ele>
        <time>2023-05-20T08:50:00Z</time>
      </trkpt>
      <trkpt lat="47.99782" lon="6.96158">
        <ele>1086.6</ele>
        <time>2023-05-20T08:50:05Z</time>
      </trkpt>
      <trkpt lat="47.99781" lon="6.96147">
        <ele>1086.3</ele>
        <time>2023-05-20T08:50:12Z</time>
      </trkpt>
      <trkpt lat="47.99781" lon="6.96141">
        <ele>1086.4</ele>
        <time>2023-05-20T08:50:16Z</time>
      </trkpt>
      <trkpt lat="47.99782" lon="6.96133">
        <ele>1087</ele>
        <time>2023-05-20T08:50:21Z</time>
      </trkpt>
      <trkpt lat="47.99781" lon="6.96133">
        <ele>1086.5</ele>
        <time>2023-05-20T08:50:47Z</time>
      </trkpt>
      <trkpt lat="47.9978" lon="6.96133">
        <ele>1086</ele>
        <time>2023-05-20T08:51:45Z</time>
      </trkpt>
      <trkpt lat="47.99789" lon="6.96097">
        <ele>1091.3</ele>
        <time>2023-05-20T08:59:39Z</time>
      </trkpt>
      <trkpt lat="47.99789" lon="6.96096">
        <ele>1091.2</ele>
        <time>2023-05-20T08:59:40Z</time>
      </trkpt>
      <trkpt lat="47.99794" lon="6.96092">
        <ele>1094.4</ele>
        <time>2023-05-20T08:59:46Z</time>
      </trkpt>
      <trkpt lat="47.99799" lon="6.96077">
        <ele>1096.3</ele>
        <time>2023-05-20T09:00:02Z</time>
      </trkpt>
      <trkpt lat="47.99801" lon="6.9607">
        <ele>1096.2</ele>
        <time>2023-05-20T09:00:06Z</time>
      </trkpt>
      <trkpt lat="47.99803" lon="6.96065">
        <ele>1096.4</ele>
        <time>2023-05-20T09:00:10Z</time>
      </trkpt>
      <trkpt lat="47.99808" lon="6.96059">
        <ele>1098</ele>
        <time>2023-05-20T09:00:15Z</time>
      </trkpt>
      <trkpt lat="47.99812" lon="6.96053">
        <ele>1098.6</ele>
        <time>2023-05-20T09:00:19Z</time>
      </trkpt>
      <trkpt lat="47.99816" lon="6.9604">
        <ele>1097.2</ele>
        <time>2023-05-20T09:00:27Z</time>
      </trkpt>
      <trkpt lat="47.99822" lon="6.96035">
        <ele>1099.2</ele>
        <time>2023-05-20T09:00:35Z</time>
      </trkpt>
      <trkpt lat="47.99826" lon="6.96039">
        <ele>1102.4</ele>
        <time>2023-05-20T09:00:41Z</time>
      </trkpt>
      <trkpt lat="47.99832" lon="6.96033">
        <ele>1104.4</ele>
        <time>2023-05-20T09:00:48Z</time>
      </trkpt>
      <trkpt lat="47.99835" lon="6.96027">
        <ele>1104.4</ele>
        <time>2023-05-20T09:00:52Z</time>
      </trkpt>
      <trkpt lat="47.99844" lon="6.96013">
        <ele>1102.8</ele>
        <time>2023-05-20T09:01:05Z</time>
      </trkpt>
      <trkpt lat="47.99851" lon="6.96004">
        <ele>1102.7</ele>
        <time>2023-05-20T09:01:11Z</time>
      </trkpt>
      <trkpt lat="47.99855" lon="6.96">
        <ele>1103.1</ele>
        <time>2023-05-20T09:01:15Z</time>
      </trkpt>
      <trkpt lat="47.9986" lon="6.95997">
        <ele>1104.4</ele>
        <time>2023-05-20T09:01:19Z</time>
      </trkpt>
      <trkpt lat="47.99872" lon="6.95973">
        <ele>1101.7</ele>
        <time>2023-05-20T09:01:35Z</time>
      </trkpt>
      <trkpt lat="47.99879" lon="6.95931">
        <ele>1094.6</ele>
        <time>2023-05-20T09:01:57Z</time>
      </trkpt>
      <trkpt lat="47.99895" lon="6.95902">
        <ele>1092.1</ele>
        <time>2023-05-20T09:02:16Z</time>
      </trkpt>
      <trkpt lat="47.99899" lon="6.95898">
        <ele>1091.6</ele>
        <time>2023-05-20T09:02:19Z</time>
      </trkpt>
      <trkpt lat="47.99904" lon="6.95896">
        <ele>1092.3</ele>
        <time>2023-05-20T09:02:23Z</time>
      </trkpt>
      <trkpt lat="47.99918" lon="6.95883">
        <ele>1090.5</ele>
        <time>2023-05-20T09:02:37Z</time>
      </trkpt>
      <trkpt lat="47.99921" lon="6.95879">
        <ele>1089.4</ele>
        <time>2023-05-20T09:02:40Z</time>
      </trkpt>
      <trkpt lat="47.99935" lon="6.95873">
        <ele>1089.9</ele>
        <time>2023-05-20T09:02:52Z</time>
      </trkpt>
      <trkpt lat="47.99938" lon="6.95868">
        <ele>1088.4</ele>
        <time>2023-05-20T09:02:57Z</time>
      </trkpt>
      <trkpt lat="47.99943" lon="6.95867">
        <ele>1089.2</ele>
        <time>2023-05-20T09:03:01Z</time>
      </trkpt>
      <trkpt lat="47.9995" lon="6.95858">
        <ele>1088.1</ele>
        <time>2023-05-20T09:03:08Z</time>
      </trkpt>
      <trkpt lat="47.99953" lon="6.95852">
        <ele>1087.4</ele>
        <time>2023-05-20T09:03:11Z</time>
      </trkpt>
      <trkpt lat="47.99954" lon="6.95845">
        <ele>1085.6</ele>
        <time>2023-05-20T09:03:14Z</time>
      </trkpt>
      <trkpt lat="47.9996" lon="6.95833">
        <ele>1084.7</ele>
        <time>2023-05-20T09:03:22Z</time>
      </trkpt>
      <trkpt lat="47.99963" lon="6.95827">
        <ele>1084.5</ele>
        <time>2023-05-20T09:03:33Z</time>
      </trkpt>
      <trkpt lat="47.99969" lon="6.9583">
        <ele>1088.4</ele>
        <time>2023-05-20T09:03:37Z</time>
      </trkpt>
      <trkpt lat="47.9997" lon="6.95822">
        <ele>1086.6</ele>
        <time>2023-05-20T09:03:42Z</time>
      </trkpt>
      <trkpt lat="47.99971" lon="6.95814">
        <ele>1084.8</ele>
        <time>2023-05-20T09:03:47Z</time>
      </trkpt>
      <trkpt lat="47.99975" lon="6.95805">
        <ele>1084.2</ele>
        <time>2023-05-20T09:03:54Z</time>
      </trkpt>
      <trkpt lat="47.99984" lon="6.95785">
        <ele>1081.3</ele>
        <time>2023-05-20T09:04:07Z</time>
      </trkpt>
      <trkpt lat="47.99988" lon="6.95782">
        <ele>1081.9</ele>
        <time>2023-05-20T09:04:12Z</time>
      </trkpt>
      <trkpt lat="47.99995" lon="6.95772">
        <ele>1081</ele>
        <time>2023-05-20T09:04:20Z</time>
      </trkpt>
      <trkpt lat="47.99997" lon="6.95764">
        <ele>1078.9</ele>
        <time>2023-05-20T09:04:25Z</time>
      </trkpt>
      <trkpt lat="48.00002" lon="6.95761">
        <ele>1079.7</ele>
        <time>2023-05-20T09:04:29Z</time>
      </trkpt>
      <trkpt lat="48.00011" lon="6.95745">
        <ele>1077</ele>
        <time>2023-05-20T09:04:41Z</time>
      </trkpt>
      <trkpt lat="48.00025" lon="6.95733">
        <ele>1077.3</ele>
        <time>2023-05-20T09:04:51Z</time>
      </trkpt>
      <trkpt lat="48.00031" lon="6.9572">
        <ele>1074.9</ele>
        <time>2023-05-20T09:04:58Z</time>
      </trkpt>
      <trkpt lat="48.00033" lon="6.95703">
        <ele>1071.8</ele>
        <time>2023-05-20T09:05:09Z</time>
      </trkpt>
      <trkpt lat="48.00042" lon="6.95693">
        <ele>1072.8</ele>
        <time>2023-05-20T09:05:18Z</time>
      </trkpt>
      <trkpt lat="48.00051" lon="6.95664">
        <ele>1069.2</ele>
        <time>2023-05-20T09:05:33Z</time>
      </trkpt>
      <trkpt lat="48.00055" lon="6.95659">
        <ele>1069.4</ele>
        <time>2023-05-20T09:05:38Z</time>
      </trkpt>
      <trkpt lat="48.00056" lon="6.95653">
        <ele>1068.7</ele>
        <time>2023-05-20T09:05:41Z</time>
      </trkpt>
      <trkpt lat="48.00059" lon="6.95646">
        <ele>1068.8</ele>
        <time>2023-05-20T09:05:45Z</time>
      </trkpt>
      <trkpt lat="48.0006" lon="6.95637">
        <ele>1068.1</ele>
        <time>2023-05-20T09:05:49Z</time>
      </trkpt>
      <trkpt lat="48.00058" lon="6.95623">
        <ele>1067.2</ele>
        <time>2023-05-20T09:05:58Z</time>
      </trkpt>
      <trkpt lat="48.00056" lon="6.95615">
        <ele>1066.2</ele>
        <time>2023-05-20T09:06:05Z</time>
      </trkpt>
      <trkpt lat="48.00053" lon="6.95608">
        <ele>1065.1</ele>
        <time>2023-05-20T09:06:10Z</time>
      </trkpt>
      <trkpt lat="48.00052" lon="6.95592">
        <ele>1065.4</ele>
        <time>2023-05-20T09:06:22Z</time>
      </trkpt>
      <trkpt lat="48.00049" lon="6.95588">
        <ele>1064.4</ele>
        <time>2023-05-20T09:06:25Z</time>
      </trkpt>
      <trkpt lat="48.00041" lon="6.95578">
        <ele>1062.1</ele>
        <time>2023-05-20T09:06:34Z</time>
      </trkpt>
      <trkpt lat="48.00039" lon="6.95573">
        <ele>1061.6</ele>
        <time>2023-05-20T09:06:37Z</time>
      </trkpt>
      <trkpt lat="48.00037" lon="6.95565">
        <ele>1061.4</ele>
        <time>2023-05-20T09:06:40Z</time>
      </trkpt>
      <trkpt lat="48.00032" lon="6.95551">
        <ele>1060.5</ele>
        <time>2023-05-20T09:06:49Z</time>
      </trkpt>
      <trkpt lat="48.0003" lon="6.95535">
        <ele>1060.4</ele>
        <time>2023-05-20T09:06:57Z</time>
      </trkpt>
      <trkpt lat="48.00027" lon="6.95531">
        <ele>1059.6</ele>
        <time>2023-05-20T09:07:01Z</time>
      </trkpt>
      <trkpt lat="48.00019" lon="6.95525">
        <ele>1056.7</ele>
        <time>2023-05-20T09:07:09Z</time>
      </trkpt>
      <trkpt lat="48.00017" lon="6.95519">
        <ele>1056.1</ele>
        <time>2023-05-20T09:07:11Z</time>
      </trkpt>
      <trkpt lat="48.00006" lon="6.95468">
        <ele>1051.5</ele>
        <time>2023-05-20T09:07:36Z</time>
      </trkpt>
      <trkpt lat="48.00008" lon="6.95447">
        <ele>1052.1</ele>
        <time>2023-05-20T09:07:47Z</time>
      </trkpt>
      <trkpt lat="48.00007" lon="6.95438">
        <ele>1051.5</ele>
        <time>2023-05-20T09:07:51Z</time>
      </trkpt>
      <trkpt lat="48.00007" lon="6.95432">
        <ele>1051.4</ele>
        <time>2023-05-20T09:07:55Z</time>
      </trkpt>
      <trkpt lat="48.00004" lon="6.95421">
        <ele>1049.9</ele>
        <time>2023-05-20T09:08:03Z</time>
      </trkpt>
      <trkpt lat="48" lon="6.95409">
        <ele>1047.4</ele>
        <time>2023-05-20T09:08:09Z</time>
      </trkpt>
      <trkpt lat="48" lon="6.95403">
        <ele>1047</ele>
        <time>2023-05-20T09:08:13Z</time>
      </trkpt>
      <trkpt lat="48.00002" lon="6.95395">
        <ele>1047.5</ele>
        <time>2023-05-20T09:08:17Z</time>
      </trkpt>
      <trkpt lat="48.00002" lon="6.95388">
        <ele>1046.9</ele>
        <time>2023-05-20T09:08:22Z</time>
      </trkpt>
      <trkpt lat="48.00005" lon="6.95379">
        <ele>1047</ele>
        <time>2023-05-20T09:08:25Z</time>
      </trkpt>
      <trkpt lat="48.00004" lon="6.95372">
        <ele>1045.3</ele>
        <time>2023-05-20T09:08:28Z</time>
      </trkpt>
      <trkpt lat="48.00001" lon="6.95366">
        <ele>1042.5</ele>
        <time>2023-05-20T09:08:31Z</time>
      </trkpt>
      <trkpt lat="48.00003" lon="6.9536">
        <ele>1042.7</ele>
        <time>2023-05-20T09:08:35Z</time>
      </trkpt>
      <trkpt lat="48.00006" lon="6.95353">
        <ele>1043.9</ele>
        <time>2023-05-20T09:08:39Z</time>
      </trkpt>
      <trkpt lat="48.00007" lon="6.95345">
        <ele>1043.7</ele>
        <time>2023-05-20T09:08:42Z</time>
      </trkpt>
      <trkpt lat="48.00006" lon="6.95338">
        <ele>1042.5</ele>
        <time>2023-05-20T09:08:45Z</time>
      </trkpt>
      <trkpt lat="48.00008" lon="6.95322">
        <ele>1043</ele>
        <time>2023-05-20T09:08:54Z</time>
      </trkpt>
      <trkpt lat="47.99996" lon="6.95269">
        <ele>1036.1</ele>
        <time>2023-05-20T09:09:28Z</time>
      </trkpt>
      <trkpt lat="47.99995" lon="6.95252">
        <ele>1034.7</ele>
        <time>2023-05-20T09:09:36Z</time>
      </trkpt>
      <trkpt lat="47.9999" lon="6.95228">
        <ele>1030.4</ele>
        <time>2023-05-20T09:09:52Z</time>
      </trkpt>
      <trkpt lat="47.99992" lon="6.95221">
        <ele>1031.4</ele>
        <time>2023-05-20T09:09:55Z</time>
      </trkpt>
      <trkpt lat="47.9999" lon="6.95207">
        <ele>1028.9</ele>
        <time>2023-05-20T09:10:02Z</time>
      </trkpt>
      <trkpt lat="47.99992" lon="6.95199">
        <ele>1029.5</ele>
        <time>2023-05-20T09:10:05Z</time>
      </trkpt>
      <trkpt lat="47.99991" lon="6.95188">
        <ele>1027.6</ele>
        <time>2023-05-20T09:10:11Z</time>
      </trkpt>
      <trkpt lat="47.9999" lon="6.95174">
        <ele>1025</ele>
        <time>2023-05-20T09:10:18Z</time>
      </trkpt>
      <trkpt lat="47.99993" lon="6.95166">
        <ele>1025.4</ele>
        <time>2023-05-20T09:10:20Z</time>
      </trkpt>
      <trkpt lat="47.99992" lon="6.9516">
        <ele>1024.6</ele>
        <time>2023-05-20T09:10:23Z</time>
      </trkpt>
      <trkpt lat="47.99994" lon="6.95152">
        <ele>1025</ele>
        <time>2023-05-20T09:10:28Z</time>
      </trkpt>
      <trkpt lat="47.99995" lon="6.95138">
        <ele>1024.6</ele>
        <time>2023-05-20T09:10:37Z</time>
      </trkpt>
      <trkpt lat="47.99992" lon="6.95131">
        <ele>1022.2</ele>
        <time>2023-05-20T09:10:40Z</time>
      </trkpt>
      <trkpt lat="47.99995" lon="6.95117">
        <ele>1022</ele>
        <time>2023-05-20T09:10:49Z</time>
      </trkpt>
      <trkpt lat="47.99995" lon="6.95108">
        <ele>1021.3</ele>
        <time>2023-05-20T09:10:52Z</time>
      </trkpt>
      <trkpt lat="47.9999" lon="6.9509">
        <ele>1018.9</ele>
        <time>2023-05-20T09:11:04Z</time>
      </trkpt>
      <trkpt lat="47.99988" lon="6.95084">
        <ele>1017.9</ele>
        <time>2023-05-20T09:11:07Z</time>
      </trkpt>
      <trkpt lat="47.99988" lon="6.95077">
        <ele>1018</ele>
        <time>2023-05-20T09:11:11Z</time>
      </trkpt>
      <trkpt lat="47.99988" lon="6.9507">
        <ele>1018</ele>
        <time>2023-05-20T09:11:14Z</time>
      </trkpt>
      <trkpt lat="47.99984" lon="6.95058">
        <ele>1016.7</ele>
        <time>2023-05-20T09:11:20Z</time>
      </trkpt>
      <trkpt lat="47.99986" lon="6.95052">
        <ele>1017</ele>
        <time>2023-05-20T09:11:23Z</time>
      </trkpt>
      <trkpt lat="47.99986" lon="6.95044">
        <ele>1015.8</ele>
        <time>2023-05-20T09:11:30Z</time>
      </trkpt>
      <trkpt lat="47.99988" lon="6.95036">
        <ele>1015.3</ele>
        <time>2023-05-20T09:11:36Z</time>
      </trkpt>
      <trkpt lat="47.99992" lon="6.95021">
        <ele>1013.8</ele>
        <time>2023-05-20T09:11:42Z</time>
      </trkpt>
      <trkpt lat="47.99993" lon="6.95013">
        <ele>1012.3</ele>
        <time>2023-05-20T09:11:46Z</time>
      </trkpt>
      <trkpt lat="47.99994" lon="6.95007">
        <ele>1011.2</ele>
        <time>2023-05-20T09:11:49Z</time>
      </trkpt>
      <trkpt lat="47.99995" lon="6.94998">
        <ele>1009.5</ele>
        <time>2023-05-20T09:11:53Z</time>
      </trkpt>
      <trkpt lat="47.99999" lon="6.94993">
        <ele>1009.6</ele>
        <time>2023-05-20T09:11:57Z</time>
      </trkpt>
      <trkpt lat="48.00003" lon="6.94977">
        <ele>1006.5</ele>
        <time>2023-05-20T09:12:05Z</time>
      </trkpt>
      <trkpt lat="48.00006" lon="6.94973">
        <ele>1006.6</ele>
        <time>2023-05-20T09:12:09Z</time>
      </trkpt>
      <trkpt lat="48.00005" lon="6.94965">
        <ele>1006.5</ele>
        <time>2023-05-20T09:12:14Z</time>
      </trkpt>
      <trkpt lat="48.00009" lon="6.94955">
        <ele>1009</ele>
        <time>2023-05-20T09:12:21Z</time>
      </trkpt>
      <trkpt lat="48" lon="6.94952">
        <ele>1005.5</ele>
        <time>2023-05-20T09:12:38Z</time>
      </trkpt>
      <trkpt lat="47.99995" lon="6.94949">
        <ele>1003.5</ele>
        <time>2023-05-20T09:12:41Z</time>
      </trkpt>
      <trkpt lat="47.99991" lon="6.94942">
        <ele>1001.9</ele>
        <time>2023-05-20T09:12:44Z</time>
      </trkpt>
      <trkpt lat="47.9998" lon="6.94886">
        <ele>996</ele>
        <time>2023-05-20T09:13:17Z</time>
      </trkpt>
      <trkpt lat="47.99979" lon="6.94877">
        <ele>994</ele>
        <time>2023-05-20T09:13:21Z</time>
      </trkpt>
      <trkpt lat="47.99981" lon="6.94866">
        <ele>993.5</ele>
        <time>2023-05-20T09:13:33Z</time>
      </trkpt>
      <trkpt lat="47.9998" lon="6.94853">
        <ele>991.2</ele>
        <time>2023-05-20T09:13:39Z</time>
      </trkpt>
      <trkpt lat="47.99978" lon="6.94847">
        <ele>989.1</ele>
        <time>2023-05-20T09:13:43Z</time>
      </trkpt>
      <trkpt lat="47.99981" lon="6.94835">
        <ele>990.1</ele>
        <time>2023-05-20T09:13:53Z</time>
      </trkpt>
      <trkpt lat="47.99983" lon="6.94828">
        <ele>990.7</ele>
        <time>2023-05-20T09:13:57Z</time>
      </trkpt>
      <trkpt lat="47.99987" lon="6.94822">
        <ele>993.1</ele>
        <time>2023-05-20T09:14:02Z</time>
      </trkpt>
      <trkpt lat="47.99992" lon="6.94803">
        <ele>994.4</ele>
        <time>2023-05-20T09:14:14Z</time>
      </trkpt>
      <trkpt lat="47.99993" lon="6.94794">
        <ele>992.6</ele>
        <time>2023-05-20T09:14:18Z</time>
      </trkpt>
      <trkpt lat="47.99996" lon="6.94786">
        <ele>992.6</ele>
        <time>2023-05-20T09:14:23Z</time>
      </trkpt>
      <trkpt lat="47.99997" lon="6.94779">
        <ele>991.2</ele>
        <time>2023-05-20T09:14:27Z</time>
      </trkpt>
      <trkpt lat="47.99997" lon="6.94769">
        <ele>988.7</ele>
        <time>2023-05-20T09:14:32Z</time>
      </trkpt>
      <trkpt lat="48.00001" lon="6.94753">
        <ele>987.2</ele>
        <time>2023-05-20T09:14:43Z</time>
      </trkpt>
      <trkpt lat="48" lon="6.94745">
        <ele>985.5</ele>
        <time>2023-05-20T09:15:02Z</time>
      </trkpt>
      <trkpt lat="47.99998" lon="6.94739">
        <ele>983.4</ele>
        <time>2023-05-20T09:15:05Z</time>
      </trkpt>
      <trkpt lat="47.99998" lon="6.94732">
        <ele>982.6</ele>
        <time>2023-05-20T09:15:09Z</time>
      </trkpt>
      <trkpt lat="47.99994" lon="6.94718">
        <ele>979</ele>
        <time>2023-05-20T09:15:17Z</time>
      </trkpt>
      <trkpt lat="47.99992" lon="6.94709">
        <ele>978.1</ele>
        <time>2023-05-20T09:15:25Z</time>
      </trkpt>
      <trkpt lat="47.9999" lon="6.94687">
        <ele>976.3</ele>
        <time>2023-05-20T09:15:36Z</time>
      </trkpt>
      <trkpt lat="47.99993" lon="6.94654">
        <ele>971.3</ele>
        <time>2023-05-20T09:15:53Z</time>
      </trkpt>
      <trkpt lat="48" lon="6.94643">
        <ele>971.5</ele>
        <time>2023-05-20T09:16:00Z</time>
      </trkpt>
      <trkpt lat="48.00002" lon="6.94635">
        <ele>968.9</ele>
        <time>2023-05-20T09:16:04Z</time>
      </trkpt>
      <trkpt lat="48.00008" lon="6.94631">
        <ele>968.1</ele>
        <time>2023-05-20T09:16:12Z</time>
      </trkpt>
      <trkpt lat="48.00012" lon="6.94628">
        <ele>967.5</ele>
        <time>2023-05-20T09:16:15Z</time>
      </trkpt>
      <trkpt lat="48.00016" lon="6.94623">
        <ele>965.9</ele>
        <time>2023-05-20T09:16:19Z</time>
      </trkpt>
      <trkpt lat="48.00019" lon="6.94615">
        <ele>963</ele>
        <time>2023-05-20T09:16:26Z</time>
      </trkpt>
      <trkpt lat="48.00026" lon="6.94607">
        <ele>961.1</ele>
        <time>2023-05-20T09:16:33Z</time>
      </trkpt>
      <trkpt lat="48.00018" lon="6.94604">
        <ele>960</ele>
        <time>2023-05-20T09:16:54Z</time>
      </trkpt>
      <trkpt lat="48.00016" lon="6.94595">
        <ele>958.3</ele>
        <time>2023-05-20T09:17:04Z</time>
      </trkpt>
      <trkpt lat="48.00025" lon="6.94578">
        <ele>956.7</ele>
        <time>2023-05-20T09:17:15Z</time>
      </trkpt>
      <trkpt lat="48.00027" lon="6.94572">
        <ele>956.6</ele>
        <time>2023-05-20T09:17:18Z</time>
      </trkpt>
      <trkpt lat="48.00027" lon="6.94555">
        <ele>956.2</ele>
        <time>2023-05-20T09:17:29Z</time>
      </trkpt>
      <trkpt lat="48.00029" lon="6.94558">
        <ele>956.1</ele>
        <time>2023-05-20T09:18:02Z</time>
      </trkpt>
      <trkpt lat="48.00028" lon="6.94557">
        <ele>956.1</ele>
        <time>2023-05-20T09:18:28Z</time>
      </trkpt>
      <trkpt lat="48.00026" lon="6.94563">
        <ele>956.4</ele>
        <time>2023-05-20T09:18:56Z</time>
      </trkpt>
      <trkpt lat="48.00024" lon="6.94569">
        <ele>956.6</ele>
        <time>2023-05-20T09:18:59Z</time>
      </trkpt>
      <trkpt lat="48.00018" lon="6.94565">
        <ele>957</ele>
        <time>2023-05-20T09:19:04Z</time>
      </trkpt>
      <trkpt lat="48.00015" lon="6.94561">
        <ele>957.5</ele>
        <time>2023-05-20T09:19:06Z</time>
      </trkpt>
      <trkpt lat="48.00014" lon="6.94569">
        <ele>957</ele>
        <time>2023-05-20T09:19:12Z</time>
      </trkpt>
      <trkpt lat="48.00008" lon="6.94583">
        <ele>955.6</ele>
        <time>2023-05-20T09:19:19Z</time>
      </trkpt>
      <trkpt lat="48.00004" lon="6.94586">
        <ele>955.8</ele>
        <time>2023-05-20T09:19:22Z</time>
      </trkpt>
      <trkpt lat="47.99991" lon="6.94594">
        <ele>955.7</ele>
        <time>2023-05-20T09:19:34Z</time>
      </trkpt>
      <trkpt lat="47.99986" lon="6.94589">
        <ele>954.8</ele>
        <time>2023-05-20T09:19:52Z</time>
      </trkpt>
      <trkpt lat="47.99983" lon="6.94583">
        <ele>954.4</ele>
        <time>2023-05-20T09:19:57Z</time>
      </trkpt>
      <trkpt lat="47.99979" lon="6.94574">
        <ele>955.7</ele>
        <time>2023-05-20T09:20:05Z</time>
      </trkpt>
      <trkpt lat="47.99981" lon="6.94567">
        <ele>956.9</ele>
        <time>2023-05-20T09:20:08Z</time>
      </trkpt>
      <trkpt lat="47.9998" lon="6.94559">
        <ele>958</ele>
        <time>2023-05-20T09:20:11Z</time>
      </trkpt>
      <trkpt lat="47.99968" lon="6.94541">
        <ele>959.1</ele>
        <time>2023-05-20T09:20:20Z</time>
      </trkpt>
      <trkpt lat="47.99964" lon="6.94537">
        <ele>959.4</ele>
        <time>2023-05-20T09:20:24Z</time>
      </trkpt>
      <trkpt lat="47.99961" lon="6.94527">
        <ele>961.1</ele>
        <time>2023-05-20T09:20:30Z</time>
      </trkpt>
      <trkpt lat="47.99959" lon="6.94519">
        <ele>962.7</ele>
        <time>2023-05-20T09:20:35Z</time>
      </trkpt>
      <trkpt lat="47.99958" lon="6.94513">
        <ele>964</ele>
        <time>2023-05-20T09:20:38Z</time>
      </trkpt>
      <trkpt lat="47.99956" lon="6.9451">
        <ele>965</ele>
        <time>2023-05-20T09:20:54Z</time>
      </trkpt>
      <trkpt lat="47.99952" lon="6.94513">
        <ele>965</ele>
        <time>2023-05-20T09:20:59Z</time>
      </trkpt>
      <trkpt lat="47.99945" lon="6.94518">
        <ele>964.5</ele>
        <time>2023-05-20T09:21:06Z</time>
      </trkpt>
      <trkpt lat="47.99935" lon="6.94528">
        <ele>964.7</ele>
        <time>2023-05-20T09:21:18Z</time>
      </trkpt>
      <trkpt lat="47.99934" lon="6.94535">
        <ele>962.8</ele>
        <time>2023-05-20T09:21:21Z</time>
      </trkpt>
      <trkpt lat="47.99931" lon="6.9454">
        <ele>962.4</ele>
        <time>2023-05-20T09:21:25Z</time>
      </trkpt>
      <trkpt lat="47.99904" lon="6.94561">
        <ele>965.3</ele>
        <time>2023-05-20T09:21:54Z</time>
      </trkpt>
      <trkpt lat="47.999" lon="6.94559">
        <ele>967.3</ele>
        <time>2023-05-20T09:22:02Z</time>
      </trkpt>
      <trkpt lat="47.99895" lon="6.94559">
        <ele>969</ele>
        <time>2023-05-20T09:22:07Z</time>
      </trkpt>
      <trkpt lat="47.99891" lon="6.94563">
        <ele>969.1</ele>
        <time>2023-05-20T09:22:11Z</time>
      </trkpt>
      <trkpt lat="47.99883" lon="6.94564">
        <ele>968.3</ele>
        <time>2023-05-20T09:22:17Z</time>
      </trkpt>
      <trkpt lat="47.99879" lon="6.94563">
        <ele>967.7</ele>
        <time>2023-05-20T09:22:21Z</time>
      </trkpt>
      <trkpt lat="47.99874" lon="6.94548">
        <ele>971.8</ele>
        <time>2023-05-20T09:22:28Z</time>
      </trkpt>
      <trkpt lat="47.99871" lon="6.94544">
        <ele>973</ele>
        <time>2023-05-20T09:22:31Z</time>
      </trkpt>
      <trkpt lat="47.99867" lon="6.94545">
        <ele>971.9</ele>
        <time>2023-05-20T09:22:34Z</time>
      </trkpt>
      <trkpt lat="47.99859" lon="6.94536">
        <ele>974.5</ele>
        <time>2023-05-20T09:22:42Z</time>
      </trkpt>
      <trkpt lat="47.9985" lon="6.94531">
        <ele>974</ele>
        <time>2023-05-20T09:22:50Z</time>
      </trkpt>
      <trkpt lat="47.99845" lon="6.94521">
        <ele>976.9</ele>
        <time>2023-05-20T09:22:58Z</time>
      </trkpt>
      <trkpt lat="47.99835" lon="6.94509">
        <ele>978.7</ele>
        <time>2023-05-20T09:23:05Z</time>
      </trkpt>
      <trkpt lat="47.99832" lon="6.94507">
        <ele>979.4</ele>
        <time>2023-05-20T09:23:10Z</time>
      </trkpt>
      <trkpt lat="47.99826" lon="6.94515">
        <ele>977.3</ele>
        <time>2023-05-20T09:23:17Z</time>
      </trkpt>
      <trkpt lat="47.99823" lon="6.94522">
        <ele>974.7</ele>
        <time>2023-05-20T09:23:22Z</time>
      </trkpt>
      <trkpt lat="47.99817" lon="6.94527">
        <ele>973.3</ele>
        <time>2023-05-20T09:23:28Z</time>
      </trkpt>
      <trkpt lat="47.99811" lon="6.94525">
        <ele>975.5</ele>
        <time>2023-05-20T09:23:34Z</time>
      </trkpt>
      <trkpt lat="47.99805" lon="6.94525">
        <ele>976.8</ele>
        <time>2023-05-20T09:23:44Z</time>
      </trkpt>
      <trkpt lat="47.99798" lon="6.94525">
        <ele>978.7</ele>
        <time>2023-05-20T09:23:54Z</time>
      </trkpt>
      <trkpt lat="47.99795" lon="6.94528">
        <ele>977.9</ele>
        <time>2023-05-20T09:23:59Z</time>
      </trkpt>
      <trkpt lat="47.99789" lon="6.94527">
        <ele>980.2</ele>
        <time>2023-05-20T09:24:07Z</time>
      </trkpt>
      <trkpt lat="47.99787" lon="6.94534">
        <ele>976.7</ele>
        <time>2023-05-20T09:24:13Z</time>
      </trkpt>
      <trkpt lat="47.99781" lon="6.94534">
        <ele>978.2</ele>
        <time>2023-05-20T09:24:19Z</time>
      </trkpt>
      <trkpt lat="47.99778" lon="6.94529">
        <ele>982.1</ele>
        <time>2023-05-20T09:24:23Z</time>
      </trkpt>
      <trkpt lat="47.99768" lon="6.94524">
        <ele>987.2</ele>
        <time>2023-05-20T09:24:32Z</time>
      </trkpt>
      <trkpt lat="47.99758" lon="6.94532">
        <ele>984.8</ele>
        <time>2023-05-20T09:24:41Z</time>
      </trkpt>
      <trkpt lat="47.99756" lon="6.94537">
        <ele>982.2</ele>
        <time>2023-05-20T09:24:45Z</time>
      </trkpt>
      <trkpt lat="47.99749" lon="6.94537">
        <ele>984.3</ele>
        <time>2023-05-20T09:24:52Z</time>
      </trkpt>
      <trkpt lat="47.99746" lon="6.94541">
        <ele>983.6</ele>
        <time>2023-05-20T09:24:56Z</time>
      </trkpt>
      <trkpt lat="47.99741" lon="6.94545">
        <ele>984</ele>
        <time>2023-05-20T09:24:59Z</time>
      </trkpt>
      <trkpt lat="47.99731" lon="6.94554">
        <ele>983.6</ele>
        <time>2023-05-20T09:25:14Z</time>
      </trkpt>
      <trkpt lat="47.99725" lon="6.94561">
        <ele>982.5</ele>
        <time>2023-05-20T09:25:26Z</time>
      </trkpt>
      <trkpt lat="47.99718" lon="6.9456">
        <ele>986.4</ele>
        <time>2023-05-20T09:25:33Z</time>
      </trkpt>
      <trkpt lat="47.99714" lon="6.94558">
        <ele>989.5</ele>
        <time>2023-05-20T09:25:39Z</time>
      </trkpt>
      <trkpt lat="47.99707" lon="6.94558">
        <ele>992.8</ele>
        <time>2023-05-20T09:25:49Z</time>
      </trkpt>
      <trkpt lat="47.99704" lon="6.94553">
        <ele>996.9</ele>
        <time>2023-05-20T09:25:53Z</time>
      </trkpt>
      <trkpt lat="47.99696" lon="6.94565">
        <ele>994.2</ele>
        <time>2023-05-20T09:26:12Z</time>
      </trkpt>
      <trkpt lat="47.99689" lon="6.94566">
        <ele>997</ele>
        <time>2023-05-20T09:26:25Z</time>
      </trkpt>
      <trkpt lat="47.99684" lon="6.94563">
        <ele>1000.8</ele>
        <time>2023-05-20T09:26:31Z</time>
      </trkpt>
      <trkpt lat="47.9968" lon="6.9457">
        <ele>999.8</ele>
        <time>2023-05-20T09:26:42Z</time>
      </trkpt>
      <trkpt lat="47.99674" lon="6.9457">
        <ele>1003</ele>
        <time>2023-05-20T09:26:45Z</time>
      </trkpt>
      <trkpt lat="47.99674" lon="6.94578">
        <ele>1000.1</ele>
        <time>2023-05-20T09:26:57Z</time>
      </trkpt>
      <trkpt lat="47.99673" lon="6.94587">
        <ele>997.3</ele>
        <time>2023-05-20T09:27:03Z</time>
      </trkpt>
      <trkpt lat="47.99666" lon="6.94586">
        <ele>1002.3</ele>
        <time>2023-05-20T09:27:09Z</time>
      </trkpt>
      <trkpt lat="47.99662" lon="6.94589">
        <ele>1002.9</ele>
        <time>2023-05-20T09:27:13Z</time>
      </trkpt>
      <trkpt lat="47.99658" lon="6.94585">
        <ele>1006.8</ele>
        <time>2023-05-20T09:27:22Z</time>
      </trkpt>
      <trkpt lat="47.99656" lon="6.94581">
        <ele>1009.6</ele>
        <time>2023-05-20T09:27:32Z</time>
      </trkpt>
      <trkpt lat="47.99651" lon="6.94583">
        <ele>1011.6</ele>
        <time>2023-05-20T09:27:41Z</time>
      </trkpt>
      <trkpt lat="47.99647" lon="6.9459">
        <ele>1008.9</ele>
        <time>2023-05-20T09:27:47Z</time>
      </trkpt>
      <trkpt lat="47.99641" lon="6.94602">
        <ele>1002</ele>
        <time>2023-05-20T09:28:00Z</time>
      </trkpt>
      <trkpt lat="47.99637" lon="6.94595">
        <ele>1008.5</ele>
        <time>2023-05-20T09:28:07Z</time>
      </trkpt>
      <trkpt lat="47.99632" lon="6.94597">
        <ele>1007.5</ele>
        <time>2023-05-20T09:28:13Z</time>
      </trkpt>
      <trkpt lat="47.9962" lon="6.94593">
        <ele>1011.7</ele>
        <time>2023-05-20T09:28:29Z</time>
      </trkpt>
      <trkpt lat="47.99613" lon="6.94591">
        <ele>1013.5</ele>
        <time>2023-05-20T09:28:37Z</time>
      </trkpt>
      <trkpt lat="47.99608" lon="6.94584">
        <ele>1018.3</ele>
        <time>2023-05-20T09:28:50Z</time>
      </trkpt>
      <trkpt lat="47.99609" lon="6.94572">
        <ele>1021.8</ele>
        <time>2023-05-20T09:28:59Z</time>
      </trkpt>
      <trkpt lat="47.99602" lon="6.94569">
        <ele>1024.6</ele>
        <time>2023-05-20T09:29:08Z</time>
      </trkpt>
      <trkpt lat="47.996" lon="6.94577">
        <ele>1022.5</ele>
        <time>2023-05-20T09:29:12Z</time>
      </trkpt>
      <trkpt lat="47.99598" lon="6.94585">
        <ele>1020.4</ele>
        <time>2023-05-20T09:29:16Z</time>
      </trkpt>
      <trkpt lat="47.99593" lon="6.94587">
        <ele>1021.3</ele>
        <time>2023-05-20T09:29:20Z</time>
      </trkpt>
      <trkpt lat="47.99588" lon="6.94587">
        <ele>1022.9</ele>
        <time>2023-05-20T09:29:25Z</time>
      </trkpt>
      <trkpt lat="47.99583" lon="6.9459">
        <ele>1024.7</ele>
        <time>2023-05-20T09:29:33Z</time>
      </trkpt>
      <trkpt lat="47.99579" lon="6.94592">
        <ele>1027.4</ele>
        <time>2023-05-20T09:29:36Z</time>
      </trkpt>
      <trkpt lat="47.99574" lon="6.94592">
        <ele>1030.7</ele>
        <time>2023-05-20T09:29:39Z</time>
      </trkpt>
      <trkpt lat="47.99576" lon="6.946">
        <ele>1029.7</ele>
        <time>2023-05-20T09:29:46Z</time>
      </trkpt>
      <trkpt lat="47.9958" lon="6.94607">
        <ele>1027.7</ele>
        <time>2023-05-20T09:29:52Z</time>
      </trkpt>
      <trkpt lat="47.99586" lon="6.94605">
        <ele>1023.6</ele>
        <time>2023-05-20T09:29:56Z</time>
      </trkpt>
      <trkpt lat="47.99585" lon="6.94609">
        <ele>1024.5</ele>
        <time>2023-05-20T09:30:05Z</time>
      </trkpt>
      <trkpt lat="47.99575" lon="6.94611">
        <ele>1030.8</ele>
        <time>2023-05-20T09:30:09Z</time>
      </trkpt>
      <trkpt lat="47.99574" lon="6.94624">
        <ele>1029.2</ele>
        <time>2023-05-20T09:30:21Z</time>
      </trkpt>
      <trkpt lat="47.99569" lon="6.94627">
        <ele>1031.7</ele>
        <time>2023-05-20T09:30:25Z</time>
      </trkpt>
      <trkpt lat="47.99564" lon="6.94636">
        <ele>1033.3</ele>
        <time>2023-05-20T09:30:34Z</time>
      </trkpt>
      <trkpt lat="47.99559" lon="6.94639">
        <ele>1035.9</ele>
        <time>2023-05-20T09:30:43Z</time>
      </trkpt>
      <trkpt lat="47.99556" lon="6.94646">
        <ele>1035.4</ele>
        <time>2023-05-20T09:30:48Z</time>
      </trkpt>
      <trkpt lat="47.99551" lon="6.94648">
        <ele>1036.5</ele>
        <time>2023-05-20T09:30:56Z</time>
      </trkpt>
      <trkpt lat="47.99537" lon="6.94654">
        <ele>1039.2</ele>
        <time>2023-05-20T09:31:11Z</time>
      </trkpt>
      <trkpt lat="47.99528" lon="6.94655">
        <ele>1041.9</ele>
        <time>2023-05-20T09:31:22Z</time>
      </trkpt>
      <trkpt lat="47.99519" lon="6.94652">
        <ele>1045.2</ele>
        <time>2023-05-20T09:31:34Z</time>
      </trkpt>
      <trkpt lat="47.99514" lon="6.94656">
        <ele>1045.9</ele>
        <time>2023-05-20T09:31:38Z</time>
      </trkpt>
      <trkpt lat="47.99506" lon="6.94655">
        <ele>1048.5</ele>
        <time>2023-05-20T09:31:49Z</time>
      </trkpt>
      <trkpt lat="47.99506" lon="6.94651">
        <ele>1049</ele>
        <time>2023-05-20T09:31:58Z</time>
      </trkpt>
      <trkpt lat="47.99514" lon="6.9464">
        <ele>1048.8</ele>
        <time>2023-05-20T09:32:09Z</time>
      </trkpt>
      <trkpt lat="47.99519" lon="6.94617">
        <ele>1049.7</ele>
        <time>2023-05-20T09:32:21Z</time>
      </trkpt>
      <trkpt lat="47.99518" lon="6.94611">
        <ele>1050.5</ele>
        <time>2023-05-20T09:32:24Z</time>
      </trkpt>
      <trkpt lat="47.99513" lon="6.94615">
        <ele>1051.4</ele>
        <time>2023-05-20T09:32:32Z</time>
      </trkpt>
      <trkpt lat="47.9951" lon="6.94631">
        <ele>1050.6</ele>
        <time>2023-05-20T09:32:52Z</time>
      </trkpt>
      <trkpt lat="47.99499" lon="6.9463">
        <ele>1053.4</ele>
        <time>2023-05-20T09:33:04Z</time>
      </trkpt>
      <trkpt lat="47.99495" lon="6.94632">
        <ele>1055</ele>
        <time>2023-05-20T09:33:08Z</time>
      </trkpt>
      <trkpt lat="47.99487" lon="6.9464">
        <ele>1057.9</ele>
        <time>2023-05-20T09:33:27Z</time>
      </trkpt>
      <trkpt lat="47.99484" lon="6.94652">
        <ele>1057.8</ele>
        <time>2023-05-20T09:33:38Z</time>
      </trkpt>
      <trkpt lat="47.9948" lon="6.94658">
        <ele>1058.8</ele>
        <time>2023-05-20T09:33:47Z</time>
      </trkpt>
      <trkpt lat="47.99477" lon="6.94664">
        <ele>1059.3</ele>
        <time>2023-05-20T09:33:52Z</time>
      </trkpt>
      <trkpt lat="47.99467" lon="6.94674">
        <ele>1062.3</ele>
        <time>2023-05-20T09:34:01Z</time>
      </trkpt>
      <trkpt lat="47.99464" lon="6.94679">
        <ele>1062.8</ele>
        <time>2023-05-20T09:34:05Z</time>
      </trkpt>
      <trkpt lat="47.99456" lon="6.94686">
        <ele>1063.7</ele>
        <time>2023-05-20T09:34:15Z</time>
      </trkpt>
      <trkpt lat="47.99453" lon="6.94691">
        <ele>1063.8</ele>
        <time>2023-05-20T09:34:19Z</time>
      </trkpt>
      <trkpt lat="47.99448" lon="6.94692">
        <ele>1064</ele>
        <time>2023-05-20T09:34:23Z</time>
      </trkpt>
      <trkpt lat="47.99444" lon="6.94689">
        <ele>1064.6</ele>
        <time>2023-05-20T09:34:26Z</time>
      </trkpt>
      <trkpt lat="47.99441" lon="6.94683">
        <ele>1066.4</ele>
        <time>2023-05-20T09:34:29Z</time>
      </trkpt>
      <trkpt lat="47.99436" lon="6.9467">
        <ele>1069.9</ele>
        <time>2023-05-20T09:34:39Z</time>
      </trkpt>
      <trkpt lat="47.99437" lon="6.94663">
        <ele>1070.5</ele>
        <time>2023-05-20T09:34:41Z</time>
      </trkpt>
      <trkpt lat="47.99437" lon="6.94657">
        <ele>1071.6</ele>
        <time>2023-05-20T09:34:44Z</time>
      </trkpt>
      <trkpt lat="47.9944" lon="6.94648">
        <ele>1072.3</ele>
        <time>2023-05-20T09:34:50Z</time>
      </trkpt>
      <trkpt lat="47.99444" lon="6.94643">
        <ele>1072.1</ele>
        <time>2023-05-20T09:34:54Z</time>
      </trkpt>
      <trkpt lat="47.99454" lon="6.9464">
        <ele>1070</ele>
        <time>2023-05-20T09:35:02Z</time>
      </trkpt>
      <trkpt lat="47.99464" lon="6.94633">
        <ele>1067.8</ele>
        <time>2023-05-20T09:35:11Z</time>
      </trkpt>
      <trkpt lat="47.99464" lon="6.94627">
        <ele>1068.3</ele>
        <time>2023-05-20T09:35:19Z</time>
      </trkpt>
      <trkpt lat="47.99462" lon="6.94621">
        <ele>1069.6</ele>
        <time>2023-05-20T09:35:24Z</time>
      </trkpt>
      <trkpt lat="47.99458" lon="6.94615">
        <ele>1072.2</ele>
        <time>2023-05-20T09:35:28Z</time>
      </trkpt>
      <trkpt lat="47.99453" lon="6.94611">
        <ele>1075.4</ele>
        <time>2023-05-20T09:35:34Z</time>
      </trkpt>
      <trkpt lat="47.9945" lon="6.94603">
        <ele>1078</ele>
        <time>2023-05-20T09:35:41Z</time>
      </trkpt>
      <trkpt lat="47.99449" lon="6.94591">
        <ele>1079.9</ele>
        <time>2023-05-20T09:35:48Z</time>
      </trkpt>
      <trkpt lat="47.99452" lon="6.94586">
        <ele>1079.1</ele>
        <time>2023-05-20T09:35:51Z</time>
      </trkpt>
      <trkpt lat="47.99455" lon="6.94581">
        <ele>1078.6</ele>
        <time>2023-05-20T09:35:54Z</time>
      </trkpt>
      <trkpt lat="47.9946" lon="6.94557">
        <ele>1081.2</ele>
        <time>2023-05-20T09:36:10Z</time>
      </trkpt>
      <trkpt lat="47.99467" lon="6.94547">
        <ele>1078.2</ele>
        <time>2023-05-20T09:36:18Z</time>
      </trkpt>
      <trkpt lat="47.99465" lon="6.94538">
        <ele>1080.3</ele>
        <time>2023-05-20T09:36:26Z</time>
      </trkpt>
      <trkpt lat="47.99468" lon="6.94533">
        <ele>1079.3</ele>
        <time>2023-05-20T09:36:31Z</time>
      </trkpt>
      <trkpt lat="47.99469" lon="6.94526">
        <ele>1079.7</ele>
        <time>2023-05-20T09:36:35Z</time>
      </trkpt>
      <trkpt lat="47.99461" lon="6.94514">
        <ele>1083.5</ele>
        <time>2023-05-20T09:36:45Z</time>
      </trkpt>
      <trkpt lat="47.99456" lon="6.9451">
        <ele>1085.3</ele>
        <time>2023-05-20T09:36:49Z</time>
      </trkpt>
      <trkpt lat="47.99452" lon="6.94504">
        <ele>1086.3</ele>
        <time>2023-05-20T09:36:56Z</time>
      </trkpt>
      <trkpt lat="47.99446" lon="6.945">
        <ele>1087.6</ele>
        <time>2023-05-20T09:36:59Z</time>
      </trkpt>
      <trkpt lat="47.99444" lon="6.94485">
        <ele>1088.8</ele>
        <time>2023-05-20T09:37:06Z</time>
      </trkpt>
      <trkpt lat="47.99439" lon="6.94489">
        <ele>1090.9</ele>
        <time>2023-05-20T09:37:25Z</time>
      </trkpt>
      <trkpt lat="47.99438" lon="6.945">
        <ele>1090.6</ele>
        <time>2023-05-20T09:37:29Z</time>
      </trkpt>
      <trkpt lat="47.99443" lon="6.94505">
        <ele>1089.1</ele>
        <time>2023-05-20T09:37:32Z</time>
      </trkpt>
      <trkpt lat="47.9944" lon="6.94513">
        <ele>1091</ele>
        <time>2023-05-20T09:37:43Z</time>
      </trkpt>
      <trkpt lat="47.9944" lon="6.94521">
        <ele>1091.8</ele>
        <time>2023-05-20T09:37:46Z</time>
      </trkpt>
      <trkpt lat="47.99441" lon="6.94528">
        <ele>1092.1</ele>
        <time>2023-05-20T09:37:51Z</time>
      </trkpt>
      <trkpt lat="47.99445" lon="6.94532">
        <ele>1090.7</ele>
        <time>2023-05-20T09:37:56Z</time>
      </trkpt>
      <trkpt lat="47.99443" lon="6.94539">
        <ele>1091.4</ele>
        <time>2023-05-20T09:38:04Z</time>
      </trkpt>
      <trkpt lat="47.99428" lon="6.94551">
        <ele>1095.3</ele>
        <time>2023-05-20T09:38:12Z</time>
      </trkpt>
      <trkpt lat="47.99425" lon="6.94558">
        <ele>1095.6</ele>
        <time>2023-05-20T09:38:15Z</time>
      </trkpt>
      <trkpt lat="47.99425" lon="6.94563">
        <ele>1094.9</ele>
        <time>2023-05-20T09:38:20Z</time>
      </trkpt>
      <trkpt lat="47.99419" lon="6.94568">
        <ele>1096.3</ele>
        <time>2023-05-20T09:38:26Z</time>
      </trkpt>
      <trkpt lat="47.99409" lon="6.94562">
        <ele>1100.2</ele>
        <time>2023-05-20T09:38:33Z</time>
      </trkpt>
      <trkpt lat="47.9941" lon="6.94583">
        <ele>1098.2</ele>
        <time>2023-05-20T09:38:52Z</time>
      </trkpt>
      <trkpt lat="47.99405" lon="6.9459">
        <ele>1098.6</ele>
        <time>2023-05-20T09:38:59Z</time>
      </trkpt>
      <trkpt lat="47.99401" lon="6.94592">
        <ele>1099.7</ele>
        <time>2023-05-20T09:39:02Z</time>
      </trkpt>
      <trkpt lat="47.99393" lon="6.94584">
        <ele>1103.6</ele>
        <time>2023-05-20T09:39:10Z</time>
      </trkpt>
      <trkpt lat="47.99384" lon="6.94592">
        <ele>1105.1</ele>
        <time>2023-05-20T09:39:21Z</time>
      </trkpt>
      <trkpt lat="47.99378" lon="6.946">
        <ele>1105.2</ele>
        <time>2023-05-20T09:39:32Z</time>
      </trkpt>
      <trkpt lat="47.99375" lon="6.94605">
        <ele>1105</ele>
        <time>2023-05-20T09:39:36Z</time>
      </trkpt>
      <trkpt lat="47.99371" lon="6.94607">
        <ele>1105.3</ele>
        <time>2023-05-20T09:39:42Z</time>
      </trkpt>
      <trkpt lat="47.99365" lon="6.94604">
        <ele>1106.9</ele>
        <time>2023-05-20T09:39:52Z</time>
      </trkpt>
      <trkpt lat="47.99362" lon="6.946">
        <ele>1108.2</ele>
        <time>2023-05-20T09:39:55Z</time>
      </trkpt>
      <trkpt lat="47.99358" lon="6.94586">
        <ele>1110.4</ele>
        <time>2023-05-20T09:40:02Z</time>
      </trkpt>
      <trkpt lat="47.99355" lon="6.9458">
        <ele>1111.1</ele>
        <time>2023-05-20T09:40:05Z</time>
      </trkpt>
      <trkpt lat="47.99343" lon="6.94569">
        <ele>1112.7</ele>
        <time>2023-05-20T09:40:23Z</time>
      </trkpt>
      <trkpt lat="47.99339" lon="6.94566">
        <ele>1113.7</ele>
        <time>2023-05-20T09:40:27Z</time>
      </trkpt>
      <trkpt lat="47.99334" lon="6.94566">
        <ele>1113.4</ele>
        <time>2023-05-20T09:40:33Z</time>
      </trkpt>
      <trkpt lat="47.99326" lon="6.94564">
        <ele>1113.1</ele>
        <time>2023-05-20T09:40:41Z</time>
      </trkpt>
      <trkpt lat="47.9932" lon="6.94562">
        <ele>1113.1</ele>
        <time>2023-05-20T09:40:47Z</time>
      </trkpt>
      <trkpt lat="47.99316" lon="6.94558">
        <ele>1114.6</ele>
        <time>2023-05-20T09:40:52Z</time>
      </trkpt>
      <trkpt lat="47.99312" lon="6.94558">
        <ele>1113.8</ele>
        <time>2023-05-20T09:40:54Z</time>
      </trkpt>
      <trkpt lat="47.99308" lon="6.94554">
        <ele>1115.5</ele>
        <time>2023-05-20T09:40:56Z</time>
      </trkpt>
      <trkpt lat="47.99304" lon="6.94548">
        <ele>1119.4</ele>
        <time>2023-05-20T09:41:04Z</time>
      </trkpt>
      <trkpt lat="47.99299" lon="6.94548">
        <ele>1119.1</ele>
        <time>2023-05-20T09:41:09Z</time>
      </trkpt>
      <trkpt lat="47.99295" lon="6.94545">
        <ele>1120.9</ele>
        <time>2023-05-20T09:41:13Z</time>
      </trkpt>
      <trkpt lat="47.99286" lon="6.94543">
        <ele>1121.7</ele>
        <time>2023-05-20T09:41:26Z</time>
      </trkpt>
      <trkpt lat="47.99281" lon="6.94543">
        <ele>1121.4</ele>
        <time>2023-05-20T09:41:30Z</time>
      </trkpt>
      <trkpt lat="47.99275" lon="6.94547">
        <ele>1119.5</ele>
        <time>2023-05-20T09:41:38Z</time>
      </trkpt>
      <trkpt lat="47.99269" lon="6.94548">
        <ele>1121</ele>
        <time>2023-05-20T09:41:44Z</time>
      </trkpt>
      <trkpt lat="47.99263" lon="6.94548">
        <ele>1123.1</ele>
        <time>2023-05-20T09:41:54Z</time>
      </trkpt>
      <trkpt lat="47.9926" lon="6.94553">
        <ele>1121</ele>
        <time>2023-05-20T09:42:00Z</time>
      </trkpt>
      <trkpt lat="47.99256" lon="6.94556">
        <ele>1120.6</ele>
        <time>2023-05-20T09:42:05Z</time>
      </trkpt>
      <trkpt lat="47.99252" lon="6.9456">
        <ele>1120.2</ele>
        <time>2023-05-20T09:42:08Z</time>
      </trkpt>
      <trkpt lat="47.9925" lon="6.94566">
        <ele>1118.1</ele>
        <time>2023-05-20T09:42:11Z</time>
      </trkpt>
      <trkpt lat="47.99244" lon="6.94565">
        <ele>1121.2</ele>
        <time>2023-05-20T09:42:19Z</time>
      </trkpt>
      <trkpt lat="47.99235" lon="6.9457">
        <ele>1123</ele>
        <time>2023-05-20T09:42:28Z</time>
      </trkpt>
      <trkpt lat="47.99221" lon="6.94584">
        <ele>1123.4</ele>
        <time>2023-05-20T09:42:43Z</time>
      </trkpt>
      <trkpt lat="47.99215" lon="6.94588">
        <ele>1124.7</ele>
        <time>2023-05-20T09:42:51Z</time>
      </trkpt>
      <trkpt lat="47.9921" lon="6.94592">
        <ele>1125.6</ele>
        <time>2023-05-20T09:42:59Z</time>
      </trkpt>
      <trkpt lat="47.99205" lon="6.94589">
        <ele>1129.3</ele>
        <time>2023-05-20T09:43:12Z</time>
      </trkpt>
      <trkpt lat="47.99197" lon="6.94594">
        <ele>1131.1</ele>
        <time>2023-05-20T09:43:21Z</time>
      </trkpt>
      <trkpt lat="47.99192" lon="6.94616">
        <ele>1125.9</ele>
        <time>2023-05-20T09:43:45Z</time>
      </trkpt>
      <trkpt lat="47.99193" lon="6.94623">
        <ele>1123.3</ele>
        <time>2023-05-20T09:43:48Z</time>
      </trkpt>
      <trkpt lat="47.99192" lon="6.9463">
        <ele>1122.3</ele>
        <time>2023-05-20T09:43:52Z</time>
      </trkpt>
      <trkpt lat="47.99186" lon="6.94638">
        <ele>1125.2</ele>
        <time>2023-05-20T09:43:58Z</time>
      </trkpt>
      <trkpt lat="47.9918" lon="6.94644">
        <ele>1128.4</ele>
        <time>2023-05-20T09:44:04Z</time>
      </trkpt>
      <trkpt lat="47.99174" lon="6.94643">
        <ele>1133.6</ele>
        <time>2023-05-20T09:44:08Z</time>
      </trkpt>
      <trkpt lat="47.9917" lon="6.94645">
        <ele>1136.3</ele>
        <time>2023-05-20T09:44:14Z</time>
      </trkpt>
      <trkpt lat="47.99168" lon="6.94651">
        <ele>1136</ele>
        <time>2023-05-20T09:44:19Z</time>
      </trkpt>
      <trkpt lat="47.99166" lon="6.94659">
        <ele>1135.1</ele>
        <time>2023-05-20T09:44:23Z</time>
      </trkpt>
      <trkpt lat="47.99165" lon="6.9467">
        <ele>1132.3</ele>
        <time>2023-05-20T09:44:36Z</time>
      </trkpt>
      <trkpt lat="47.99154" lon="6.94676">
        <ele>1139.9</ele>
        <time>2023-05-20T09:44:48Z</time>
      </trkpt>
      <trkpt lat="47.99153" lon="6.94683">
        <ele>1138.5</ele>
        <time>2023-05-20T09:44:52Z</time>
      </trkpt>
      <trkpt lat="47.9915" lon="6.94687">
        <ele>1140</ele>
        <time>2023-05-20T09:44:55Z</time>
      </trkpt>
      <trkpt lat="47.99147" lon="6.94697">
        <ele>1139.6</ele>
        <time>2023-05-20T09:45:03Z</time>
      </trkpt>
      <trkpt lat="47.99144" lon="6.94701">
        <ele>1141.1</ele>
        <time>2023-05-20T09:45:07Z</time>
      </trkpt>
      <trkpt lat="47.99136" lon="6.94713">
        <ele>1143</ele>
        <time>2023-05-20T09:45:13Z</time>
      </trkpt>
      <trkpt lat="47.99135" lon="6.9472">
        <ele>1141.4</ele>
        <time>2023-05-20T09:45:18Z</time>
      </trkpt>
      <trkpt lat="47.99137" lon="6.94726">
        <ele>1138.9</ele>
        <time>2023-05-20T09:45:25Z</time>
      </trkpt>
      <trkpt lat="47.9913" lon="6.94735">
        <ele>1141.1</ele>
        <time>2023-05-20T09:45:38Z</time>
      </trkpt>
      <trkpt lat="47.99124" lon="6.94743">
        <ele>1144.4</ele>
        <time>2023-05-20T09:45:46Z</time>
      </trkpt>
      <trkpt lat="47.99123" lon="6.94734">
        <ele>1145.7</ele>
        <time>2023-05-20T09:45:51Z</time>
      </trkpt>
      <trkpt lat="47.99124" lon="6.94728">
        <ele>1145.5</ele>
        <time>2023-05-20T09:45:54Z</time>
      </trkpt>
      <trkpt lat="47.99129" lon="6.94715">
        <ele>1145</ele>
        <time>2023-05-20T09:45:59Z</time>
      </trkpt>
      <trkpt lat="47.99132" lon="6.94702">
        <ele>1147</ele>
        <time>2023-05-20T09:46:12Z</time>
      </trkpt>
      <trkpt lat="47.99128" lon="6.94707">
        <ele>1146.9</ele>
        <time>2023-05-20T09:46:17Z</time>
      </trkpt>
      <trkpt lat="47.99123" lon="6.94709">
        <ele>1148</ele>
        <time>2023-05-20T09:46:21Z</time>
      </trkpt>
      <trkpt lat="47.99119" lon="6.94714">
        <ele>1148.9</ele>
        <time>2023-05-20T09:46:26Z</time>
      </trkpt>
      <trkpt lat="47.99099" lon="6.94711">
        <ele>1150.3</ele>
        <time>2023-05-20T09:46:45Z</time>
      </trkpt>
      <trkpt lat="47.99096" lon="6.94706">
        <ele>1149.3</ele>
        <time>2023-05-20T09:46:50Z</time>
      </trkpt>
      <trkpt lat="47.99091" lon="6.94707">
        <ele>1148.7</ele>
        <time>2023-05-20T09:46:54Z</time>
      </trkpt>
      <trkpt lat="47.99086" lon="6.94706">
        <ele>1147.9</ele>
        <time>2023-05-20T09:46:59Z</time>
      </trkpt>
      <trkpt lat="47.99082" lon="6.94701">
        <ele>1146.1</ele>
        <time>2023-05-20T09:47:02Z</time>
      </trkpt>
      <trkpt lat="47.99076" lon="6.94692">
        <ele>1143.8</ele>
        <time>2023-05-20T09:47:10Z</time>
      </trkpt>
      <trkpt lat="47.99072" lon="6.94691">
        <ele>1143.1</ele>
        <time>2023-05-20T09:47:14Z</time>
      </trkpt>
      <trkpt lat="47.99069" lon="6.94677">
        <ele>1143</ele>
        <time>2023-05-20T09:47:23Z</time>
      </trkpt>
      <trkpt lat="47.99062" lon="6.94661">
        <ele>1142.4</ele>
        <time>2023-05-20T09:47:37Z</time>
      </trkpt>
      <trkpt lat="47.99057" lon="6.94657">
        <ele>1141.2</ele>
        <time>2023-05-20T09:47:42Z</time>
      </trkpt>
      <trkpt lat="47.99048" lon="6.94639">
        <ele>1139.8</ele>
        <time>2023-05-20T09:47:58Z</time>
      </trkpt>
      <trkpt lat="47.99044" lon="6.9464">
        <ele>1138.6</ele>
        <time>2023-05-20T09:48:02Z</time>
      </trkpt>
      <trkpt lat="47.99035" lon="6.94634">
        <ele>1136.2</ele>
        <time>2023-05-20T09:48:11Z</time>
      </trkpt>
      <trkpt lat="47.99031" lon="6.94613">
        <ele>1134.6</ele>
        <time>2023-05-20T09:48:22Z</time>
      </trkpt>
      <trkpt lat="47.99018" lon="6.94599">
        <ele>1132.4</ele>
        <time>2023-05-20T09:48:34Z</time>
      </trkpt>
      <trkpt lat="47.99017" lon="6.94592">
        <ele>1132.9</ele>
        <time>2023-05-20T09:48:39Z</time>
      </trkpt>
      <trkpt lat="47.99011" lon="6.94586">
        <ele>1132.1</ele>
        <time>2023-05-20T09:48:47Z</time>
      </trkpt>
      <trkpt lat="47.99012" lon="6.94594">
        <ele>1131.7</ele>
        <time>2023-05-20T09:48:55Z</time>
      </trkpt>
      <trkpt lat="47.99016" lon="6.94604">
        <ele>1131.5</ele>
        <time>2023-05-20T09:49:06Z</time>
      </trkpt>
      <trkpt lat="47.99011" lon="6.94611">
        <ele>1130</ele>
        <time>2023-05-20T09:49:09Z</time>
      </trkpt>
      <trkpt lat="47.99004" lon="6.94613">
        <ele>1128.4</ele>
        <time>2023-05-20T09:49:13Z</time>
      </trkpt>
      <trkpt lat="47.99001" lon="6.94608">
        <ele>1128.4</ele>
        <time>2023-05-20T09:49:16Z</time>
      </trkpt>
      <trkpt lat="47.98999" lon="6.94602">
        <ele>1128.3</ele>
        <time>2023-05-20T09:49:18Z</time>
      </trkpt>
      <trkpt lat="47.98992" lon="6.94598">
        <ele>1126.5</ele>
        <time>2023-05-20T09:49:24Z</time>
      </trkpt>
      <trkpt lat="47.98987" lon="6.94607">
        <ele>1123.8</ele>
        <time>2023-05-20T09:49:34Z</time>
      </trkpt>
      <trkpt lat="47.98982" lon="6.94605">
        <ele>1122.4</ele>
        <time>2023-05-20T09:49:39Z</time>
      </trkpt>
      <trkpt lat="47.98977" lon="6.94599">
        <ele>1121.7</ele>
        <time>2023-05-20T09:49:46Z</time>
      </trkpt>
      <trkpt lat="47.98975" lon="6.94593">
        <ele>1122.1</ele>
        <time>2023-05-20T09:49:48Z</time>
      </trkpt>
      <trkpt lat="47.98967" lon="6.94586">
        <ele>1120.4</ele>
        <time>2023-05-20T09:49:54Z</time>
      </trkpt>
      <trkpt lat="47.98964" lon="6.94581">
        <ele>1120.4</ele>
        <time>2023-05-20T09:49:57Z</time>
      </trkpt>
      <trkpt lat="47.98955" lon="6.94577">
        <ele>1117.9</ele>
        <time>2023-05-20T09:50:07Z</time>
      </trkpt>
      <trkpt lat="47.98939" lon="6.94563">
        <ele>1115.5</ele>
        <time>2023-05-20T09:50:22Z</time>
      </trkpt>
      <trkpt lat="47.98931" lon="6.94553">
        <ele>1115</ele>
        <time>2023-05-20T09:50:34Z</time>
      </trkpt>
      <trkpt lat="47.98925" lon="6.94549">
        <ele>1113.5</ele>
        <time>2023-05-20T09:50:40Z</time>
      </trkpt>
      <trkpt lat="47.98918" lon="6.94537">
        <ele>1112.5</ele>
        <time>2023-05-20T09:50:49Z</time>
      </trkpt>
      <trkpt lat="47.98923" lon="6.94543">
        <ele>1113.5</ele>
        <time>2023-05-20T09:51:03Z</time>
      </trkpt>
      <trkpt lat="47.98926" lon="6.94548">
        <ele>1113.9</ele>
        <time>2023-05-20T09:51:08Z</time>
      </trkpt>
      <trkpt lat="47.98927" lon="6.94556">
        <ele>1113.3</ele>
        <time>2023-05-20T09:51:11Z</time>
      </trkpt>
      <trkpt lat="47.98928" lon="6.94562">
        <ele>1112.3</ele>
        <time>2023-05-20T09:51:15Z</time>
      </trkpt>
      <trkpt lat="47.98926" lon="6.94569">
        <ele>1110.3</ele>
        <time>2023-05-20T09:51:19Z</time>
      </trkpt>
      <trkpt lat="47.98921" lon="6.94567">
        <ele>1109.2</ele>
        <time>2023-05-20T09:51:22Z</time>
      </trkpt>
      <trkpt lat="47.98917" lon="6.94561">
        <ele>1109.1</ele>
        <time>2023-05-20T09:51:25Z</time>
      </trkpt>
      <trkpt lat="47.98915" lon="6.94555">
        <ele>1109.3</ele>
        <time>2023-05-20T09:51:28Z</time>
      </trkpt>
      <trkpt lat="47.98908" lon="6.94537">
        <ele>1107.8</ele>
        <time>2023-05-20T09:51:37Z</time>
      </trkpt>
      <trkpt lat="47.98899" lon="6.94522">
        <ele>1104.9</ele>
        <time>2023-05-20T09:51:47Z</time>
      </trkpt>
      <trkpt lat="47.98894" lon="6.94513">
        <ele>1103.7</ele>
        <time>2023-05-20T09:51:54Z</time>
      </trkpt>
      <trkpt lat="47.9889" lon="6.94508">
        <ele>1102.4</ele>
        <time>2023-05-20T09:51:58Z</time>
      </trkpt>
      <trkpt lat="47.98889" lon="6.94501">
        <ele>1102.9</ele>
        <time>2023-05-20T09:52:02Z</time>
      </trkpt>
      <trkpt lat="47.98882" lon="6.94489">
        <ele>1102.7</ele>
        <time>2023-05-20T09:52:12Z</time>
      </trkpt>
      <trkpt lat="47.98878" lon="6.94492">
        <ele>1101.1</ele>
        <time>2023-05-20T09:52:20Z</time>
      </trkpt>
      <trkpt lat="47.9887" lon="6.94505">
        <ele>1097.1</ele>
        <time>2023-05-20T09:52:33Z</time>
      </trkpt>
      <trkpt lat="47.98866" lon="6.94516">
        <ele>1095.1</ele>
        <time>2023-05-20T09:52:41Z</time>
      </trkpt>
      <trkpt lat="47.98863" lon="6.94524">
        <ele>1093.7</ele>
        <time>2023-05-20T09:52:50Z</time>
      </trkpt>
      <trkpt lat="47.98856" lon="6.94523">
        <ele>1093.1</ele>
        <time>2023-05-20T09:52:53Z</time>
      </trkpt>
      <trkpt lat="47.98853" lon="6.94519">
        <ele>1093.2</ele>
        <time>2023-05-20T09:52:55Z</time>
      </trkpt>
      <trkpt lat="47.98846" lon="6.94517">
        <ele>1093</ele>
        <time>2023-05-20T09:52:59Z</time>
      </trkpt>
      <trkpt lat="47.98842" lon="6.94517">
        <ele>1092.8</ele>
        <time>2023-05-20T09:53:02Z</time>
      </trkpt>
      <trkpt lat="47.98832" lon="6.9452">
        <ele>1092.3</ele>
        <time>2023-05-20T09:53:12Z</time>
      </trkpt>
      <trkpt lat="47.98829" lon="6.94526">
        <ele>1092.2</ele>
        <time>2023-05-20T09:53:27Z</time>
      </trkpt>
      <trkpt lat="47.98798" lon="6.94529">
        <ele>1093.6</ele>
        <time>2023-05-20T09:55:34Z</time>
      </trkpt>
      <trkpt lat="47.98797" lon="6.94528">
        <ele>1093.6</ele>
        <time>2023-05-20T09:55:35Z</time>
      </trkpt>
      <trkpt lat="47.9879" lon="6.94535">
        <ele>1094.3</ele>
        <time>2023-05-20T09:55:44Z</time>
      </trkpt>
      <trkpt lat="47.98787" lon="6.94539">
        <ele>1094.6</ele>
        <time>2023-05-20T09:55:49Z</time>
      </trkpt>
      <trkpt lat="47.98782" lon="6.9454">
        <ele>1095.1</ele>
        <time>2023-05-20T09:55:54Z</time>
      </trkpt>
      <trkpt lat="47.98778" lon="6.94535">
        <ele>1095.2</ele>
        <time>2023-05-20T09:55:59Z</time>
      </trkpt>
      <trkpt lat="47.98768" lon="6.94533">
        <ele>1096.2</ele>
        <time>2023-05-20T09:56:07Z</time>
      </trkpt>
      <trkpt lat="47.98764" lon="6.94529">
        <ele>1096.5</ele>
        <time>2023-05-20T09:56:10Z</time>
      </trkpt>
      <trkpt lat="47.98759" lon="6.94528">
        <ele>1097</ele>
        <time>2023-05-20T09:56:14Z</time>
      </trkpt>
      <trkpt lat="47.98755" lon="6.9453">
        <ele>1097.5</ele>
        <time>2023-05-20T09:56:17Z</time>
      </trkpt>
      <trkpt lat="47.98747" lon="6.94524">
        <ele>1097.6</ele>
        <time>2023-05-20T09:56:26Z</time>
      </trkpt>
      <trkpt lat="47.98734" lon="6.94519">
        <ele>1097.4</ele>
        <time>2023-05-20T09:56:36Z</time>
      </trkpt>
      <trkpt lat="47.98729" lon="6.9452">
        <ele>1097.6</ele>
        <time>2023-05-20T09:56:39Z</time>
      </trkpt>
      <trkpt lat="47.9872" lon="6.94513">
        <ele>1097.3</ele>
        <time>2023-05-20T09:56:48Z</time>
      </trkpt>
      <trkpt lat="47.98716" lon="6.9451">
        <ele>1097</ele>
        <time>2023-05-20T09:56:51Z</time>
      </trkpt>
      <trkpt lat="47.98699" lon="6.94491">
        <ele>1096.6</ele>
        <time>2023-05-20T09:57:08Z</time>
      </trkpt>
      <trkpt lat="47.98692" lon="6.94479">
        <ele>1096.2</ele>
        <time>2023-05-20T09:57:18Z</time>
      </trkpt>
      <trkpt lat="47.98679" lon="6.94466">
        <ele>1095.4</ele>
        <time>2023-05-20T09:57:33Z</time>
      </trkpt>
      <trkpt lat="47.98676" lon="6.94462">
        <ele>1095</ele>
        <time>2023-05-20T09:57:39Z</time>
      </trkpt>
      <trkpt lat="47.9867" lon="6.94461">
        <ele>1095.1</ele>
        <time>2023-05-20T09:57:43Z</time>
      </trkpt>
      <trkpt lat="47.98665" lon="6.94457">
        <ele>1094.8</ele>
        <time>2023-05-20T09:57:51Z</time>
      </trkpt>
      <trkpt lat="47.98655" lon="6.94449">
        <ele>1093.8</ele>
        <time>2023-05-20T09:58:02Z</time>
      </trkpt>
      <trkpt lat="47.98651" lon="6.94443">
        <ele>1093.3</ele>
        <time>2023-05-20T09:58:07Z</time>
      </trkpt>
      <trkpt lat="47.98641" lon="6.94438">
        <ele>1092.6</ele>
        <time>2023-05-20T09:58:15Z</time>
      </trkpt>
      <trkpt lat="47.98642" lon="6.94431">
        <ele>1092</ele>
        <time>2023-05-20T09:58:19Z</time>
      </trkpt>
      <trkpt lat="47.98638" lon="6.94423">
        <ele>1091.4</ele>
        <time>2023-05-20T09:58:26Z</time>
      </trkpt>
      <trkpt lat="47.98629" lon="6.94413">
        <ele>1089.9</ele>
        <time>2023-05-20T09:58:36Z</time>
      </trkpt>
      <trkpt lat="47.98619" lon="6.94406">
        <ele>1089.1</ele>
        <time>2023-05-20T09:58:43Z</time>
      </trkpt>
      <trkpt lat="47.98615" lon="6.94397">
        <ele>1088.9</ele>
        <time>2023-05-20T09:58:50Z</time>
      </trkpt>
      <trkpt lat="47.9859" lon="6.94379">
        <ele>1086.4</ele>
        <time>2023-05-20T09:59:13Z</time>
      </trkpt>
      <trkpt lat="47.98586" lon="6.94373">
        <ele>1086.1</ele>
        <time>2023-05-20T09:59:17Z</time>
      </trkpt>
      <trkpt lat="47.98585" lon="6.94365">
        <ele>1086</ele>
        <time>2023-05-20T09:59:21Z</time>
      </trkpt>
      <trkpt lat="47.98572" lon="6.94336">
        <ele>1086.2</ele>
        <time>2023-05-20T09:59:40Z</time>
      </trkpt>
      <trkpt lat="47.98568" lon="6.94329">
        <ele>1086.3</ele>
        <time>2023-05-20T09:59:48Z</time>
      </trkpt>
      <trkpt lat="47.98564" lon="6.94327">
        <ele>1086.6</ele>
        <time>2023-05-20T09:59:52Z</time>
      </trkpt>
      <trkpt lat="47.98552" lon="6.94314">
        <ele>1086.6</ele>
        <time>2023-05-20T10:00:03Z</time>
      </trkpt>
      <trkpt lat="47.98548" lon="6.94309">
        <ele>1086.4</ele>
        <time>2023-05-20T10:00:08Z</time>
      </trkpt>
      <trkpt lat="47.98537" lon="6.94303">
        <ele>1086.5</ele>
        <time>2023-05-20T10:00:19Z</time>
      </trkpt>
      <trkpt lat="47.98533" lon="6.943">
        <ele>1086.5</ele>
        <time>2023-05-20T10:00:23Z</time>
      </trkpt>
      <trkpt lat="47.98529" lon="6.94298">
        <ele>1086.6</ele>
        <time>2023-05-20T10:00:26Z</time>
      </trkpt>
      <trkpt lat="47.9852" lon="6.94281">
        <ele>1086.3</ele>
        <time>2023-05-20T10:00:38Z</time>
      </trkpt>
      <trkpt lat="47.98513" lon="6.9427">
        <ele>1086.1</ele>
        <time>2023-05-20T10:00:48Z</time>
      </trkpt>
      <trkpt lat="47.98503" lon="6.94262">
        <ele>1086.7</ele>
        <time>2023-05-20T10:00:57Z</time>
      </trkpt>
      <trkpt lat="47.985" lon="6.94258">
        <ele>1087</ele>
        <time>2023-05-20T10:00:59Z</time>
      </trkpt>
      <trkpt lat="47.98498" lon="6.94251">
        <ele>1087.2</ele>
        <time>2023-05-20T10:01:04Z</time>
      </trkpt>
      <trkpt lat="47.98497" lon="6.94244">
        <ele>1086.9</ele>
        <time>2023-05-20T10:01:07Z</time>
      </trkpt>
      <trkpt lat="47.98493" lon="6.94238">
        <ele>1087.1</ele>
        <time>2023-05-20T10:01:10Z</time>
      </trkpt>
      <trkpt lat="47.98488" lon="6.94224">
        <ele>1087.2</ele>
        <time>2023-05-20T10:01:21Z</time>
      </trkpt>
      <trkpt lat="47.98485" lon="6.9422">
        <ele>1087.4</ele>
        <time>2023-05-20T10:01:24Z</time>
      </trkpt>
      <trkpt lat="47.98481" lon="6.94209">
        <ele>1086.8</ele>
        <time>2023-05-20T10:01:32Z</time>
      </trkpt>
      <trkpt lat="47.98478" lon="6.94204">
        <ele>1086.9</ele>
        <time>2023-05-20T10:01:35Z</time>
      </trkpt>
      <trkpt lat="47.98471" lon="6.94196">
        <ele>1087.3</ele>
        <time>2023-05-20T10:01:45Z</time>
      </trkpt>
      <trkpt lat="47.98464" lon="6.94192">
        <ele>1087.2</ele>
        <time>2023-05-20T10:01:53Z</time>
      </trkpt>
      <trkpt lat="47.9845" lon="6.94185">
        <ele>1087.2</ele>
        <time>2023-05-20T10:02:04Z</time>
      </trkpt>
      <trkpt lat="47.98444" lon="6.94187">
        <ele>1088</ele>
        <time>2023-05-20T10:02:08Z</time>
      </trkpt>
      <trkpt lat="47.98435" lon="6.94185">
        <ele>1088.3</ele>
        <time>2023-05-20T10:02:16Z</time>
      </trkpt>
      <trkpt lat="47.9843" lon="6.94182">
        <ele>1088.2</ele>
        <time>2023-05-20T10:02:20Z</time>
      </trkpt>
      <trkpt lat="47.98425" lon="6.94179">
        <ele>1088.2</ele>
        <time>2023-05-20T10:02:25Z</time>
      </trkpt>
      <trkpt lat="47.98422" lon="6.94174">
        <ele>1087.7</ele>
        <time>2023-05-20T10:02:29Z</time>
      </trkpt>
      <trkpt lat="47.98416" lon="6.94169">
        <ele>1087.4</ele>
        <time>2023-05-20T10:02:35Z</time>
      </trkpt>
      <trkpt lat="47.98411" lon="6.94165">
        <ele>1087.2</ele>
        <time>2023-05-20T10:02:43Z</time>
      </trkpt>
      <trkpt lat="47.98405" lon="6.94168">
        <ele>1088.1</ele>
        <time>2023-05-20T10:02:47Z</time>
      </trkpt>
      <trkpt lat="47.984" lon="6.94166">
        <ele>1088.1</ele>
        <time>2023-05-20T10:02:50Z</time>
      </trkpt>
      <trkpt lat="47.98396" lon="6.94163">
        <ele>1088.1</ele>
        <time>2023-05-20T10:02:53Z</time>
      </trkpt>
      <trkpt lat="47.98391" lon="6.94163">
        <ele>1088.4</ele>
        <time>2023-05-20T10:02:56Z</time>
      </trkpt>
      <trkpt lat="47.98367" lon="6.94155">
        <ele>1089.1</ele>
        <time>2023-05-20T10:03:17Z</time>
      </trkpt>
      <trkpt lat="47.98363" lon="6.94151">
        <ele>1088.5</ele>
        <time>2023-05-20T10:03:21Z</time>
      </trkpt>
      <trkpt lat="47.98357" lon="6.94147">
        <ele>1087.6</ele>
        <time>2023-05-20T10:03:28Z</time>
      </trkpt>
      <trkpt lat="47.98351" lon="6.94147">
        <ele>1087.5</ele>
        <time>2023-05-20T10:03:36Z</time>
      </trkpt>
      <trkpt lat="47.98347" lon="6.94145">
        <ele>1086.9</ele>
        <time>2023-05-20T10:03:40Z</time>
      </trkpt>
      <trkpt lat="47.98338" lon="6.94147">
        <ele>1087.2</ele>
        <time>2023-05-20T10:03:46Z</time>
      </trkpt>
      <trkpt lat="47.98334" lon="6.94144">
        <ele>1086.3</ele>
        <time>2023-05-20T10:03:51Z</time>
      </trkpt>
      <trkpt lat="47.98318" lon="6.94139">
        <ele>1084.5</ele>
        <time>2023-05-20T10:04:06Z</time>
      </trkpt>
      <trkpt lat="47.98302" lon="6.9414">
        <ele>1084.4</ele>
        <time>2023-05-20T10:04:16Z</time>
      </trkpt>
      <trkpt lat="47.98292" lon="6.94134">
        <ele>1083.7</ele>
        <time>2023-05-20T10:04:26Z</time>
      </trkpt>
      <trkpt lat="47.98282" lon="6.94132">
        <ele>1083.6</ele>
        <time>2023-05-20T10:04:34Z</time>
      </trkpt>
      <trkpt lat="47.98259" lon="6.94133">
        <ele>1083.4</ele>
        <time>2023-05-20T10:04:53Z</time>
      </trkpt>
      <trkpt lat="47.98251" lon="6.94125">
        <ele>1082</ele>
        <time>2023-05-20T10:05:00Z</time>
      </trkpt>
      <trkpt lat="47.98246" lon="6.94125">
        <ele>1082.1</ele>
        <time>2023-05-20T10:05:04Z</time>
      </trkpt>
      <trkpt lat="47.98242" lon="6.94122">
        <ele>1081.7</ele>
        <time>2023-05-20T10:05:08Z</time>
      </trkpt>
      <trkpt lat="47.98235" lon="6.94119">
        <ele>1081.3</ele>
        <time>2023-05-20T10:05:15Z</time>
      </trkpt>
      <trkpt lat="47.98226" lon="6.94118">
        <ele>1081.2</ele>
        <time>2023-05-20T10:05:21Z</time>
      </trkpt>
      <trkpt lat="47.98216" lon="6.94104">
        <ele>1079.1</ele>
        <time>2023-05-20T10:05:32Z</time>
      </trkpt>
      <trkpt lat="47.9819" lon="6.9408">
        <ele>1075.5</ele>
        <time>2023-05-20T10:06:01Z</time>
      </trkpt>
      <trkpt lat="47.98181" lon="6.94067">
        <ele>1073.4</ele>
        <time>2023-05-20T10:06:13Z</time>
      </trkpt>
      <trkpt lat="47.98176" lon="6.94064">
        <ele>1072.8</ele>
        <time>2023-05-20T10:06:17Z</time>
      </trkpt>
      <trkpt lat="47.98171" lon="6.94056">
        <ele>1071.2</ele>
        <time>2023-05-20T10:06:25Z</time>
      </trkpt>
      <trkpt lat="47.98166" lon="6.94055">
        <ele>1070.9</ele>
        <time>2023-05-20T10:06:30Z</time>
      </trkpt>
      <trkpt lat="47.98162" lon="6.94047">
        <ele>1069.7</ele>
        <time>2023-05-20T10:06:36Z</time>
      </trkpt>
      <trkpt lat="47.98136" lon="6.9403">
        <ele>1066.3</ele>
        <time>2023-05-20T10:07:01Z</time>
      </trkpt>
      <trkpt lat="47.98129" lon="6.9403">
        <ele>1066</ele>
        <time>2023-05-20T10:07:08Z</time>
      </trkpt>
      <trkpt lat="47.98116" lon="6.94021">
        <ele>1063.8</ele>
        <time>2023-05-20T10:07:22Z</time>
      </trkpt>
      <trkpt lat="47.98111" lon="6.94016">
        <ele>1062.4</ele>
        <time>2023-05-20T10:07:29Z</time>
      </trkpt>
      <trkpt lat="47.98104" lon="6.94017">
        <ele>1062.2</ele>
        <time>2023-05-20T10:07:36Z</time>
      </trkpt>
      <trkpt lat="47.98094" lon="6.94013">
        <ele>1060.6</ele>
        <time>2023-05-20T10:07:48Z</time>
      </trkpt>
      <trkpt lat="47.98077" lon="6.94013">
        <ele>1058.8</ele>
        <time>2023-05-20T10:08:09Z</time>
      </trkpt>
      <trkpt lat="47.98072" lon="6.94014">
        <ele>1058.2</ele>
        <time>2023-05-20T10:08:15Z</time>
      </trkpt>
      <trkpt lat="47.98068" lon="6.94018">
        <ele>1058.3</ele>
        <time>2023-05-20T10:08:19Z</time>
      </trkpt>
      <trkpt lat="47.98063" lon="6.94023">
        <ele>1058.4</ele>
        <time>2023-05-20T10:08:25Z</time>
      </trkpt>
      <trkpt lat="47.98051" lon="6.94029">
        <ele>1057.6</ele>
        <time>2023-05-20T10:08:36Z</time>
      </trkpt>
      <trkpt lat="47.98047" lon="6.94035">
        <ele>1058.1</ele>
        <time>2023-05-20T10:08:39Z</time>
      </trkpt>
      <trkpt lat="47.98035" lon="6.94053">
        <ele>1059.6</ele>
        <time>2023-05-20T10:08:57Z</time>
      </trkpt>
      <trkpt lat="47.9803" lon="6.94056">
        <ele>1059.4</ele>
        <time>2023-05-20T10:09:03Z</time>
      </trkpt>
      <trkpt lat="47.98007" lon="6.94061">
        <ele>1058.3</ele>
        <time>2023-05-20T10:09:18Z</time>
      </trkpt>
      <trkpt lat="47.97997" lon="6.94062">
        <ele>1058</ele>
        <time>2023-05-20T10:09:26Z</time>
      </trkpt>
      <trkpt lat="47.97991" lon="6.94058">
        <ele>1057.6</ele>
        <time>2023-05-20T10:09:29Z</time>
      </trkpt>
      <trkpt lat="47.97988" lon="6.94053">
        <ele>1057</ele>
        <time>2023-05-20T10:09:33Z</time>
      </trkpt>
      <trkpt lat="47.97982" lon="6.94049">
        <ele>1056.6</ele>
        <time>2023-05-20T10:09:38Z</time>
      </trkpt>
      <trkpt lat="47.9798" lon="6.94041">
        <ele>1055.5</ele>
        <time>2023-05-20T10:09:43Z</time>
      </trkpt>
      <trkpt lat="47.97976" lon="6.94026">
        <ele>1053.5</ele>
        <time>2023-05-20T10:09:53Z</time>
      </trkpt>
      <trkpt lat="47.97973" lon="6.9402">
        <ele>1053.1</ele>
        <time>2023-05-20T10:09:58Z</time>
      </trkpt>
      <trkpt lat="47.9797" lon="6.94012">
        <ele>1053</ele>
        <time>2023-05-20T10:10:04Z</time>
      </trkpt>
      <trkpt lat="47.97967" lon="6.94009">
        <ele>1053.7</ele>
        <time>2023-05-20T10:10:07Z</time>
      </trkpt>
      <trkpt lat="47.97962" lon="6.94002">
        <ele>1054.8</ele>
        <time>2023-05-20T10:10:15Z</time>
      </trkpt>
      <trkpt lat="47.97964" lon="6.93995">
        <ele>1053.7</ele>
        <time>2023-05-20T10:10:18Z</time>
      </trkpt>
      <trkpt lat="47.97964" lon="6.93987">
        <ele>1053.2</ele>
        <time>2023-05-20T10:10:22Z</time>
      </trkpt>
      <trkpt lat="47.97962" lon="6.93972">
        <ele>1053</ele>
        <time>2023-05-20T10:10:30Z</time>
      </trkpt>
      <trkpt lat="47.97958" lon="6.93933">
        <ele>1052</ele>
        <time>2023-05-20T10:10:53Z</time>
      </trkpt>
      <trkpt lat="47.97947" lon="6.93903">
        <ele>1053.3</ele>
        <time>2023-05-20T10:11:12Z</time>
      </trkpt>
      <trkpt lat="47.97945" lon="6.93881">
        <ele>1052.3</ele>
        <time>2023-05-20T10:11:23Z</time>
      </trkpt>
      <trkpt lat="47.97946" lon="6.93874">
        <ele>1051.4</ele>
        <time>2023-05-20T10:11:26Z</time>
      </trkpt>
      <trkpt lat="47.97944" lon="6.93861">
        <ele>1051.1</ele>
        <time>2023-05-20T10:11:32Z</time>
      </trkpt>
      <trkpt lat="47.97945" lon="6.93838">
        <ele>1048.3</ele>
        <time>2023-05-20T10:11:46Z</time>
      </trkpt>
      <trkpt lat="47.97943" lon="6.93794">
        <ele>1046</ele>
        <time>2023-05-20T10:12:10Z</time>
      </trkpt>
      <trkpt lat="47.97946" lon="6.93789">
        <ele>1045.1</ele>
        <time>2023-05-20T10:12:15Z</time>
      </trkpt>
      <trkpt lat="47.97947" lon="6.93745">
        <ele>1044.9</ele>
        <time>2023-05-20T10:12:47Z</time>
      </trkpt>
      <trkpt lat="47.97948" lon="6.93738">
        <ele>1044.3</ele>
        <time>2023-05-20T10:12:51Z</time>
      </trkpt>
      <trkpt lat="47.9795" lon="6.93732">
        <ele>1043.4</ele>
        <time>2023-05-20T10:12:55Z</time>
      </trkpt>
      <trkpt lat="47.97956" lon="6.93701">
        <ele>1040.5</ele>
        <time>2023-05-20T10:13:14Z</time>
      </trkpt>
      <trkpt lat="47.9796" lon="6.93689">
        <ele>1038.4</ele>
        <time>2023-05-20T10:13:22Z</time>
      </trkpt>
      <trkpt lat="47.97961" lon="6.93682">
        <ele>1037.5</ele>
        <time>2023-05-20T10:13:25Z</time>
      </trkpt>
      <trkpt lat="47.97961" lon="6.93676">
        <ele>1037.1</ele>
        <time>2023-05-20T10:13:29Z</time>
      </trkpt>
      <trkpt lat="47.97962" lon="6.93668">
        <ele>1036.1</ele>
        <time>2023-05-20T10:13:33Z</time>
      </trkpt>
      <trkpt lat="47.97958" lon="6.93635">
        <ele>1034.1</ele>
        <time>2023-05-20T10:13:53Z</time>
      </trkpt>
      <trkpt lat="47.97953" lon="6.93626">
        <ele>1034.9</ele>
        <time>2023-05-20T10:14:01Z</time>
      </trkpt>
      <trkpt lat="47.97945" lon="6.9361">
        <ele>1035.6</ele>
        <time>2023-05-20T10:14:13Z</time>
      </trkpt>
      <trkpt lat="47.97945" lon="6.93602">
        <ele>1034.2</ele>
        <time>2023-05-20T10:14:17Z</time>
      </trkpt>
      <trkpt lat="47.97931" lon="6.93574">
        <ele>1034</ele>
        <time>2023-05-20T10:14:40Z</time>
      </trkpt>
      <trkpt lat="47.9793" lon="6.93566">
        <ele>1032.7</ele>
        <time>2023-05-20T10:14:44Z</time>
      </trkpt>
      <trkpt lat="47.97931" lon="6.9356">
        <ele>1031.3</ele>
        <time>2023-05-20T10:14:48Z</time>
      </trkpt>
      <trkpt lat="47.97931" lon="6.93543">
        <ele>1029</ele>
        <time>2023-05-20T10:14:55Z</time>
      </trkpt>
      <trkpt lat="47.97927" lon="6.93539">
        <ele>1029.6</ele>
        <time>2023-05-20T10:14:59Z</time>
      </trkpt>
      <trkpt lat="47.97922" lon="6.9352">
        <ele>1028.8</ele>
        <time>2023-05-20T10:15:11Z</time>
      </trkpt>
      <trkpt lat="47.97919" lon="6.93507">
        <ele>1028.1</ele>
        <time>2023-05-20T10:15:19Z</time>
      </trkpt>
      <trkpt lat="47.97919" lon="6.93499">
        <ele>1027.1</ele>
        <time>2023-05-20T10:15:23Z</time>
      </trkpt>
      <trkpt lat="47.97916" lon="6.93494">
        <ele>1026.8</ele>
        <time>2023-05-20T10:15:26Z</time>
      </trkpt>
      <trkpt lat="47.97905" lon="6.9346">
        <ele>1021.1</ele>
        <time>2023-05-20T10:15:53Z</time>
      </trkpt>
      <trkpt lat="47.97902" lon="6.93456">
        <ele>1020.6</ele>
        <time>2023-05-20T10:15:57Z</time>
      </trkpt>
      <trkpt lat="47.97894" lon="6.93435">
        <ele>1017.2</ele>
        <time>2023-05-20T10:16:13Z</time>
      </trkpt>
      <trkpt lat="47.97891" lon="6.9343">
        <ele>1016.4</ele>
        <time>2023-05-20T10:16:16Z</time>
      </trkpt>
      <trkpt lat="47.97871" lon="6.93419">
        <ele>1014.5</ele>
        <time>2023-05-20T10:16:38Z</time>
      </trkpt>
      <trkpt lat="47.97868" lon="6.93414">
        <ele>1013.7</ele>
        <time>2023-05-20T10:16:42Z</time>
      </trkpt>
      <trkpt lat="47.97869" lon="6.93406">
        <ele>1012.9</ele>
        <time>2023-05-20T10:16:50Z</time>
      </trkpt>
      <trkpt lat="47.97873" lon="6.93409">
        <ele>1013.1</ele>
        <time>2023-05-20T10:17:19Z</time>
      </trkpt>
      <trkpt lat="47.97869" lon="6.93419">
        <ele>1014.5</ele>
        <time>2023-05-20T10:17:25Z</time>
      </trkpt>
      <trkpt lat="47.97864" lon="6.93422">
        <ele>1015.1</ele>
        <time>2023-05-20T10:17:26Z</time>
      </trkpt>
      <trkpt lat="47.9786" lon="6.9342">
        <ele>1014.8</ele>
        <time>2023-05-20T10:17:33Z</time>
      </trkpt>
      <trkpt lat="47.97846" lon="6.93412">
        <ele>1013.9</ele>
        <time>2023-05-20T10:17:48Z</time>
      </trkpt>
      <trkpt lat="47.9784" lon="6.93411">
        <ele>1013.9</ele>
        <time>2023-05-20T10:17:59Z</time>
      </trkpt>
      <trkpt lat="47.97814" lon="6.93416">
        <ele>1014.2</ele>
        <time>2023-05-20T10:18:18Z</time>
      </trkpt>
      <trkpt lat="47.9781" lon="6.93413">
        <ele>1013.4</ele>
        <time>2023-05-20T10:18:23Z</time>
      </trkpt>
      <trkpt lat="47.97805" lon="6.93415">
        <ele>1013.6</ele>
        <time>2023-05-20T10:18:27Z</time>
      </trkpt>
      <trkpt lat="47.97799" lon="6.93413">
        <ele>1012.5</ele>
        <time>2023-05-20T10:18:34Z</time>
      </trkpt>
      <trkpt lat="47.97794" lon="6.93414">
        <ele>1012.1</ele>
        <time>2023-05-20T10:18:40Z</time>
      </trkpt>
      <trkpt lat="47.9779" lon="6.93412">
        <ele>1011.2</ele>
        <time>2023-05-20T10:18:45Z</time>
      </trkpt>
      <trkpt lat="47.97785" lon="6.93414">
        <ele>1011.1</ele>
        <time>2023-05-20T10:18:49Z</time>
      </trkpt>
      <trkpt lat="47.97748" lon="6.93444">
        <ele>1012.3</ele>
        <time>2023-05-20T10:19:26Z</time>
      </trkpt>
      <trkpt lat="47.97746" lon="6.93452">
        <ele>1014.3</ele>
        <time>2023-05-20T10:19:31Z</time>
      </trkpt>
      <trkpt lat="47.97725" lon="6.93465">
        <ele>1012.5</ele>
        <time>2023-05-20T10:19:48Z</time>
      </trkpt>
      <trkpt lat="47.97707" lon="6.93483">
        <ele>1012.4</ele>
        <time>2023-05-20T10:20:03Z</time>
      </trkpt>
      <trkpt lat="47.977" lon="6.93489">
        <ele>1012.1</ele>
        <time>2023-05-20T10:20:12Z</time>
      </trkpt>
      <trkpt lat="47.97685" lon="6.93499">
        <ele>1011.3</ele>
        <time>2023-05-20T10:20:24Z</time>
      </trkpt>
      <trkpt lat="47.97676" lon="6.93503">
        <ele>1010.5</ele>
        <time>2023-05-20T10:20:32Z</time>
      </trkpt>
      <trkpt lat="47.97674" lon="6.9351">
        <ele>1012.8</ele>
        <time>2023-05-20T10:20:34Z</time>
      </trkpt>
      <trkpt lat="47.9767" lon="6.93513">
        <ele>1013</ele>
        <time>2023-05-20T10:20:38Z</time>
      </trkpt>
      <trkpt lat="47.97635" lon="6.93524">
        <ele>1011.5</ele>
        <time>2023-05-20T10:21:03Z</time>
      </trkpt>
      <trkpt lat="47.97616" lon="6.93536">
        <ele>1011.2</ele>
        <time>2023-05-20T10:21:24Z</time>
      </trkpt>
      <trkpt lat="47.97602" lon="6.93552">
        <ele>1013.8</ele>
        <time>2023-05-20T10:21:39Z</time>
      </trkpt>
      <trkpt lat="47.9757" lon="6.93569">
        <ele>1016.3</ele>
        <time>2023-05-20T10:22:02Z</time>
      </trkpt>
      <trkpt lat="47.97566" lon="6.93567">
        <ele>1015.7</ele>
        <time>2023-05-20T10:22:05Z</time>
      </trkpt>
      <trkpt lat="47.97561" lon="6.93567">
        <ele>1015.9</ele>
        <time>2023-05-20T10:22:08Z</time>
      </trkpt>
      <trkpt lat="47.97556" lon="6.93564">
        <ele>1015</ele>
        <time>2023-05-20T10:22:11Z</time>
      </trkpt>
      <trkpt lat="47.9755" lon="6.93554">
        <ele>1013.7</ele>
        <time>2023-05-20T10:22:17Z</time>
      </trkpt>
      <trkpt lat="47.97548" lon="6.93548">
        <ele>1013.9</ele>
        <time>2023-05-20T10:22:20Z</time>
      </trkpt>
      <trkpt lat="47.97544" lon="6.93527">
        <ele>1013.7</ele>
        <time>2023-05-20T10:22:31Z</time>
      </trkpt>
      <trkpt lat="47.97541" lon="6.93521">
        <ele>1014.2</ele>
        <time>2023-05-20T10:22:35Z</time>
      </trkpt>
      <trkpt lat="47.9754" lon="6.93514">
        <ele>1014</ele>
        <time>2023-05-20T10:22:39Z</time>
      </trkpt>
      <trkpt lat="47.97537" lon="6.9351">
        <ele>1014.7</ele>
        <time>2023-05-20T10:22:43Z</time>
      </trkpt>
      <trkpt lat="47.97534" lon="6.93497">
        <ele>1014.4</ele>
        <time>2023-05-20T10:22:51Z</time>
      </trkpt>
      <trkpt lat="47.97532" lon="6.93491">
        <ele>1013.8</ele>
        <time>2023-05-20T10:22:54Z</time>
      </trkpt>
      <trkpt lat="47.97529" lon="6.93486">
        <ele>1013.6</ele>
        <time>2023-05-20T10:22:57Z</time>
      </trkpt>
      <trkpt lat="47.97521" lon="6.93481">
        <ele>1014.1</ele>
        <time>2023-05-20T10:23:04Z</time>
      </trkpt>
      <trkpt lat="47.97517" lon="6.93475">
        <ele>1013.5</ele>
        <time>2023-05-20T10:23:08Z</time>
      </trkpt>
      <trkpt lat="47.97504" lon="6.93465">
        <ele>1014.2</ele>
        <time>2023-05-20T10:23:19Z</time>
      </trkpt>
      <trkpt lat="47.97487" lon="6.93438">
        <ele>1014.1</ele>
        <time>2023-05-20T10:23:39Z</time>
      </trkpt>
      <trkpt lat="47.97484" lon="6.93432">
        <ele>1014</ele>
        <time>2023-05-20T10:23:43Z</time>
      </trkpt>
      <trkpt lat="47.9748" lon="6.93428">
        <ele>1014</ele>
        <time>2023-05-20T10:23:46Z</time>
      </trkpt>
      <trkpt lat="47.97477" lon="6.93423">
        <ele>1013.6</ele>
        <time>2023-05-20T10:23:49Z</time>
      </trkpt>
      <trkpt lat="47.97473" lon="6.93417">
        <ele>1013</ele>
        <time>2023-05-20T10:23:53Z</time>
      </trkpt>
      <trkpt lat="47.97469" lon="6.93413">
        <ele>1013.3</ele>
        <time>2023-05-20T10:23:57Z</time>
      </trkpt>
      <trkpt lat="47.97467" lon="6.93406">
        <ele>1013.2</ele>
        <time>2023-05-20T10:24:01Z</time>
      </trkpt>
      <trkpt lat="47.97465" lon="6.934">
        <ele>1013.2</ele>
        <time>2023-05-20T10:24:04Z</time>
      </trkpt>
      <trkpt lat="47.97448" lon="6.93348">
        <ele>1012.8</ele>
        <time>2023-05-20T10:24:35Z</time>
      </trkpt>
      <trkpt lat="47.97435" lon="6.93327">
        <ele>1014</ele>
        <time>2023-05-20T10:24:51Z</time>
      </trkpt>
      <trkpt lat="47.9742" lon="6.93309">
        <ele>1014.9</ele>
        <time>2023-05-20T10:25:08Z</time>
      </trkpt>
      <trkpt lat="47.97412" lon="6.93305">
        <ele>1015</ele>
        <time>2023-05-20T10:25:16Z</time>
      </trkpt>
      <trkpt lat="47.97402" lon="6.93306">
        <ele>1015.6</ele>
        <time>2023-05-20T10:25:23Z</time>
      </trkpt>
      <trkpt lat="47.97397" lon="6.93304">
        <ele>1015.5</ele>
        <time>2023-05-20T10:25:27Z</time>
      </trkpt>
      <trkpt lat="47.97392" lon="6.93304">
        <ele>1015.7</ele>
        <time>2023-05-20T10:25:31Z</time>
      </trkpt>
      <trkpt lat="47.97388" lon="6.93299">
        <ele>1015.6</ele>
        <time>2023-05-20T10:25:35Z</time>
      </trkpt>
      <trkpt lat="47.97383" lon="6.93299">
        <ele>1016</ele>
        <time>2023-05-20T10:25:38Z</time>
      </trkpt>
      <trkpt lat="47.97379" lon="6.93293">
        <ele>1016.3</ele>
        <time>2023-05-20T10:25:42Z</time>
      </trkpt>
      <trkpt lat="47.97377" lon="6.93286">
        <ele>1016.5</ele>
        <time>2023-05-20T10:25:46Z</time>
      </trkpt>
      <trkpt lat="47.97371" lon="6.93274">
        <ele>1017.4</ele>
        <time>2023-05-20T10:25:53Z</time>
      </trkpt>
      <trkpt lat="47.9736" lon="6.93249">
        <ele>1017</ele>
        <time>2023-05-20T10:26:09Z</time>
      </trkpt>
      <trkpt lat="47.97338" lon="6.93214">
        <ele>1015.5</ele>
        <time>2023-05-20T10:26:37Z</time>
      </trkpt>
      <trkpt lat="47.97336" lon="6.93208">
        <ele>1015.1</ele>
        <time>2023-05-20T10:26:41Z</time>
      </trkpt>
      <trkpt lat="47.97331" lon="6.93205">
        <ele>1015.1</ele>
        <time>2023-05-20T10:26:45Z</time>
      </trkpt>
      <trkpt lat="47.97325" lon="6.93205">
        <ele>1015</ele>
        <time>2023-05-20T10:26:51Z</time>
      </trkpt>
      <trkpt lat="47.9732" lon="6.9321">
        <ele>1015.1</ele>
        <time>2023-05-20T10:27:04Z</time>
      </trkpt>
      <trkpt lat="47.97313" lon="6.93218">
        <ele>1014.8</ele>
        <time>2023-05-20T10:27:13Z</time>
      </trkpt>
      <trkpt lat="47.97309" lon="6.93228">
        <ele>1014.2</ele>
        <time>2023-05-20T10:27:23Z</time>
      </trkpt>
      <trkpt lat="47.97299" lon="6.93243">
        <ele>1012.4</ele>
        <time>2023-05-20T10:27:36Z</time>
      </trkpt>
      <trkpt lat="47.97288" lon="6.93242">
        <ele>1011.1</ele>
        <time>2023-05-20T10:27:44Z</time>
      </trkpt>
      <trkpt lat="47.97283" lon="6.9324">
        <ele>1010.7</ele>
        <time>2023-05-20T10:27:48Z</time>
      </trkpt>
      <trkpt lat="47.97277" lon="6.93237">
        <ele>1010.3</ele>
        <time>2023-05-20T10:27:51Z</time>
      </trkpt>
      <trkpt lat="47.97273" lon="6.93235">
        <ele>1010.2</ele>
        <time>2023-05-20T10:27:55Z</time>
      </trkpt>
      <trkpt lat="47.97257" lon="6.93239">
        <ele>1008.1</ele>
        <time>2023-05-20T10:28:08Z</time>
      </trkpt>
      <trkpt lat="47.97252" lon="6.93234">
        <ele>1008.6</ele>
        <time>2023-05-20T10:28:11Z</time>
      </trkpt>
      <trkpt lat="47.97247" lon="6.93231">
        <ele>1009.5</ele>
        <time>2023-05-20T10:28:15Z</time>
      </trkpt>
      <trkpt lat="47.97242" lon="6.9323">
        <ele>1010.4</ele>
        <time>2023-05-20T10:28:19Z</time>
      </trkpt>
      <trkpt lat="47.97237" lon="6.93238">
        <ele>1008.9</ele>
        <time>2023-05-20T10:28:28Z</time>
      </trkpt>
      <trkpt lat="47.97232" lon="6.93245">
        <ele>1007.2</ele>
        <time>2023-05-20T10:28:36Z</time>
      </trkpt>
      <trkpt lat="47.97222" lon="6.93249">
        <ele>1006.4</ele>
        <time>2023-05-20T10:28:46Z</time>
      </trkpt>
      <trkpt lat="47.97215" lon="6.9325">
        <ele>1006.5</ele>
        <time>2023-05-20T10:28:50Z</time>
      </trkpt>
      <trkpt lat="47.97211" lon="6.93252">
        <ele>1006.6</ele>
        <time>2023-05-20T10:28:54Z</time>
      </trkpt>
      <trkpt lat="47.97204" lon="6.93253">
        <ele>1007.1</ele>
        <time>2023-05-20T10:29:03Z</time>
      </trkpt>
      <trkpt lat="47.97196" lon="6.93246">
        <ele>1008.2</ele>
        <time>2023-05-20T10:29:13Z</time>
      </trkpt>
      <trkpt lat="47.97186" lon="6.93245">
        <ele>1009.6</ele>
        <time>2023-05-20T10:29:21Z</time>
      </trkpt>
      <trkpt lat="47.97179" lon="6.93242">
        <ele>1011</ele>
        <time>2023-05-20T10:29:31Z</time>
      </trkpt>
      <trkpt lat="47.97173" lon="6.93245">
        <ele>1011.6</ele>
        <time>2023-05-20T10:29:43Z</time>
      </trkpt>
      <trkpt lat="47.97166" lon="6.93248">
        <ele>1012.5</ele>
        <time>2023-05-20T10:29:49Z</time>
      </trkpt>
      <trkpt lat="47.97164" lon="6.93257">
        <ele>1013.3</ele>
        <time>2023-05-20T10:29:58Z</time>
      </trkpt>
      <trkpt lat="47.97166" lon="6.93262">
        <ele>1012.3</ele>
        <time>2023-05-20T10:30:02Z</time>
      </trkpt>
      <trkpt lat="47.97166" lon="6.93276">
        <ele>1012.4</ele>
        <time>2023-05-20T10:30:10Z</time>
      </trkpt>
      <trkpt lat="47.97165" lon="6.93285">
        <ele>1012.7</ele>
        <time>2023-05-20T10:30:17Z</time>
      </trkpt>
      <trkpt lat="47.97165" lon="6.93302">
        <ele>1012.1</ele>
        <time>2023-05-20T10:30:30Z</time>
      </trkpt>
      <trkpt lat="47.97163" lon="6.93309">
        <ele>1013.4</ele>
        <time>2023-05-20T10:30:33Z</time>
      </trkpt>
      <trkpt lat="47.97164" lon="6.93319">
        <ele>1013.4</ele>
        <time>2023-05-20T10:30:41Z</time>
      </trkpt>
      <trkpt lat="47.97163" lon="6.93326">
        <ele>1014.3</ele>
        <time>2023-05-20T10:30:45Z</time>
      </trkpt>
      <trkpt lat="47.97164" lon="6.93334">
        <ele>1014.3</ele>
        <time>2023-05-20T10:30:49Z</time>
      </trkpt>
      <trkpt lat="47.97163" lon="6.93341">
        <ele>1015.6</ele>
        <time>2023-05-20T10:30:53Z</time>
      </trkpt>
      <trkpt lat="47.97162" lon="6.93375">
        <ele>1018.4</ele>
        <time>2023-05-20T10:31:17Z</time>
      </trkpt>
      <trkpt lat="47.9716" lon="6.9338">
        <ele>1018.9</ele>
        <time>2023-05-20T10:31:21Z</time>
      </trkpt>
      <trkpt lat="47.97154" lon="6.93381">
        <ele>1019.9</ele>
        <time>2023-05-20T10:31:24Z</time>
      </trkpt>
      <trkpt lat="47.97149" lon="6.93376">
        <ele>1021</ele>
        <time>2023-05-20T10:31:27Z</time>
      </trkpt>
      <trkpt lat="47.97147" lon="6.93369">
        <ele>1021.6</ele>
        <time>2023-05-20T10:31:32Z</time>
      </trkpt>
      <trkpt lat="47.97145" lon="6.93361">
        <ele>1022.5</ele>
        <time>2023-05-20T10:31:37Z</time>
      </trkpt>
      <trkpt lat="47.97145" lon="6.93355">
        <ele>1022.6</ele>
        <time>2023-05-20T10:31:41Z</time>
      </trkpt>
      <trkpt lat="47.97142" lon="6.93335">
        <ele>1024.5</ele>
        <time>2023-05-20T10:31:54Z</time>
      </trkpt>
      <trkpt lat="47.9714" lon="6.93306">
        <ele>1027.3</ele>
        <time>2023-05-20T10:32:12Z</time>
      </trkpt>
      <trkpt lat="47.97138" lon="6.93298">
        <ele>1028.3</ele>
        <time>2023-05-20T10:32:19Z</time>
      </trkpt>
      <trkpt lat="47.97138" lon="6.93291">
        <ele>1028.1</ele>
        <time>2023-05-20T10:32:25Z</time>
      </trkpt>
      <trkpt lat="47.97135" lon="6.93283">
        <ele>1029.8</ele>
        <time>2023-05-20T10:32:31Z</time>
      </trkpt>
      <trkpt lat="47.97129" lon="6.93247">
        <ele>1031.6</ele>
        <time>2023-05-20T10:32:59Z</time>
      </trkpt>
      <trkpt lat="47.97118" lon="6.93218">
        <ele>1036.3</ele>
        <time>2023-05-20T10:33:25Z</time>
      </trkpt>
      <trkpt lat="47.97116" lon="6.93211">
        <ele>1037.1</ele>
        <time>2023-05-20T10:33:30Z</time>
      </trkpt>
      <trkpt lat="47.97107" lon="6.93198">
        <ele>1039.8</ele>
        <time>2023-05-20T10:33:51Z</time>
      </trkpt>
      <trkpt lat="47.971" lon="6.93193">
        <ele>1042.1</ele>
        <time>2023-05-20T10:34:03Z</time>
      </trkpt>
      <trkpt lat="47.97102" lon="6.93188">
        <ele>1041.7</ele>
        <time>2023-05-20T10:34:07Z</time>
      </trkpt>
      <trkpt lat="47.971" lon="6.93176">
        <ele>1042.9</ele>
        <time>2023-05-20T10:34:15Z</time>
      </trkpt>
      <trkpt lat="47.97102" lon="6.93168">
        <ele>1042.9</ele>
        <time>2023-05-20T10:34:20Z</time>
      </trkpt>
      <trkpt lat="47.97097" lon="6.9317">
        <ele>1043.9</ele>
        <time>2023-05-20T10:34:30Z</time>
      </trkpt>
      <trkpt lat="47.97091" lon="6.9317">
        <ele>1045.3</ele>
        <time>2023-05-20T10:34:36Z</time>
      </trkpt>
      <trkpt lat="47.97085" lon="6.93166">
        <ele>1046.7</ele>
        <time>2023-05-20T10:34:47Z</time>
      </trkpt>
      <trkpt lat="47.9708" lon="6.93158">
        <ele>1047.8</ele>
        <time>2023-05-20T10:35:00Z</time>
      </trkpt>
      <trkpt lat="47.97075" lon="6.93159">
        <ele>1047.9</ele>
        <time>2023-05-20T10:35:05Z</time>
      </trkpt>
      <trkpt lat="47.97073" lon="6.93167">
        <ele>1047</ele>
        <time>2023-05-20T10:35:15Z</time>
      </trkpt>
      <trkpt lat="47.97067" lon="6.93166">
        <ele>1047.1</ele>
        <time>2023-05-20T10:35:19Z</time>
      </trkpt>
      <trkpt lat="47.97065" lon="6.93161">
        <ele>1047.9</ele>
        <time>2023-05-20T10:35:23Z</time>
      </trkpt>
      <trkpt lat="47.97059" lon="6.93159">
        <ele>1048.5</ele>
        <time>2023-05-20T10:35:28Z</time>
      </trkpt>
      <trkpt lat="47.97048" lon="6.9316">
        <ele>1049.7</ele>
        <time>2023-05-20T10:35:38Z</time>
      </trkpt>
      <trkpt lat="47.97043" lon="6.93164">
        <ele>1049.5</ele>
        <time>2023-05-20T10:35:44Z</time>
      </trkpt>
      <trkpt lat="47.97039" lon="6.93166">
        <ele>1049.6</ele>
        <time>2023-05-20T10:35:48Z</time>
      </trkpt>
      <trkpt lat="47.97033" lon="6.93165">
        <ele>1050.8</ele>
        <time>2023-05-20T10:35:56Z</time>
      </trkpt>
      <trkpt lat="47.97025" lon="6.93167">
        <ele>1051.3</ele>
        <time>2023-05-20T10:36:04Z</time>
      </trkpt>
      <trkpt lat="47.97012" lon="6.93166">
        <ele>1053.5</ele>
        <time>2023-05-20T10:36:17Z</time>
      </trkpt>
      <trkpt lat="47.97" lon="6.93164">
        <ele>1055.7</ele>
        <time>2023-05-20T10:36:30Z</time>
      </trkpt>
      <trkpt lat="47.96995" lon="6.93165">
        <ele>1056.2</ele>
        <time>2023-05-20T10:36:37Z</time>
      </trkpt>
      <trkpt lat="47.96987" lon="6.93173">
        <ele>1056</ele>
        <time>2023-05-20T10:36:47Z</time>
      </trkpt>
      <trkpt lat="47.96979" lon="6.93176">
        <ele>1057.3</ele>
        <time>2023-05-20T10:36:56Z</time>
      </trkpt>
      <trkpt lat="47.96975" lon="6.93179">
        <ele>1057.9</ele>
        <time>2023-05-20T10:37:00Z</time>
      </trkpt>
      <trkpt lat="47.9697" lon="6.93178">
        <ele>1057.8</ele>
        <time>2023-05-20T10:37:04Z</time>
      </trkpt>
      <trkpt lat="47.96968" lon="6.93172">
        <ele>1057.4</ele>
        <time>2023-05-20T10:37:07Z</time>
      </trkpt>
      <trkpt lat="47.96965" lon="6.93162">
        <ele>1057.9</ele>
        <time>2023-05-20T10:37:14Z</time>
      </trkpt>
      <trkpt lat="47.96949" lon="6.93143">
        <ele>1056.9</ele>
        <time>2023-05-20T10:37:29Z</time>
      </trkpt>
      <trkpt lat="47.96946" lon="6.93134">
        <ele>1057.5</ele>
        <time>2023-05-20T10:37:40Z</time>
      </trkpt>
      <trkpt lat="47.96941" lon="6.93127">
        <ele>1057.8</ele>
        <time>2023-05-20T10:37:44Z</time>
      </trkpt>
      <trkpt lat="47.96939" lon="6.93112">
        <ele>1060.1</ele>
        <time>2023-05-20T10:37:53Z</time>
      </trkpt>
      <trkpt lat="47.96938" lon="6.93106">
        <ele>1060.4</ele>
        <time>2023-05-20T10:37:57Z</time>
      </trkpt>
      <trkpt lat="47.96938" lon="6.93094">
        <ele>1061.3</ele>
        <time>2023-05-20T10:38:07Z</time>
      </trkpt>
      <trkpt lat="47.9693" lon="6.93066">
        <ele>1063.7</ele>
        <time>2023-05-20T10:38:22Z</time>
      </trkpt>
      <trkpt lat="47.96924" lon="6.9306">
        <ele>1063.2</ele>
        <time>2023-05-20T10:38:26Z</time>
      </trkpt>
      <trkpt lat="47.9692" lon="6.93063">
        <ele>1061.9</ele>
        <time>2023-05-20T10:38:30Z</time>
      </trkpt>
      <trkpt lat="47.96916" lon="6.93059">
        <ele>1061.6</ele>
        <time>2023-05-20T10:38:37Z</time>
      </trkpt>
      <trkpt lat="47.96915" lon="6.93051">
        <ele>1063.3</ele>
        <time>2023-05-20T10:38:43Z</time>
      </trkpt>
      <trkpt lat="47.96904" lon="6.93049">
        <ele>1062.6</ele>
        <time>2023-05-20T10:38:54Z</time>
      </trkpt>
      <trkpt lat="47.96899" lon="6.93043">
        <ele>1063.1</ele>
        <time>2023-05-20T10:39:02Z</time>
      </trkpt>
      <trkpt lat="47.96895" lon="6.93035">
        <ele>1063.6</ele>
        <time>2023-05-20T10:39:10Z</time>
      </trkpt>
      <trkpt lat="47.96882" lon="6.93022">
        <ele>1066.3</ele>
        <time>2023-05-20T10:39:27Z</time>
      </trkpt>
      <trkpt lat="47.96876" lon="6.93012">
        <ele>1070.2</ele>
        <time>2023-05-20T10:39:35Z</time>
      </trkpt>
      <trkpt lat="47.9687" lon="6.93012">
        <ele>1071.6</ele>
        <time>2023-05-20T10:39:41Z</time>
      </trkpt>
      <trkpt lat="47.96872" lon="6.93024">
        <ele>1068.7</ele>
        <time>2023-05-20T10:39:55Z</time>
      </trkpt>
      <trkpt lat="47.96867" lon="6.93032">
        <ele>1068.1</ele>
        <time>2023-05-20T10:40:05Z</time>
      </trkpt>
      <trkpt lat="47.96863" lon="6.93036">
        <ele>1067.9</ele>
        <time>2023-05-20T10:40:09Z</time>
      </trkpt>
      <trkpt lat="47.96861" lon="6.93041">
        <ele>1066.8</ele>
        <time>2023-05-20T10:40:16Z</time>
      </trkpt>
      <trkpt lat="47.96854" lon="6.93053">
        <ele>1065.5</ele>
        <time>2023-05-20T10:40:25Z</time>
      </trkpt>
      <trkpt lat="47.96852" lon="6.93059">
        <ele>1064.7</ele>
        <time>2023-05-20T10:40:29Z</time>
      </trkpt>
      <trkpt lat="47.96846" lon="6.9306">
        <ele>1066.6</ele>
        <time>2023-05-20T10:40:31Z</time>
      </trkpt>
      <trkpt lat="47.96842" lon="6.93065">
        <ele>1066.9</ele>
        <time>2023-05-20T10:40:34Z</time>
      </trkpt>
      <trkpt lat="47.96831" lon="6.93064">
        <ele>1070.6</ele>
        <time>2023-05-20T10:40:41Z</time>
      </trkpt>
      <trkpt lat="47.9682" lon="6.93069">
        <ele>1073.1</ele>
        <time>2023-05-20T10:40:55Z</time>
      </trkpt>
      <trkpt lat="47.96814" lon="6.93069">
        <ele>1075.2</ele>
        <time>2023-05-20T10:41:01Z</time>
      </trkpt>
      <trkpt lat="47.96809" lon="6.93079">
        <ele>1075.3</ele>
        <time>2023-05-20T10:41:08Z</time>
      </trkpt>
      <trkpt lat="47.96797" lon="6.93082">
        <ele>1079.8</ele>
        <time>2023-05-20T10:41:16Z</time>
      </trkpt>
      <trkpt lat="47.96792" lon="6.93085">
        <ele>1082</ele>
        <time>2023-05-20T10:41:29Z</time>
      </trkpt>
      <trkpt lat="47.96788" lon="6.9309">
        <ele>1084.2</ele>
        <time>2023-05-20T10:41:31Z</time>
      </trkpt>
      <trkpt lat="47.96782" lon="6.93079">
        <ele>1086.3</ele>
        <time>2023-05-20T10:41:47Z</time>
      </trkpt>
      <trkpt lat="47.96782" lon="6.93071">
        <ele>1086.4</ele>
        <time>2023-05-20T10:41:50Z</time>
      </trkpt>
      <trkpt lat="47.96787" lon="6.93065">
        <ele>1084.9</ele>
        <time>2023-05-20T10:41:53Z</time>
      </trkpt>
      <trkpt lat="47.96789" lon="6.93058">
        <ele>1084.6</ele>
        <time>2023-05-20T10:41:56Z</time>
      </trkpt>
      <trkpt lat="47.9679" lon="6.93051">
        <ele>1085.3</ele>
        <time>2023-05-20T10:42:00Z</time>
      </trkpt>
      <trkpt lat="47.9679" lon="6.93036">
        <ele>1087.9</ele>
        <time>2023-05-20T10:42:06Z</time>
      </trkpt>
      <trkpt lat="47.96792" lon="6.9303">
        <ele>1088.5</ele>
        <time>2023-05-20T10:42:11Z</time>
      </trkpt>
      <trkpt lat="47.96797" lon="6.93017">
        <ele>1089.8</ele>
        <time>2023-05-20T10:42:20Z</time>
      </trkpt>
      <trkpt lat="47.96791" lon="6.93018">
        <ele>1090.7</ele>
        <time>2023-05-20T10:42:27Z</time>
      </trkpt>
      <trkpt lat="47.96776" lon="6.93046">
        <ele>1090.1</ele>
        <time>2023-05-20T10:42:48Z</time>
      </trkpt>
      <trkpt lat="47.96772" lon="6.93043">
        <ele>1092.1</ele>
        <time>2023-05-20T10:42:52Z</time>
      </trkpt>
      <trkpt lat="47.96769" lon="6.93035">
        <ele>1094.1</ele>
        <time>2023-05-20T10:42:56Z</time>
      </trkpt>
      <trkpt lat="47.9677" lon="6.93021">
        <ele>1095.1</ele>
        <time>2023-05-20T10:43:03Z</time>
      </trkpt>
      <trkpt lat="47.96772" lon="6.93014">
        <ele>1095.2</ele>
        <time>2023-05-20T10:43:07Z</time>
      </trkpt>
      <trkpt lat="47.96773" lon="6.93005">
        <ele>1095.7</ele>
        <time>2023-05-20T10:43:12Z</time>
      </trkpt>
      <trkpt lat="47.96771" lon="6.92994">
        <ele>1097</ele>
        <time>2023-05-20T10:43:22Z</time>
      </trkpt>
      <trkpt lat="47.96767" lon="6.92985">
        <ele>1098.5</ele>
        <time>2023-05-20T10:43:31Z</time>
      </trkpt>
      <trkpt lat="47.96762" lon="6.92984">
        <ele>1099.9</ele>
        <time>2023-05-20T10:43:39Z</time>
      </trkpt>
      <trkpt lat="47.96759" lon="6.92988">
        <ele>1100.5</ele>
        <time>2023-05-20T10:43:43Z</time>
      </trkpt>
      <trkpt lat="47.9675" lon="6.93003">
        <ele>1101.9</ele>
        <time>2023-05-20T10:44:02Z</time>
      </trkpt>
      <trkpt lat="47.96747" lon="6.93009">
        <ele>1102.2</ele>
        <time>2023-05-20T10:44:06Z</time>
      </trkpt>
      <trkpt lat="47.96741" lon="6.93031">
        <ele>1102</ele>
        <time>2023-05-20T10:44:23Z</time>
      </trkpt>
      <trkpt lat="47.96735" lon="6.93032">
        <ele>1102.8</ele>
        <time>2023-05-20T10:44:28Z</time>
      </trkpt>
      <trkpt lat="47.96722" lon="6.93006">
        <ele>1107.1</ele>
        <time>2023-05-20T10:44:47Z</time>
      </trkpt>
      <trkpt lat="47.96723" lon="6.92998">
        <ele>1108.2</ele>
        <time>2023-05-20T10:44:52Z</time>
      </trkpt>
      <trkpt lat="47.96718" lon="6.92992">
        <ele>1109.5</ele>
        <time>2023-05-20T10:44:59Z</time>
      </trkpt>
      <trkpt lat="47.96716" lon="6.92985">
        <ele>1111.2</ele>
        <time>2023-05-20T10:45:09Z</time>
      </trkpt>
      <trkpt lat="47.96717" lon="6.92977">
        <ele>1113</ele>
        <time>2023-05-20T10:45:13Z</time>
      </trkpt>
      <trkpt lat="47.96713" lon="6.9297">
        <ele>1115.1</ele>
        <time>2023-05-20T10:45:18Z</time>
      </trkpt>
      <trkpt lat="47.96707" lon="6.92966">
        <ele>1116.5</ele>
        <time>2023-05-20T10:45:29Z</time>
      </trkpt>
      <trkpt lat="47.96704" lon="6.92954">
        <ele>1117.6</ele>
        <time>2023-05-20T10:45:39Z</time>
      </trkpt>
      <trkpt lat="47.96698" lon="6.92953">
        <ele>1118.9</ele>
        <time>2023-05-20T10:45:48Z</time>
      </trkpt>
      <trkpt lat="47.96694" lon="6.92959">
        <ele>1119.5</ele>
        <time>2023-05-20T10:45:58Z</time>
      </trkpt>
      <trkpt lat="47.96689" lon="6.92957">
        <ele>1120.5</ele>
        <time>2023-05-20T10:46:03Z</time>
      </trkpt>
      <trkpt lat="47.96672" lon="6.92926">
        <ele>1127.4</ele>
        <time>2023-05-20T10:46:41Z</time>
      </trkpt>
      <trkpt lat="47.96668" lon="6.92925">
        <ele>1128.9</ele>
        <time>2023-05-20T10:46:44Z</time>
      </trkpt>
      <trkpt lat="47.96665" lon="6.92918">
        <ele>1129.8</ele>
        <time>2023-05-20T10:46:50Z</time>
      </trkpt>
      <trkpt lat="47.96657" lon="6.92918">
        <ele>1129.5</ele>
        <time>2023-05-20T10:47:00Z</time>
      </trkpt>
      <trkpt lat="47.96649" lon="6.92908">
        <ele>1129.7</ele>
        <time>2023-05-20T10:47:15Z</time>
      </trkpt>
      <trkpt lat="47.96647" lon="6.92902">
        <ele>1130.1</ele>
        <time>2023-05-20T10:47:21Z</time>
      </trkpt>
      <trkpt lat="47.96645" lon="6.92896">
        <ele>1130.6</ele>
        <time>2023-05-20T10:47:26Z</time>
      </trkpt>
      <trkpt lat="47.96639" lon="6.92892">
        <ele>1131.7</ele>
        <time>2023-05-20T10:47:38Z</time>
      </trkpt>
      <trkpt lat="47.96634" lon="6.92888">
        <ele>1130.7</ele>
        <time>2023-05-20T10:47:44Z</time>
      </trkpt>
      <trkpt lat="47.96629" lon="6.92889">
        <ele>1129.5</ele>
        <time>2023-05-20T10:47:52Z</time>
      </trkpt>
      <trkpt lat="47.96621" lon="6.92889">
        <ele>1127.5</ele>
        <time>2023-05-20T10:48:05Z</time>
      </trkpt>
      <trkpt lat="47.96618" lon="6.92885">
        <ele>1126.6</ele>
        <time>2023-05-20T10:48:10Z</time>
      </trkpt>
      <trkpt lat="47.96614" lon="6.92889">
        <ele>1125.7</ele>
        <time>2023-05-20T10:48:16Z</time>
      </trkpt>
      <trkpt lat="47.9661" lon="6.92883">
        <ele>1124.7</ele>
        <time>2023-05-20T10:48:31Z</time>
      </trkpt>
      <trkpt lat="47.96604" lon="6.92878">
        <ele>1123</ele>
        <time>2023-05-20T10:48:43Z</time>
      </trkpt>
      <trkpt lat="47.96598" lon="6.92876">
        <ele>1121.4</ele>
        <time>2023-05-20T10:48:51Z</time>
      </trkpt>
      <trkpt lat="47.96592" lon="6.92871">
        <ele>1120.1</ele>
        <time>2023-05-20T10:48:58Z</time>
      </trkpt>
      <trkpt lat="47.96584" lon="6.92874">
        <ele>1117.8</ele>
        <time>2023-05-20T10:49:08Z</time>
      </trkpt>
      <trkpt lat="47.9658" lon="6.92871">
        <ele>1117.7</ele>
        <time>2023-05-20T10:49:13Z</time>
      </trkpt>
      <trkpt lat="47.96577" lon="6.92866">
        <ele>1118</ele>
        <time>2023-05-20T10:49:17Z</time>
      </trkpt>
      <trkpt lat="47.96575" lon="6.9286">
        <ele>1118.4</ele>
        <time>2023-05-20T10:49:20Z</time>
      </trkpt>
      <trkpt lat="47.9657" lon="6.92857">
        <ele>1118</ele>
        <time>2023-05-20T10:49:23Z</time>
      </trkpt>
      <trkpt lat="47.96565" lon="6.92855">
        <ele>1117.8</ele>
        <time>2023-05-20T10:49:27Z</time>
      </trkpt>
      <trkpt lat="47.96561" lon="6.9285">
        <ele>1117.6</ele>
        <time>2023-05-20T10:49:31Z</time>
      </trkpt>
      <trkpt lat="47.96559" lon="6.92845">
        <ele>1117.7</ele>
        <time>2023-05-20T10:49:34Z</time>
      </trkpt>
      <trkpt lat="47.96555" lon="6.92843">
        <ele>1117.7</ele>
        <time>2023-05-20T10:49:38Z</time>
      </trkpt>
      <trkpt lat="47.96544" lon="6.92843">
        <ele>1118.5</ele>
        <time>2023-05-20T10:49:50Z</time>
      </trkpt>
      <trkpt lat="47.96533" lon="6.92839">
        <ele>1119.4</ele>
        <time>2023-05-20T10:50:01Z</time>
      </trkpt>
      <trkpt lat="47.96526" lon="6.92838">
        <ele>1119.8</ele>
        <time>2023-05-20T10:50:09Z</time>
      </trkpt>
      <trkpt lat="47.96522" lon="6.92837">
        <ele>1119.9</ele>
        <time>2023-05-20T10:50:13Z</time>
      </trkpt>
      <trkpt lat="47.96488" lon="6.92846">
        <ele>1120.4</ele>
        <time>2023-05-20T10:50:48Z</time>
      </trkpt>
      <trkpt lat="47.96484" lon="6.92848">
        <ele>1120.6</ele>
        <time>2023-05-20T10:50:52Z</time>
      </trkpt>
      <trkpt lat="47.96462" lon="6.92849">
        <ele>1121.7</ele>
        <time>2023-05-20T10:51:08Z</time>
      </trkpt>
      <trkpt lat="47.96457" lon="6.92852">
        <ele>1122.1</ele>
        <time>2023-05-20T10:51:10Z</time>
      </trkpt>
      <trkpt lat="47.96451" lon="6.92851">
        <ele>1122.5</ele>
        <time>2023-05-20T10:51:14Z</time>
      </trkpt>
      <trkpt lat="47.96447" lon="6.92853">
        <ele>1122.8</ele>
        <time>2023-05-20T10:51:17Z</time>
      </trkpt>
      <trkpt lat="47.96441" lon="6.92853">
        <ele>1123.3</ele>
        <time>2023-05-20T10:51:20Z</time>
      </trkpt>
      <trkpt lat="47.96434" lon="6.92848">
        <ele>1123.9</ele>
        <time>2023-05-20T10:51:27Z</time>
      </trkpt>
      <trkpt lat="47.96429" lon="6.92849">
        <ele>1124.4</ele>
        <time>2023-05-20T10:51:31Z</time>
      </trkpt>
      <trkpt lat="47.96424" lon="6.92848">
        <ele>1124.8</ele>
        <time>2023-05-20T10:51:33Z</time>
      </trkpt>
      <trkpt lat="47.9642" lon="6.92849">
        <ele>1125.1</ele>
        <time>2023-05-20T10:51:36Z</time>
      </trkpt>
      <trkpt lat="47.96407" lon="6.92851">
        <ele>1126.5</ele>
        <time>2023-05-20T10:51:51Z</time>
      </trkpt>
      <trkpt lat="47.96403" lon="6.92845">
        <ele>1127.3</ele>
        <time>2023-05-20T10:51:54Z</time>
      </trkpt>
      <trkpt lat="47.96394" lon="6.92842">
        <ele>1128.7</ele>
        <time>2023-05-20T10:52:02Z</time>
      </trkpt>
      <trkpt lat="47.9639" lon="6.92843">
        <ele>1129.2</ele>
        <time>2023-05-20T10:52:06Z</time>
      </trkpt>
      <trkpt lat="47.96366" lon="6.92841">
        <ele>1133</ele>
        <time>2023-05-20T10:52:35Z</time>
      </trkpt>
      <trkpt lat="47.96357" lon="6.92831">
        <ele>1134.5</ele>
        <time>2023-05-20T10:52:43Z</time>
      </trkpt>
      <trkpt lat="47.96344" lon="6.92823">
        <ele>1136.2</ele>
        <time>2023-05-20T10:52:59Z</time>
      </trkpt>
      <trkpt lat="47.96339" lon="6.92824">
        <ele>1136.7</ele>
        <time>2023-05-20T10:53:05Z</time>
      </trkpt>
      <trkpt lat="47.96334" lon="6.92822">
        <ele>1137.3</ele>
        <time>2023-05-20T10:53:09Z</time>
      </trkpt>
      <trkpt lat="47.9633" lon="6.92817">
        <ele>1137.8</ele>
        <time>2023-05-20T10:53:13Z</time>
      </trkpt>
      <trkpt lat="47.96321" lon="6.92814">
        <ele>1138.6</ele>
        <time>2023-05-20T10:53:20Z</time>
      </trkpt>
      <trkpt lat="47.96316" lon="6.92814">
        <ele>1138.9</ele>
        <time>2023-05-20T10:53:25Z</time>
      </trkpt>
      <trkpt lat="47.96307" lon="6.92822">
        <ele>1139.3</ele>
        <time>2023-05-20T10:53:36Z</time>
      </trkpt>
      <trkpt lat="47.96296" lon="6.92823">
        <ele>1140.4</ele>
        <time>2023-05-20T10:53:45Z</time>
      </trkpt>
      <trkpt lat="47.96291" lon="6.92821">
        <ele>1141</ele>
        <time>2023-05-20T10:53:49Z</time>
      </trkpt>
      <trkpt lat="47.96277" lon="6.92826">
        <ele>1142.5</ele>
        <time>2023-05-20T10:54:01Z</time>
      </trkpt>
      <trkpt lat="47.96266" lon="6.92825">
        <ele>1146.2</ele>
        <time>2023-05-20T10:54:16Z</time>
      </trkpt>
      <trkpt lat="47.96262" lon="6.9283">
        <ele>1147.3</ele>
        <time>2023-05-20T10:54:21Z</time>
      </trkpt>
      <trkpt lat="47.96255" lon="6.92832">
        <ele>1149.5</ele>
        <time>2023-05-20T10:54:33Z</time>
      </trkpt>
      <trkpt lat="47.96252" lon="6.92827">
        <ele>1150.8</ele>
        <time>2023-05-20T10:54:36Z</time>
      </trkpt>
      <trkpt lat="47.96244" lon="6.92829">
        <ele>1152.6</ele>
        <time>2023-05-20T10:54:53Z</time>
      </trkpt>
      <trkpt lat="47.96239" lon="6.92827">
        <ele>1153.9</ele>
        <time>2023-05-20T10:55:00Z</time>
      </trkpt>
      <trkpt lat="47.96234" lon="6.92832">
        <ele>1154.6</ele>
        <time>2023-05-20T10:55:04Z</time>
      </trkpt>
      <trkpt lat="47.96228" lon="6.92824">
        <ele>1156.7</ele>
        <time>2023-05-20T10:55:14Z</time>
      </trkpt>
      <trkpt lat="47.96227" lon="6.92818">
        <ele>1157.5</ele>
        <time>2023-05-20T10:55:18Z</time>
      </trkpt>
      <trkpt lat="47.96221" lon="6.92818">
        <ele>1158.9</ele>
        <time>2023-05-20T10:55:24Z</time>
      </trkpt>
      <trkpt lat="47.96213" lon="6.92825">
        <ele>1159.8</ele>
        <time>2023-05-20T10:55:37Z</time>
      </trkpt>
      <trkpt lat="47.9621" lon="6.92822">
        <ele>1160.7</ele>
        <time>2023-05-20T10:55:39Z</time>
      </trkpt>
      <trkpt lat="47.96202" lon="6.92825">
        <ele>1162</ele>
        <time>2023-05-20T10:56:22Z</time>
      </trkpt>
      <trkpt lat="47.96198" lon="6.92829">
        <ele>1162.6</ele>
        <time>2023-05-20T10:56:27Z</time>
      </trkpt>
      <trkpt lat="47.96193" lon="6.92823">
        <ele>1163.8</ele>
        <time>2023-05-20T10:56:35Z</time>
      </trkpt>
      <trkpt lat="47.96189" lon="6.92819">
        <ele>1164.1</ele>
        <time>2023-05-20T10:56:41Z</time>
      </trkpt>
      <trkpt lat="47.96176" lon="6.92815">
        <ele>1165</ele>
        <time>2023-05-20T10:57:01Z</time>
      </trkpt>
      <trkpt lat="47.9617" lon="6.92804">
        <ele>1166.8</ele>
        <time>2023-05-20T10:57:10Z</time>
      </trkpt>
      <trkpt lat="47.96162" lon="6.9279">
        <ele>1166.9</ele>
        <time>2023-05-20T10:57:23Z</time>
      </trkpt>
      <trkpt lat="47.96159" lon="6.92774">
        <ele>1167.5</ele>
        <time>2023-05-20T10:57:31Z</time>
      </trkpt>
      <trkpt lat="47.96154" lon="6.92767">
        <ele>1167.4</ele>
        <time>2023-05-20T10:57:38Z</time>
      </trkpt>
      <trkpt lat="47.96151" lon="6.92761">
        <ele>1167.6</ele>
        <time>2023-05-20T10:57:42Z</time>
      </trkpt>
      <trkpt lat="47.96139" lon="6.92739">
        <ele>1169.8</ele>
        <time>2023-05-20T10:57:59Z</time>
      </trkpt>
      <trkpt lat="47.96131" lon="6.92724">
        <ele>1169.7</ele>
        <time>2023-05-20T10:58:16Z</time>
      </trkpt>
      <trkpt lat="47.9613" lon="6.92717">
        <ele>1170.4</ele>
        <time>2023-05-20T10:58:19Z</time>
      </trkpt>
      <trkpt lat="47.96119" lon="6.92709">
        <ele>1170.8</ele>
        <time>2023-05-20T10:58:33Z</time>
      </trkpt>
      <trkpt lat="47.96114" lon="6.92696">
        <ele>1173.5</ele>
        <time>2023-05-20T10:58:40Z</time>
      </trkpt>
      <trkpt lat="47.9611" lon="6.92691">
        <ele>1174.2</ele>
        <time>2023-05-20T10:58:43Z</time>
      </trkpt>
      <trkpt lat="47.9611" lon="6.92684">
        <ele>1175</ele>
        <time>2023-05-20T10:58:48Z</time>
      </trkpt>
      <trkpt lat="47.96105" lon="6.92675">
        <ele>1175.7</ele>
        <time>2023-05-20T10:58:59Z</time>
      </trkpt>
      <trkpt lat="47.96103" lon="6.92667">
        <ele>1176.7</ele>
        <time>2023-05-20T10:59:05Z</time>
      </trkpt>
      <trkpt lat="47.96097" lon="6.9266">
        <ele>1177.1</ele>
        <time>2023-05-20T10:59:16Z</time>
      </trkpt>
      <trkpt lat="47.96096" lon="6.92653">
        <ele>1177.8</ele>
        <time>2023-05-20T10:59:21Z</time>
      </trkpt>
      <trkpt lat="47.96091" lon="6.92649">
        <ele>1178.3</ele>
        <time>2023-05-20T10:59:24Z</time>
      </trkpt>
      <trkpt lat="47.96087" lon="6.92636">
        <ele>1180</ele>
        <time>2023-05-20T10:59:32Z</time>
      </trkpt>
      <trkpt lat="47.96083" lon="6.9263">
        <ele>1181</ele>
        <time>2023-05-20T10:59:38Z</time>
      </trkpt>
      <trkpt lat="47.9608" lon="6.92624">
        <ele>1181.8</ele>
        <time>2023-05-20T10:59:43Z</time>
      </trkpt>
      <trkpt lat="47.96078" lon="6.92619">
        <ele>1182.5</ele>
        <time>2023-05-20T10:59:51Z</time>
      </trkpt>
      <trkpt lat="47.96075" lon="6.92612">
        <ele>1183.5</ele>
        <time>2023-05-20T10:59:57Z</time>
      </trkpt>
      <trkpt lat="47.9607" lon="6.9261">
        <ele>1184.1</ele>
        <time>2023-05-20T11:00:00Z</time>
      </trkpt>
      <trkpt lat="47.96068" lon="6.92604">
        <ele>1184.9</ele>
        <time>2023-05-20T11:00:03Z</time>
      </trkpt>
      <trkpt lat="47.96064" lon="6.926">
        <ele>1185.7</ele>
        <time>2023-05-20T11:00:10Z</time>
      </trkpt>
      <trkpt lat="47.96059" lon="6.92603">
        <ele>1185.8</ele>
        <time>2023-05-20T11:00:14Z</time>
      </trkpt>
      <trkpt lat="47.96057" lon="6.92594">
        <ele>1187.3</ele>
        <time>2023-05-20T11:00:21Z</time>
      </trkpt>
      <trkpt lat="47.96058" lon="6.92586">
        <ele>1188.3</ele>
        <time>2023-05-20T11:00:25Z</time>
      </trkpt>
      <trkpt lat="47.96054" lon="6.92581">
        <ele>1189.7</ele>
        <time>2023-05-20T11:00:33Z</time>
      </trkpt>
      <trkpt lat="47.96052" lon="6.92575">
        <ele>1190.8</ele>
        <time>2023-05-20T11:00:39Z</time>
      </trkpt>
      <trkpt lat="47.96036" lon="6.92583">
        <ele>1194.7</ele>
        <time>2023-05-20T11:01:09Z</time>
      </trkpt>
      <trkpt lat="47.96032" lon="6.9258">
        <ele>1195.9</ele>
        <time>2023-05-20T11:01:14Z</time>
      </trkpt>
      <trkpt lat="47.96022" lon="6.92576">
        <ele>1198</ele>
        <time>2023-05-20T11:01:25Z</time>
      </trkpt>
      <trkpt lat="47.96018" lon="6.92573">
        <ele>1198.6</ele>
        <time>2023-05-20T11:01:29Z</time>
      </trkpt>
      <trkpt lat="47.96011" lon="6.92563">
        <ele>1199.7</ele>
        <time>2023-05-20T11:01:37Z</time>
      </trkpt>
      <trkpt lat="47.96005" lon="6.92556">
        <ele>1200.5</ele>
        <time>2023-05-20T11:01:44Z</time>
      </trkpt>
      <trkpt lat="47.96" lon="6.92553">
        <ele>1201</ele>
        <time>2023-05-20T11:01:50Z</time>
      </trkpt>
      <trkpt lat="47.95983" lon="6.92553">
        <ele>1202.2</ele>
        <time>2023-05-20T11:02:07Z</time>
      </trkpt>
      <trkpt lat="47.95955" lon="6.92552">
        <ele>1203.6</ele>
        <time>2023-05-20T11:02:41Z</time>
      </trkpt>
      <trkpt lat="47.95951" lon="6.92547">
        <ele>1203.8</ele>
        <time>2023-05-20T11:02:49Z</time>
      </trkpt>
      <trkpt lat="47.95946" lon="6.92547">
        <ele>1203.9</ele>
        <time>2023-05-20T11:03:51Z</time>
      </trkpt>
      <trkpt lat="47.9595" lon="6.92505">
        <ele>1203</ele>
        <time>2023-05-20T11:05:36Z</time>
      </trkpt>
      <trkpt lat="47.95951" lon="6.92504">
        <ele>1202.9</ele>
        <time>2023-05-20T11:05:37Z</time>
      </trkpt>
      <trkpt lat="47.95953" lon="6.92485">
        <ele>1201.8</ele>
        <time>2023-05-20T11:05:48Z</time>
      </trkpt>
      <trkpt lat="47.95956" lon="6.92479">
        <ele>1201.4</ele>
        <time>2023-05-20T11:05:52Z</time>
      </trkpt>
      <trkpt lat="47.95962" lon="6.92421">
        <ele>1197.3</ele>
        <time>2023-05-20T11:06:26Z</time>
      </trkpt>
      <trkpt lat="47.95971" lon="6.92368">
        <ele>1191</ele>
        <time>2023-05-20T11:07:03Z</time>
      </trkpt>
      <trkpt lat="47.95973" lon="6.9236">
        <ele>1189.8</ele>
        <time>2023-05-20T11:07:10Z</time>
      </trkpt>
      <trkpt lat="47.95976" lon="6.92355">
        <ele>1188.8</ele>
        <time>2023-05-20T11:07:15Z</time>
      </trkpt>
      <trkpt lat="47.95976" lon="6.92348">
        <ele>1187.8</ele>
        <time>2023-05-20T11:07:21Z</time>
      </trkpt>
      <trkpt lat="47.95975" lon="6.9234">
        <ele>1186.7</ele>
        <time>2023-05-20T11:07:26Z</time>
      </trkpt>
      <trkpt lat="47.95979" lon="6.92327">
        <ele>1184.5</ele>
        <time>2023-05-20T11:07:36Z</time>
      </trkpt>
      <trkpt lat="47.95981" lon="6.92319">
        <ele>1183.3</ele>
        <time>2023-05-20T11:07:43Z</time>
      </trkpt>
      <trkpt lat="47.95986" lon="6.92306">
        <ele>1181.6</ele>
        <time>2023-05-20T11:07:51Z</time>
      </trkpt>
      <trkpt lat="47.95987" lon="6.9229">
        <ele>1179.2</ele>
        <time>2023-05-20T11:08:03Z</time>
      </trkpt>
      <trkpt lat="47.9599" lon="6.92282">
        <ele>1178</ele>
        <time>2023-05-20T11:08:11Z</time>
      </trkpt>
      <trkpt lat="47.9599" lon="6.92273">
        <ele>1176.7</ele>
        <time>2023-05-20T11:08:17Z</time>
      </trkpt>
      <trkpt lat="47.95992" lon="6.92264">
        <ele>1175.4</ele>
        <time>2023-05-20T11:08:25Z</time>
      </trkpt>
      <trkpt lat="47.95994" lon="6.92258">
        <ele>1174.5</ele>
        <time>2023-05-20T11:08:30Z</time>
      </trkpt>
      <trkpt lat="47.95996" lon="6.92249">
        <ele>1173.1</ele>
        <time>2023-05-20T11:08:38Z</time>
      </trkpt>
      <trkpt lat="47.96001" lon="6.92235">
        <ele>1170.7</ele>
        <time>2023-05-20T11:08:50Z</time>
      </trkpt>
      <trkpt lat="47.96004" lon="6.92229">
        <ele>1169.5</ele>
        <time>2023-05-20T11:08:57Z</time>
      </trkpt>
      <trkpt lat="47.96005" lon="6.92218">
        <ele>1167.9</ele>
        <time>2023-05-20T11:09:08Z</time>
      </trkpt>
      <trkpt lat="47.96016" lon="6.92176">
        <ele>1160</ele>
        <time>2023-05-20T11:09:45Z</time>
      </trkpt>
      <trkpt lat="47.96017" lon="6.92169">
        <ele>1158.6</ele>
        <time>2023-05-20T11:10:04Z</time>
      </trkpt>
      <trkpt lat="47.96022" lon="6.92164">
        <ele>1157.1</ele>
        <time>2023-05-20T11:10:16Z</time>
      </trkpt>
      <trkpt lat="47.9603" lon="6.92165">
        <ele>1156.1</ele>
        <time>2023-05-20T11:10:33Z</time>
      </trkpt>
      <trkpt lat="47.96032" lon="6.92172">
        <ele>1156.9</ele>
        <time>2023-05-20T11:10:47Z</time>
      </trkpt>
      <trkpt lat="47.96029" lon="6.92176">
        <ele>1158.4</ele>
        <time>2023-05-20T11:10:51Z</time>
      </trkpt>
      <trkpt lat="47.96026" lon="6.92171">
        <ele>1158</ele>
        <time>2023-05-20T11:11:27Z</time>
      </trkpt>
      <trkpt lat="47.96021" lon="6.92164">
        <ele>1157.3</ele>
        <time>2023-05-20T12:21:01Z</time>
      </trkpt>
      <trkpt lat="47.96021" lon="6.92163">
        <ele>1157.1</ele>
        <time>2023-05-20T12:21:02Z</time>
      </trkpt>
      <trkpt lat="47.96019" lon="6.92153">
        <ele>1155.5</ele>
        <time>2023-05-20T12:21:08Z</time>
      </trkpt>
      <trkpt lat="47.96022" lon="6.92148">
        <ele>1154.3</ele>
        <time>2023-05-20T12:21:16Z</time>
      </trkpt>
      <trkpt lat="47.96024" lon="6.92143">
        <ele>1153.1</ele>
        <time>2023-05-20T12:21:21Z</time>
      </trkpt>
      <trkpt lat="47.96027" lon="6.92135">
        <ele>1151.4</ele>
        <time>2023-05-20T12:21:34Z</time>
      </trkpt>
      <trkpt lat="47.96023" lon="6.92126">
        <ele>1150.2</ele>
        <time>2023-05-20T12:22:04Z</time>
      </trkpt>
      <trkpt lat="47.9602" lon="6.92121">
        <ele>1149.6</ele>
        <time>2023-05-20T12:22:08Z</time>
      </trkpt>
      <trkpt lat="47.96012" lon="6.92113">
        <ele>1149</ele>
        <time>2023-05-20T12:22:16Z</time>
      </trkpt>
      <trkpt lat="47.95991" lon="6.92096">
        <ele>1147.9</ele>
        <time>2023-05-20T12:22:38Z</time>
      </trkpt>
      <trkpt lat="47.95987" lon="6.92092">
        <ele>1147.5</ele>
        <time>2023-05-20T12:22:42Z</time>
      </trkpt>
      <trkpt lat="47.95974" lon="6.92084">
        <ele>1147</ele>
        <time>2023-05-20T12:22:53Z</time>
      </trkpt>
      <trkpt lat="47.9595" lon="6.9208">
        <ele>1147.4</ele>
        <time>2023-05-20T12:23:13Z</time>
      </trkpt>
      <trkpt lat="47.95926" lon="6.92083">
        <ele>1147.9</ele>
        <time>2023-05-20T12:23:33Z</time>
      </trkpt>
      <trkpt lat="47.95903" lon="6.92094">
        <ele>1148.9</ele>
        <time>2023-05-20T12:23:51Z</time>
      </trkpt>
      <trkpt lat="47.95886" lon="6.92103">
        <ele>1149.1</ele>
        <time>2023-05-20T12:24:06Z</time>
      </trkpt>
      <trkpt lat="47.95881" lon="6.92109">
        <ele>1149.2</ele>
        <time>2023-05-20T12:24:13Z</time>
      </trkpt>
      <trkpt lat="47.95866" lon="6.92128">
        <ele>1149.3</ele>
        <time>2023-05-20T12:24:32Z</time>
      </trkpt>
      <trkpt lat="47.95861" lon="6.92141">
        <ele>1150.3</ele>
        <time>2023-05-20T12:24:40Z</time>
      </trkpt>
      <trkpt lat="47.95846" lon="6.92166">
        <ele>1151.2</ele>
        <time>2023-05-20T12:25:00Z</time>
      </trkpt>
      <trkpt lat="47.95835" lon="6.92195">
        <ele>1153.4</ele>
        <time>2023-05-20T12:25:21Z</time>
      </trkpt>
      <trkpt lat="47.95831" lon="6.922">
        <ele>1153.1</ele>
        <time>2023-05-20T12:25:25Z</time>
      </trkpt>
      <trkpt lat="47.95829" lon="6.92206">
        <ele>1153.4</ele>
        <time>2023-05-20T12:25:29Z</time>
      </trkpt>
      <trkpt lat="47.95829" lon="6.92212">
        <ele>1154.1</ele>
        <time>2023-05-20T12:25:33Z</time>
      </trkpt>
      <trkpt lat="47.95823" lon="6.92222">
        <ele>1154.1</ele>
        <time>2023-05-20T12:25:41Z</time>
      </trkpt>
      <trkpt lat="47.95814" lon="6.92234">
        <ele>1154.2</ele>
        <time>2023-05-20T12:25:50Z</time>
      </trkpt>
      <trkpt lat="47.95808" lon="6.92245">
        <ele>1154.7</ele>
        <time>2023-05-20T12:25:57Z</time>
      </trkpt>
      <trkpt lat="47.95808" lon="6.92252">
        <ele>1155.7</ele>
        <time>2023-05-20T12:26:00Z</time>
      </trkpt>
      <trkpt lat="47.95805" lon="6.92257">
        <ele>1155.9</ele>
        <time>2023-05-20T12:26:04Z</time>
      </trkpt>
      <trkpt lat="47.95793" lon="6.92274">
        <ele>1156.6</ele>
        <time>2023-05-20T12:26:20Z</time>
      </trkpt>
      <trkpt lat="47.95784" lon="6.9231">
        <ele>1158.6</ele>
        <time>2023-05-20T12:26:44Z</time>
      </trkpt>
      <trkpt lat="47.95783" lon="6.92318">
        <ele>1159.4</ele>
        <time>2023-05-20T12:26:47Z</time>
      </trkpt>
      <trkpt lat="47.95779" lon="6.92325">
        <ele>1159.4</ele>
        <time>2023-05-20T12:26:51Z</time>
      </trkpt>
      <trkpt lat="47.95776" lon="6.92332">
        <ele>1159.7</ele>
        <time>2023-05-20T12:26:58Z</time>
      </trkpt>
      <trkpt lat="47.95771" lon="6.92337">
        <ele>1159.8</ele>
        <time>2023-05-20T12:27:01Z</time>
      </trkpt>
      <trkpt lat="47.95767" lon="6.92342">
        <ele>1160.1</ele>
        <time>2023-05-20T12:27:04Z</time>
      </trkpt>
      <trkpt lat="47.95765" lon="6.92347">
        <ele>1160.6</ele>
        <time>2023-05-20T12:27:07Z</time>
      </trkpt>
      <trkpt lat="47.95761" lon="6.9235">
        <ele>1160.6</ele>
        <time>2023-05-20T12:27:10Z</time>
      </trkpt>
      <trkpt lat="47.95743" lon="6.92357">
        <ele>1158.7</ele>
        <time>2023-05-20T12:27:26Z</time>
      </trkpt>
      <trkpt lat="47.95731" lon="6.92368">
        <ele>1157.2</ele>
        <time>2023-05-20T12:27:39Z</time>
      </trkpt>
      <trkpt lat="47.95721" lon="6.92383">
        <ele>1156.9</ele>
        <time>2023-05-20T12:27:54Z</time>
      </trkpt>
      <trkpt lat="47.95718" lon="6.92387">
        <ele>1157</ele>
        <time>2023-05-20T12:27:58Z</time>
      </trkpt>
      <trkpt lat="47.95707" lon="6.92394">
        <ele>1156.1</ele>
        <time>2023-05-20T12:28:08Z</time>
      </trkpt>
      <trkpt lat="47.95704" lon="6.92398">
        <ele>1156.1</ele>
        <time>2023-05-20T12:28:10Z</time>
      </trkpt>
      <trkpt lat="47.957" lon="6.92404">
        <ele>1156.3</ele>
        <time>2023-05-20T12:28:14Z</time>
      </trkpt>
      <trkpt lat="47.95688" lon="6.92415">
        <ele>1155.8</ele>
        <time>2023-05-20T12:28:25Z</time>
      </trkpt>
      <trkpt lat="47.95666" lon="6.92422">
        <ele>1153.9</ele>
        <time>2023-05-20T12:28:43Z</time>
      </trkpt>
      <trkpt lat="47.95661" lon="6.92421">
        <ele>1153.2</ele>
        <time>2023-05-20T12:28:46Z</time>
      </trkpt>
      <trkpt lat="47.95639" lon="6.92435">
        <ele>1153.3</ele>
        <time>2023-05-20T12:29:05Z</time>
      </trkpt>
      <trkpt lat="47.95634" lon="6.92436">
        <ele>1153.2</ele>
        <time>2023-05-20T12:29:09Z</time>
      </trkpt>
      <trkpt lat="47.9563" lon="6.92438">
        <ele>1153.3</ele>
        <time>2023-05-20T12:29:13Z</time>
      </trkpt>
      <trkpt lat="47.95626" lon="6.92438">
        <ele>1153</ele>
        <time>2023-05-20T12:29:16Z</time>
      </trkpt>
      <trkpt lat="47.95621" lon="6.9244">
        <ele>1153</ele>
        <time>2023-05-20T12:29:20Z</time>
      </trkpt>
      <trkpt lat="47.95614" lon="6.9244">
        <ele>1152.6</ele>
        <time>2023-05-20T12:29:27Z</time>
      </trkpt>
      <trkpt lat="47.95605" lon="6.92442">
        <ele>1152</ele>
        <time>2023-05-20T12:29:35Z</time>
      </trkpt>
      <trkpt lat="47.95601" lon="6.92441">
        <ele>1151.5</ele>
        <time>2023-05-20T12:29:38Z</time>
      </trkpt>
      <trkpt lat="47.95596" lon="6.92444">
        <ele>1151.3</ele>
        <time>2023-05-20T12:29:42Z</time>
      </trkpt>
      <trkpt lat="47.95588" lon="6.92449">
        <ele>1150.8</ele>
        <time>2023-05-20T12:29:49Z</time>
      </trkpt>
      <trkpt lat="47.95582" lon="6.92454">
        <ele>1150.5</ele>
        <time>2023-05-20T12:29:59Z</time>
      </trkpt>
      <trkpt lat="47.95577" lon="6.92457">
        <ele>1150.1</ele>
        <time>2023-05-20T12:30:03Z</time>
      </trkpt>
      <trkpt lat="47.95573" lon="6.92454">
        <ele>1149.4</ele>
        <time>2023-05-20T12:30:06Z</time>
      </trkpt>
      <trkpt lat="47.95554" lon="6.92433">
        <ele>1146.3</ele>
        <time>2023-05-20T12:30:25Z</time>
      </trkpt>
      <trkpt lat="47.95528" lon="6.92416">
        <ele>1142</ele>
        <time>2023-05-20T12:30:49Z</time>
      </trkpt>
      <trkpt lat="47.95519" lon="6.92413">
        <ele>1140.5</ele>
        <time>2023-05-20T12:31:02Z</time>
      </trkpt>
      <trkpt lat="47.95492" lon="6.92399">
        <ele>1136.8</ele>
        <time>2023-05-20T12:31:26Z</time>
      </trkpt>
      <trkpt lat="47.95487" lon="6.92399">
        <ele>1135.9</ele>
        <time>2023-05-20T12:31:31Z</time>
      </trkpt>
      <trkpt lat="47.9548" lon="6.92393">
        <ele>1135.1</ele>
        <time>2023-05-20T12:31:39Z</time>
      </trkpt>
      <trkpt lat="47.95461" lon="6.92387">
        <ele>1134.1</ele>
        <time>2023-05-20T12:31:53Z</time>
      </trkpt>
      <trkpt lat="47.95451" lon="6.92386">
        <ele>1134.1</ele>
        <time>2023-05-20T12:32:01Z</time>
      </trkpt>
      <trkpt lat="47.95446" lon="6.92383">
        <ele>1134.2</ele>
        <time>2023-05-20T12:32:05Z</time>
      </trkpt>
      <trkpt lat="47.95442" lon="6.92381">
        <ele>1134.5</ele>
        <time>2023-05-20T12:32:08Z</time>
      </trkpt>
      <trkpt lat="47.95433" lon="6.92378">
        <ele>1135.6</ele>
        <time>2023-05-20T12:32:15Z</time>
      </trkpt>
      <trkpt lat="47.95429" lon="6.92378">
        <ele>1136.1</ele>
        <time>2023-05-20T12:32:19Z</time>
      </trkpt>
      <trkpt lat="47.95418" lon="6.92379">
        <ele>1137.2</ele>
        <time>2023-05-20T12:32:27Z</time>
      </trkpt>
      <trkpt lat="47.95412" lon="6.92376">
        <ele>1138.1</ele>
        <time>2023-05-20T12:32:33Z</time>
      </trkpt>
      <trkpt lat="47.95402" lon="6.92372">
        <ele>1139.4</ele>
        <time>2023-05-20T12:32:41Z</time>
      </trkpt>
      <trkpt lat="47.95398" lon="6.9237">
        <ele>1139.9</ele>
        <time>2023-05-20T12:32:45Z</time>
      </trkpt>
      <trkpt lat="47.95393" lon="6.9237">
        <ele>1140.5</ele>
        <time>2023-05-20T12:32:50Z</time>
      </trkpt>
      <trkpt lat="47.95381" lon="6.92367">
        <ele>1141.8</ele>
        <time>2023-05-20T12:33:02Z</time>
      </trkpt>
      <trkpt lat="47.95376" lon="6.92367">
        <ele>1142.3</ele>
        <time>2023-05-20T12:33:06Z</time>
      </trkpt>
      <trkpt lat="47.95372" lon="6.92364">
        <ele>1142.8</ele>
        <time>2023-05-20T12:33:11Z</time>
      </trkpt>
      <trkpt lat="47.95356" lon="6.92363">
        <ele>1143.9</ele>
        <time>2023-05-20T12:33:26Z</time>
      </trkpt>
      <trkpt lat="47.95352" lon="6.92361">
        <ele>1144</ele>
        <time>2023-05-20T12:33:30Z</time>
      </trkpt>
      <trkpt lat="47.95347" lon="6.92363">
        <ele>1143.9</ele>
        <time>2023-05-20T12:33:35Z</time>
      </trkpt>
      <trkpt lat="47.9534" lon="6.92365">
        <ele>1143.6</ele>
        <time>2023-05-20T12:33:42Z</time>
      </trkpt>
      <trkpt lat="47.95336" lon="6.92366">
        <ele>1143.5</ele>
        <time>2023-05-20T12:33:46Z</time>
      </trkpt>
      <trkpt lat="47.95332" lon="6.92367">
        <ele>1143.5</ele>
        <time>2023-05-20T12:33:50Z</time>
      </trkpt>
      <trkpt lat="47.95327" lon="6.92365">
        <ele>1144.2</ele>
        <time>2023-05-20T12:33:54Z</time>
      </trkpt>
      <trkpt lat="47.95322" lon="6.92364">
        <ele>1144.8</ele>
        <time>2023-05-20T12:33:58Z</time>
      </trkpt>
      <trkpt lat="47.95318" lon="6.92365">
        <ele>1145</ele>
        <time>2023-05-20T12:34:03Z</time>
      </trkpt>
      <trkpt lat="47.95299" lon="6.92355">
        <ele>1147.4</ele>
        <time>2023-05-20T12:34:19Z</time>
      </trkpt>
      <trkpt lat="47.95294" lon="6.92354">
        <ele>1147.5</ele>
        <time>2023-05-20T12:34:23Z</time>
      </trkpt>
      <trkpt lat="47.9529" lon="6.92351">
        <ele>1147.7</ele>
        <time>2023-05-20T12:34:27Z</time>
      </trkpt>
      <trkpt lat="47.95285" lon="6.9235">
        <ele>1147.8</ele>
        <time>2023-05-20T12:34:31Z</time>
      </trkpt>
      <trkpt lat="47.95275" lon="6.9235">
        <ele>1147.7</ele>
        <time>2023-05-20T12:34:38Z</time>
      </trkpt>
      <trkpt lat="47.9527" lon="6.92351">
        <ele>1147.3</ele>
        <time>2023-05-20T12:34:43Z</time>
      </trkpt>
      <trkpt lat="47.95246" lon="6.92365">
        <ele>1145</ele>
        <time>2023-05-20T12:35:08Z</time>
      </trkpt>
      <trkpt lat="47.95239" lon="6.92367">
        <ele>1144.3</ele>
        <time>2023-05-20T12:35:15Z</time>
      </trkpt>
      <trkpt lat="47.95222" lon="6.92381">
        <ele>1142.6</ele>
        <time>2023-05-20T12:35:29Z</time>
      </trkpt>
      <trkpt lat="47.95219" lon="6.92387">
        <ele>1142.6</ele>
        <time>2023-05-20T12:35:33Z</time>
      </trkpt>
      <trkpt lat="47.95211" lon="6.92394">
        <ele>1143.3</ele>
        <time>2023-05-20T12:35:42Z</time>
      </trkpt>
      <trkpt lat="47.95207" lon="6.92397">
        <ele>1143.8</ele>
        <time>2023-05-20T12:35:47Z</time>
      </trkpt>
      <trkpt lat="47.95202" lon="6.92403">
        <ele>1144.3</ele>
        <time>2023-05-20T12:35:55Z</time>
      </trkpt>
      <trkpt lat="47.95197" lon="6.92406">
        <ele>1145</ele>
        <time>2023-05-20T12:36:00Z</time>
      </trkpt>
      <trkpt lat="47.95184" lon="6.92426">
        <ele>1145.3</ele>
        <time>2023-05-20T12:36:18Z</time>
      </trkpt>
      <trkpt lat="47.95175" lon="6.92434">
        <ele>1146</ele>
        <time>2023-05-20T12:36:28Z</time>
      </trkpt>
      <trkpt lat="47.9517" lon="6.92445">
        <ele>1146.5</ele>
        <time>2023-05-20T12:36:35Z</time>
      </trkpt>
      <trkpt lat="47.95168" lon="6.92451">
        <ele>1146.1</ele>
        <time>2023-05-20T12:36:39Z</time>
      </trkpt>
      <trkpt lat="47.95167" lon="6.92458">
        <ele>1145.5</ele>
        <time>2023-05-20T12:36:44Z</time>
      </trkpt>
      <trkpt lat="47.95167" lon="6.92465">
        <ele>1144.7</ele>
        <time>2023-05-20T12:36:48Z</time>
      </trkpt>
      <trkpt lat="47.95165" lon="6.92471">
        <ele>1144.8</ele>
        <time>2023-05-20T12:36:51Z</time>
      </trkpt>
      <trkpt lat="47.95161" lon="6.92488">
        <ele>1143.5</ele>
        <time>2023-05-20T12:37:00Z</time>
      </trkpt>
      <trkpt lat="47.95159" lon="6.92494">
        <ele>1143.3</ele>
        <time>2023-05-20T12:37:04Z</time>
      </trkpt>
      <trkpt lat="47.95157" lon="6.925">
        <ele>1143.2</ele>
        <time>2023-05-20T12:37:07Z</time>
      </trkpt>
      <trkpt lat="47.95156" lon="6.92507">
        <ele>1141.6</ele>
        <time>2023-05-20T12:37:10Z</time>
      </trkpt>
      <trkpt lat="47.95155" lon="6.92514">
        <ele>1140</ele>
        <time>2023-05-20T12:37:14Z</time>
      </trkpt>
      <trkpt lat="47.95146" lon="6.92519">
        <ele>1142.5</ele>
        <time>2023-05-20T12:37:25Z</time>
      </trkpt>
      <trkpt lat="47.95144" lon="6.92524">
        <ele>1141.9</ele>
        <time>2023-05-20T12:37:33Z</time>
      </trkpt>
      <trkpt lat="47.9513" lon="6.92529">
        <ele>1142.5</ele>
        <time>2023-05-20T12:37:47Z</time>
      </trkpt>
      <trkpt lat="47.95126" lon="6.92528">
        <ele>1142.9</ele>
        <time>2023-05-20T12:37:51Z</time>
      </trkpt>
      <trkpt lat="47.95121" lon="6.92531">
        <ele>1141.9</ele>
        <time>2023-05-20T12:37:55Z</time>
      </trkpt>
      <trkpt lat="47.95116" lon="6.92529">
        <ele>1142.6</ele>
        <time>2023-05-20T12:37:59Z</time>
      </trkpt>
      <trkpt lat="47.95111" lon="6.9253">
        <ele>1142.3</ele>
        <time>2023-05-20T12:38:03Z</time>
      </trkpt>
      <trkpt lat="47.95107" lon="6.92534">
        <ele>1141.1</ele>
        <time>2023-05-20T12:38:08Z</time>
      </trkpt>
      <trkpt lat="47.95092" lon="6.92541">
        <ele>1139.1</ele>
        <time>2023-05-20T12:38:20Z</time>
      </trkpt>
      <trkpt lat="47.95082" lon="6.92541">
        <ele>1139.2</ele>
        <time>2023-05-20T12:38:26Z</time>
      </trkpt>
      <trkpt lat="47.95078" lon="6.9254">
        <ele>1139.5</ele>
        <time>2023-05-20T12:38:29Z</time>
      </trkpt>
      <trkpt lat="47.95073" lon="6.92541">
        <ele>1139.2</ele>
        <time>2023-05-20T12:38:32Z</time>
      </trkpt>
      <trkpt lat="47.95059" lon="6.92548">
        <ele>1137.9</ele>
        <time>2023-05-20T12:38:44Z</time>
      </trkpt>
      <trkpt lat="47.95049" lon="6.92554">
        <ele>1137</ele>
        <time>2023-05-20T12:38:51Z</time>
      </trkpt>
      <trkpt lat="47.95046" lon="6.92558">
        <ele>1136</ele>
        <time>2023-05-20T12:38:55Z</time>
      </trkpt>
      <trkpt lat="47.95033" lon="6.92567">
        <ele>1133.5</ele>
        <time>2023-05-20T12:39:06Z</time>
      </trkpt>
      <trkpt lat="47.95028" lon="6.92569">
        <ele>1133.1</ele>
        <time>2023-05-20T12:39:09Z</time>
      </trkpt>
      <trkpt lat="47.95011" lon="6.92569">
        <ele>1131</ele>
        <time>2023-05-20T12:39:21Z</time>
      </trkpt>
      <trkpt lat="47.94998" lon="6.92563">
        <ele>1129.5</ele>
        <time>2023-05-20T12:39:31Z</time>
      </trkpt>
      <trkpt lat="47.94994" lon="6.9256">
        <ele>1128.2</ele>
        <time>2023-05-20T12:39:35Z</time>
      </trkpt>
      <trkpt lat="47.94992" lon="6.92546">
        <ele>1128.2</ele>
        <time>2023-05-20T12:39:43Z</time>
      </trkpt>
      <trkpt lat="47.94991" lon="6.92539">
        <ele>1128.1</ele>
        <time>2023-05-20T12:39:46Z</time>
      </trkpt>
      <trkpt lat="47.94989" lon="6.92532">
        <ele>1127.4</ele>
        <time>2023-05-20T12:39:50Z</time>
      </trkpt>
      <trkpt lat="47.94985" lon="6.92489">
        <ele>1125.6</ele>
        <time>2023-05-20T12:40:13Z</time>
      </trkpt>
      <trkpt lat="47.9498" lon="6.92467">
        <ele>1123.6</ele>
        <time>2023-05-20T12:40:25Z</time>
      </trkpt>
      <trkpt lat="47.94978" lon="6.9246">
        <ele>1123</ele>
        <time>2023-05-20T12:40:29Z</time>
      </trkpt>
      <trkpt lat="47.94976" lon="6.92431">
        <ele>1121.8</ele>
        <time>2023-05-20T12:40:47Z</time>
      </trkpt>
      <trkpt lat="47.94977" lon="6.92423">
        <ele>1121.5</ele>
        <time>2023-05-20T12:40:51Z</time>
      </trkpt>
      <trkpt lat="47.94987" lon="6.92391">
        <ele>1118.6</ele>
        <time>2023-05-20T12:41:08Z</time>
      </trkpt>
      <trkpt lat="47.9499" lon="6.92377">
        <ele>1117.4</ele>
        <time>2023-05-20T12:41:15Z</time>
      </trkpt>
      <trkpt lat="47.94992" lon="6.92371">
        <ele>1117.1</ele>
        <time>2023-05-20T12:41:19Z</time>
      </trkpt>
      <trkpt lat="47.94992" lon="6.92364">
        <ele>1116.1</ele>
        <time>2023-05-20T12:41:23Z</time>
      </trkpt>
      <trkpt lat="47.94996" lon="6.92359">
        <ele>1116.5</ele>
        <time>2023-05-20T12:41:27Z</time>
      </trkpt>
      <trkpt lat="47.94998" lon="6.92353">
        <ele>1116</ele>
        <time>2023-05-20T12:41:31Z</time>
      </trkpt>
      <trkpt lat="47.94998" lon="6.92345">
        <ele>1114.5</ele>
        <time>2023-05-20T12:41:35Z</time>
      </trkpt>
      <trkpt lat="47.95" lon="6.9234">
        <ele>1114.2</ele>
        <time>2023-05-20T12:41:39Z</time>
      </trkpt>
      <trkpt lat="47.94997" lon="6.92343">
        <ele>1113.9</ele>
        <time>2023-05-20T12:41:58Z</time>
      </trkpt>
      <trkpt lat="47.94993" lon="6.92345">
        <ele>1113.1</ele>
        <time>2023-05-20T12:42:02Z</time>
      </trkpt>
      <trkpt lat="47.94984" lon="6.9236">
        <ele>1113.2</ele>
        <time>2023-05-20T12:42:14Z</time>
      </trkpt>
      <trkpt lat="47.94979" lon="6.92363">
        <ele>1112.2</ele>
        <time>2023-05-20T12:42:18Z</time>
      </trkpt>
      <trkpt lat="47.94961" lon="6.92398">
        <ele>1109.4</ele>
        <time>2023-05-20T12:42:46Z</time>
      </trkpt>
      <trkpt lat="47.94957" lon="6.92393">
        <ele>1106.3</ele>
        <time>2023-05-20T12:42:49Z</time>
      </trkpt>
      <trkpt lat="47.94953" lon="6.92381">
        <ele>1102.7</ele>
        <time>2023-05-20T12:42:55Z</time>
      </trkpt>
      <trkpt lat="47.94955" lon="6.92353">
        <ele>1100.2</ele>
        <time>2023-05-20T12:43:08Z</time>
      </trkpt>
      <trkpt lat="47.94952" lon="6.9234">
        <ele>1097.1</ele>
        <time>2023-05-20T12:43:15Z</time>
      </trkpt>
      <trkpt lat="47.94955" lon="6.92318">
        <ele>1095.7</ele>
        <time>2023-05-20T12:43:26Z</time>
      </trkpt>
      <trkpt lat="47.94958" lon="6.92312">
        <ele>1096.2</ele>
        <time>2023-05-20T12:43:30Z</time>
      </trkpt>
      <trkpt lat="47.94959" lon="6.92297">
        <ele>1095.1</ele>
        <time>2023-05-20T12:43:37Z</time>
      </trkpt>
      <trkpt lat="47.94959" lon="6.9229">
        <ele>1094.6</ele>
        <time>2023-05-20T12:43:40Z</time>
      </trkpt>
      <trkpt lat="47.94964" lon="6.92265">
        <ele>1094.1</ele>
        <time>2023-05-20T12:43:56Z</time>
      </trkpt>
      <trkpt lat="47.9495" lon="6.9225">
        <ele>1093.2</ele>
        <time>2023-05-20T12:44:17Z</time>
      </trkpt>
      <trkpt lat="47.94945" lon="6.92249">
        <ele>1093.1</ele>
        <time>2023-05-20T12:44:20Z</time>
      </trkpt>
      <trkpt lat="47.94941" lon="6.92247">
        <ele>1094.6</ele>
        <time>2023-05-20T12:44:23Z</time>
      </trkpt>
      <trkpt lat="47.94938" lon="6.92244">
        <ele>1096</ele>
        <time>2023-05-20T12:44:26Z</time>
      </trkpt>
      <trkpt lat="47.94932" lon="6.92249">
        <ele>1098</ele>
        <time>2023-05-20T12:44:33Z</time>
      </trkpt>
      <trkpt lat="47.94929" lon="6.92254">
        <ele>1098.8</ele>
        <time>2023-05-20T12:44:37Z</time>
      </trkpt>
      <trkpt lat="47.94929" lon="6.92283">
        <ele>1096.5</ele>
        <time>2023-05-20T12:44:55Z</time>
      </trkpt>
      <trkpt lat="47.94924" lon="6.92293">
        <ele>1096.9</ele>
        <time>2023-05-20T12:45:05Z</time>
      </trkpt>
      <trkpt lat="47.94924" lon="6.923">
        <ele>1095.9</ele>
        <time>2023-05-20T12:45:08Z</time>
      </trkpt>
      <trkpt lat="47.94921" lon="6.92306">
        <ele>1095.8</ele>
        <time>2023-05-20T12:45:11Z</time>
      </trkpt>
      <trkpt lat="47.94916" lon="6.92317">
        <ele>1094.9</ele>
        <time>2023-05-20T12:45:18Z</time>
      </trkpt>
      <trkpt lat="47.94912" lon="6.92321">
        <ele>1096.4</ele>
        <time>2023-05-20T12:45:22Z</time>
      </trkpt>
      <trkpt lat="47.94908" lon="6.92327">
        <ele>1097.5</ele>
        <time>2023-05-20T12:45:26Z</time>
      </trkpt>
      <trkpt lat="47.94906" lon="6.92333">
        <ele>1097.6</ele>
        <time>2023-05-20T12:45:30Z</time>
      </trkpt>
      <trkpt lat="47.94903" lon="6.92339">
        <ele>1098.1</ele>
        <time>2023-05-20T12:45:34Z</time>
      </trkpt>
      <trkpt lat="47.94895" lon="6.92338">
        <ele>1103.3</ele>
        <time>2023-05-20T12:45:44Z</time>
      </trkpt>
      <trkpt lat="47.94896" lon="6.92323">
        <ele>1105.3</ele>
        <time>2023-05-20T12:45:51Z</time>
      </trkpt>
      <trkpt lat="47.94894" lon="6.92317">
        <ele>1107.4</ele>
        <time>2023-05-20T12:45:54Z</time>
      </trkpt>
      <trkpt lat="47.94896" lon="6.9231">
        <ele>1107.4</ele>
        <time>2023-05-20T12:45:58Z</time>
      </trkpt>
      <trkpt lat="47.94893" lon="6.92303">
        <ele>1110.2</ele>
        <time>2023-05-20T12:46:01Z</time>
      </trkpt>
      <trkpt lat="47.94895" lon="6.92289">
        <ele>1111.2</ele>
        <time>2023-05-20T12:46:10Z</time>
      </trkpt>
      <trkpt lat="47.94897" lon="6.92262">
        <ele>1113.5</ele>
        <time>2023-05-20T12:46:28Z</time>
      </trkpt>
      <trkpt lat="47.94895" lon="6.92244">
        <ele>1115.8</ele>
        <time>2023-05-20T12:46:43Z</time>
      </trkpt>
      <trkpt lat="47.9489" lon="6.92239">
        <ele>1118.4</ele>
        <time>2023-05-20T12:46:57Z</time>
      </trkpt>
      <trkpt lat="47.94883" lon="6.92263">
        <ele>1119.1</ele>
        <time>2023-05-20T12:47:16Z</time>
      </trkpt>
      <trkpt lat="47.94876" lon="6.92275">
        <ele>1119.9</ele>
        <time>2023-05-20T12:47:27Z</time>
      </trkpt>
      <trkpt lat="47.94869" lon="6.92279">
        <ele>1121.6</ele>
        <time>2023-05-20T12:47:46Z</time>
      </trkpt>
      <trkpt lat="47.94864" lon="6.92279">
        <ele>1123.1</ele>
        <time>2023-05-20T12:47:50Z</time>
      </trkpt>
      <trkpt lat="47.94859" lon="6.92282">
        <ele>1123.9</ele>
        <time>2023-05-20T12:47:57Z</time>
      </trkpt>
      <trkpt lat="47.94853" lon="6.92289">
        <ele>1123.8</ele>
        <time>2023-05-20T12:48:07Z</time>
      </trkpt>
      <trkpt lat="47.94851" lon="6.92296">
        <ele>1123.3</ele>
        <time>2023-05-20T12:48:14Z</time>
      </trkpt>
      <trkpt lat="47.9484" lon="6.92287">
        <ele>1125.1</ele>
        <time>2023-05-20T12:48:27Z</time>
      </trkpt>
      <trkpt lat="47.9483" lon="6.92281">
        <ele>1126.5</ele>
        <time>2023-05-20T12:48:37Z</time>
      </trkpt>
      <trkpt lat="47.94827" lon="6.92277">
        <ele>1127.1</ele>
        <time>2023-05-20T12:48:41Z</time>
      </trkpt>
      <trkpt lat="47.94825" lon="6.92271">
        <ele>1128</ele>
        <time>2023-05-20T12:48:45Z</time>
      </trkpt>
      <trkpt lat="47.94821" lon="6.92266">
        <ele>1128.7</ele>
        <time>2023-05-20T12:48:48Z</time>
      </trkpt>
      <trkpt lat="47.94817" lon="6.92264">
        <ele>1129</ele>
        <time>2023-05-20T12:48:52Z</time>
      </trkpt>
      <trkpt lat="47.94815" lon="6.92257">
        <ele>1130</ele>
        <time>2023-05-20T12:48:57Z</time>
      </trkpt>
      <trkpt lat="47.94804" lon="6.9225">
        <ele>1131.1</ele>
        <time>2023-05-20T12:49:12Z</time>
      </trkpt>
      <trkpt lat="47.94802" lon="6.92236">
        <ele>1132.1</ele>
        <time>2023-05-20T12:49:19Z</time>
      </trkpt>
      <trkpt lat="47.94798" lon="6.92233">
        <ele>1132.3</ele>
        <time>2023-05-20T12:49:22Z</time>
      </trkpt>
      <trkpt lat="47.94786" lon="6.92219">
        <ele>1133.1</ele>
        <time>2023-05-20T12:49:37Z</time>
      </trkpt>
      <trkpt lat="47.94784" lon="6.92212">
        <ele>1133.4</ele>
        <time>2023-05-20T12:49:41Z</time>
      </trkpt>
      <trkpt lat="47.94777" lon="6.92204">
        <ele>1133.6</ele>
        <time>2023-05-20T12:49:49Z</time>
      </trkpt>
      <trkpt lat="47.94774" lon="6.92198">
        <ele>1133.6</ele>
        <time>2023-05-20T12:49:53Z</time>
      </trkpt>
      <trkpt lat="47.94769" lon="6.92184">
        <ele>1133.9</ele>
        <time>2023-05-20T12:50:01Z</time>
      </trkpt>
      <trkpt lat="47.94767" lon="6.92171">
        <ele>1134.4</ele>
        <time>2023-05-20T12:50:09Z</time>
      </trkpt>
      <trkpt lat="47.94764" lon="6.92166">
        <ele>1134.5</ele>
        <time>2023-05-20T12:50:12Z</time>
      </trkpt>
      <trkpt lat="47.9476" lon="6.92154">
        <ele>1134.7</ele>
        <time>2023-05-20T12:50:19Z</time>
      </trkpt>
      <trkpt lat="47.94756" lon="6.92146">
        <ele>1134.8</ele>
        <time>2023-05-20T12:50:26Z</time>
      </trkpt>
      <trkpt lat="47.94753" lon="6.92142">
        <ele>1134.9</ele>
        <time>2023-05-20T12:50:29Z</time>
      </trkpt>
      <trkpt lat="47.9475" lon="6.92137">
        <ele>1135.2</ele>
        <time>2023-05-20T12:50:32Z</time>
      </trkpt>
      <trkpt lat="47.94747" lon="6.92132">
        <ele>1135.8</ele>
        <time>2023-05-20T12:50:37Z</time>
      </trkpt>
      <trkpt lat="47.94746" lon="6.92126">
        <ele>1136.5</ele>
        <time>2023-05-20T12:50:41Z</time>
      </trkpt>
      <trkpt lat="47.94739" lon="6.92113">
        <ele>1137.8</ele>
        <time>2023-05-20T12:50:53Z</time>
      </trkpt>
      <trkpt lat="47.94735" lon="6.92109">
        <ele>1138.2</ele>
        <time>2023-05-20T12:50:58Z</time>
      </trkpt>
      <trkpt lat="47.9473" lon="6.92107">
        <ele>1138.5</ele>
        <time>2023-05-20T12:51:02Z</time>
      </trkpt>
      <trkpt lat="47.94726" lon="6.92109">
        <ele>1138.3</ele>
        <time>2023-05-20T12:51:06Z</time>
      </trkpt>
      <trkpt lat="47.9472" lon="6.92108">
        <ele>1138.5</ele>
        <time>2023-05-20T12:51:10Z</time>
      </trkpt>
      <trkpt lat="47.94715" lon="6.92102">
        <ele>1139.5</ele>
        <time>2023-05-20T12:51:16Z</time>
      </trkpt>
      <trkpt lat="47.94707" lon="6.92105">
        <ele>1139.3</ele>
        <time>2023-05-20T12:51:23Z</time>
      </trkpt>
      <trkpt lat="47.94703" lon="6.92108">
        <ele>1139.1</ele>
        <time>2023-05-20T12:51:28Z</time>
      </trkpt>
      <trkpt lat="47.94698" lon="6.92106">
        <ele>1139.4</ele>
        <time>2023-05-20T12:51:32Z</time>
      </trkpt>
      <trkpt lat="47.94692" lon="6.92096">
        <ele>1140.4</ele>
        <time>2023-05-20T12:51:39Z</time>
      </trkpt>
      <trkpt lat="47.94689" lon="6.92087">
        <ele>1140.9</ele>
        <time>2023-05-20T12:51:45Z</time>
      </trkpt>
      <trkpt lat="47.94685" lon="6.92082">
        <ele>1140.8</ele>
        <time>2023-05-20T12:51:49Z</time>
      </trkpt>
      <trkpt lat="47.94678" lon="6.92075">
        <ele>1140.8</ele>
        <time>2023-05-20T12:51:56Z</time>
      </trkpt>
      <trkpt lat="47.94668" lon="6.92072">
        <ele>1140.5</ele>
        <time>2023-05-20T12:52:05Z</time>
      </trkpt>
      <trkpt lat="47.94665" lon="6.92067">
        <ele>1141.5</ele>
        <time>2023-05-20T12:52:09Z</time>
      </trkpt>
      <trkpt lat="47.94655" lon="6.92061">
        <ele>1142.7</ele>
        <time>2023-05-20T12:52:17Z</time>
      </trkpt>
      <trkpt lat="47.9465" lon="6.92062">
        <ele>1142.5</ele>
        <time>2023-05-20T12:52:21Z</time>
      </trkpt>
      <trkpt lat="47.94639" lon="6.92061">
        <ele>1142.6</ele>
        <time>2023-05-20T12:52:33Z</time>
      </trkpt>
      <trkpt lat="47.94634" lon="6.9206">
        <ele>1143.4</ele>
        <time>2023-05-20T12:52:38Z</time>
      </trkpt>
      <trkpt lat="47.9463" lon="6.92061">
        <ele>1143.6</ele>
        <time>2023-05-20T12:52:43Z</time>
      </trkpt>
      <trkpt lat="47.94625" lon="6.92062">
        <ele>1143.9</ele>
        <time>2023-05-20T12:52:46Z</time>
      </trkpt>
      <trkpt lat="47.94619" lon="6.92062">
        <ele>1144.5</ele>
        <time>2023-05-20T12:52:53Z</time>
      </trkpt>
      <trkpt lat="47.9461" lon="6.92058">
        <ele>1146.3</ele>
        <time>2023-05-20T12:53:01Z</time>
      </trkpt>
      <trkpt lat="47.946" lon="6.92051">
        <ele>1147</ele>
        <time>2023-05-20T12:53:11Z</time>
      </trkpt>
      <trkpt lat="47.94594" lon="6.9205">
        <ele>1146.9</ele>
        <time>2023-05-20T12:53:17Z</time>
      </trkpt>
      <trkpt lat="47.94584" lon="6.92052">
        <ele>1146.4</ele>
        <time>2023-05-20T12:53:24Z</time>
      </trkpt>
      <trkpt lat="47.94578" lon="6.92049">
        <ele>1142.4</ele>
        <time>2023-05-20T12:53:32Z</time>
      </trkpt>
      <trkpt lat="47.94576" lon="6.92044">
        <ele>1141.7</ele>
        <time>2023-05-20T12:53:38Z</time>
      </trkpt>
      <trkpt lat="47.94576" lon="6.92034">
        <ele>1143.8</ele>
        <time>2023-05-20T12:54:39Z</time>
      </trkpt>
      <trkpt lat="47.94576" lon="6.92028">
        <ele>1145</ele>
        <time>2023-05-20T12:54:44Z</time>
      </trkpt>
      <trkpt lat="47.94571" lon="6.92018">
        <ele>1143.6</ele>
        <time>2023-05-20T12:54:54Z</time>
      </trkpt>
      <trkpt lat="47.94566" lon="6.92012">
        <ele>1142.6</ele>
        <time>2023-05-20T12:55:01Z</time>
      </trkpt>
      <trkpt lat="47.94563" lon="6.92005">
        <ele>1143.2</ele>
        <time>2023-05-20T12:55:06Z</time>
      </trkpt>
      <trkpt lat="47.94559" lon="6.92">
        <ele>1143.6</ele>
        <time>2023-05-20T12:55:10Z</time>
      </trkpt>
      <trkpt lat="47.94554" lon="6.92003">
        <ele>1142.1</ele>
        <time>2023-05-20T12:55:18Z</time>
      </trkpt>
      <trkpt lat="47.94548" lon="6.92013">
        <ele>1139.1</ele>
        <time>2023-05-20T12:55:27Z</time>
      </trkpt>
      <trkpt lat="47.94526" lon="6.92006">
        <ele>1141.9</ele>
        <time>2023-05-20T12:55:44Z</time>
      </trkpt>
      <trkpt lat="47.94516" lon="6.92006">
        <ele>1141</ele>
        <time>2023-05-20T12:55:53Z</time>
      </trkpt>
      <trkpt lat="47.94509" lon="6.92004">
        <ele>1141.2</ele>
        <time>2023-05-20T12:56:00Z</time>
      </trkpt>
      <trkpt lat="47.94504" lon="6.92003">
        <ele>1141.1</ele>
        <time>2023-05-20T12:56:04Z</time>
      </trkpt>
      <trkpt lat="47.94499" lon="6.91998">
        <ele>1142</ele>
        <time>2023-05-20T12:56:11Z</time>
      </trkpt>
      <trkpt lat="47.94491" lon="6.9199">
        <ele>1141.6</ele>
        <time>2023-05-20T12:56:20Z</time>
      </trkpt>
      <trkpt lat="47.94486" lon="6.91988">
        <ele>1141</ele>
        <time>2023-05-20T12:56:25Z</time>
      </trkpt>
      <trkpt lat="47.94475" lon="6.91977">
        <ele>1140.7</ele>
        <time>2023-05-20T12:56:36Z</time>
      </trkpt>
      <trkpt lat="47.94467" lon="6.9197">
        <ele>1140.8</ele>
        <time>2023-05-20T12:56:44Z</time>
      </trkpt>
      <trkpt lat="47.94463" lon="6.91966">
        <ele>1140.9</ele>
        <time>2023-05-20T12:56:48Z</time>
      </trkpt>
      <trkpt lat="47.94447" lon="6.9196">
        <ele>1140.5</ele>
        <time>2023-05-20T12:57:01Z</time>
      </trkpt>
      <trkpt lat="47.94443" lon="6.91956">
        <ele>1140.6</ele>
        <time>2023-05-20T12:57:05Z</time>
      </trkpt>
      <trkpt lat="47.94438" lon="6.91956">
        <ele>1140.1</ele>
        <time>2023-05-20T12:57:10Z</time>
      </trkpt>
      <trkpt lat="47.94433" lon="6.91954">
        <ele>1139.7</ele>
        <time>2023-05-20T12:57:15Z</time>
      </trkpt>
      <trkpt lat="47.94429" lon="6.91955">
        <ele>1139.2</ele>
        <time>2023-05-20T12:57:19Z</time>
      </trkpt>
      <trkpt lat="47.94424" lon="6.91957">
        <ele>1138.4</ele>
        <time>2023-05-20T12:57:24Z</time>
      </trkpt>
      <trkpt lat="47.94422" lon="6.91963">
        <ele>1137.6</ele>
        <time>2023-05-20T12:57:29Z</time>
      </trkpt>
      <trkpt lat="47.94423" lon="6.91994">
        <ele>1133</ele>
        <time>2023-05-20T12:57:50Z</time>
      </trkpt>
      <trkpt lat="47.94416" lon="6.91996">
        <ele>1134.1</ele>
        <time>2023-05-20T12:58:00Z</time>
      </trkpt>
      <trkpt lat="47.94411" lon="6.91994">
        <ele>1132.8</ele>
        <time>2023-05-20T12:58:08Z</time>
      </trkpt>
      <trkpt lat="47.94406" lon="6.91992">
        <ele>1131.6</ele>
        <time>2023-05-20T12:58:14Z</time>
      </trkpt>
      <trkpt lat="47.94396" lon="6.91992">
        <ele>1128.7</ele>
        <time>2023-05-20T12:58:22Z</time>
      </trkpt>
      <trkpt lat="47.94401" lon="6.92">
        <ele>1128.9</ele>
        <time>2023-05-20T12:58:37Z</time>
      </trkpt>
      <trkpt lat="47.94399" lon="6.92006">
        <ele>1125.4</ele>
        <time>2023-05-20T12:58:47Z</time>
      </trkpt>
      <trkpt lat="47.94394" lon="6.92007">
        <ele>1123.4</ele>
        <time>2023-05-20T12:58:52Z</time>
      </trkpt>
      <trkpt lat="47.94389" lon="6.92008">
        <ele>1121.6</ele>
        <time>2023-05-20T12:58:56Z</time>
      </trkpt>
      <trkpt lat="47.94386" lon="6.9201">
        <ele>1119.2</ele>
        <time>2023-05-20T12:59:01Z</time>
      </trkpt>
      <trkpt lat="47.94393" lon="6.92014">
        <ele>1120</ele>
        <time>2023-05-20T12:59:13Z</time>
      </trkpt>
      <trkpt lat="47.94398" lon="6.92016">
        <ele>1120.3</ele>
        <time>2023-05-20T12:59:18Z</time>
      </trkpt>
      <trkpt lat="47.94397" lon="6.92021">
        <ele>1117.7</ele>
        <time>2023-05-20T12:59:31Z</time>
      </trkpt>
      <trkpt lat="47.944" lon="6.92025">
        <ele>1116.4</ele>
        <time>2023-05-20T12:59:54Z</time>
      </trkpt>
      <trkpt lat="47.94385" lon="6.9204">
        <ele>1106.3</ele>
        <time>2023-05-20T13:00:13Z</time>
      </trkpt>
      <trkpt lat="47.94379" lon="6.9204">
        <ele>1105.4</ele>
        <time>2023-05-20T13:00:18Z</time>
      </trkpt>
      <trkpt lat="47.94375" lon="6.92038">
        <ele>1105.4</ele>
        <time>2023-05-20T13:00:23Z</time>
      </trkpt>
      <trkpt lat="47.94371" lon="6.92042">
        <ele>1103.7</ele>
        <time>2023-05-20T13:00:34Z</time>
      </trkpt>
      <trkpt lat="47.94377" lon="6.92051">
        <ele>1101.4</ele>
        <time>2023-05-20T13:00:45Z</time>
      </trkpt>
      <trkpt lat="47.94378" lon="6.92057">
        <ele>1099.1</ele>
        <time>2023-05-20T13:00:57Z</time>
      </trkpt>
      <trkpt lat="47.94373" lon="6.9206">
        <ele>1098.3</ele>
        <time>2023-05-20T13:01:00Z</time>
      </trkpt>
      <trkpt lat="47.9437" lon="6.92064">
        <ele>1096.9</ele>
        <time>2023-05-20T13:01:04Z</time>
      </trkpt>
      <trkpt lat="47.94364" lon="6.92063">
        <ele>1098</ele>
        <time>2023-05-20T13:01:07Z</time>
      </trkpt>
      <trkpt lat="47.94356" lon="6.92057">
        <ele>1099.4</ele>
        <time>2023-05-20T13:01:15Z</time>
      </trkpt>
      <trkpt lat="47.94344" lon="6.92044">
        <ele>1098.3</ele>
        <time>2023-05-20T13:01:26Z</time>
      </trkpt>
      <trkpt lat="47.94338" lon="6.92042">
        <ele>1097.1</ele>
        <time>2023-05-20T13:01:33Z</time>
      </trkpt>
      <trkpt lat="47.94344" lon="6.92077">
        <ele>1092.9</ele>
        <time>2023-05-20T13:01:57Z</time>
      </trkpt>
      <trkpt lat="47.94341" lon="6.92083">
        <ele>1091.8</ele>
        <time>2023-05-20T13:02:02Z</time>
      </trkpt>
      <trkpt lat="47.94341" lon="6.9209">
        <ele>1089.8</ele>
        <time>2023-05-20T13:02:08Z</time>
      </trkpt>
      <trkpt lat="47.94341" lon="6.92098">
        <ele>1087.5</ele>
        <time>2023-05-20T13:02:11Z</time>
      </trkpt>
      <trkpt lat="47.94335" lon="6.9211">
        <ele>1086.5</ele>
        <time>2023-05-20T13:02:19Z</time>
      </trkpt>
      <trkpt lat="47.94326" lon="6.92113">
        <ele>1085.5</ele>
        <time>2023-05-20T13:02:26Z</time>
      </trkpt>
      <trkpt lat="47.94303" lon="6.92127">
        <ele>1082.1</ele>
        <time>2023-05-20T13:02:47Z</time>
      </trkpt>
      <trkpt lat="47.943" lon="6.92131">
        <ele>1081</ele>
        <time>2023-05-20T13:02:51Z</time>
      </trkpt>
      <trkpt lat="47.94299" lon="6.92139">
        <ele>1079.8</ele>
        <time>2023-05-20T13:03:00Z</time>
      </trkpt>
      <trkpt lat="47.94301" lon="6.92145">
        <ele>1078.5</ele>
        <time>2023-05-20T13:03:05Z</time>
      </trkpt>
      <trkpt lat="47.94296" lon="6.92153">
        <ele>1075.9</ele>
        <time>2023-05-20T13:03:16Z</time>
      </trkpt>
      <trkpt lat="47.94272" lon="6.92155">
        <ele>1074.3</ele>
        <time>2023-05-20T13:03:34Z</time>
      </trkpt>
      <trkpt lat="47.94261" lon="6.9216">
        <ele>1073.1</ele>
        <time>2023-05-20T13:03:43Z</time>
      </trkpt>
      <trkpt lat="47.94254" lon="6.92159">
        <ele>1072.6</ele>
        <time>2023-05-20T13:03:50Z</time>
      </trkpt>
      <trkpt lat="47.94241" lon="6.92169">
        <ele>1071.9</ele>
        <time>2023-05-20T13:04:01Z</time>
      </trkpt>
      <trkpt lat="47.94237" lon="6.92172">
        <ele>1071.8</ele>
        <time>2023-05-20T13:04:04Z</time>
      </trkpt>
      <trkpt lat="47.94228" lon="6.92173">
        <ele>1071.8</ele>
        <time>2023-05-20T13:04:10Z</time>
      </trkpt>
      <trkpt lat="47.94224" lon="6.92174">
        <ele>1071.7</ele>
        <time>2023-05-20T13:04:13Z</time>
      </trkpt>
      <trkpt lat="47.94209" lon="6.92166">
        <ele>1070.1</ele>
        <time>2023-05-20T13:04:27Z</time>
      </trkpt>
      <trkpt lat="47.94199" lon="6.9217">
        <ele>1068.5</ele>
        <time>2023-05-20T13:04:35Z</time>
      </trkpt>
      <trkpt lat="47.94195" lon="6.92169">
        <ele>1068</ele>
        <time>2023-05-20T13:04:39Z</time>
      </trkpt>
      <trkpt lat="47.9419" lon="6.92172">
        <ele>1067.7</ele>
        <time>2023-05-20T13:04:43Z</time>
      </trkpt>
      <trkpt lat="47.94183" lon="6.9218">
        <ele>1067.5</ele>
        <time>2023-05-20T13:04:51Z</time>
      </trkpt>
      <trkpt lat="47.94178" lon="6.92185">
        <ele>1067.5</ele>
        <time>2023-05-20T13:04:55Z</time>
      </trkpt>
      <trkpt lat="47.94173" lon="6.92181">
        <ele>1067.5</ele>
        <time>2023-05-20T13:04:58Z</time>
      </trkpt>
      <trkpt lat="47.9417" lon="6.92175">
        <ele>1067.3</ele>
        <time>2023-05-20T13:05:01Z</time>
      </trkpt>
      <trkpt lat="47.94169" lon="6.92168">
        <ele>1067.1</ele>
        <time>2023-05-20T13:05:06Z</time>
      </trkpt>
      <trkpt lat="47.94158" lon="6.92146">
        <ele>1067.2</ele>
        <time>2023-05-20T13:05:19Z</time>
      </trkpt>
      <trkpt lat="47.94156" lon="6.92139">
        <ele>1067</ele>
        <time>2023-05-20T13:05:23Z</time>
      </trkpt>
      <trkpt lat="47.9415" lon="6.92127">
        <ele>1066.6</ele>
        <time>2023-05-20T13:05:31Z</time>
      </trkpt>
      <trkpt lat="47.94146" lon="6.92123">
        <ele>1066.4</ele>
        <time>2023-05-20T13:05:35Z</time>
      </trkpt>
      <trkpt lat="47.94124" lon="6.92092">
        <ele>1065.7</ele>
        <time>2023-05-20T13:05:59Z</time>
      </trkpt>
      <trkpt lat="47.94112" lon="6.9208">
        <ele>1065.8</ele>
        <time>2023-05-20T13:06:10Z</time>
      </trkpt>
      <trkpt lat="47.94101" lon="6.92067">
        <ele>1065.6</ele>
        <time>2023-05-20T13:06:22Z</time>
      </trkpt>
      <trkpt lat="47.94082" lon="6.92059">
        <ele>1065.1</ele>
        <time>2023-05-20T13:06:37Z</time>
      </trkpt>
      <trkpt lat="47.94077" lon="6.92056">
        <ele>1064.4</ele>
        <time>2023-05-20T13:06:41Z</time>
      </trkpt>
      <trkpt lat="47.94072" lon="6.92059">
        <ele>1064.1</ele>
        <time>2023-05-20T13:06:45Z</time>
      </trkpt>
      <trkpt lat="47.94067" lon="6.92058">
        <ele>1063.5</ele>
        <time>2023-05-20T13:06:49Z</time>
      </trkpt>
      <trkpt lat="47.94062" lon="6.9206">
        <ele>1063.1</ele>
        <time>2023-05-20T13:06:53Z</time>
      </trkpt>
      <trkpt lat="47.94046" lon="6.92057">
        <ele>1061.1</ele>
        <time>2023-05-20T13:07:06Z</time>
      </trkpt>
      <trkpt lat="47.94042" lon="6.92055">
        <ele>1060.5</ele>
        <time>2023-05-20T13:07:11Z</time>
      </trkpt>
      <trkpt lat="47.94026" lon="6.92053">
        <ele>1058.7</ele>
        <time>2023-05-20T13:07:25Z</time>
      </trkpt>
      <trkpt lat="47.94016" lon="6.92049">
        <ele>1058</ele>
        <time>2023-05-20T13:07:33Z</time>
      </trkpt>
      <trkpt lat="47.94011" lon="6.92049">
        <ele>1057.8</ele>
        <time>2023-05-20T13:07:37Z</time>
      </trkpt>
      <trkpt lat="47.93996" lon="6.92047">
        <ele>1056.8</ele>
        <time>2023-05-20T13:07:49Z</time>
      </trkpt>
      <trkpt lat="47.93967" lon="6.92063">
        <ele>1056.3</ele>
        <time>2023-05-20T13:08:12Z</time>
      </trkpt>
      <trkpt lat="47.93958" lon="6.92069">
        <ele>1056.2</ele>
        <time>2023-05-20T13:08:20Z</time>
      </trkpt>
      <trkpt lat="47.93943" lon="6.92078">
        <ele>1055.9</ele>
        <time>2023-05-20T13:08:32Z</time>
      </trkpt>
      <trkpt lat="47.93937" lon="6.92079">
        <ele>1054.6</ele>
        <time>2023-05-20T13:08:36Z</time>
      </trkpt>
      <trkpt lat="47.93925" lon="6.92089">
        <ele>1052.7</ele>
        <time>2023-05-20T13:08:48Z</time>
      </trkpt>
      <trkpt lat="47.93903" lon="6.92119">
        <ele>1051.2</ele>
        <time>2023-05-20T13:09:16Z</time>
      </trkpt>
      <trkpt lat="47.93897" lon="6.92143">
        <ele>1050.2</ele>
        <time>2023-05-20T13:09:38Z</time>
      </trkpt>
      <trkpt lat="47.93901" lon="6.92146">
        <ele>1051.4</ele>
        <time>2023-05-20T13:09:46Z</time>
      </trkpt>
      <trkpt lat="47.93889" lon="6.92137">
        <ele>1048.1</ele>
        <time>2023-05-20T13:10:10Z</time>
      </trkpt>
      <trkpt lat="47.93889" lon="6.92138">
        <ele>1048.1</ele>
        <time>2023-05-20T13:10:55Z</time>
      </trkpt>
      <trkpt lat="47.93886" lon="6.92142">
        <ele>1048.6</ele>
        <time>2023-05-20T13:11:25Z</time>
      </trkpt>
      <trkpt lat="47.9389" lon="6.92145">
        <ele>1048.3</ele>
        <time>2023-05-20T13:11:47Z</time>
      </trkpt>
      <trkpt lat="47.93893" lon="6.92137">
        <ele>1049.1</ele>
        <time>2023-05-20T13:12:41Z</time>
      </trkpt>
      <trkpt lat="47.93897" lon="6.9214">
        <ele>1050.1</ele>
        <time>2023-05-20T13:12:53Z</time>
      </trkpt>
      <trkpt lat="47.93903" lon="6.92143">
        <ele>1051.8</ele>
        <time>2023-05-20T13:12:56Z</time>
      </trkpt>
      <trkpt lat="47.93903" lon="6.92152">
        <ele>1052.3</ele>
        <time>2023-05-20T13:13:15Z</time>
      </trkpt>
      <trkpt lat="47.939" lon="6.92157">
        <ele>1051.6</ele>
        <time>2023-05-20T13:13:19Z</time>
      </trkpt>
      <trkpt lat="47.93899" lon="6.92165">
        <ele>1051.6</ele>
        <time>2023-05-20T13:13:23Z</time>
      </trkpt>
      <trkpt lat="47.93891" lon="6.92193">
        <ele>1049.7</ele>
        <time>2023-05-20T13:13:41Z</time>
      </trkpt>
      <trkpt lat="47.93892" lon="6.922">
        <ele>1050.2</ele>
        <time>2023-05-20T13:13:45Z</time>
      </trkpt>
      <trkpt lat="47.93889" lon="6.92214">
        <ele>1049</ele>
        <time>2023-05-20T13:13:53Z</time>
      </trkpt>
      <trkpt lat="47.93884" lon="6.9222">
        <ele>1048.2</ele>
        <time>2023-05-20T13:13:56Z</time>
      </trkpt>
      <trkpt lat="47.9388" lon="6.92222">
        <ele>1047.4</ele>
        <time>2023-05-20T13:13:59Z</time>
      </trkpt>
      <trkpt lat="47.93873" lon="6.92218">
        <ele>1046.7</ele>
        <time>2023-05-20T13:14:02Z</time>
      </trkpt>
      <trkpt lat="47.93869" lon="6.92217">
        <ele>1046.2</ele>
        <time>2023-05-20T13:14:04Z</time>
      </trkpt>
      <trkpt lat="47.93863" lon="6.92216">
        <ele>1045.6</ele>
        <time>2023-05-20T13:14:07Z</time>
      </trkpt>
      <trkpt lat="47.93848" lon="6.92215">
        <ele>1045</ele>
        <time>2023-05-20T13:14:18Z</time>
      </trkpt>
      <trkpt lat="47.93842" lon="6.92215">
        <ele>1044.7</ele>
        <time>2023-05-20T13:14:24Z</time>
      </trkpt>
      <trkpt lat="47.9381" lon="6.92212">
        <ele>1048.1</ele>
        <time>2023-05-20T13:14:50Z</time>
      </trkpt>
      <trkpt lat="47.93802" lon="6.92214">
        <ele>1049.9</ele>
        <time>2023-05-20T13:14:58Z</time>
      </trkpt>
      <trkpt lat="47.93798" lon="6.92216">
        <ele>1051.3</ele>
        <time>2023-05-20T13:15:01Z</time>
      </trkpt>
      <trkpt lat="47.93794" lon="6.92215">
        <ele>1052.8</ele>
        <time>2023-05-20T13:15:06Z</time>
      </trkpt>
      <trkpt lat="47.93789" lon="6.92219">
        <ele>1054.6</ele>
        <time>2023-05-20T13:15:20Z</time>
      </trkpt>
      <trkpt lat="47.9379" lon="6.92231">
        <ele>1053.4</ele>
        <time>2023-05-20T13:15:31Z</time>
      </trkpt>
      <trkpt lat="47.93779" lon="6.92265">
        <ele>1056.2</ele>
        <time>2023-05-20T13:15:55Z</time>
      </trkpt>
      <trkpt lat="47.93778" lon="6.92272">
        <ele>1056.3</ele>
        <time>2023-05-20T13:16:00Z</time>
      </trkpt>
      <trkpt lat="47.93772" lon="6.92267">
        <ele>1059.4</ele>
        <time>2023-05-20T13:16:08Z</time>
      </trkpt>
      <trkpt lat="47.93765" lon="6.9225">
        <ele>1064.4</ele>
        <time>2023-05-20T13:16:19Z</time>
      </trkpt>
      <trkpt lat="47.93765" lon="6.92242">
        <ele>1064.6</ele>
        <time>2023-05-20T13:16:24Z</time>
      </trkpt>
      <trkpt lat="47.93765" lon="6.92224">
        <ele>1064.9</ele>
        <time>2023-05-20T13:16:36Z</time>
      </trkpt>
      <trkpt lat="47.93763" lon="6.92213">
        <ele>1065.2</ele>
        <time>2023-05-20T13:16:45Z</time>
      </trkpt>
      <trkpt lat="47.9376" lon="6.92222">
        <ele>1067.3</ele>
        <time>2023-05-20T13:17:03Z</time>
      </trkpt>
      <trkpt lat="47.93761" lon="6.92229">
        <ele>1066.8</ele>
        <time>2023-05-20T13:17:07Z</time>
      </trkpt>
      <trkpt lat="47.93759" lon="6.92243">
        <ele>1067.5</ele>
        <time>2023-05-20T13:17:15Z</time>
      </trkpt>
      <trkpt lat="47.93758" lon="6.92251">
        <ele>1067.8</ele>
        <time>2023-05-20T13:17:19Z</time>
      </trkpt>
      <trkpt lat="47.93755" lon="6.92256">
        <ele>1068.7</ele>
        <time>2023-05-20T13:17:23Z</time>
      </trkpt>
      <trkpt lat="47.93751" lon="6.92261">
        <ele>1069.9</ele>
        <time>2023-05-20T13:17:27Z</time>
      </trkpt>
      <trkpt lat="47.93749" lon="6.92268">
        <ele>1069.8</ele>
        <time>2023-05-20T13:17:35Z</time>
      </trkpt>
      <trkpt lat="47.9374" lon="6.92283">
        <ele>1072.1</ele>
        <time>2023-05-20T13:17:47Z</time>
      </trkpt>
      <trkpt lat="47.93735" lon="6.92286">
        <ele>1074.5</ele>
        <time>2023-05-20T13:17:50Z</time>
      </trkpt>
      <trkpt lat="47.93736" lon="6.92269">
        <ele>1075.3</ele>
        <time>2023-05-20T13:17:57Z</time>
      </trkpt>
      <trkpt lat="47.93738" lon="6.92262">
        <ele>1075.2</ele>
        <time>2023-05-20T13:18:01Z</time>
      </trkpt>
      <trkpt lat="47.93737" lon="6.92255">
        <ele>1076.2</ele>
        <time>2023-05-20T13:18:05Z</time>
      </trkpt>
      <trkpt lat="47.93734" lon="6.92251">
        <ele>1077.7</ele>
        <time>2023-05-20T13:18:09Z</time>
      </trkpt>
      <trkpt lat="47.93737" lon="6.92245">
        <ele>1076.6</ele>
        <time>2023-05-20T13:18:12Z</time>
      </trkpt>
      <trkpt lat="47.9373" lon="6.92232">
        <ele>1078.7</ele>
        <time>2023-05-20T13:18:24Z</time>
      </trkpt>
      <trkpt lat="47.93725" lon="6.92229">
        <ele>1080.3</ele>
        <time>2023-05-20T13:18:34Z</time>
      </trkpt>
      <trkpt lat="47.9372" lon="6.92236">
        <ele>1082</ele>
        <time>2023-05-20T13:18:43Z</time>
      </trkpt>
      <trkpt lat="47.93712" lon="6.92242">
        <ele>1084.3</ele>
        <time>2023-05-20T13:18:55Z</time>
      </trkpt>
      <trkpt lat="47.93709" lon="6.92248">
        <ele>1085.6</ele>
        <time>2023-05-20T13:19:01Z</time>
      </trkpt>
      <trkpt lat="47.9371" lon="6.92254">
        <ele>1085.8</ele>
        <time>2023-05-20T13:19:08Z</time>
      </trkpt>
      <trkpt lat="47.93709" lon="6.92262">
        <ele>1086.6</ele>
        <time>2023-05-20T13:19:13Z</time>
      </trkpt>
      <trkpt lat="47.93709" lon="6.92268">
        <ele>1087</ele>
        <time>2023-05-20T13:19:21Z</time>
      </trkpt>
      <trkpt lat="47.93709" lon="6.92276">
        <ele>1087.5</ele>
        <time>2023-05-20T13:19:26Z</time>
      </trkpt>
      <trkpt lat="47.93714" lon="6.92288">
        <ele>1086.1</ele>
        <time>2023-05-20T13:19:36Z</time>
      </trkpt>
      <trkpt lat="47.93714" lon="6.92312">
        <ele>1089</ele>
        <time>2023-05-20T13:19:52Z</time>
      </trkpt>
      <trkpt lat="47.9371" lon="6.92318">
        <ele>1092.3</ele>
        <time>2023-05-20T13:20:03Z</time>
      </trkpt>
      <trkpt lat="47.93706" lon="6.92314">
        <ele>1093.8</ele>
        <time>2023-05-20T13:20:07Z</time>
      </trkpt>
      <trkpt lat="47.93704" lon="6.92308">
        <ele>1093.9</ele>
        <time>2023-05-20T13:20:10Z</time>
      </trkpt>
      <trkpt lat="47.93691" lon="6.92288">
        <ele>1097.4</ele>
        <time>2023-05-20T13:20:26Z</time>
      </trkpt>
      <trkpt lat="47.93684" lon="6.92288">
        <ele>1099.2</ele>
        <time>2023-05-20T13:20:35Z</time>
      </trkpt>
      <trkpt lat="47.9368" lon="6.92293">
        <ele>1101.1</ele>
        <time>2023-05-20T13:20:47Z</time>
      </trkpt>
      <trkpt lat="47.93683" lon="6.92301">
        <ele>1101.6</ele>
        <time>2023-05-20T13:20:58Z</time>
      </trkpt>
      <trkpt lat="47.93686" lon="6.92306">
        <ele>1101.5</ele>
        <time>2023-05-20T13:21:02Z</time>
      </trkpt>
      <trkpt lat="47.93686" lon="6.92314">
        <ele>1102.6</ele>
        <time>2023-05-20T13:21:07Z</time>
      </trkpt>
      <trkpt lat="47.93692" lon="6.92326">
        <ele>1102.6</ele>
        <time>2023-05-20T13:21:15Z</time>
      </trkpt>
      <trkpt lat="47.93694" lon="6.92333">
        <ele>1103.1</ele>
        <time>2023-05-20T13:21:20Z</time>
      </trkpt>
      <trkpt lat="47.93692" lon="6.92341">
        <ele>1104.6</ele>
        <time>2023-05-20T13:21:27Z</time>
      </trkpt>
      <trkpt lat="47.93694" lon="6.92348">
        <ele>1104.7</ele>
        <time>2023-05-20T13:21:32Z</time>
      </trkpt>
      <trkpt lat="47.93695" lon="6.92364">
        <ele>1106</ele>
        <time>2023-05-20T13:21:43Z</time>
      </trkpt>
      <trkpt lat="47.93694" lon="6.92372">
        <ele>1107.3</ele>
        <time>2023-05-20T13:21:46Z</time>
      </trkpt>
      <trkpt lat="47.93688" lon="6.92368">
        <ele>1109.2</ele>
        <time>2023-05-20T13:21:55Z</time>
      </trkpt>
      <trkpt lat="47.93685" lon="6.92364">
        <ele>1109.8</ele>
        <time>2023-05-20T13:21:59Z</time>
      </trkpt>
      <trkpt lat="47.9368" lon="6.92362">
        <ele>1111.3</ele>
        <time>2023-05-20T13:22:04Z</time>
      </trkpt>
      <trkpt lat="47.93675" lon="6.92357">
        <ele>1112.3</ele>
        <time>2023-05-20T13:22:09Z</time>
      </trkpt>
      <trkpt lat="47.93664" lon="6.92357">
        <ele>1115.9</ele>
        <time>2023-05-20T13:22:20Z</time>
      </trkpt>
      <trkpt lat="47.93655" lon="6.92347">
        <ele>1116.2</ele>
        <time>2023-05-20T13:22:31Z</time>
      </trkpt>
      <trkpt lat="47.9366" lon="6.92357">
        <ele>1116.7</ele>
        <time>2023-05-20T13:22:48Z</time>
      </trkpt>
      <trkpt lat="47.93664" lon="6.92362">
        <ele>1116.7</ele>
        <time>2023-05-20T13:22:52Z</time>
      </trkpt>
      <trkpt lat="47.93666" lon="6.92368">
        <ele>1117.4</ele>
        <time>2023-05-20T13:22:56Z</time>
      </trkpt>
      <trkpt lat="47.9367" lon="6.92371">
        <ele>1116.5</ele>
        <time>2023-05-20T13:23:00Z</time>
      </trkpt>
      <trkpt lat="47.93671" lon="6.92377">
        <ele>1117.1</ele>
        <time>2023-05-20T13:23:04Z</time>
      </trkpt>
      <trkpt lat="47.93665" lon="6.92384">
        <ele>1120.4</ele>
        <time>2023-05-20T13:23:14Z</time>
      </trkpt>
      <trkpt lat="47.93656" lon="6.92394">
        <ele>1122.9</ele>
        <time>2023-05-20T13:23:26Z</time>
      </trkpt>
      <trkpt lat="47.93654" lon="6.92401">
        <ele>1123.7</ele>
        <time>2023-05-20T13:23:29Z</time>
      </trkpt>
      <trkpt lat="47.93646" lon="6.92418">
        <ele>1126.6</ele>
        <time>2023-05-20T13:23:39Z</time>
      </trkpt>
      <trkpt lat="47.93644" lon="6.92426">
        <ele>1128.2</ele>
        <time>2023-05-20T13:23:47Z</time>
      </trkpt>
      <trkpt lat="47.93639" lon="6.92433">
        <ele>1130.3</ele>
        <time>2023-05-20T13:23:59Z</time>
      </trkpt>
      <trkpt lat="47.93632" lon="6.92457">
        <ele>1133.9</ele>
        <time>2023-05-20T13:24:25Z</time>
      </trkpt>
      <trkpt lat="47.93617" lon="6.92472">
        <ele>1136.4</ele>
        <time>2023-05-20T13:24:42Z</time>
      </trkpt>
      <trkpt lat="47.93608" lon="6.92478">
        <ele>1136.5</ele>
        <time>2023-05-20T13:24:50Z</time>
      </trkpt>
      <trkpt lat="47.93603" lon="6.92477">
        <ele>1136.8</ele>
        <time>2023-05-20T13:24:54Z</time>
      </trkpt>
      <trkpt lat="47.93588" lon="6.92482">
        <ele>1137.1</ele>
        <time>2023-05-20T13:25:05Z</time>
      </trkpt>
      <trkpt lat="47.93584" lon="6.92483">
        <ele>1137.2</ele>
        <time>2023-05-20T13:25:09Z</time>
      </trkpt>
      <trkpt lat="47.93579" lon="6.92485">
        <ele>1137.3</ele>
        <time>2023-05-20T13:25:13Z</time>
      </trkpt>
      <trkpt lat="47.9357" lon="6.92488">
        <ele>1137.6</ele>
        <time>2023-05-20T13:25:19Z</time>
      </trkpt>
      <trkpt lat="47.93566" lon="6.9249">
        <ele>1137.7</ele>
        <time>2023-05-20T13:25:22Z</time>
      </trkpt>
      <trkpt lat="47.93562" lon="6.92492">
        <ele>1137.9</ele>
        <time>2023-05-20T13:25:25Z</time>
      </trkpt>
      <trkpt lat="47.93557" lon="6.92492">
        <ele>1138.2</ele>
        <time>2023-05-20T13:25:30Z</time>
      </trkpt>
      <trkpt lat="47.93552" lon="6.92493">
        <ele>1138.5</ele>
        <time>2023-05-20T13:25:34Z</time>
      </trkpt>
      <trkpt lat="47.93524" lon="6.92495">
        <ele>1140.3</ele>
        <time>2023-05-20T13:25:57Z</time>
      </trkpt>
      <trkpt lat="47.93515" lon="6.92492">
        <ele>1140.7</ele>
        <time>2023-05-20T13:26:06Z</time>
      </trkpt>
      <trkpt lat="47.93502" lon="6.92501">
        <ele>1140.8</ele>
        <time>2023-05-20T13:26:16Z</time>
      </trkpt>
      <trkpt lat="47.93497" lon="6.92501">
        <ele>1141.1</ele>
        <time>2023-05-20T13:26:20Z</time>
      </trkpt>
      <trkpt lat="47.93492" lon="6.92503">
        <ele>1141.3</ele>
        <time>2023-05-20T13:26:24Z</time>
      </trkpt>
      <trkpt lat="47.93487" lon="6.92505">
        <ele>1141.5</ele>
        <time>2023-05-20T13:26:28Z</time>
      </trkpt>
      <trkpt lat="47.93472" lon="6.92504">
        <ele>1142.6</ele>
        <time>2023-05-20T13:26:40Z</time>
      </trkpt>
      <trkpt lat="47.93467" lon="6.92506">
        <ele>1142.2</ele>
        <time>2023-05-20T13:26:44Z</time>
      </trkpt>
      <trkpt lat="47.93461" lon="6.92508">
        <ele>1141.7</ele>
        <time>2023-05-20T13:26:53Z</time>
      </trkpt>
      <trkpt lat="47.93456" lon="6.92509">
        <ele>1141.4</ele>
        <time>2023-05-20T13:26:58Z</time>
      </trkpt>
      <trkpt lat="47.93451" lon="6.9251">
        <ele>1141.2</ele>
        <time>2023-05-20T13:27:02Z</time>
      </trkpt>
      <trkpt lat="47.93447" lon="6.92511">
        <ele>1140.9</ele>
        <time>2023-05-20T13:27:06Z</time>
      </trkpt>
      <trkpt lat="47.93431" lon="6.9251">
        <ele>1139.5</ele>
        <time>2023-05-20T13:27:17Z</time>
      </trkpt>
      <trkpt lat="47.93426" lon="6.92512">
        <ele>1138.7</ele>
        <time>2023-05-20T13:27:21Z</time>
      </trkpt>
      <trkpt lat="47.93422" lon="6.92513">
        <ele>1138.2</ele>
        <time>2023-05-20T13:27:25Z</time>
      </trkpt>
      <trkpt lat="47.93407" lon="6.92509">
        <ele>1135.9</ele>
        <time>2023-05-20T13:27:37Z</time>
      </trkpt>
      <trkpt lat="47.934" lon="6.925">
        <ele>1136</ele>
        <time>2023-05-20T13:27:44Z</time>
      </trkpt>
      <trkpt lat="47.93382" lon="6.92487">
        <ele>1132.4</ele>
        <time>2023-05-20T13:28:00Z</time>
      </trkpt>
      <trkpt lat="47.93375" lon="6.92478">
        <ele>1131.7</ele>
        <time>2023-05-20T13:28:08Z</time>
      </trkpt>
      <trkpt lat="47.93367" lon="6.92473">
        <ele>1130.9</ele>
        <time>2023-05-20T13:28:16Z</time>
      </trkpt>
      <trkpt lat="47.93357" lon="6.92469">
        <ele>1129.2</ele>
        <time>2023-05-20T13:28:24Z</time>
      </trkpt>
      <trkpt lat="47.93348" lon="6.92461">
        <ele>1128.6</ele>
        <time>2023-05-20T13:28:32Z</time>
      </trkpt>
      <trkpt lat="47.93336" lon="6.92451">
        <ele>1129.8</ele>
        <time>2023-05-20T13:28:44Z</time>
      </trkpt>
      <trkpt lat="47.9333" lon="6.9245">
        <ele>1129.6</ele>
        <time>2023-05-20T13:28:48Z</time>
      </trkpt>
      <trkpt lat="47.93317" lon="6.9244">
        <ele>1131</ele>
        <time>2023-05-20T13:29:00Z</time>
      </trkpt>
      <trkpt lat="47.93314" lon="6.92438">
        <ele>1131.2</ele>
        <time>2023-05-20T13:29:03Z</time>
      </trkpt>
      <trkpt lat="47.93305" lon="6.92432">
        <ele>1132.1</ele>
        <time>2023-05-20T13:29:09Z</time>
      </trkpt>
      <trkpt lat="47.93276" lon="6.9241">
        <ele>1137.7</ele>
        <time>2023-05-20T13:29:39Z</time>
      </trkpt>
      <trkpt lat="47.93267" lon="6.92409">
        <ele>1137.7</ele>
        <time>2023-05-20T13:29:49Z</time>
      </trkpt>
      <trkpt lat="47.93263" lon="6.92405">
        <ele>1138.2</ele>
        <time>2023-05-20T13:29:53Z</time>
      </trkpt>
      <trkpt lat="47.9326" lon="6.924">
        <ele>1138.9</ele>
        <time>2023-05-20T13:29:58Z</time>
      </trkpt>
      <trkpt lat="47.93251" lon="6.92396">
        <ele>1139.7</ele>
        <time>2023-05-20T13:30:05Z</time>
      </trkpt>
      <trkpt lat="47.93237" lon="6.92396">
        <ele>1141.1</ele>
        <time>2023-05-20T13:30:17Z</time>
      </trkpt>
      <trkpt lat="47.93233" lon="6.92394">
        <ele>1141.9</ele>
        <time>2023-05-20T13:30:21Z</time>
      </trkpt>
      <trkpt lat="47.93224" lon="6.92391">
        <ele>1143.4</ele>
        <time>2023-05-20T13:30:29Z</time>
      </trkpt>
      <trkpt lat="47.93215" lon="6.92385">
        <ele>1144.4</ele>
        <time>2023-05-20T13:30:37Z</time>
      </trkpt>
      <trkpt lat="47.93206" lon="6.92383">
        <ele>1144.7</ele>
        <time>2023-05-20T13:30:44Z</time>
      </trkpt>
      <trkpt lat="47.93192" lon="6.92389">
        <ele>1144.9</ele>
        <time>2023-05-20T13:30:57Z</time>
      </trkpt>
      <trkpt lat="47.93178" lon="6.92398">
        <ele>1144</ele>
        <time>2023-05-20T13:31:09Z</time>
      </trkpt>
      <trkpt lat="47.93174" lon="6.92404">
        <ele>1143.8</ele>
        <time>2023-05-20T13:31:14Z</time>
      </trkpt>
      <trkpt lat="47.9317" lon="6.92413">
        <ele>1143.8</ele>
        <time>2023-05-20T13:31:21Z</time>
      </trkpt>
      <trkpt lat="47.93168" lon="6.92419">
        <ele>1143.7</ele>
        <time>2023-05-20T13:31:24Z</time>
      </trkpt>
      <trkpt lat="47.93163" lon="6.92431">
        <ele>1143</ele>
        <time>2023-05-20T13:31:33Z</time>
      </trkpt>
      <trkpt lat="47.93157" lon="6.9244">
        <ele>1142.8</ele>
        <time>2023-05-20T13:31:41Z</time>
      </trkpt>
      <trkpt lat="47.93154" lon="6.92446">
        <ele>1142.8</ele>
        <time>2023-05-20T13:31:45Z</time>
      </trkpt>
      <trkpt lat="47.93145" lon="6.92462">
        <ele>1142.5</ele>
        <time>2023-05-20T13:31:57Z</time>
      </trkpt>
      <trkpt lat="47.93139" lon="6.92473">
        <ele>1143</ele>
        <time>2023-05-20T13:32:05Z</time>
      </trkpt>
      <trkpt lat="47.93135" lon="6.92478">
        <ele>1143.6</ele>
        <time>2023-05-20T13:32:10Z</time>
      </trkpt>
      <trkpt lat="47.93132" lon="6.92483">
        <ele>1144.2</ele>
        <time>2023-05-20T13:32:14Z</time>
      </trkpt>
      <trkpt lat="47.93113" lon="6.92521">
        <ele>1149.1</ele>
        <time>2023-05-20T13:32:47Z</time>
      </trkpt>
      <trkpt lat="47.93097" lon="6.92552">
        <ele>1154.3</ele>
        <time>2023-05-20T13:33:18Z</time>
      </trkpt>
      <trkpt lat="47.93096" lon="6.92559">
        <ele>1155</ele>
        <time>2023-05-20T13:33:24Z</time>
      </trkpt>
      <trkpt lat="47.93095" lon="6.92566">
        <ele>1155.5</ele>
        <time>2023-05-20T13:33:30Z</time>
      </trkpt>
      <trkpt lat="47.93092" lon="6.92576">
        <ele>1157</ele>
        <time>2023-05-20T13:33:41Z</time>
      </trkpt>
      <trkpt lat="47.93088" lon="6.92581">
        <ele>1158.9</ele>
        <time>2023-05-20T13:33:47Z</time>
      </trkpt>
      <trkpt lat="47.93083" lon="6.9259">
        <ele>1160.5</ele>
        <time>2023-05-20T13:34:00Z</time>
      </trkpt>
      <trkpt lat="47.93079" lon="6.92593">
        <ele>1160.3</ele>
        <time>2023-05-20T13:34:04Z</time>
      </trkpt>
      <trkpt lat="47.93069" lon="6.92594">
        <ele>1160.1</ele>
        <time>2023-05-20T13:34:13Z</time>
      </trkpt>
      <trkpt lat="47.9306" lon="6.92586">
        <ele>1160.1</ele>
        <time>2023-05-20T13:34:23Z</time>
      </trkpt>
      <trkpt lat="47.93029" lon="6.92572">
        <ele>1156.7</ele>
        <time>2023-05-20T13:34:54Z</time>
      </trkpt>
      <trkpt lat="47.93001" lon="6.92558">
        <ele>1151.1</ele>
        <time>2023-05-20T13:35:26Z</time>
      </trkpt>
      <trkpt lat="47.92996" lon="6.92557">
        <ele>1149.9</ele>
        <time>2023-05-20T13:35:31Z</time>
      </trkpt>
      <trkpt lat="47.92988" lon="6.92553">
        <ele>1147.9</ele>
        <time>2023-05-20T13:35:39Z</time>
      </trkpt>
      <trkpt lat="47.92984" lon="6.92551">
        <ele>1146.8</ele>
        <time>2023-05-20T13:35:44Z</time>
      </trkpt>
      <trkpt lat="47.9298" lon="6.92551">
        <ele>1145.9</ele>
        <time>2023-05-20T13:35:48Z</time>
      </trkpt>
      <trkpt lat="47.92969" lon="6.92546">
        <ele>1143.2</ele>
        <time>2023-05-20T13:35:59Z</time>
      </trkpt>
      <trkpt lat="47.92964" lon="6.92541">
        <ele>1141.9</ele>
        <time>2023-05-20T13:36:15Z</time>
      </trkpt>
      <trkpt lat="47.92951" lon="6.92532">
        <ele>1139.2</ele>
        <time>2023-05-20T13:36:27Z</time>
      </trkpt>
      <trkpt lat="47.92946" lon="6.92526">
        <ele>1138.3</ele>
        <time>2023-05-20T13:36:35Z</time>
      </trkpt>
      <trkpt lat="47.92938" lon="6.92519">
        <ele>1136.4</ele>
        <time>2023-05-20T13:36:44Z</time>
      </trkpt>
      <trkpt lat="47.92934" lon="6.92516">
        <ele>1135.5</ele>
        <time>2023-05-20T13:36:47Z</time>
      </trkpt>
      <trkpt lat="47.9293" lon="6.92513">
        <ele>1134.6</ele>
        <time>2023-05-20T13:36:50Z</time>
      </trkpt>
      <trkpt lat="47.92926" lon="6.92511">
        <ele>1133.8</ele>
        <time>2023-05-20T13:36:53Z</time>
      </trkpt>
      <trkpt lat="47.92896" lon="6.92491">
        <ele>1128.2</ele>
        <time>2023-05-20T13:37:23Z</time>
      </trkpt>
      <trkpt lat="47.92884" lon="6.92479">
        <ele>1125.8</ele>
        <time>2023-05-20T13:37:36Z</time>
      </trkpt>
      <trkpt lat="47.92849" lon="6.92464">
        <ele>1117.4</ele>
        <time>2023-05-20T13:38:09Z</time>
      </trkpt>
      <trkpt lat="47.92811" lon="6.92447">
        <ele>1109.8</ele>
        <time>2023-05-20T13:38:43Z</time>
      </trkpt>
      <trkpt lat="47.92801" lon="6.92441">
        <ele>1108.4</ele>
        <time>2023-05-20T13:38:52Z</time>
      </trkpt>
      <trkpt lat="47.92784" lon="6.92436">
        <ele>1106</ele>
        <time>2023-05-20T13:39:08Z</time>
      </trkpt>
      <trkpt lat="47.92774" lon="6.92428">
        <ele>1104.2</ele>
        <time>2023-05-20T13:39:19Z</time>
      </trkpt>
      <trkpt lat="47.92763" lon="6.92415">
        <ele>1102.3</ele>
        <time>2023-05-20T13:39:30Z</time>
      </trkpt>
      <trkpt lat="47.92753" lon="6.92405">
        <ele>1100.1</ele>
        <time>2023-05-20T13:39:42Z</time>
      </trkpt>
      <trkpt lat="47.92744" lon="6.92407">
        <ele>1097.4</ele>
        <time>2023-05-20T13:39:50Z</time>
      </trkpt>
      <trkpt lat="47.92741" lon="6.92401">
        <ele>1096.2</ele>
        <time>2023-05-20T13:40:30Z</time>
      </trkpt>
      <trkpt lat="47.92741" lon="6.92393">
        <ele>1096.1</ele>
        <time>2023-05-20T13:40:34Z</time>
      </trkpt>
      <trkpt lat="47.92736" lon="6.92382">
        <ele>1093.5</ele>
        <time>2023-05-20T13:40:41Z</time>
      </trkpt>
      <trkpt lat="47.92702" lon="6.92342">
        <ele>1083.3</ele>
        <time>2023-05-20T13:41:14Z</time>
      </trkpt>
      <trkpt lat="47.92693" lon="6.92335">
        <ele>1081.4</ele>
        <time>2023-05-20T13:41:22Z</time>
      </trkpt>
      <trkpt lat="47.92691" lon="6.92329">
        <ele>1080.1</ele>
        <time>2023-05-20T13:41:27Z</time>
      </trkpt>
      <trkpt lat="47.92676" lon="6.92337">
        <ele>1074.7</ele>
        <time>2023-05-20T13:41:44Z</time>
      </trkpt>
      <trkpt lat="47.92668" lon="6.92328">
        <ele>1071.3</ele>
        <time>2023-05-20T13:42:03Z</time>
      </trkpt>
      <trkpt lat="47.92666" lon="6.92323">
        <ele>1070.3</ele>
        <time>2023-05-20T13:42:06Z</time>
      </trkpt>
      <trkpt lat="47.92666" lon="6.92314">
        <ele>1070</ele>
        <time>2023-05-20T13:42:10Z</time>
      </trkpt>
      <trkpt lat="47.92667" lon="6.92307">
        <ele>1070.1</ele>
        <time>2023-05-20T13:42:13Z</time>
      </trkpt>
      <trkpt lat="47.9267" lon="6.92301">
        <ele>1070.4</ele>
        <time>2023-05-20T13:42:17Z</time>
      </trkpt>
      <trkpt lat="47.92671" lon="6.92295">
        <ele>1069.9</ele>
        <time>2023-05-20T13:42:21Z</time>
      </trkpt>
      <trkpt lat="47.92674" lon="6.92289">
        <ele>1069.7</ele>
        <time>2023-05-20T13:42:25Z</time>
      </trkpt>
      <trkpt lat="47.92672" lon="6.92287">
        <ele>1069</ele>
        <time>2023-05-20T13:42:44Z</time>
      </trkpt>
      <trkpt lat="47.9267" lon="6.92278">
        <ele>1067.5</ele>
        <time>2023-05-20T13:44:04Z</time>
      </trkpt>
      <trkpt lat="47.92662" lon="6.92279">
        <ele>1065.3</ele>
        <time>2023-05-20T13:44:16Z</time>
      </trkpt>
      <trkpt lat="47.92657" lon="6.92277">
        <ele>1063.1</ele>
        <time>2023-05-20T13:44:22Z</time>
      </trkpt>
      <trkpt lat="47.92653" lon="6.9228">
        <ele>1061.7</ele>
        <time>2023-05-20T13:44:27Z</time>
      </trkpt>
      <trkpt lat="47.92648" lon="6.92272">
        <ele>1059.1</ele>
        <time>2023-05-20T13:44:34Z</time>
      </trkpt>
      <trkpt lat="47.92646" lon="6.92266">
        <ele>1057.8</ele>
        <time>2023-05-20T13:44:37Z</time>
      </trkpt>
      <trkpt lat="47.92644" lon="6.9226">
        <ele>1056.8</ele>
        <time>2023-05-20T13:44:40Z</time>
      </trkpt>
      <trkpt lat="47.92639" lon="6.92253">
        <ele>1055.1</ele>
        <time>2023-05-20T13:44:48Z</time>
      </trkpt>
      <trkpt lat="47.92629" lon="6.92245">
        <ele>1051.6</ele>
        <time>2023-05-20T13:45:01Z</time>
      </trkpt>
      <trkpt lat="47.92613" lon="6.92239">
        <ele>1047.3</ele>
        <time>2023-05-20T13:45:17Z</time>
      </trkpt>
      <trkpt lat="47.92603" lon="6.92244">
        <ele>1045.2</ele>
        <time>2023-05-20T13:45:24Z</time>
      </trkpt>
      <trkpt lat="47.92598" lon="6.92244">
        <ele>1044.4</ele>
        <time>2023-05-20T13:45:27Z</time>
      </trkpt>
      <trkpt lat="47.92594" lon="6.92242">
        <ele>1044</ele>
        <time>2023-05-20T13:45:31Z</time>
      </trkpt>
      <trkpt lat="47.92585" lon="6.92243">
        <ele>1042.5</ele>
        <time>2023-05-20T13:45:39Z</time>
      </trkpt>
      <trkpt lat="47.92581" lon="6.92242">
        <ele>1041.1</ele>
        <time>2023-05-20T13:45:43Z</time>
      </trkpt>
      <trkpt lat="47.92578" lon="6.92237">
        <ele>1040.4</ele>
        <time>2023-05-20T13:45:47Z</time>
      </trkpt>
      <trkpt lat="47.92577" lon="6.92231">
        <ele>1041.1</ele>
        <time>2023-05-20T13:45:51Z</time>
      </trkpt>
      <trkpt lat="47.92575" lon="6.92216">
        <ele>1041.5</ele>
        <time>2023-05-20T13:46:00Z</time>
      </trkpt>
      <trkpt lat="47.92575" lon="6.92206">
        <ele>1041.1</ele>
        <time>2023-05-20T13:46:06Z</time>
      </trkpt>
      <trkpt lat="47.92583" lon="6.92187">
        <ele>1041.3</ele>
        <time>2023-05-20T13:46:17Z</time>
      </trkpt>
      <trkpt lat="47.92586" lon="6.92182">
        <ele>1040.5</ele>
        <time>2023-05-20T13:46:21Z</time>
      </trkpt>
      <trkpt lat="47.92588" lon="6.92176">
        <ele>1039.2</ele>
        <time>2023-05-20T13:46:25Z</time>
      </trkpt>
      <trkpt lat="47.92593" lon="6.92167">
        <ele>1037.4</ele>
        <time>2023-05-20T13:46:32Z</time>
      </trkpt>
      <trkpt lat="47.92595" lon="6.92162">
        <ele>1036.3</ele>
        <time>2023-05-20T13:46:36Z</time>
      </trkpt>
      <trkpt lat="47.92628" lon="6.92144">
        <ele>1031</ele>
        <time>2023-05-20T13:47:04Z</time>
      </trkpt>
      <trkpt lat="47.92638" lon="6.92141">
        <ele>1029.7</ele>
        <time>2023-05-20T13:47:11Z</time>
      </trkpt>
      <trkpt lat="47.92642" lon="6.92142">
        <ele>1030</ele>
        <time>2023-05-20T13:47:15Z</time>
      </trkpt>
      <trkpt lat="47.92664" lon="6.92134">
        <ele>1027.4</ele>
        <time>2023-05-20T13:47:35Z</time>
      </trkpt>
      <trkpt lat="47.92663" lon="6.92132">
        <ele>1026.7</ele>
        <time>2023-05-20T13:47:54Z</time>
      </trkpt>
      <trkpt lat="47.92657" lon="6.92136">
        <ele>1028</ele>
        <time>2023-05-20T13:47:58Z</time>
      </trkpt>
      <trkpt lat="47.92643" lon="6.92134">
        <ele>1027.3</ele>
        <time>2023-05-20T13:48:08Z</time>
      </trkpt>
      <trkpt lat="47.92631" lon="6.92119">
        <ele>1022.5</ele>
        <time>2023-05-20T13:48:21Z</time>
      </trkpt>
      <trkpt lat="47.92626" lon="6.92117">
        <ele>1022.3</ele>
        <time>2023-05-20T13:48:25Z</time>
      </trkpt>
      <trkpt lat="47.92622" lon="6.92112">
        <ele>1021.1</ele>
        <time>2023-05-20T13:48:29Z</time>
      </trkpt>
      <trkpt lat="47.92616" lon="6.92111">
        <ele>1021.4</ele>
        <time>2023-05-20T13:48:33Z</time>
      </trkpt>
      <trkpt lat="47.92611" lon="6.92107">
        <ele>1020.5</ele>
        <time>2023-05-20T13:48:41Z</time>
      </trkpt>
      <trkpt lat="47.92605" lon="6.92104">
        <ele>1019.7</ele>
        <time>2023-05-20T13:48:45Z</time>
      </trkpt>
      <trkpt lat="47.92593" lon="6.92093">
        <ele>1016.6</ele>
        <time>2023-05-20T13:48:56Z</time>
      </trkpt>
      <trkpt lat="47.92574" lon="6.9209">
        <ele>1014.9</ele>
        <time>2023-05-20T13:49:14Z</time>
      </trkpt>
      <trkpt lat="47.92571" lon="6.92085">
        <ele>1013.5</ele>
        <time>2023-05-20T13:49:17Z</time>
      </trkpt>
      <trkpt lat="47.92563" lon="6.92085">
        <ele>1012.8</ele>
        <time>2023-05-20T13:49:25Z</time>
      </trkpt>
      <trkpt lat="47.92557" lon="6.92079">
        <ele>1011</ele>
        <time>2023-05-20T13:49:31Z</time>
      </trkpt>
      <trkpt lat="47.92553" lon="6.92079">
        <ele>1009.8</ele>
        <time>2023-05-20T13:49:35Z</time>
      </trkpt>
      <trkpt lat="47.92553" lon="6.9207">
        <ele>1007.8</ele>
        <time>2023-05-20T13:49:43Z</time>
      </trkpt>
      <trkpt lat="47.92593" lon="6.92048">
        <ele>999.6</ele>
        <time>2023-05-20T13:50:14Z</time>
      </trkpt>
      <trkpt lat="47.92604" lon="6.92045">
        <ele>997.7</ele>
        <time>2023-05-20T13:50:23Z</time>
      </trkpt>
      <trkpt lat="47.92609" lon="6.92045">
        <ele>997.4</ele>
        <time>2023-05-20T13:50:27Z</time>
      </trkpt>
      <trkpt lat="47.92605" lon="6.9205">
        <ele>999.4</ele>
        <time>2023-05-20T13:50:36Z</time>
      </trkpt>
      <trkpt lat="47.926" lon="6.92051">
        <ele>1000.2</ele>
        <time>2023-05-20T13:50:41Z</time>
      </trkpt>
      <trkpt lat="47.92596" lon="6.92049">
        <ele>999.7</ele>
        <time>2023-05-20T13:50:44Z</time>
      </trkpt>
      <trkpt lat="47.92585" lon="6.92051">
        <ele>1001.2</ele>
        <time>2023-05-20T13:50:52Z</time>
      </trkpt>
      <trkpt lat="47.92582" lon="6.92046">
        <ele>999.7</ele>
        <time>2023-05-20T13:50:56Z</time>
      </trkpt>
      <trkpt lat="47.92567" lon="6.92037">
        <ele>997.9</ele>
        <time>2023-05-20T13:51:08Z</time>
      </trkpt>
      <trkpt lat="47.92559" lon="6.92028">
        <ele>995.7</ele>
        <time>2023-05-20T13:51:16Z</time>
      </trkpt>
      <trkpt lat="47.92546" lon="6.92021">
        <ele>993.2</ele>
        <time>2023-05-20T13:51:28Z</time>
      </trkpt>
      <trkpt lat="47.92538" lon="6.92024">
        <ele>994.1</ele>
        <time>2023-05-20T13:51:36Z</time>
      </trkpt>
      <trkpt lat="47.92525" lon="6.92014">
        <ele>990.9</ele>
        <time>2023-05-20T13:51:50Z</time>
      </trkpt>
      <trkpt lat="47.92519" lon="6.92014">
        <ele>990.6</ele>
        <time>2023-05-20T13:51:55Z</time>
      </trkpt>
      <trkpt lat="47.92509" lon="6.9201">
        <ele>989</ele>
        <time>2023-05-20T13:52:03Z</time>
      </trkpt>
      <trkpt lat="47.92505" lon="6.9201">
        <ele>988.8</ele>
        <time>2023-05-20T13:52:06Z</time>
      </trkpt>
      <trkpt lat="47.92496" lon="6.92005">
        <ele>986.6</ele>
        <time>2023-05-20T13:52:13Z</time>
      </trkpt>
      <trkpt lat="47.92489" lon="6.91992">
        <ele>983.5</ele>
        <time>2023-05-20T13:52:21Z</time>
      </trkpt>
      <trkpt lat="47.92486" lon="6.91985">
        <ele>982.3</ele>
        <time>2023-05-20T13:52:24Z</time>
      </trkpt>
      <trkpt lat="47.92484" lon="6.91978">
        <ele>981.5</ele>
        <time>2023-05-20T13:52:29Z</time>
      </trkpt>
      <trkpt lat="47.9248" lon="6.91973">
        <ele>981.2</ele>
        <time>2023-05-20T13:52:34Z</time>
      </trkpt>
      <trkpt lat="47.92475" lon="6.9197">
        <ele>981.2</ele>
        <time>2023-05-20T13:52:38Z</time>
      </trkpt>
      <trkpt lat="47.92472" lon="6.91963">
        <ele>980</ele>
        <time>2023-05-20T13:52:44Z</time>
      </trkpt>
      <trkpt lat="47.92482" lon="6.91954">
        <ele>977</ele>
        <time>2023-05-20T13:52:51Z</time>
      </trkpt>
      <trkpt lat="47.92512" lon="6.91952">
        <ele>973.3</ele>
        <time>2023-05-20T13:53:12Z</time>
      </trkpt>
      <trkpt lat="47.92522" lon="6.91946">
        <ele>970.3</ele>
        <time>2023-05-20T13:53:24Z</time>
      </trkpt>
      <trkpt lat="47.92527" lon="6.91946">
        <ele>969.6</ele>
        <time>2023-05-20T13:53:28Z</time>
      </trkpt>
      <trkpt lat="47.92539" lon="6.91939">
        <ele>966.5</ele>
        <time>2023-05-20T13:53:40Z</time>
      </trkpt>
      <trkpt lat="47.92552" lon="6.91939">
        <ele>965.7</ele>
        <time>2023-05-20T13:53:50Z</time>
      </trkpt>
      <trkpt lat="47.92535" lon="6.91939">
        <ele>966.8</ele>
        <time>2023-05-20T13:54:12Z</time>
      </trkpt>
      <trkpt lat="47.92529" lon="6.91935">
        <ele>965.9</ele>
        <time>2023-05-20T13:54:18Z</time>
      </trkpt>
      <trkpt lat="47.92524" lon="6.91935">
        <ele>966.6</ele>
        <time>2023-05-20T13:54:23Z</time>
      </trkpt>
      <trkpt lat="47.92515" lon="6.91922">
        <ele>964.3</ele>
        <time>2023-05-20T13:54:33Z</time>
      </trkpt>
      <trkpt lat="47.92513" lon="6.91916">
        <ele>963</ele>
        <time>2023-05-20T13:54:36Z</time>
      </trkpt>
      <trkpt lat="47.9251" lon="6.91912">
        <ele>962.4</ele>
        <time>2023-05-20T13:54:40Z</time>
      </trkpt>
      <trkpt lat="47.92509" lon="6.91904">
        <ele>960.3</ele>
        <time>2023-05-20T13:54:44Z</time>
      </trkpt>
      <trkpt lat="47.92498" lon="6.91881">
        <ele>955.7</ele>
        <time>2023-05-20T13:54:59Z</time>
      </trkpt>
      <trkpt lat="47.92493" lon="6.9188">
        <ele>956</ele>
        <time>2023-05-20T13:55:07Z</time>
      </trkpt>
      <trkpt lat="47.92488" lon="6.91873">
        <ele>954.4</ele>
        <time>2023-05-20T13:55:11Z</time>
      </trkpt>
      <trkpt lat="47.92484" lon="6.9187">
        <ele>954</ele>
        <time>2023-05-20T13:55:16Z</time>
      </trkpt>
      <trkpt lat="47.9247" lon="6.91851">
        <ele>950.3</ele>
        <time>2023-05-20T13:55:32Z</time>
      </trkpt>
      <trkpt lat="47.92465" lon="6.91847">
        <ele>949.7</ele>
        <time>2023-05-20T13:55:40Z</time>
      </trkpt>
      <trkpt lat="47.92458" lon="6.91837">
        <ele>947.2</ele>
        <time>2023-05-20T13:55:47Z</time>
      </trkpt>
      <trkpt lat="47.92445" lon="6.91832">
        <ele>946.5</ele>
        <time>2023-05-20T13:56:00Z</time>
      </trkpt>
      <trkpt lat="47.9244" lon="6.91832">
        <ele>946.9</ele>
        <time>2023-05-20T13:56:04Z</time>
      </trkpt>
      <trkpt lat="47.92412" lon="6.91807">
        <ele>940.8</ele>
        <time>2023-05-20T13:56:35Z</time>
      </trkpt>
      <trkpt lat="47.92409" lon="6.91802">
        <ele>939.3</ele>
        <time>2023-05-20T13:56:39Z</time>
      </trkpt>
      <trkpt lat="47.92395" lon="6.9179">
        <ele>936.8</ele>
        <time>2023-05-20T13:56:53Z</time>
      </trkpt>
      <trkpt lat="47.92374" lon="6.91762">
        <ele>928.4</ele>
        <time>2023-05-20T13:57:18Z</time>
      </trkpt>
      <trkpt lat="47.92372" lon="6.91756">
        <ele>926.7</ele>
        <time>2023-05-20T13:57:22Z</time>
      </trkpt>
      <trkpt lat="47.92366" lon="6.91756">
        <ele>926.6</ele>
        <time>2023-05-20T13:57:27Z</time>
      </trkpt>
      <trkpt lat="47.92357" lon="6.91761">
        <ele>925.8</ele>
        <time>2023-05-20T13:57:40Z</time>
      </trkpt>
      <trkpt lat="47.92354" lon="6.91755">
        <ele>922.7</ele>
        <time>2023-05-20T13:57:44Z</time>
      </trkpt>
      <trkpt lat="47.92359" lon="6.91743">
        <ele>921.7</ele>
        <time>2023-05-20T13:57:50Z</time>
      </trkpt>
      <trkpt lat="47.92364" lon="6.91739">
        <ele>921.4</ele>
        <time>2023-05-20T13:57:54Z</time>
      </trkpt>
      <trkpt lat="47.92366" lon="6.91733">
        <ele>919.5</ele>
        <time>2023-05-20T13:57:57Z</time>
      </trkpt>
      <trkpt lat="47.92368" lon="6.91728">
        <ele>917.9</ele>
        <time>2023-05-20T13:58:01Z</time>
      </trkpt>
      <trkpt lat="47.92381" lon="6.9172">
        <ele>915.2</ele>
        <time>2023-05-20T13:58:12Z</time>
      </trkpt>
      <trkpt lat="47.92395" lon="6.9172">
        <ele>913.9</ele>
        <time>2023-05-20T13:58:28Z</time>
      </trkpt>
      <trkpt lat="47.92404" lon="6.91714">
        <ele>909.9</ele>
        <time>2023-05-20T13:58:36Z</time>
      </trkpt>
      <trkpt lat="47.92409" lon="6.91716">
        <ele>909.6</ele>
        <time>2023-05-20T13:58:40Z</time>
      </trkpt>
      <trkpt lat="47.92407" lon="6.91711">
        <ele>908.3</ele>
        <time>2023-05-20T13:58:48Z</time>
      </trkpt>
      <trkpt lat="47.92402" lon="6.91712">
        <ele>909.7</ele>
        <time>2023-05-20T13:58:52Z</time>
      </trkpt>
      <trkpt lat="47.92391" lon="6.91706">
        <ele>909.7</ele>
        <time>2023-05-20T13:59:05Z</time>
      </trkpt>
      <trkpt lat="47.92375" lon="6.91686">
        <ele>902.3</ele>
        <time>2023-05-20T13:59:30Z</time>
      </trkpt>
      <trkpt lat="47.92366" lon="6.91691">
        <ele>903.8</ele>
        <time>2023-05-20T13:59:43Z</time>
      </trkpt>
      <trkpt lat="47.9236" lon="6.91691">
        <ele>903.1</ele>
        <time>2023-05-20T13:59:48Z</time>
      </trkpt>
      <trkpt lat="47.92356" lon="6.91695">
        <ele>903.2</ele>
        <time>2023-05-20T13:59:53Z</time>
      </trkpt>
      <trkpt lat="47.92345" lon="6.91698">
        <ele>899.8</ele>
        <time>2023-05-20T14:00:02Z</time>
      </trkpt>
      <trkpt lat="47.9234" lon="6.91703">
        <ele>899.3</ele>
        <time>2023-05-20T14:00:10Z</time>
      </trkpt>
      <trkpt lat="47.92335" lon="6.91704">
        <ele>897.5</ele>
        <time>2023-05-20T14:00:13Z</time>
      </trkpt>
      <trkpt lat="47.9233" lon="6.91703">
        <ele>895.4</ele>
        <time>2023-05-20T14:00:16Z</time>
      </trkpt>
      <trkpt lat="47.92327" lon="6.91708">
        <ele>895.9</ele>
        <time>2023-05-20T14:00:19Z</time>
      </trkpt>
      <trkpt lat="47.92321" lon="6.9171">
        <ele>894.4</ele>
        <time>2023-05-20T14:00:23Z</time>
      </trkpt>
      <trkpt lat="47.92316" lon="6.9171">
        <ele>892.8</ele>
        <time>2023-05-20T14:00:26Z</time>
      </trkpt>
      <trkpt lat="47.92314" lon="6.91716">
        <ele>893.6</ele>
        <time>2023-05-20T14:00:31Z</time>
      </trkpt>
      <trkpt lat="47.92309" lon="6.91717">
        <ele>892.1</ele>
        <time>2023-05-20T14:00:35Z</time>
      </trkpt>
      <trkpt lat="47.92306" lon="6.91721">
        <ele>891.9</ele>
        <time>2023-05-20T14:00:40Z</time>
      </trkpt>
      <trkpt lat="47.92302" lon="6.91725">
        <ele>891.6</ele>
        <time>2023-05-20T14:00:44Z</time>
      </trkpt>
      <trkpt lat="47.92297" lon="6.91731">
        <ele>891.4</ele>
        <time>2023-05-20T14:00:51Z</time>
      </trkpt>
      <trkpt lat="47.92282" lon="6.91739">
        <ele>887.4</ele>
        <time>2023-05-20T14:01:04Z</time>
      </trkpt>
      <trkpt lat="47.92274" lon="6.91742">
        <ele>885.8</ele>
        <time>2023-05-20T14:01:14Z</time>
      </trkpt>
      <trkpt lat="47.92269" lon="6.9174">
        <ele>885.2</ele>
        <time>2023-05-20T14:03:03Z</time>
      </trkpt>
      <trkpt lat="47.9226" lon="6.91735">
        <ele>884.5</ele>
        <time>2023-05-20T14:03:13Z</time>
      </trkpt>
      <trkpt lat="47.92257" lon="6.91739">
        <ele>884.3</ele>
        <time>2023-05-20T14:03:18Z</time>
      </trkpt>
      <trkpt lat="47.92253" lon="6.91742">
        <ele>883.9</ele>
        <time>2023-05-20T14:03:22Z</time>
      </trkpt>
      <trkpt lat="47.92236" lon="6.91746">
        <ele>884.8</ele>
        <time>2023-05-20T14:03:38Z</time>
      </trkpt>
      <trkpt lat="47.92232" lon="6.91749">
        <ele>885</ele>
        <time>2023-05-20T14:03:42Z</time>
      </trkpt>
      <trkpt lat="47.92228" lon="6.91753">
        <ele>885.3</ele>
        <time>2023-05-20T14:03:46Z</time>
      </trkpt>
      <trkpt lat="47.92222" lon="6.91754">
        <ele>885.9</ele>
        <time>2023-05-20T14:03:54Z</time>
      </trkpt>
      <trkpt lat="47.92219" lon="6.91759">
        <ele>886.9</ele>
        <time>2023-05-20T14:03:59Z</time>
      </trkpt>
      <trkpt lat="47.92216" lon="6.91771">
        <ele>887.3</ele>
        <time>2023-05-20T14:04:08Z</time>
      </trkpt>
      <trkpt lat="47.92213" lon="6.9178">
        <ele>887.3</ele>
        <time>2023-05-20T14:04:15Z</time>
      </trkpt>
      <trkpt lat="47.92214" lon="6.91787">
        <ele>886.1</ele>
        <time>2023-05-20T14:04:19Z</time>
      </trkpt>
      <trkpt lat="47.92209" lon="6.91796">
        <ele>885.9</ele>
        <time>2023-05-20T14:04:27Z</time>
      </trkpt>
      <trkpt lat="47.92201" lon="6.91803">
        <ele>886.3</ele>
        <time>2023-05-20T14:04:35Z</time>
      </trkpt>
      <trkpt lat="47.92192" lon="6.91804">
        <ele>887.4</ele>
        <time>2023-05-20T14:04:43Z</time>
      </trkpt>
      <trkpt lat="47.92186" lon="6.91801">
        <ele>888.2</ele>
        <time>2023-05-20T14:04:46Z</time>
      </trkpt>
      <trkpt lat="47.92178" lon="6.91795">
        <ele>889.4</ele>
        <time>2023-05-20T14:04:52Z</time>
      </trkpt>
      <trkpt lat="47.92174" lon="6.91794">
        <ele>889.6</ele>
        <time>2023-05-20T14:04:56Z</time>
      </trkpt>
      <trkpt lat="47.92147" lon="6.91815">
        <ele>890.2</ele>
        <time>2023-05-20T14:05:22Z</time>
      </trkpt>
      <trkpt lat="47.92129" lon="6.91817">
        <ele>891.3</ele>
        <time>2023-05-20T14:05:35Z</time>
      </trkpt>
      <trkpt lat="47.92124" lon="6.91816">
        <ele>891.4</ele>
        <time>2023-05-20T14:05:40Z</time>
      </trkpt>
      <trkpt lat="47.9212" lon="6.91816">
        <ele>891.5</ele>
        <time>2023-05-20T14:05:44Z</time>
      </trkpt>
      <trkpt lat="47.92107" lon="6.91807">
        <ele>891.4</ele>
        <time>2023-05-20T14:05:55Z</time>
      </trkpt>
      <trkpt lat="47.92102" lon="6.91806">
        <ele>891.7</ele>
        <time>2023-05-20T14:06:00Z</time>
      </trkpt>
      <trkpt lat="47.92096" lon="6.91807">
        <ele>892</ele>
        <time>2023-05-20T14:06:04Z</time>
      </trkpt>
      <trkpt lat="47.9209" lon="6.91809">
        <ele>892.2</ele>
        <time>2023-05-20T14:06:09Z</time>
      </trkpt>
      <trkpt lat="47.92088" lon="6.91814">
        <ele>891.8</ele>
        <time>2023-05-20T14:06:13Z</time>
      </trkpt>
      <trkpt lat="47.92083" lon="6.91819">
        <ele>891.2</ele>
        <time>2023-05-20T14:06:17Z</time>
      </trkpt>
      <trkpt lat="47.92081" lon="6.91825">
        <ele>890.8</ele>
        <time>2023-05-20T14:06:21Z</time>
      </trkpt>
      <trkpt lat="47.92077" lon="6.91828">
        <ele>891.5</ele>
        <time>2023-05-20T14:06:25Z</time>
      </trkpt>
      <trkpt lat="47.92061" lon="6.91842">
        <ele>892.6</ele>
        <time>2023-05-20T14:06:40Z</time>
      </trkpt>
      <trkpt lat="47.92052" lon="6.91847">
        <ele>893.4</ele>
        <time>2023-05-20T14:06:48Z</time>
      </trkpt>
      <trkpt lat="47.92048" lon="6.91851">
        <ele>893.3</ele>
        <time>2023-05-20T14:06:52Z</time>
      </trkpt>
      <trkpt lat="47.92035" lon="6.91861">
        <ele>893.5</ele>
        <time>2023-05-20T14:07:04Z</time>
      </trkpt>
      <trkpt lat="47.92031" lon="6.91866">
        <ele>893.4</ele>
        <time>2023-05-20T14:07:08Z</time>
      </trkpt>
      <trkpt lat="47.92027" lon="6.91867">
        <ele>894.2</ele>
        <time>2023-05-20T14:07:11Z</time>
      </trkpt>
      <trkpt lat="47.92024" lon="6.91873">
        <ele>893.8</ele>
        <time>2023-05-20T14:07:15Z</time>
      </trkpt>
      <trkpt lat="47.91995" lon="6.91907">
        <ele>896.1</ele>
        <time>2023-05-20T14:07:49Z</time>
      </trkpt>
      <trkpt lat="47.9199" lon="6.91917">
        <ele>896.9</ele>
        <time>2023-05-20T14:07:57Z</time>
      </trkpt>
      <trkpt lat="47.91989" lon="6.91923">
        <ele>897.3</ele>
        <time>2023-05-20T14:08:02Z</time>
      </trkpt>
      <trkpt lat="47.91978" lon="6.91938">
        <ele>900.9</ele>
        <time>2023-05-20T14:08:22Z</time>
      </trkpt>
      <trkpt lat="47.91976" lon="6.91954">
        <ele>902.1</ele>
        <time>2023-05-20T14:08:40Z</time>
      </trkpt>
      <trkpt lat="47.91973" lon="6.91959">
        <ele>903.3</ele>
        <time>2023-05-20T14:08:46Z</time>
      </trkpt>
      <trkpt lat="47.91966" lon="6.9197">
        <ele>904.9</ele>
        <time>2023-05-20T14:08:59Z</time>
      </trkpt>
      <trkpt lat="47.91962" lon="6.91975">
        <ele>905.1</ele>
        <time>2023-05-20T14:09:04Z</time>
      </trkpt>
      <trkpt lat="47.91953" lon="6.91978">
        <ele>905.7</ele>
        <time>2023-05-20T14:09:13Z</time>
      </trkpt>
      <trkpt lat="47.9195" lon="6.91973">
        <ele>907</ele>
        <time>2023-05-20T14:09:16Z</time>
      </trkpt>
      <trkpt lat="47.91944" lon="6.91975">
        <ele>907.4</ele>
        <time>2023-05-20T14:09:22Z</time>
      </trkpt>
      <trkpt lat="47.9194" lon="6.91977">
        <ele>907.4</ele>
        <time>2023-05-20T14:09:26Z</time>
      </trkpt>
      <trkpt lat="47.91934" lon="6.91977">
        <ele>908.1</ele>
        <time>2023-05-20T14:09:33Z</time>
      </trkpt>
      <trkpt lat="47.91923" lon="6.91978">
        <ele>909.1</ele>
        <time>2023-05-20T14:09:41Z</time>
      </trkpt>
      <trkpt lat="47.91919" lon="6.91976">
        <ele>909.9</ele>
        <time>2023-05-20T14:09:46Z</time>
      </trkpt>
      <trkpt lat="47.9192" lon="6.91985">
        <ele>907.9</ele>
        <time>2023-05-20T14:09:53Z</time>
      </trkpt>
      <trkpt lat="47.91914" lon="6.91983">
        <ele>909.4</ele>
        <time>2023-05-20T14:10:01Z</time>
      </trkpt>
      <trkpt lat="47.9191" lon="6.91978">
        <ele>911.1</ele>
        <time>2023-05-20T14:10:03Z</time>
      </trkpt>
      <trkpt lat="47.91907" lon="6.91973">
        <ele>912.3</ele>
        <time>2023-05-20T14:10:06Z</time>
      </trkpt>
      <trkpt lat="47.91898" lon="6.91974">
        <ele>913.6</ele>
        <time>2023-05-20T14:10:19Z</time>
      </trkpt>
      <trkpt lat="47.91892" lon="6.91979">
        <ele>914.8</ele>
        <time>2023-05-20T14:10:26Z</time>
      </trkpt>
      <trkpt lat="47.91872" lon="6.9198">
        <ele>920</ele>
        <time>2023-05-20T14:10:47Z</time>
      </trkpt>
      <trkpt lat="47.91867" lon="6.91987">
        <ele>922</ele>
        <time>2023-05-20T14:10:52Z</time>
      </trkpt>
      <trkpt lat="47.91865" lon="6.91992">
        <ele>923.1</ele>
        <time>2023-05-20T14:10:55Z</time>
      </trkpt>
      <trkpt lat="47.91863" lon="6.92004">
        <ele>925</ele>
        <time>2023-05-20T14:11:05Z</time>
      </trkpt>
      <trkpt lat="47.91867" lon="6.92013">
        <ele>925.1</ele>
        <time>2023-05-20T14:11:17Z</time>
      </trkpt>
      <trkpt lat="47.91868" lon="6.92027">
        <ele>926.7</ele>
        <time>2023-05-20T14:11:28Z</time>
      </trkpt>
      <trkpt lat="47.91858" lon="6.9204">
        <ele>932.3</ele>
        <time>2023-05-20T14:11:50Z</time>
      </trkpt>
      <trkpt lat="47.91858" lon="6.92055">
        <ele>934.2</ele>
        <time>2023-05-20T14:12:02Z</time>
      </trkpt>
      <trkpt lat="47.91858" lon="6.92069">
        <ele>937.8</ele>
        <time>2023-05-20T14:12:14Z</time>
      </trkpt>
      <trkpt lat="47.91859" lon="6.92079">
        <ele>940.3</ele>
        <time>2023-05-20T14:12:25Z</time>
      </trkpt>
      <trkpt lat="47.91863" lon="6.92086">
        <ele>941.2</ele>
        <time>2023-05-20T14:12:37Z</time>
      </trkpt>
      <trkpt lat="47.91868" lon="6.92092">
        <ele>941.4</ele>
        <time>2023-05-20T14:12:49Z</time>
      </trkpt>
      <trkpt lat="47.91867" lon="6.92102">
        <ele>944.1</ele>
        <time>2023-05-20T14:13:01Z</time>
      </trkpt>
      <trkpt lat="47.9187" lon="6.92112">
        <ele>945.6</ele>
        <time>2023-05-20T14:13:14Z</time>
      </trkpt>
      <trkpt lat="47.9187" lon="6.92119">
        <ele>946.8</ele>
        <time>2023-05-20T14:13:19Z</time>
      </trkpt>
      <trkpt lat="47.91863" lon="6.92141">
        <ele>951.9</ele>
        <time>2023-05-20T14:13:40Z</time>
      </trkpt>
      <trkpt lat="47.91859" lon="6.92144">
        <ele>952.8</ele>
        <time>2023-05-20T14:13:46Z</time>
      </trkpt>
      <trkpt lat="47.91857" lon="6.9215">
        <ele>953.8</ele>
        <time>2023-05-20T14:13:52Z</time>
      </trkpt>
      <trkpt lat="47.91854" lon="6.92155">
        <ele>954.7</ele>
        <time>2023-05-20T14:13:55Z</time>
      </trkpt>
      <trkpt lat="47.91849" lon="6.92159">
        <ele>955.6</ele>
        <time>2023-05-20T14:13:59Z</time>
      </trkpt>
      <trkpt lat="47.91834" lon="6.92181">
        <ele>960.5</ele>
        <time>2023-05-20T14:14:26Z</time>
      </trkpt>
      <trkpt lat="47.91832" lon="6.92188">
        <ele>961.8</ele>
        <time>2023-05-20T14:14:31Z</time>
      </trkpt>
      <trkpt lat="47.91831" lon="6.92193">
        <ele>962.7</ele>
        <time>2023-05-20T14:14:40Z</time>
      </trkpt>
      <trkpt lat="47.9183" lon="6.92205">
        <ele>964.5</ele>
        <time>2023-05-20T14:14:54Z</time>
      </trkpt>
      <trkpt lat="47.91827" lon="6.92213">
        <ele>965.7</ele>
        <time>2023-05-20T14:15:06Z</time>
      </trkpt>
      <trkpt lat="47.91824" lon="6.92228">
        <ele>967.8</ele>
        <time>2023-05-20T14:15:18Z</time>
      </trkpt>
      <trkpt lat="47.91821" lon="6.92233">
        <ele>968.4</ele>
        <time>2023-05-20T14:15:23Z</time>
      </trkpt>
      <trkpt lat="47.91818" lon="6.92251">
        <ele>970.5</ele>
        <time>2023-05-20T14:15:38Z</time>
      </trkpt>
      <trkpt lat="47.91814" lon="6.92256">
        <ele>970.7</ele>
        <time>2023-05-20T14:15:45Z</time>
      </trkpt>
      <trkpt lat="47.9181" lon="6.92269">
        <ele>971.1</ele>
        <time>2023-05-20T14:15:54Z</time>
      </trkpt>
      <trkpt lat="47.91811" lon="6.92277">
        <ele>971.5</ele>
        <time>2023-05-20T14:15:58Z</time>
      </trkpt>
      <trkpt lat="47.91808" lon="6.92292">
        <ele>972.2</ele>
        <time>2023-05-20T14:16:07Z</time>
      </trkpt>
      <trkpt lat="47.91801" lon="6.92306">
        <ele>974.1</ele>
        <time>2023-05-20T14:16:18Z</time>
      </trkpt>
      <trkpt lat="47.91781" lon="6.92315">
        <ele>980.6</ele>
        <time>2023-05-20T14:16:37Z</time>
      </trkpt>
      <trkpt lat="47.91771" lon="6.92305">
        <ele>979.6</ele>
        <time>2023-05-20T14:16:47Z</time>
      </trkpt>
      <trkpt lat="47.91765" lon="6.92304">
        <ele>980</ele>
        <time>2023-05-20T14:16:53Z</time>
      </trkpt>
      <trkpt lat="47.91753" lon="6.92308">
        <ele>982.2</ele>
        <time>2023-05-20T14:17:08Z</time>
      </trkpt>
      <trkpt lat="47.91747" lon="6.92311">
        <ele>983</ele>
        <time>2023-05-20T14:17:19Z</time>
      </trkpt>
      <trkpt lat="47.9174" lon="6.92311">
        <ele>982.7</ele>
        <time>2023-05-20T14:17:24Z</time>
      </trkpt>
      <trkpt lat="47.91733" lon="6.92324">
        <ele>984.6</ele>
        <time>2023-05-20T14:17:35Z</time>
      </trkpt>
      <trkpt lat="47.91731" lon="6.92331">
        <ele>985.6</ele>
        <time>2023-05-20T14:17:43Z</time>
      </trkpt>
      <trkpt lat="47.91733" lon="6.92345">
        <ele>987.2</ele>
        <time>2023-05-20T14:17:55Z</time>
      </trkpt>
      <trkpt lat="47.9174" lon="6.92351">
        <ele>988.6</ele>
        <time>2023-05-20T14:18:06Z</time>
      </trkpt>
      <trkpt lat="47.91752" lon="6.92347">
        <ele>989.4</ele>
        <time>2023-05-20T14:18:18Z</time>
      </trkpt>
      <trkpt lat="47.91756" lon="6.92352">
        <ele>989.7</ele>
        <time>2023-05-20T14:18:25Z</time>
      </trkpt>
      <trkpt lat="47.91765" lon="6.92382">
        <ele>992.4</ele>
        <time>2023-05-20T14:18:48Z</time>
      </trkpt>
      <trkpt lat="47.91769" lon="6.92386">
        <ele>992.7</ele>
        <time>2023-05-20T14:18:54Z</time>
      </trkpt>
      <trkpt lat="47.91771" lon="6.92396">
        <ele>993.8</ele>
        <time>2023-05-20T14:19:02Z</time>
      </trkpt>
      <trkpt lat="47.91772" lon="6.9241">
        <ele>995.3</ele>
        <time>2023-05-20T14:19:11Z</time>
      </trkpt>
      <trkpt lat="47.91775" lon="6.92424">
        <ele>997.4</ele>
        <time>2023-05-20T14:19:19Z</time>
      </trkpt>
      <trkpt lat="47.91778" lon="6.9242">
        <ele>996.6</ele>
        <time>2023-05-20T14:19:41Z</time>
      </trkpt>
      <trkpt lat="47.9178" lon="6.92428">
        <ele>997.8</ele>
        <time>2023-05-20T14:19:44Z</time>
      </trkpt>
      <trkpt lat="47.91789" lon="6.92456">
        <ele>1002</ele>
        <time>2023-05-20T14:20:08Z</time>
      </trkpt>
      <trkpt lat="47.91788" lon="6.92465">
        <ele>1004.2</ele>
        <time>2023-05-20T14:20:16Z</time>
      </trkpt>
      <trkpt lat="47.9179" lon="6.92472">
        <ele>1005.3</ele>
        <time>2023-05-20T14:20:23Z</time>
      </trkpt>
      <trkpt lat="47.91797" lon="6.92488">
        <ele>1007.8</ele>
        <time>2023-05-20T14:20:42Z</time>
      </trkpt>
      <trkpt lat="47.91799" lon="6.92495">
        <ele>1008.9</ele>
        <time>2023-05-20T14:20:53Z</time>
      </trkpt>
      <trkpt lat="47.91803" lon="6.92501">
        <ele>1009.1</ele>
        <time>2023-05-20T14:20:57Z</time>
      </trkpt>
      <trkpt lat="47.91807" lon="6.92504">
        <ele>1008.5</ele>
        <time>2023-05-20T14:21:02Z</time>
      </trkpt>
      <trkpt lat="47.91808" lon="6.92515">
        <ele>1011.1</ele>
        <time>2023-05-20T14:21:16Z</time>
      </trkpt>
      <trkpt lat="47.91806" lon="6.92525">
        <ele>1015</ele>
        <time>2023-05-20T14:21:28Z</time>
      </trkpt>
      <trkpt lat="47.91812" lon="6.92536">
        <ele>1014.9</ele>
        <time>2023-05-20T14:21:41Z</time>
      </trkpt>
      <trkpt lat="47.91812" lon="6.92543">
        <ele>1017.1</ele>
        <time>2023-05-20T14:21:52Z</time>
      </trkpt>
      <trkpt lat="47.91811" lon="6.9255">
        <ele>1019.9</ele>
        <time>2023-05-20T14:21:58Z</time>
      </trkpt>
      <trkpt lat="47.91802" lon="6.92551">
        <ele>1024.9</ele>
        <time>2023-05-20T14:22:10Z</time>
      </trkpt>
      <trkpt lat="47.91795" lon="6.92549">
        <ele>1027</ele>
        <time>2023-05-20T14:22:16Z</time>
      </trkpt>
      <trkpt lat="47.91791" lon="6.92543">
        <ele>1026.5</ele>
        <time>2023-05-20T14:22:22Z</time>
      </trkpt>
      <trkpt lat="47.91773" lon="6.92536">
        <ele>1029.9</ele>
        <time>2023-05-20T14:22:52Z</time>
      </trkpt>
      <trkpt lat="47.91771" lon="6.9254">
        <ele>1031.6</ele>
        <time>2023-05-20T14:23:17Z</time>
      </trkpt>
      <trkpt lat="47.91774" lon="6.92549">
        <ele>1034.2</ele>
        <time>2023-05-20T14:23:29Z</time>
      </trkpt>
      <trkpt lat="47.9178" lon="6.92556">
        <ele>1035.2</ele>
        <time>2023-05-20T14:23:41Z</time>
      </trkpt>
      <trkpt lat="47.91786" lon="6.92566">
        <ele>1035.5</ele>
        <time>2023-05-20T14:23:51Z</time>
      </trkpt>
      <trkpt lat="47.91784" lon="6.92572">
        <ele>1038</ele>
        <time>2023-05-20T14:23:55Z</time>
      </trkpt>
      <trkpt lat="47.91781" lon="6.92577">
        <ele>1040.7</ele>
        <time>2023-05-20T14:24:03Z</time>
      </trkpt>
      <trkpt lat="47.91775" lon="6.92576">
        <ele>1042.4</ele>
        <time>2023-05-20T14:24:08Z</time>
      </trkpt>
      <trkpt lat="47.9177" lon="6.92579">
        <ele>1044.1</ele>
        <time>2023-05-20T14:24:15Z</time>
      </trkpt>
      <trkpt lat="47.91763" lon="6.9258">
        <ele>1045.6</ele>
        <time>2023-05-20T14:24:24Z</time>
      </trkpt>
      <trkpt lat="47.9177" lon="6.92586">
        <ele>1045.9</ele>
        <time>2023-05-20T14:24:43Z</time>
      </trkpt>
      <trkpt lat="47.91772" lon="6.92594">
        <ele>1046.8</ele>
        <time>2023-05-20T14:24:53Z</time>
      </trkpt>
      <trkpt lat="47.91767" lon="6.92599">
        <ele>1048.9</ele>
        <time>2023-05-20T14:24:59Z</time>
      </trkpt>
      <trkpt lat="47.91761" lon="6.92601">
        <ele>1050.7</ele>
        <time>2023-05-20T14:25:05Z</time>
      </trkpt>
      <trkpt lat="47.91758" lon="6.92605">
        <ele>1052.3</ele>
        <time>2023-05-20T14:25:15Z</time>
      </trkpt>
      <trkpt lat="47.9176" lon="6.9261">
        <ele>1052.9</ele>
        <time>2023-05-20T14:25:19Z</time>
      </trkpt>
      <trkpt lat="47.91758" lon="6.92619">
        <ele>1053.8</ele>
        <time>2023-05-20T14:25:26Z</time>
      </trkpt>
      <trkpt lat="47.91754" lon="6.92622">
        <ele>1054.9</ele>
        <time>2023-05-20T14:25:31Z</time>
      </trkpt>
      <trkpt lat="47.91748" lon="6.92625">
        <ele>1056.1</ele>
        <time>2023-05-20T14:25:40Z</time>
      </trkpt>
      <trkpt lat="47.91745" lon="6.9263">
        <ele>1056.4</ele>
        <time>2023-05-20T14:25:44Z</time>
      </trkpt>
      <trkpt lat="47.91742" lon="6.92635">
        <ele>1057</ele>
        <time>2023-05-20T14:25:48Z</time>
      </trkpt>
      <trkpt lat="47.91738" lon="6.92638">
        <ele>1057.7</ele>
        <time>2023-05-20T14:25:52Z</time>
      </trkpt>
      <trkpt lat="47.91733" lon="6.92643">
        <ele>1058.5</ele>
        <time>2023-05-20T14:25:59Z</time>
      </trkpt>
      <trkpt lat="47.91729" lon="6.9265">
        <ele>1059.2</ele>
        <time>2023-05-20T14:26:11Z</time>
      </trkpt>
      <trkpt lat="47.91725" lon="6.92651">
        <ele>1059.9</ele>
        <time>2023-05-20T14:26:16Z</time>
      </trkpt>
      <trkpt lat="47.91717" lon="6.92662">
        <ele>1061.9</ele>
        <time>2023-05-20T14:26:26Z</time>
      </trkpt>
      <trkpt lat="47.9171" lon="6.92666">
        <ele>1063.6</ele>
        <time>2023-05-20T14:26:34Z</time>
      </trkpt>
      <trkpt lat="47.91703" lon="6.92674">
        <ele>1065.1</ele>
        <time>2023-05-20T14:26:43Z</time>
      </trkpt>
      <trkpt lat="47.91686" lon="6.9268">
        <ele>1067.7</ele>
        <time>2023-05-20T14:27:04Z</time>
      </trkpt>
      <trkpt lat="47.91681" lon="6.9268">
        <ele>1068.5</ele>
        <time>2023-05-20T14:27:09Z</time>
      </trkpt>
      <trkpt lat="47.91668" lon="6.92684">
        <ele>1070.2</ele>
        <time>2023-05-20T14:27:28Z</time>
      </trkpt>
      <trkpt lat="47.91662" lon="6.92679">
        <ele>1071.5</ele>
        <time>2023-05-20T14:27:34Z</time>
      </trkpt>
      <trkpt lat="47.91655" lon="6.92684">
        <ele>1073</ele>
        <time>2023-05-20T14:27:44Z</time>
      </trkpt>
      <trkpt lat="47.9165" lon="6.92684">
        <ele>1074.1</ele>
        <time>2023-05-20T14:27:49Z</time>
      </trkpt>
      <trkpt lat="47.91641" lon="6.92696">
        <ele>1076.3</ele>
        <time>2023-05-20T14:28:10Z</time>
      </trkpt>
      <trkpt lat="47.91636" lon="6.92702">
        <ele>1076.9</ele>
        <time>2023-05-20T14:28:22Z</time>
      </trkpt>
      <trkpt lat="47.91631" lon="6.92702">
        <ele>1078</ele>
        <time>2023-05-20T14:28:28Z</time>
      </trkpt>
      <trkpt lat="47.91614" lon="6.92709">
        <ele>1081.7</ele>
        <time>2023-05-20T14:28:45Z</time>
      </trkpt>
      <trkpt lat="47.91609" lon="6.92709">
        <ele>1083</ele>
        <time>2023-05-20T14:28:52Z</time>
      </trkpt>
      <trkpt lat="47.91604" lon="6.92712">
        <ele>1084.3</ele>
        <time>2023-05-20T14:28:56Z</time>
      </trkpt>
      <trkpt lat="47.91599" lon="6.92719">
        <ele>1085.6</ele>
        <time>2023-05-20T14:29:10Z</time>
      </trkpt>
      <trkpt lat="47.91595" lon="6.92717">
        <ele>1086.7</ele>
        <time>2023-05-20T14:29:15Z</time>
      </trkpt>
      <trkpt lat="47.9159" lon="6.92718">
        <ele>1088.1</ele>
        <time>2023-05-20T14:29:18Z</time>
      </trkpt>
      <trkpt lat="47.91584" lon="6.92715">
        <ele>1089.8</ele>
        <time>2023-05-20T14:29:28Z</time>
      </trkpt>
      <trkpt lat="47.91576" lon="6.92716">
        <ele>1092.1</ele>
        <time>2023-05-20T14:29:40Z</time>
      </trkpt>
      <trkpt lat="47.91549" lon="6.92732">
        <ele>1098.3</ele>
        <time>2023-05-20T14:30:17Z</time>
      </trkpt>
      <trkpt lat="47.91541" lon="6.9273">
        <ele>1100.2</ele>
        <time>2023-05-20T14:30:29Z</time>
      </trkpt>
      <trkpt lat="47.91537" lon="6.92727">
        <ele>1101.4</ele>
        <time>2023-05-20T14:30:35Z</time>
      </trkpt>
      <trkpt lat="47.91531" lon="6.9273">
        <ele>1102.2</ele>
        <time>2023-05-20T14:30:44Z</time>
      </trkpt>
      <trkpt lat="47.91518" lon="6.92729">
        <ele>1103.7</ele>
        <time>2023-05-20T14:30:58Z</time>
      </trkpt>
      <trkpt lat="47.9151" lon="6.92726">
        <ele>1104.7</ele>
        <time>2023-05-20T14:31:05Z</time>
      </trkpt>
      <trkpt lat="47.915" lon="6.92727">
        <ele>1105.3</ele>
        <time>2023-05-20T14:31:14Z</time>
      </trkpt>
      <trkpt lat="47.91488" lon="6.92727">
        <ele>1106.2</ele>
        <time>2023-05-20T14:31:28Z</time>
      </trkpt>
      <trkpt lat="47.91476" lon="6.92722">
        <ele>1107.7</ele>
        <time>2023-05-20T14:31:41Z</time>
      </trkpt>
      <trkpt lat="47.91472" lon="6.92722">
        <ele>1108</ele>
        <time>2023-05-20T14:31:45Z</time>
      </trkpt>
      <trkpt lat="47.91468" lon="6.92723">
        <ele>1108.2</ele>
        <time>2023-05-20T14:31:49Z</time>
      </trkpt>
      <trkpt lat="47.91463" lon="6.92721">
        <ele>1108.7</ele>
        <time>2023-05-20T14:31:53Z</time>
      </trkpt>
      <trkpt lat="47.91457" lon="6.92724">
        <ele>1108.8</ele>
        <time>2023-05-20T14:32:01Z</time>
      </trkpt>
      <trkpt lat="47.91449" lon="6.9272">
        <ele>1109.8</ele>
        <time>2023-05-20T14:32:10Z</time>
      </trkpt>
      <trkpt lat="47.91444" lon="6.92721">
        <ele>1110.1</ele>
        <time>2023-05-20T14:32:14Z</time>
      </trkpt>
      <trkpt lat="47.91439" lon="6.92719">
        <ele>1110.9</ele>
        <time>2023-05-20T14:32:18Z</time>
      </trkpt>
      <trkpt lat="47.91433" lon="6.92721">
        <ele>1111.7</ele>
        <time>2023-05-20T14:32:25Z</time>
      </trkpt>
      <trkpt lat="47.91416" lon="6.92718">
        <ele>1114.2</ele>
        <time>2023-05-20T14:32:44Z</time>
      </trkpt>
      <trkpt lat="47.91408" lon="6.92719">
        <ele>1115.1</ele>
        <time>2023-05-20T14:32:53Z</time>
      </trkpt>
      <trkpt lat="47.91401" lon="6.92708">
        <ele>1116.5</ele>
        <time>2023-05-20T14:33:02Z</time>
      </trkpt>
      <trkpt lat="47.91396" lon="6.92706">
        <ele>1117.3</ele>
        <time>2023-05-20T14:33:06Z</time>
      </trkpt>
      <trkpt lat="47.9139" lon="6.92709">
        <ele>1117.8</ele>
        <time>2023-05-20T14:33:20Z</time>
      </trkpt>
      <trkpt lat="47.91381" lon="6.92716">
        <ele>1119.3</ele>
        <time>2023-05-20T14:33:34Z</time>
      </trkpt>
      <trkpt lat="47.91373" lon="6.92713">
        <ele>1121.5</ele>
        <time>2023-05-20T14:33:45Z</time>
      </trkpt>
      <trkpt lat="47.91367" lon="6.92713">
        <ele>1122.9</ele>
        <time>2023-05-20T14:33:53Z</time>
      </trkpt>
      <trkpt lat="47.91358" lon="6.92721">
        <ele>1124.6</ele>
        <time>2023-05-20T14:34:07Z</time>
      </trkpt>
      <trkpt lat="47.91354" lon="6.92719">
        <ele>1126.8</ele>
        <time>2023-05-20T14:34:12Z</time>
      </trkpt>
      <trkpt lat="47.91344" lon="6.92718">
        <ele>1131.5</ele>
        <time>2023-05-20T14:34:36Z</time>
      </trkpt>
      <trkpt lat="47.91341" lon="6.92725">
        <ele>1130.9</ele>
        <time>2023-05-20T14:34:48Z</time>
      </trkpt>
      <trkpt lat="47.91338" lon="6.92718">
        <ele>1134.3</ele>
        <time>2023-05-20T14:34:54Z</time>
      </trkpt>
      <trkpt lat="47.91338" lon="6.92712">
        <ele>1135</ele>
        <time>2023-05-20T14:34:58Z</time>
      </trkpt>
      <trkpt lat="47.91336" lon="6.92704">
        <ele>1136.8</ele>
        <time>2023-05-20T14:35:05Z</time>
      </trkpt>
      <trkpt lat="47.91332" lon="6.92699">
        <ele>1139</ele>
        <time>2023-05-20T14:35:13Z</time>
      </trkpt>
      <trkpt lat="47.91331" lon="6.92712">
        <ele>1138.1</ele>
        <time>2023-05-20T14:35:24Z</time>
      </trkpt>
      <trkpt lat="47.91328" lon="6.9272">
        <ele>1138.7</ele>
        <time>2023-05-20T14:35:32Z</time>
      </trkpt>
      <trkpt lat="47.91317" lon="6.92731">
        <ele>1138.5</ele>
        <time>2023-05-20T14:35:47Z</time>
      </trkpt>
      <trkpt lat="47.91315" lon="6.92722">
        <ele>1144.6</ele>
        <time>2023-05-20T14:35:55Z</time>
      </trkpt>
      <trkpt lat="47.91315" lon="6.92715">
        <ele>1144.8</ele>
        <time>2023-05-20T14:36:00Z</time>
      </trkpt>
      <trkpt lat="47.91309" lon="6.92709">
        <ele>1147.6</ele>
        <time>2023-05-20T14:36:11Z</time>
      </trkpt>
      <trkpt lat="47.91304" lon="6.9272">
        <ele>1149.6</ele>
        <time>2023-05-20T14:36:21Z</time>
      </trkpt>
      <trkpt lat="47.913" lon="6.92724">
        <ele>1150.3</ele>
        <time>2023-05-20T14:36:28Z</time>
      </trkpt>
      <trkpt lat="47.91294" lon="6.92721">
        <ele>1153.5</ele>
        <time>2023-05-20T14:36:40Z</time>
      </trkpt>
      <trkpt lat="47.9129" lon="6.92718">
        <ele>1154.9</ele>
        <time>2023-05-20T14:36:49Z</time>
      </trkpt>
      <trkpt lat="47.91285" lon="6.92718">
        <ele>1156.8</ele>
        <time>2023-05-20T14:36:54Z</time>
      </trkpt>
      <trkpt lat="47.91282" lon="6.92727">
        <ele>1156.7</ele>
        <time>2023-05-20T14:37:10Z</time>
      </trkpt>
      <trkpt lat="47.91277" lon="6.92734">
        <ele>1156.9</ele>
        <time>2023-05-20T14:37:22Z</time>
      </trkpt>
      <trkpt lat="47.9127" lon="6.92724">
        <ele>1162.1</ele>
        <time>2023-05-20T14:37:32Z</time>
      </trkpt>
      <trkpt lat="47.91263" lon="6.92721">
        <ele>1164.6</ele>
        <time>2023-05-20T14:37:45Z</time>
      </trkpt>
      <trkpt lat="47.91259" lon="6.92728">
        <ele>1165.1</ele>
        <time>2023-05-20T14:37:57Z</time>
      </trkpt>
      <trkpt lat="47.91252" lon="6.92735">
        <ele>1166.8</ele>
        <time>2023-05-20T14:38:09Z</time>
      </trkpt>
      <trkpt lat="47.91233" lon="6.92742">
        <ele>1171.4</ele>
        <time>2023-05-20T14:38:36Z</time>
      </trkpt>
      <trkpt lat="47.9123" lon="6.92738">
        <ele>1172.4</ele>
        <time>2023-05-20T14:38:41Z</time>
      </trkpt>
      <trkpt lat="47.91225" lon="6.92739">
        <ele>1173.7</ele>
        <time>2023-05-20T14:38:47Z</time>
      </trkpt>
      <trkpt lat="47.91221" lon="6.92743">
        <ele>1174.5</ele>
        <time>2023-05-20T14:38:52Z</time>
      </trkpt>
      <trkpt lat="47.91218" lon="6.92747">
        <ele>1175.1</ele>
        <time>2023-05-20T14:38:56Z</time>
      </trkpt>
      <trkpt lat="47.91212" lon="6.92751">
        <ele>1176.4</ele>
        <time>2023-05-20T14:39:04Z</time>
      </trkpt>
      <trkpt lat="47.91208" lon="6.92756">
        <ele>1176.6</ele>
        <time>2023-05-20T14:39:09Z</time>
      </trkpt>
      <trkpt lat="47.91199" lon="6.92764">
        <ele>1178.8</ele>
        <time>2023-05-20T14:39:23Z</time>
      </trkpt>
      <trkpt lat="47.91195" lon="6.92764">
        <ele>1180.3</ele>
        <time>2023-05-20T14:39:29Z</time>
      </trkpt>
      <trkpt lat="47.91189" lon="6.92767">
        <ele>1181.3</ele>
        <time>2023-05-20T14:39:36Z</time>
      </trkpt>
      <trkpt lat="47.91185" lon="6.92768">
        <ele>1182</ele>
        <time>2023-05-20T14:39:41Z</time>
      </trkpt>
      <trkpt lat="47.91158" lon="6.92792">
        <ele>1187.2</ele>
        <time>2023-05-20T14:40:19Z</time>
      </trkpt>
      <trkpt lat="47.91155" lon="6.92797">
        <ele>1187.9</ele>
        <time>2023-05-20T14:40:24Z</time>
      </trkpt>
      <trkpt lat="47.9115" lon="6.92801">
        <ele>1189.1</ele>
        <time>2023-05-20T14:40:32Z</time>
      </trkpt>
      <trkpt lat="47.91141" lon="6.92803">
        <ele>1191.3</ele>
        <time>2023-05-20T14:40:41Z</time>
      </trkpt>
      <trkpt lat="47.91136" lon="6.92809">
        <ele>1192.3</ele>
        <time>2023-05-20T14:40:49Z</time>
      </trkpt>
      <trkpt lat="47.9113" lon="6.92812">
        <ele>1193.4</ele>
        <time>2023-05-20T14:40:59Z</time>
      </trkpt>
      <trkpt lat="47.91123" lon="6.92823">
        <ele>1195</ele>
        <time>2023-05-20T14:41:55Z</time>
      </trkpt>
      <trkpt lat="47.91106" lon="6.92832">
        <ele>1200.7</ele>
        <time>2023-05-20T14:42:22Z</time>
      </trkpt>
      <trkpt lat="47.91104" lon="6.92843">
        <ele>1201.9</ele>
        <time>2023-05-20T14:42:35Z</time>
      </trkpt>
      <trkpt lat="47.91106" lon="6.92849">
        <ele>1201.3</ele>
        <time>2023-05-20T14:42:52Z</time>
      </trkpt>
      <trkpt lat="47.91101" lon="6.92848">
        <ele>1203.4</ele>
        <time>2023-05-20T14:42:57Z</time>
      </trkpt>
      <trkpt lat="47.91098" lon="6.92844">
        <ele>1204.4</ele>
        <time>2023-05-20T14:43:01Z</time>
      </trkpt>
      <trkpt lat="47.91093" lon="6.92847">
        <ele>1206.8</ele>
        <time>2023-05-20T14:43:10Z</time>
      </trkpt>
      <trkpt lat="47.91088" lon="6.92869">
        <ele>1208.9</ele>
        <time>2023-05-20T14:43:29Z</time>
      </trkpt>
      <trkpt lat="47.91085" lon="6.92874">
        <ele>1209.3</ele>
        <time>2023-05-20T14:43:34Z</time>
      </trkpt>
      <trkpt lat="47.91075" lon="6.92877">
        <ele>1211.9</ele>
        <time>2023-05-20T14:43:52Z</time>
      </trkpt>
      <trkpt lat="47.91066" lon="6.92876">
        <ele>1214.6</ele>
        <time>2023-05-20T14:44:01Z</time>
      </trkpt>
      <trkpt lat="47.9106" lon="6.92879">
        <ele>1216</ele>
        <time>2023-05-20T14:44:10Z</time>
      </trkpt>
      <trkpt lat="47.91055" lon="6.92877">
        <ele>1217.5</ele>
        <time>2023-05-20T14:44:16Z</time>
      </trkpt>
      <trkpt lat="47.91051" lon="6.92879">
        <ele>1218.1</ele>
        <time>2023-05-20T14:44:19Z</time>
      </trkpt>
      <trkpt lat="47.91046" lon="6.92879">
        <ele>1219</ele>
        <time>2023-05-20T14:44:26Z</time>
      </trkpt>
      <trkpt lat="47.91041" lon="6.92882">
        <ele>1219.7</ele>
        <time>2023-05-20T14:44:31Z</time>
      </trkpt>
      <trkpt lat="47.91036" lon="6.92883">
        <ele>1220.6</ele>
        <time>2023-05-20T14:44:36Z</time>
      </trkpt>
      <trkpt lat="47.91032" lon="6.92882">
        <ele>1221.3</ele>
        <time>2023-05-20T14:44:40Z</time>
      </trkpt>
      <trkpt lat="47.91012" lon="6.92886">
        <ele>1223</ele>
        <time>2023-05-20T14:45:00Z</time>
      </trkpt>
      <trkpt lat="47.91007" lon="6.92884">
        <ele>1223.2</ele>
        <time>2023-05-20T14:45:05Z</time>
      </trkpt>
      <trkpt lat="47.91" lon="6.92883">
        <ele>1223.6</ele>
        <time>2023-05-20T14:45:15Z</time>
      </trkpt>
      <trkpt lat="47.90996" lon="6.92886">
        <ele>1223</ele>
        <time>2023-05-20T14:45:20Z</time>
      </trkpt>
      <trkpt lat="47.9099" lon="6.92888">
        <ele>1221.8</ele>
        <time>2023-05-20T14:45:32Z</time>
      </trkpt>
      <trkpt lat="47.90977" lon="6.92872">
        <ele>1219.8</ele>
        <time>2023-05-20T15:19:14Z</time>
      </trkpt>
      <trkpt lat="47.90978" lon="6.92872">
        <ele>1220</ele>
        <time>2023-05-20T15:19:15Z</time>
      </trkpt>
      <trkpt lat="47.90972" lon="6.92864">
        <ele>1219.7</ele>
        <time>2023-05-20T15:19:23Z</time>
      </trkpt>
      <trkpt lat="47.9097" lon="6.92858">
        <ele>1219</ele>
        <time>2023-05-20T15:19:27Z</time>
      </trkpt>
      <trkpt lat="47.90964" lon="6.92854">
        <ele>1216.9</ele>
        <time>2023-05-20T15:19:31Z</time>
      </trkpt>
      <trkpt lat="47.9096" lon="6.92855">
        <ele>1215.9</ele>
        <time>2023-05-20T15:19:34Z</time>
      </trkpt>
      <trkpt lat="47.90956" lon="6.92854">
        <ele>1214.7</ele>
        <time>2023-05-20T15:19:38Z</time>
      </trkpt>
      <trkpt lat="47.90942" lon="6.92843">
        <ele>1211.4</ele>
        <time>2023-05-20T15:19:54Z</time>
      </trkpt>
      <trkpt lat="47.90937" lon="6.92842">
        <ele>1209.6</ele>
        <time>2023-05-20T15:20:00Z</time>
      </trkpt>
      <trkpt lat="47.90932" lon="6.92842">
        <ele>1207.8</ele>
        <time>2023-05-20T15:20:04Z</time>
      </trkpt>
      <trkpt lat="47.90928" lon="6.92839">
        <ele>1206.8</ele>
        <time>2023-05-20T15:20:07Z</time>
      </trkpt>
      <trkpt lat="47.90925" lon="6.92833">
        <ele>1206.7</ele>
        <time>2023-05-20T15:20:11Z</time>
      </trkpt>
      <trkpt lat="47.9092" lon="6.92828">
        <ele>1205.4</ele>
        <time>2023-05-20T15:20:16Z</time>
      </trkpt>
      <trkpt lat="47.90916" lon="6.92816">
        <ele>1205</ele>
        <time>2023-05-20T15:20:23Z</time>
      </trkpt>
      <trkpt lat="47.90916" lon="6.92809">
        <ele>1205.5</ele>
        <time>2023-05-20T15:20:26Z</time>
      </trkpt>
      <trkpt lat="47.90913" lon="6.92802">
        <ele>1204.6</ele>
        <time>2023-05-20T15:20:29Z</time>
      </trkpt>
      <trkpt lat="47.90912" lon="6.92796">
        <ele>1204</ele>
        <time>2023-05-20T15:20:33Z</time>
      </trkpt>
      <trkpt lat="47.90908" lon="6.92791">
        <ele>1202.6</ele>
        <time>2023-05-20T15:20:37Z</time>
      </trkpt>
      <trkpt lat="47.90906" lon="6.92785">
        <ele>1201.9</ele>
        <time>2023-05-20T15:20:40Z</time>
      </trkpt>
      <trkpt lat="47.90905" lon="6.92779">
        <ele>1201.5</ele>
        <time>2023-05-20T15:20:45Z</time>
      </trkpt>
      <trkpt lat="47.90901" lon="6.92773">
        <ele>1200.2</ele>
        <time>2023-05-20T15:20:49Z</time>
      </trkpt>
      <trkpt lat="47.90897" lon="6.92771">
        <ele>1199.4</ele>
        <time>2023-05-20T15:20:53Z</time>
      </trkpt>
      <trkpt lat="47.90889" lon="6.92758">
        <ele>1198</ele>
        <time>2023-05-20T15:21:03Z</time>
      </trkpt>
      <trkpt lat="47.90886" lon="6.92755">
        <ele>1197</ele>
        <time>2023-05-20T15:21:08Z</time>
      </trkpt>
      <trkpt lat="47.90882" lon="6.92753">
        <ele>1195.7</ele>
        <time>2023-05-20T15:21:13Z</time>
      </trkpt>
      <trkpt lat="47.9087" lon="6.92751">
        <ele>1191.9</ele>
        <time>2023-05-20T15:21:28Z</time>
      </trkpt>
      <trkpt lat="47.90868" lon="6.92745">
        <ele>1191</ele>
        <time>2023-05-20T15:21:36Z</time>
      </trkpt>
      <trkpt lat="47.90855" lon="6.92736">
        <ele>1187.5</ele>
        <time>2023-05-20T15:21:53Z</time>
      </trkpt>
      <trkpt lat="47.90849" lon="6.92736">
        <ele>1186</ele>
        <time>2023-05-20T15:21:57Z</time>
      </trkpt>
      <trkpt lat="47.90845" lon="6.92731">
        <ele>1185.2</ele>
        <time>2023-05-20T15:22:00Z</time>
      </trkpt>
      <trkpt lat="47.90844" lon="6.92725">
        <ele>1185.2</ele>
        <time>2023-05-20T15:22:04Z</time>
      </trkpt>
      <trkpt lat="47.90829" lon="6.92718">
        <ele>1182</ele>
        <time>2023-05-20T15:22:17Z</time>
      </trkpt>
      <trkpt lat="47.90826" lon="6.92712">
        <ele>1181.2</ele>
        <time>2023-05-20T15:22:21Z</time>
      </trkpt>
      <trkpt lat="47.90809" lon="6.92706">
        <ele>1178.2</ele>
        <time>2023-05-20T15:22:35Z</time>
      </trkpt>
      <trkpt lat="47.90795" lon="6.92705">
        <ele>1176.2</ele>
        <time>2023-05-20T15:22:47Z</time>
      </trkpt>
      <trkpt lat="47.9079" lon="6.92704">
        <ele>1175.6</ele>
        <time>2023-05-20T15:22:51Z</time>
      </trkpt>
      <trkpt lat="47.90785" lon="6.92696">
        <ele>1175.6</ele>
        <time>2023-05-20T15:22:56Z</time>
      </trkpt>
      <trkpt lat="47.90781" lon="6.92694">
        <ele>1175.3</ele>
        <time>2023-05-20T15:22:59Z</time>
      </trkpt>
      <trkpt lat="47.90771" lon="6.92694">
        <ele>1174.8</ele>
        <time>2023-05-20T15:23:08Z</time>
      </trkpt>
      <trkpt lat="47.90762" lon="6.92688">
        <ele>1174.6</ele>
        <time>2023-05-20T15:23:15Z</time>
      </trkpt>
      <trkpt lat="47.90749" lon="6.92686">
        <ele>1174.3</ele>
        <time>2023-05-20T15:23:25Z</time>
      </trkpt>
      <trkpt lat="47.90745" lon="6.92683">
        <ele>1174.3</ele>
        <time>2023-05-20T15:23:31Z</time>
      </trkpt>
      <trkpt lat="47.90735" lon="6.92683">
        <ele>1174</ele>
        <time>2023-05-20T15:23:39Z</time>
      </trkpt>
      <trkpt lat="47.9073" lon="6.92678">
        <ele>1174.4</ele>
        <time>2023-05-20T15:23:43Z</time>
      </trkpt>
      <trkpt lat="47.90727" lon="6.92672">
        <ele>1175.2</ele>
        <time>2023-05-20T15:23:47Z</time>
      </trkpt>
      <trkpt lat="47.90727" lon="6.92664">
        <ele>1176</ele>
        <time>2023-05-20T15:23:50Z</time>
      </trkpt>
      <trkpt lat="47.90723" lon="6.92658">
        <ele>1176.6</ele>
        <time>2023-05-20T15:23:55Z</time>
      </trkpt>
      <trkpt lat="47.90711" lon="6.92654">
        <ele>1176.9</ele>
        <time>2023-05-20T15:24:12Z</time>
      </trkpt>
      <trkpt lat="47.90706" lon="6.92655">
        <ele>1176.7</ele>
        <time>2023-05-20T15:24:15Z</time>
      </trkpt>
      <trkpt lat="47.90704" lon="6.9265">
        <ele>1177.3</ele>
        <time>2023-05-20T15:24:18Z</time>
      </trkpt>
      <trkpt lat="47.90701" lon="6.92643">
        <ele>1178.2</ele>
        <time>2023-05-20T15:24:21Z</time>
      </trkpt>
      <trkpt lat="47.90696" lon="6.92642">
        <ele>1178.5</ele>
        <time>2023-05-20T15:24:25Z</time>
      </trkpt>
      <trkpt lat="47.90692" lon="6.92638">
        <ele>1178.9</ele>
        <time>2023-05-20T15:24:29Z</time>
      </trkpt>
      <trkpt lat="47.90686" lon="6.92633">
        <ele>1178.9</ele>
        <time>2023-05-20T15:24:36Z</time>
      </trkpt>
      <trkpt lat="47.90682" lon="6.92631">
        <ele>1178.9</ele>
        <time>2023-05-20T15:24:40Z</time>
      </trkpt>
      <trkpt lat="47.90673" lon="6.92624">
        <ele>1179.6</ele>
        <time>2023-05-20T15:24:48Z</time>
      </trkpt>
      <trkpt lat="47.90664" lon="6.92616">
        <ele>1181.2</ele>
        <time>2023-05-20T15:24:56Z</time>
      </trkpt>
      <trkpt lat="47.90637" lon="6.92602">
        <ele>1183.6</ele>
        <time>2023-05-20T15:25:22Z</time>
      </trkpt>
      <trkpt lat="47.90634" lon="6.92596">
        <ele>1184.1</ele>
        <time>2023-05-20T15:25:26Z</time>
      </trkpt>
      <trkpt lat="47.90624" lon="6.92592">
        <ele>1184.6</ele>
        <time>2023-05-20T15:25:36Z</time>
      </trkpt>
      <trkpt lat="47.90613" lon="6.92583">
        <ele>1185.9</ele>
        <time>2023-05-20T15:25:47Z</time>
      </trkpt>
      <trkpt lat="47.9061" lon="6.92578">
        <ele>1185.3</ele>
        <time>2023-05-20T15:25:52Z</time>
      </trkpt>
      <trkpt lat="47.90605" lon="6.92557">
        <ele>1181.9</ele>
        <time>2023-05-20T15:26:09Z</time>
      </trkpt>
      <trkpt lat="47.90598" lon="6.92543">
        <ele>1177.4</ele>
        <time>2023-05-20T15:26:25Z</time>
      </trkpt>
      <trkpt lat="47.90599" lon="6.92532">
        <ele>1175.2</ele>
        <time>2023-05-20T15:26:35Z</time>
      </trkpt>
      <trkpt lat="47.90598" lon="6.92525">
        <ele>1173.5</ele>
        <time>2023-05-20T15:26:39Z</time>
      </trkpt>
      <trkpt lat="47.9059" lon="6.92507">
        <ele>1168.3</ele>
        <time>2023-05-20T15:26:52Z</time>
      </trkpt>
      <trkpt lat="47.9058" lon="6.92492">
        <ele>1163.7</ele>
        <time>2023-05-20T15:27:11Z</time>
      </trkpt>
      <trkpt lat="47.90578" lon="6.92477">
        <ele>1160.6</ele>
        <time>2023-05-20T15:27:19Z</time>
      </trkpt>
      <trkpt lat="47.90578" lon="6.92469">
        <ele>1159.4</ele>
        <time>2023-05-20T15:27:27Z</time>
      </trkpt>
      <trkpt lat="47.90578" lon="6.92461">
        <ele>1158.4</ele>
        <time>2023-05-20T15:27:32Z</time>
      </trkpt>
      <trkpt lat="47.90581" lon="6.92452">
        <ele>1157.7</ele>
        <time>2023-05-20T15:27:39Z</time>
      </trkpt>
      <trkpt lat="47.90575" lon="6.92427">
        <ele>1152.8</ele>
        <time>2023-05-20T15:27:53Z</time>
      </trkpt>
      <trkpt lat="47.90572" lon="6.92421">
        <ele>1151.5</ele>
        <time>2023-05-20T15:27:58Z</time>
      </trkpt>
      <trkpt lat="47.9057" lon="6.92413">
        <ele>1149.9</ele>
        <time>2023-05-20T15:28:07Z</time>
      </trkpt>
      <trkpt lat="47.90572" lon="6.92406">
        <ele>1148.9</ele>
        <time>2023-05-20T15:28:12Z</time>
      </trkpt>
      <trkpt lat="47.90567" lon="6.92391">
        <ele>1145.5</ele>
        <time>2023-05-20T15:28:21Z</time>
      </trkpt>
      <trkpt lat="47.90565" lon="6.92382">
        <ele>1144.2</ele>
        <time>2023-05-20T15:28:27Z</time>
      </trkpt>
      <trkpt lat="47.90563" lon="6.92378">
        <ele>1143.6</ele>
        <time>2023-05-20T15:28:32Z</time>
      </trkpt>
      <trkpt lat="47.90562" lon="6.92371">
        <ele>1143.1</ele>
        <time>2023-05-20T15:28:37Z</time>
      </trkpt>
      <trkpt lat="47.90559" lon="6.92362">
        <ele>1142.3</ele>
        <time>2023-05-20T15:28:46Z</time>
      </trkpt>
      <trkpt lat="47.90556" lon="6.92358">
        <ele>1142.1</ele>
        <time>2023-05-20T15:28:49Z</time>
      </trkpt>
      <trkpt lat="47.90552" lon="6.92353">
        <ele>1141.2</ele>
        <time>2023-05-20T15:29:03Z</time>
      </trkpt>
      <trkpt lat="47.90546" lon="6.92349">
        <ele>1140.1</ele>
        <time>2023-05-20T15:29:15Z</time>
      </trkpt>
      <trkpt lat="47.90542" lon="6.92343">
        <ele>1140.6</ele>
        <time>2023-05-20T15:29:20Z</time>
      </trkpt>
      <trkpt lat="47.90539" lon="6.92336">
        <ele>1142.2</ele>
        <time>2023-05-20T15:29:23Z</time>
      </trkpt>
      <trkpt lat="47.90536" lon="6.92332">
        <ele>1143.2</ele>
        <time>2023-05-20T15:29:27Z</time>
      </trkpt>
      <trkpt lat="47.90531" lon="6.92327">
        <ele>1144.2</ele>
        <time>2023-05-20T15:29:35Z</time>
      </trkpt>
      <trkpt lat="47.90529" lon="6.92319">
        <ele>1146</ele>
        <time>2023-05-20T15:29:40Z</time>
      </trkpt>
      <trkpt lat="47.90528" lon="6.9231">
        <ele>1148</ele>
        <time>2023-05-20T15:29:47Z</time>
      </trkpt>
      <trkpt lat="47.90525" lon="6.92304">
        <ele>1147.3</ele>
        <time>2023-05-20T15:29:53Z</time>
      </trkpt>
      <trkpt lat="47.90523" lon="6.92299">
        <ele>1146.5</ele>
        <time>2023-05-20T15:29:58Z</time>
      </trkpt>
      <trkpt lat="47.90518" lon="6.92289">
        <ele>1145.1</ele>
        <time>2023-05-20T15:30:05Z</time>
      </trkpt>
      <trkpt lat="47.90516" lon="6.92283">
        <ele>1145.3</ele>
        <time>2023-05-20T15:30:09Z</time>
      </trkpt>
      <trkpt lat="47.90515" lon="6.92276">
        <ele>1146.1</ele>
        <time>2023-05-20T15:30:12Z</time>
      </trkpt>
      <trkpt lat="47.90498" lon="6.92243">
        <ele>1151.5</ele>
        <time>2023-05-20T15:30:37Z</time>
      </trkpt>
      <trkpt lat="47.90489" lon="6.92231">
        <ele>1149.7</ele>
        <time>2023-05-20T15:30:50Z</time>
      </trkpt>
      <trkpt lat="47.90486" lon="6.92218">
        <ele>1151.6</ele>
        <time>2023-05-20T15:30:58Z</time>
      </trkpt>
      <trkpt lat="47.90466" lon="6.92186">
        <ele>1156.7</ele>
        <time>2023-05-20T15:31:29Z</time>
      </trkpt>
      <trkpt lat="47.90461" lon="6.9218">
        <ele>1156.7</ele>
        <time>2023-05-20T15:31:37Z</time>
      </trkpt>
      <trkpt lat="47.90457" lon="6.92169">
        <ele>1158.6</ele>
        <time>2023-05-20T15:31:49Z</time>
      </trkpt>
      <trkpt lat="47.90453" lon="6.92163">
        <ele>1159.4</ele>
        <time>2023-05-20T15:31:58Z</time>
      </trkpt>
      <trkpt lat="47.90449" lon="6.92157">
        <ele>1159.8</ele>
        <time>2023-05-20T15:32:06Z</time>
      </trkpt>
      <trkpt lat="47.90446" lon="6.92147">
        <ele>1160.5</ele>
        <time>2023-05-20T15:32:30Z</time>
      </trkpt>
      <trkpt lat="47.90445" lon="6.92141">
        <ele>1160.8</ele>
        <time>2023-05-20T15:32:35Z</time>
      </trkpt>
      <trkpt lat="47.90445" lon="6.92132">
        <ele>1159.9</ele>
        <time>2023-05-20T15:32:43Z</time>
      </trkpt>
      <trkpt lat="47.9044" lon="6.92117">
        <ele>1154</ele>
        <time>2023-05-20T15:32:55Z</time>
      </trkpt>
      <trkpt lat="47.90439" lon="6.92103">
        <ele>1152.4</ele>
        <time>2023-05-20T15:33:03Z</time>
      </trkpt>
      <trkpt lat="47.90435" lon="6.92079">
        <ele>1150.4</ele>
        <time>2023-05-20T15:33:16Z</time>
      </trkpt>
      <trkpt lat="47.90433" lon="6.92074">
        <ele>1150.3</ele>
        <time>2023-05-20T15:33:20Z</time>
      </trkpt>
      <trkpt lat="47.90432" lon="6.92066">
        <ele>1151.3</ele>
        <time>2023-05-20T15:33:25Z</time>
      </trkpt>
      <trkpt lat="47.9043" lon="6.9206">
        <ele>1152</ele>
        <time>2023-05-20T15:33:28Z</time>
      </trkpt>
      <trkpt lat="47.90427" lon="6.92049">
        <ele>1153.8</ele>
        <time>2023-05-20T15:33:36Z</time>
      </trkpt>
      <trkpt lat="47.90419" lon="6.9204">
        <ele>1156.2</ele>
        <time>2023-05-20T15:33:44Z</time>
      </trkpt>
      <trkpt lat="47.90412" lon="6.92016">
        <ele>1159.6</ele>
        <time>2023-05-20T15:34:05Z</time>
      </trkpt>
      <trkpt lat="47.90399" lon="6.91985">
        <ele>1162.7</ele>
        <time>2023-05-20T15:34:38Z</time>
      </trkpt>
      <trkpt lat="47.90396" lon="6.91979">
        <ele>1164</ele>
        <time>2023-05-20T15:34:44Z</time>
      </trkpt>
      <trkpt lat="47.90392" lon="6.91971">
        <ele>1166.1</ele>
        <time>2023-05-20T15:34:51Z</time>
      </trkpt>
      <trkpt lat="47.90389" lon="6.91966">
        <ele>1167</ele>
        <time>2023-05-20T15:34:56Z</time>
      </trkpt>
      <trkpt lat="47.90385" lon="6.91962">
        <ele>1165.9</ele>
        <time>2023-05-20T15:35:00Z</time>
      </trkpt>
      <trkpt lat="47.90381" lon="6.91956">
        <ele>1165.2</ele>
        <time>2023-05-20T15:35:04Z</time>
      </trkpt>
      <trkpt lat="47.90375" lon="6.91938">
        <ele>1166</ele>
        <time>2023-05-20T15:35:17Z</time>
      </trkpt>
      <trkpt lat="47.90375" lon="6.91931">
        <ele>1166.5</ele>
        <time>2023-05-20T15:35:31Z</time>
      </trkpt>
      <trkpt lat="47.90369" lon="6.91913">
        <ele>1168.6</ele>
        <time>2023-05-20T15:35:51Z</time>
      </trkpt>
      <trkpt lat="47.90363" lon="6.91902">
        <ele>1170.1</ele>
        <time>2023-05-20T15:36:01Z</time>
      </trkpt>
      <trkpt lat="47.90355" lon="6.91887">
        <ele>1170.1</ele>
        <time>2023-05-20T15:36:16Z</time>
      </trkpt>
      <trkpt lat="47.90347" lon="6.91869">
        <ele>1170.1</ele>
        <time>2023-05-20T15:36:30Z</time>
      </trkpt>
      <trkpt lat="47.90345" lon="6.91858">
        <ele>1170.9</ele>
        <time>2023-05-20T15:36:38Z</time>
      </trkpt>
      <trkpt lat="47.90343" lon="6.91852">
        <ele>1171.7</ele>
        <time>2023-05-20T15:36:43Z</time>
      </trkpt>
      <trkpt lat="47.90341" lon="6.91846">
        <ele>1172.7</ele>
        <time>2023-05-20T15:36:49Z</time>
      </trkpt>
      <trkpt lat="47.90337" lon="6.91842">
        <ele>1173.9</ele>
        <time>2023-05-20T15:36:55Z</time>
      </trkpt>
      <trkpt lat="47.90333" lon="6.91834">
        <ele>1175.8</ele>
        <time>2023-05-20T15:37:06Z</time>
      </trkpt>
      <trkpt lat="47.90328" lon="6.91822">
        <ele>1175.6</ele>
        <time>2023-05-20T15:37:15Z</time>
      </trkpt>
      <trkpt lat="47.90318" lon="6.91797">
        <ele>1178.3</ele>
        <time>2023-05-20T15:37:41Z</time>
      </trkpt>
      <trkpt lat="47.90304" lon="6.91765">
        <ele>1183.1</ele>
        <time>2023-05-20T15:38:09Z</time>
      </trkpt>
      <trkpt lat="47.903" lon="6.91761">
        <ele>1183.4</ele>
        <time>2023-05-20T15:38:14Z</time>
      </trkpt>
      <trkpt lat="47.90296" lon="6.9176">
        <ele>1183.8</ele>
        <time>2023-05-20T15:38:18Z</time>
      </trkpt>
      <trkpt lat="47.90269" lon="6.91735">
        <ele>1187.2</ele>
        <time>2023-05-20T15:38:49Z</time>
      </trkpt>
      <trkpt lat="47.90258" lon="6.91726">
        <ele>1189.1</ele>
        <time>2023-05-20T15:39:00Z</time>
      </trkpt>
      <trkpt lat="47.90255" lon="6.91722">
        <ele>1190.1</ele>
        <time>2023-05-20T15:39:04Z</time>
      </trkpt>
      <trkpt lat="47.90246" lon="6.91713">
        <ele>1191.3</ele>
        <time>2023-05-20T15:39:15Z</time>
      </trkpt>
      <trkpt lat="47.90242" lon="6.9171">
        <ele>1191.9</ele>
        <time>2023-05-20T15:39:19Z</time>
      </trkpt>
      <trkpt lat="47.90231" lon="6.917">
        <ele>1194.8</ele>
        <time>2023-05-20T15:39:33Z</time>
      </trkpt>
      <trkpt lat="47.90228" lon="6.91695">
        <ele>1196.4</ele>
        <time>2023-05-20T15:39:38Z</time>
      </trkpt>
      <trkpt lat="47.90219" lon="6.91682">
        <ele>1197.9</ele>
        <time>2023-05-20T15:39:54Z</time>
      </trkpt>
      <trkpt lat="47.90219" lon="6.91673">
        <ele>1197.9</ele>
        <time>2023-05-20T15:40:03Z</time>
      </trkpt>
      <trkpt lat="47.9019" lon="6.91681">
        <ele>1196.4</ele>
        <time>2023-05-20T15:44:34Z</time>
      </trkpt>
      <trkpt lat="47.9019" lon="6.91681">
        <ele>1196.4</ele>
        <time>2023-05-20T15:44:35Z</time>
      </trkpt>
      <trkpt lat="47.90184" lon="6.91684">
        <ele>1195.5</ele>
        <time>2023-05-20T15:44:39Z</time>
      </trkpt>
      <trkpt lat="47.9018" lon="6.91685">
        <ele>1194.9</ele>
        <time>2023-05-20T15:44:44Z</time>
      </trkpt>
      <trkpt lat="47.90174" lon="6.91686">
        <ele>1194.1</ele>
        <time>2023-05-20T15:44:52Z</time>
      </trkpt>
      <trkpt lat="47.90169" lon="6.91687">
        <ele>1193.3</ele>
        <time>2023-05-20T15:44:56Z</time>
      </trkpt>
      <trkpt lat="47.90165" lon="6.91688">
        <ele>1192.6</ele>
        <time>2023-05-20T15:45:01Z</time>
      </trkpt>
      <trkpt lat="47.90161" lon="6.91689">
        <ele>1191.7</ele>
        <time>2023-05-20T15:45:06Z</time>
      </trkpt>
      <trkpt lat="47.90157" lon="6.91692">
        <ele>1190.9</ele>
        <time>2023-05-20T15:45:10Z</time>
      </trkpt>
      <trkpt lat="47.9014" lon="6.91696">
        <ele>1187.2</ele>
        <time>2023-05-20T15:45:27Z</time>
      </trkpt>
      <trkpt lat="47.90131" lon="6.91704">
        <ele>1185.8</ele>
        <time>2023-05-20T15:45:35Z</time>
      </trkpt>
      <trkpt lat="47.90127" lon="6.9171">
        <ele>1185.4</ele>
        <time>2023-05-20T15:45:39Z</time>
      </trkpt>
      <trkpt lat="47.90123" lon="6.91714">
        <ele>1185.2</ele>
        <time>2023-05-20T15:45:43Z</time>
      </trkpt>
      <trkpt lat="47.90116" lon="6.91722">
        <ele>1185.2</ele>
        <time>2023-05-20T15:45:50Z</time>
      </trkpt>
      <trkpt lat="47.90109" lon="6.9173">
        <ele>1184.6</ele>
        <time>2023-05-20T15:45:58Z</time>
      </trkpt>
      <trkpt lat="47.90098" lon="6.91744">
        <ele>1183.9</ele>
        <time>2023-05-20T15:46:10Z</time>
      </trkpt>
      <trkpt lat="47.90092" lon="6.91752">
        <ele>1183.8</ele>
        <time>2023-05-20T15:46:16Z</time>
      </trkpt>
      <trkpt lat="47.90088" lon="6.91755">
        <ele>1183.8</ele>
        <time>2023-05-20T15:46:20Z</time>
      </trkpt>
      <trkpt lat="47.90084" lon="6.91757">
        <ele>1184.2</ele>
        <time>2023-05-20T15:46:24Z</time>
      </trkpt>
      <trkpt lat="47.9007" lon="6.91761">
        <ele>1183.2</ele>
        <time>2023-05-20T15:46:37Z</time>
      </trkpt>
      <trkpt lat="47.90061" lon="6.91761">
        <ele>1182.5</ele>
        <time>2023-05-20T15:46:45Z</time>
      </trkpt>
      <trkpt lat="47.90048" lon="6.9176">
        <ele>1181.2</ele>
        <time>2023-05-20T15:46:57Z</time>
      </trkpt>
      <trkpt lat="47.90043" lon="6.9176">
        <ele>1180.6</ele>
        <time>2023-05-20T15:47:01Z</time>
      </trkpt>
      <trkpt lat="47.90006" lon="6.9176">
        <ele>1176.4</ele>
        <time>2023-05-20T15:47:33Z</time>
      </trkpt>
      <trkpt lat="47.89979" lon="6.91763">
        <ele>1174.1</ele>
        <time>2023-05-20T15:47:57Z</time>
      </trkpt>
      <trkpt lat="47.89975" lon="6.91762">
        <ele>1173.7</ele>
        <time>2023-05-20T15:48:01Z</time>
      </trkpt>
      <trkpt lat="47.8997" lon="6.91762">
        <ele>1173.5</ele>
        <time>2023-05-20T15:48:06Z</time>
      </trkpt>
      <trkpt lat="47.89949" lon="6.91744">
        <ele>1172</ele>
        <time>2023-05-20T15:48:41Z</time>
      </trkpt>
      <trkpt lat="47.89942" lon="6.91736">
        <ele>1170.7</ele>
        <time>2023-05-20T15:48:49Z</time>
      </trkpt>
      <trkpt lat="47.89933" lon="6.91731">
        <ele>1170.4</ele>
        <time>2023-05-20T15:48:58Z</time>
      </trkpt>
      <trkpt lat="47.89926" lon="6.91721">
        <ele>1169</ele>
        <time>2023-05-20T15:49:07Z</time>
      </trkpt>
      <trkpt lat="47.89921" lon="6.91719">
        <ele>1168.8</ele>
        <time>2023-05-20T15:49:11Z</time>
      </trkpt>
      <trkpt lat="47.89917" lon="6.91715">
        <ele>1167.9</ele>
        <time>2023-05-20T15:49:16Z</time>
      </trkpt>
      <trkpt lat="47.89913" lon="6.91708">
        <ele>1166.4</ele>
        <time>2023-05-20T15:49:36Z</time>
      </trkpt>
      <trkpt lat="47.8991" lon="6.91703">
        <ele>1165.4</ele>
        <time>2023-05-20T15:49:48Z</time>
      </trkpt>
      <trkpt lat="47.89884" lon="6.9169">
        <ele>1165.4</ele>
        <time>2023-05-20T15:51:30Z</time>
      </trkpt>
      <trkpt lat="47.89882" lon="6.91689">
        <ele>1165.4</ele>
        <time>2023-05-20T15:51:31Z</time>
      </trkpt>
      <trkpt lat="47.89875" lon="6.91683">
        <ele>1164.7</ele>
        <time>2023-05-20T15:51:38Z</time>
      </trkpt>
      <trkpt lat="47.89869" lon="6.91678">
        <ele>1164.1</ele>
        <time>2023-05-20T15:51:46Z</time>
      </trkpt>
      <trkpt lat="47.89864" lon="6.91666">
        <ele>1161.4</ele>
        <time>2023-05-20T15:51:54Z</time>
      </trkpt>
      <trkpt lat="47.89851" lon="6.91656">
        <ele>1160.7</ele>
        <time>2023-05-20T15:52:07Z</time>
      </trkpt>
      <trkpt lat="47.89845" lon="6.91651">
        <ele>1160.4</ele>
        <time>2023-05-20T15:52:17Z</time>
      </trkpt>
      <trkpt lat="47.89842" lon="6.91646">
        <ele>1159.5</ele>
        <time>2023-05-20T15:52:29Z</time>
      </trkpt>
      <trkpt lat="47.89833" lon="6.91637">
        <ele>1158.4</ele>
        <time>2023-05-20T15:52:40Z</time>
      </trkpt>
      <trkpt lat="47.89828" lon="6.91635">
        <ele>1158.7</ele>
        <time>2023-05-20T15:52:44Z</time>
      </trkpt>
      <trkpt lat="47.89824" lon="6.91631">
        <ele>1158.2</ele>
        <time>2023-05-20T15:52:48Z</time>
      </trkpt>
      <trkpt lat="47.89822" lon="6.91625">
        <ele>1156.7</ele>
        <time>2023-05-20T15:52:53Z</time>
      </trkpt>
      <trkpt lat="47.89818" lon="6.9162">
        <ele>1156</ele>
        <time>2023-05-20T15:52:57Z</time>
      </trkpt>
      <trkpt lat="47.89815" lon="6.91607">
        <ele>1152.7</ele>
        <time>2023-05-20T15:53:05Z</time>
      </trkpt>
      <trkpt lat="47.89813" lon="6.91601">
        <ele>1151.3</ele>
        <time>2023-05-20T15:53:13Z</time>
      </trkpt>
      <trkpt lat="47.8981" lon="6.91595">
        <ele>1150.2</ele>
        <time>2023-05-20T15:53:17Z</time>
      </trkpt>
      <trkpt lat="47.89805" lon="6.9159">
        <ele>1150</ele>
        <time>2023-05-20T15:53:23Z</time>
      </trkpt>
      <trkpt lat="47.89803" lon="6.91581">
        <ele>1147.6</ele>
        <time>2023-05-20T15:53:32Z</time>
      </trkpt>
      <trkpt lat="47.89799" lon="6.91576">
        <ele>1146.7</ele>
        <time>2023-05-20T15:53:35Z</time>
      </trkpt>
      <trkpt lat="47.89781" lon="6.9154">
        <ele>1139.6</ele>
        <time>2023-05-20T15:54:03Z</time>
      </trkpt>
      <trkpt lat="47.89778" lon="6.9153">
        <ele>1137.6</ele>
        <time>2023-05-20T15:54:12Z</time>
      </trkpt>
      <trkpt lat="47.89772" lon="6.91519">
        <ele>1135.7</ele>
        <time>2023-05-20T15:54:22Z</time>
      </trkpt>
      <trkpt lat="47.8977" lon="6.9151">
        <ele>1133.6</ele>
        <time>2023-05-20T15:54:31Z</time>
      </trkpt>
      <trkpt lat="47.89764" lon="6.915">
        <ele>1132.5</ele>
        <time>2023-05-20T15:54:40Z</time>
      </trkpt>
      <trkpt lat="47.89761" lon="6.91493">
        <ele>1131.7</ele>
        <time>2023-05-20T15:54:49Z</time>
      </trkpt>
      <trkpt lat="47.89763" lon="6.91484">
        <ele>1128.8</ele>
        <time>2023-05-20T15:54:57Z</time>
      </trkpt>
      <trkpt lat="47.8976" lon="6.91477">
        <ele>1128</ele>
        <time>2023-05-20T15:55:02Z</time>
      </trkpt>
      <trkpt lat="47.89754" lon="6.91466">
        <ele>1127.3</ele>
        <time>2023-05-20T15:55:11Z</time>
      </trkpt>
      <trkpt lat="47.8975" lon="6.9144">
        <ele>1123.2</ele>
        <time>2023-05-20T15:55:27Z</time>
      </trkpt>
      <trkpt lat="47.8975" lon="6.91434">
        <ele>1122.1</ele>
        <time>2023-05-20T15:55:31Z</time>
      </trkpt>
      <trkpt lat="47.89749" lon="6.91427">
        <ele>1121.2</ele>
        <time>2023-05-20T15:55:35Z</time>
      </trkpt>
      <trkpt lat="47.89745" lon="6.9137">
        <ele>1112.3</ele>
        <time>2023-05-20T15:56:09Z</time>
      </trkpt>
      <trkpt lat="47.89743" lon="6.91364">
        <ele>1112.2</ele>
        <time>2023-05-20T15:56:13Z</time>
      </trkpt>
      <trkpt lat="47.89745" lon="6.91336">
        <ele>1105.9</ele>
        <time>2023-05-20T15:56:33Z</time>
      </trkpt>
      <trkpt lat="47.89742" lon="6.91321">
        <ele>1104.7</ele>
        <time>2023-05-20T15:56:43Z</time>
      </trkpt>
      <trkpt lat="47.89738" lon="6.91284">
        <ele>1100.1</ele>
        <time>2023-05-20T15:57:04Z</time>
      </trkpt>
      <trkpt lat="47.89741" lon="6.91278">
        <ele>1097.2</ele>
        <time>2023-05-20T15:57:09Z</time>
      </trkpt>
      <trkpt lat="47.89738" lon="6.91262">
        <ele>1096.1</ele>
        <time>2023-05-20T15:57:20Z</time>
      </trkpt>
      <trkpt lat="47.89738" lon="6.91255">
        <ele>1094.8</ele>
        <time>2023-05-20T15:57:25Z</time>
      </trkpt>
      <trkpt lat="47.89738" lon="6.91246">
        <ele>1093.2</ele>
        <time>2023-05-20T15:57:34Z</time>
      </trkpt>
      <trkpt lat="47.89741" lon="6.91239">
        <ele>1090.2</ele>
        <time>2023-05-20T15:57:40Z</time>
      </trkpt>
      <trkpt lat="47.89739" lon="6.9123">
        <ele>1089.7</ele>
        <time>2023-05-20T15:57:46Z</time>
      </trkpt>
      <trkpt lat="47.89731" lon="6.91208">
        <ele>1090.7</ele>
        <time>2023-05-20T15:58:00Z</time>
      </trkpt>
      <trkpt lat="47.89731" lon="6.91194">
        <ele>1088.6</ele>
        <time>2023-05-20T15:58:07Z</time>
      </trkpt>
      <trkpt lat="47.89734" lon="6.91187">
        <ele>1087.1</ele>
        <time>2023-05-20T15:58:11Z</time>
      </trkpt>
      <trkpt lat="47.89732" lon="6.9118">
        <ele>1088.5</ele>
        <time>2023-05-20T15:58:14Z</time>
      </trkpt>
      <trkpt lat="47.89736" lon="6.91168">
        <ele>1086.5</ele>
        <time>2023-05-20T15:58:23Z</time>
      </trkpt>
      <trkpt lat="47.89741" lon="6.91167">
        <ele>1083.5</ele>
        <time>2023-05-20T15:58:26Z</time>
      </trkpt>
      <trkpt lat="47.89746" lon="6.91164">
        <ele>1080.7</ele>
        <time>2023-05-20T15:58:30Z</time>
      </trkpt>
      <trkpt lat="47.8975" lon="6.91158">
        <ele>1078.6</ele>
        <time>2023-05-20T15:58:37Z</time>
      </trkpt>
      <trkpt lat="47.89764" lon="6.91115">
        <ele>1069.9</ele>
        <time>2023-05-20T15:59:11Z</time>
      </trkpt>
      <trkpt lat="47.89765" lon="6.91108">
        <ele>1069.2</ele>
        <time>2023-05-20T15:59:16Z</time>
      </trkpt>
      <trkpt lat="47.89767" lon="6.91102">
        <ele>1067.8</ele>
        <time>2023-05-20T15:59:20Z</time>
      </trkpt>
      <trkpt lat="47.89767" lon="6.91094">
        <ele>1067.8</ele>
        <time>2023-05-20T15:59:25Z</time>
      </trkpt>
      <trkpt lat="47.8977" lon="6.91087">
        <ele>1065.6</ele>
        <time>2023-05-20T15:59:29Z</time>
      </trkpt>
      <trkpt lat="47.8977" lon="6.9108">
        <ele>1065.9</ele>
        <time>2023-05-20T15:59:34Z</time>
      </trkpt>
      <trkpt lat="47.89775" lon="6.91075">
        <ele>1063.1</ele>
        <time>2023-05-20T15:59:38Z</time>
      </trkpt>
      <trkpt lat="47.89778" lon="6.91064">
        <ele>1062.6</ele>
        <time>2023-05-20T15:59:47Z</time>
      </trkpt>
      <trkpt lat="47.89782" lon="6.91061">
        <ele>1060.2</ele>
        <time>2023-05-20T15:59:50Z</time>
      </trkpt>
      <trkpt lat="47.89785" lon="6.91043">
        <ele>1058.6</ele>
        <time>2023-05-20T16:00:03Z</time>
      </trkpt>
      <trkpt lat="47.89787" lon="6.91035">
        <ele>1057.1</ele>
        <time>2023-05-20T16:00:09Z</time>
      </trkpt>
      <trkpt lat="47.8979" lon="6.91029">
        <ele>1055.1</ele>
        <time>2023-05-20T16:00:12Z</time>
      </trkpt>
      <trkpt lat="47.89791" lon="6.91003">
        <ele>1051.7</ele>
        <time>2023-05-20T16:00:33Z</time>
      </trkpt>
      <trkpt lat="47.89794" lon="6.90996">
        <ele>1049.1</ele>
        <time>2023-05-20T16:00:38Z</time>
      </trkpt>
      <trkpt lat="47.89796" lon="6.90977">
        <ele>1045.2</ele>
        <time>2023-05-20T16:00:51Z</time>
      </trkpt>
      <trkpt lat="47.8979" lon="6.90958">
        <ele>1044.6</ele>
        <time>2023-05-20T16:01:06Z</time>
      </trkpt>
      <trkpt lat="47.89791" lon="6.90944">
        <ele>1040.8</ele>
        <time>2023-05-20T16:01:14Z</time>
      </trkpt>
      <trkpt lat="47.89788" lon="6.90938">
        <ele>1041</ele>
        <time>2023-05-20T16:01:18Z</time>
      </trkpt>
      <trkpt lat="47.89789" lon="6.90931">
        <ele>1038.9</ele>
        <time>2023-05-20T16:01:22Z</time>
      </trkpt>
      <trkpt lat="47.89786" lon="6.90915">
        <ele>1036.7</ele>
        <time>2023-05-20T16:01:32Z</time>
      </trkpt>
      <trkpt lat="47.89782" lon="6.90908">
        <ele>1036.9</ele>
        <time>2023-05-20T16:01:38Z</time>
      </trkpt>
      <trkpt lat="47.8978" lon="6.90893">
        <ele>1034.1</ele>
        <time>2023-05-20T16:01:46Z</time>
      </trkpt>
      <trkpt lat="47.89777" lon="6.90889">
        <ele>1034.4</ele>
        <time>2023-05-20T16:01:52Z</time>
      </trkpt>
      <trkpt lat="47.8978" lon="6.90876">
        <ele>1029.4</ele>
        <time>2023-05-20T16:02:01Z</time>
      </trkpt>
      <trkpt lat="47.8978" lon="6.90869">
        <ele>1027.4</ele>
        <time>2023-05-20T16:02:04Z</time>
      </trkpt>
      <trkpt lat="47.89776" lon="6.90857">
        <ele>1025.5</ele>
        <time>2023-05-20T16:02:14Z</time>
      </trkpt>
      <trkpt lat="47.89775" lon="6.90847">
        <ele>1023</ele>
        <time>2023-05-20T16:02:19Z</time>
      </trkpt>
      <trkpt lat="47.89772" lon="6.90839">
        <ele>1021.9</ele>
        <time>2023-05-20T16:02:27Z</time>
      </trkpt>
      <trkpt lat="47.8977" lon="6.90831">
        <ele>1020.3</ele>
        <time>2023-05-20T16:02:34Z</time>
      </trkpt>
      <trkpt lat="47.89768" lon="6.90826">
        <ele>1019.4</ele>
        <time>2023-05-20T16:02:37Z</time>
      </trkpt>
      <trkpt lat="47.89766" lon="6.90819">
        <ele>1017.8</ele>
        <time>2023-05-20T16:02:45Z</time>
      </trkpt>
      <trkpt lat="47.89761" lon="6.90813">
        <ele>1017.6</ele>
        <time>2023-05-20T16:02:50Z</time>
      </trkpt>
      <trkpt lat="47.89758" lon="6.90808">
        <ele>1017</ele>
        <time>2023-05-20T16:02:56Z</time>
      </trkpt>
      <trkpt lat="47.89761" lon="6.90801">
        <ele>1013.8</ele>
        <time>2023-05-20T16:03:01Z</time>
      </trkpt>
      <trkpt lat="47.89758" lon="6.90787">
        <ele>1011</ele>
        <time>2023-05-20T16:03:11Z</time>
      </trkpt>
      <trkpt lat="47.89752" lon="6.90783">
        <ele>1011.8</ele>
        <time>2023-05-20T16:03:21Z</time>
      </trkpt>
      <trkpt lat="47.8975" lon="6.90777">
        <ele>1010.8</ele>
        <time>2023-05-20T16:03:25Z</time>
      </trkpt>
      <trkpt lat="47.89749" lon="6.9077">
        <ele>1009.4</ele>
        <time>2023-05-20T16:03:29Z</time>
      </trkpt>
      <trkpt lat="47.89749" lon="6.90742">
        <ele>1002.6</ele>
        <time>2023-05-20T16:03:45Z</time>
      </trkpt>
      <trkpt lat="47.89747" lon="6.90734">
        <ele>1001.6</ele>
        <time>2023-05-20T16:03:54Z</time>
      </trkpt>
      <trkpt lat="47.89737" lon="6.90716">
        <ele>1000.5</ele>
        <time>2023-05-20T16:04:09Z</time>
      </trkpt>
      <trkpt lat="47.89737" lon="6.90705">
        <ele>997.5</ele>
        <time>2023-05-20T16:04:17Z</time>
      </trkpt>
      <trkpt lat="47.8973" lon="6.90692">
        <ele>996.6</ele>
        <time>2023-05-20T16:04:27Z</time>
      </trkpt>
      <trkpt lat="47.89729" lon="6.90685">
        <ele>995.4</ele>
        <time>2023-05-20T16:04:31Z</time>
      </trkpt>
      <trkpt lat="47.89723" lon="6.90664">
        <ele>993.1</ele>
        <time>2023-05-20T16:04:42Z</time>
      </trkpt>
      <trkpt lat="47.89722" lon="6.90655">
        <ele>991.6</ele>
        <time>2023-05-20T16:04:50Z</time>
      </trkpt>
      <trkpt lat="47.89719" lon="6.90647">
        <ele>991.3</ele>
        <time>2023-05-20T16:04:54Z</time>
      </trkpt>
      <trkpt lat="47.89716" lon="6.90617">
        <ele>986.4</ele>
        <time>2023-05-20T16:05:11Z</time>
      </trkpt>
      <trkpt lat="47.89714" lon="6.90611">
        <ele>986.1</ele>
        <time>2023-05-20T16:05:15Z</time>
      </trkpt>
      <trkpt lat="47.89712" lon="6.90602">
        <ele>985.3</ele>
        <time>2023-05-20T16:05:21Z</time>
      </trkpt>
      <trkpt lat="47.89714" lon="6.90587">
        <ele>981.3</ele>
        <time>2023-05-20T16:05:29Z</time>
      </trkpt>
      <trkpt lat="47.89713" lon="6.90581">
        <ele>980.6</ele>
        <time>2023-05-20T16:05:32Z</time>
      </trkpt>
      <trkpt lat="47.89712" lon="6.90553">
        <ele>976</ele>
        <time>2023-05-20T16:05:48Z</time>
      </trkpt>
      <trkpt lat="47.89709" lon="6.90549">
        <ele>976.5</ele>
        <time>2023-05-20T16:05:56Z</time>
      </trkpt>
      <trkpt lat="47.89707" lon="6.90538">
        <ele>975.4</ele>
        <time>2023-05-20T16:06:00Z</time>
      </trkpt>
      <trkpt lat="47.89707" lon="6.90532">
        <ele>974.3</ele>
        <time>2023-05-20T16:06:03Z</time>
      </trkpt>
      <trkpt lat="47.89713" lon="6.90505">
        <ele>967.7</ele>
        <time>2023-05-20T16:06:22Z</time>
      </trkpt>
      <trkpt lat="47.89713" lon="6.90498">
        <ele>966.6</ele>
        <time>2023-05-20T16:06:25Z</time>
      </trkpt>
      <trkpt lat="47.8971" lon="6.90492">
        <ele>967</ele>
        <time>2023-05-20T16:06:29Z</time>
      </trkpt>
      <trkpt lat="47.89711" lon="6.90478">
        <ele>964.2</ele>
        <time>2023-05-20T16:06:41Z</time>
      </trkpt>
      <trkpt lat="47.89709" lon="6.90463">
        <ele>962.2</ele>
        <time>2023-05-20T16:06:50Z</time>
      </trkpt>
      <trkpt lat="47.89705" lon="6.90454">
        <ele>962.1</ele>
        <time>2023-05-20T16:06:58Z</time>
      </trkpt>
      <trkpt lat="47.89705" lon="6.90445">
        <ele>960.2</ele>
        <time>2023-05-20T16:07:06Z</time>
      </trkpt>
      <trkpt lat="47.89704" lon="6.90439">
        <ele>959.4</ele>
        <time>2023-05-20T16:07:11Z</time>
      </trkpt>
      <trkpt lat="47.89705" lon="6.90432">
        <ele>957.5</ele>
        <time>2023-05-20T16:07:15Z</time>
      </trkpt>
      <trkpt lat="47.89703" lon="6.90423">
        <ele>956.6</ele>
        <time>2023-05-20T16:07:20Z</time>
      </trkpt>
      <trkpt lat="47.89703" lon="6.90416">
        <ele>955.2</ele>
        <time>2023-05-20T16:07:23Z</time>
      </trkpt>
      <trkpt lat="47.89698" lon="6.90391">
        <ele>951.5</ele>
        <time>2023-05-20T16:07:40Z</time>
      </trkpt>
      <trkpt lat="47.89693" lon="6.90379">
        <ele>950.3</ele>
        <time>2023-05-20T16:07:48Z</time>
      </trkpt>
      <trkpt lat="47.8969" lon="6.90363">
        <ele>947.7</ele>
        <time>2023-05-20T16:08:02Z</time>
      </trkpt>
      <trkpt lat="47.89679" lon="6.90336">
        <ele>943.2</ele>
        <time>2023-05-20T16:08:24Z</time>
      </trkpt>
      <trkpt lat="47.89668" lon="6.90315">
        <ele>938.4</ele>
        <time>2023-05-20T16:08:39Z</time>
      </trkpt>
      <trkpt lat="47.8966" lon="6.90309">
        <ele>937.1</ele>
        <time>2023-05-20T16:08:48Z</time>
      </trkpt>
      <trkpt lat="47.89656" lon="6.90307">
        <ele>936.7</ele>
        <time>2023-05-20T16:08:52Z</time>
      </trkpt>
      <trkpt lat="47.89646" lon="6.90294">
        <ele>933</ele>
        <time>2023-05-20T16:09:04Z</time>
      </trkpt>
      <trkpt lat="47.89641" lon="6.90289">
        <ele>931.8</ele>
        <time>2023-05-20T16:09:12Z</time>
      </trkpt>
      <trkpt lat="47.89623" lon="6.90266">
        <ele>924.6</ele>
        <time>2023-05-20T16:09:32Z</time>
      </trkpt>
      <trkpt lat="47.89614" lon="6.90265">
        <ele>924.7</ele>
        <time>2023-05-20T16:09:44Z</time>
      </trkpt>
      <trkpt lat="47.89587" lon="6.90241">
        <ele>917.1</ele>
        <time>2023-05-20T16:10:16Z</time>
      </trkpt>
      <trkpt lat="47.89582" lon="6.90239">
        <ele>916.3</ele>
        <time>2023-05-20T16:10:22Z</time>
      </trkpt>
      <trkpt lat="47.89579" lon="6.90234">
        <ele>914.3</ele>
        <time>2023-05-20T16:10:26Z</time>
      </trkpt>
      <trkpt lat="47.89575" lon="6.90231">
        <ele>912.7</ele>
        <time>2023-05-20T16:10:33Z</time>
      </trkpt>
      <trkpt lat="47.8957" lon="6.90229">
        <ele>911.4</ele>
        <time>2023-05-20T16:10:39Z</time>
      </trkpt>
      <trkpt lat="47.89565" lon="6.90226">
        <ele>909.7</ele>
        <time>2023-05-20T16:10:47Z</time>
      </trkpt>
      <trkpt lat="47.89562" lon="6.90221">
        <ele>907.6</ele>
        <time>2023-05-20T16:10:51Z</time>
      </trkpt>
      <trkpt lat="47.89557" lon="6.90217">
        <ele>905.9</ele>
        <time>2023-05-20T16:10:57Z</time>
      </trkpt>
      <trkpt lat="47.89553" lon="6.90212">
        <ele>904.8</ele>
        <time>2023-05-20T16:11:01Z</time>
      </trkpt>
      <trkpt lat="47.89549" lon="6.90209">
        <ele>904.6</ele>
        <time>2023-05-20T16:11:05Z</time>
      </trkpt>
      <trkpt lat="47.8954" lon="6.90206">
        <ele>905.2</ele>
        <time>2023-05-20T16:11:15Z</time>
      </trkpt>
      <trkpt lat="47.8953" lon="6.90196">
        <ele>904.1</ele>
        <time>2023-05-20T16:11:27Z</time>
      </trkpt>
      <trkpt lat="47.89528" lon="6.90191">
        <ele>903.2</ele>
        <time>2023-05-20T16:11:30Z</time>
      </trkpt>
      <trkpt lat="47.89527" lon="6.90184">
        <ele>902</ele>
        <time>2023-05-20T16:11:37Z</time>
      </trkpt>
      <trkpt lat="47.89527" lon="6.9017">
        <ele>898.9</ele>
        <time>2023-05-20T16:11:44Z</time>
      </trkpt>
      <trkpt lat="47.89525" lon="6.90164">
        <ele>898.1</ele>
        <time>2023-05-20T16:11:47Z</time>
      </trkpt>
      <trkpt lat="47.89518" lon="6.90155">
        <ele>897.9</ele>
        <time>2023-05-20T16:11:54Z</time>
      </trkpt>
      <trkpt lat="47.89518" lon="6.90145">
        <ele>895.4</ele>
        <time>2023-05-20T16:11:59Z</time>
      </trkpt>
      <trkpt lat="47.89516" lon="6.9014">
        <ele>894.7</ele>
        <time>2023-05-20T16:12:04Z</time>
      </trkpt>
      <trkpt lat="47.89512" lon="6.9011">
        <ele>889.8</ele>
        <time>2023-05-20T16:12:21Z</time>
      </trkpt>
      <trkpt lat="47.89513" lon="6.90088">
        <ele>886.8</ele>
        <time>2023-05-20T16:12:33Z</time>
      </trkpt>
      <trkpt lat="47.89515" lon="6.90076">
        <ele>884.6</ele>
        <time>2023-05-20T16:12:42Z</time>
      </trkpt>
      <trkpt lat="47.89518" lon="6.90071">
        <ele>883</ele>
        <time>2023-05-20T16:12:44Z</time>
      </trkpt>
      <trkpt lat="47.89518" lon="6.90061">
        <ele>881.6</ele>
        <time>2023-05-20T16:12:51Z</time>
      </trkpt>
      <trkpt lat="47.89516" lon="6.90052">
        <ele>880.6</ele>
        <time>2023-05-20T16:12:59Z</time>
      </trkpt>
      <trkpt lat="47.89514" lon="6.90046">
        <ele>879.9</ele>
        <time>2023-05-20T16:13:03Z</time>
      </trkpt>
      <trkpt lat="47.89511" lon="6.9004">
        <ele>879.4</ele>
        <time>2023-05-20T16:13:07Z</time>
      </trkpt>
      <trkpt lat="47.89509" lon="6.90031">
        <ele>877.8</ele>
        <time>2023-05-20T16:13:15Z</time>
      </trkpt>
      <trkpt lat="47.89506" lon="6.90026">
        <ele>877.2</ele>
        <time>2023-05-20T16:13:20Z</time>
      </trkpt>
      <trkpt lat="47.895" lon="6.90022">
        <ele>877.5</ele>
        <time>2023-05-20T16:13:29Z</time>
      </trkpt>
      <trkpt lat="47.89498" lon="6.90009">
        <ele>874.5</ele>
        <time>2023-05-20T16:13:37Z</time>
      </trkpt>
      <trkpt lat="47.89487" lon="6.8999">
        <ele>871</ele>
        <time>2023-05-20T16:13:54Z</time>
      </trkpt>
      <trkpt lat="47.89483" lon="6.89989">
        <ele>871.3</ele>
        <time>2023-05-20T16:13:58Z</time>
      </trkpt>
      <trkpt lat="47.89479" lon="6.89981">
        <ele>869.6</ele>
        <time>2023-05-20T16:14:05Z</time>
      </trkpt>
      <trkpt lat="47.89476" lon="6.89975">
        <ele>868.3</ele>
        <time>2023-05-20T16:14:08Z</time>
      </trkpt>
      <trkpt lat="47.89471" lon="6.89965">
        <ele>865.9</ele>
        <time>2023-05-20T16:14:19Z</time>
      </trkpt>
      <trkpt lat="47.89454" lon="6.89945">
        <ele>863.8</ele>
        <time>2023-05-20T16:14:38Z</time>
      </trkpt>
      <trkpt lat="47.89451" lon="6.89935">
        <ele>860.9</ele>
        <time>2023-05-20T16:14:45Z</time>
      </trkpt>
      <trkpt lat="47.89448" lon="6.89929">
        <ele>859.5</ele>
        <time>2023-05-20T16:14:51Z</time>
      </trkpt>
      <trkpt lat="47.89443" lon="6.89925">
        <ele>859.3</ele>
        <time>2023-05-20T16:14:55Z</time>
      </trkpt>
      <trkpt lat="47.89442" lon="6.89916">
        <ele>856.4</ele>
        <time>2023-05-20T16:15:01Z</time>
      </trkpt>
      <trkpt lat="47.89434" lon="6.89901">
        <ele>853.6</ele>
        <time>2023-05-20T16:15:15Z</time>
      </trkpt>
      <trkpt lat="47.8943" lon="6.89897">
        <ele>853.3</ele>
        <time>2023-05-20T16:15:18Z</time>
      </trkpt>
      <trkpt lat="47.89425" lon="6.89886">
        <ele>850.8</ele>
        <time>2023-05-20T16:15:25Z</time>
      </trkpt>
      <trkpt lat="47.89423" lon="6.8988">
        <ele>849</ele>
        <time>2023-05-20T16:15:29Z</time>
      </trkpt>
      <trkpt lat="47.89415" lon="6.89866">
        <ele>844.9</ele>
        <time>2023-05-20T16:15:43Z</time>
      </trkpt>
      <trkpt lat="47.89404" lon="6.89855">
        <ele>840.2</ele>
        <time>2023-05-20T16:15:59Z</time>
      </trkpt>
      <trkpt lat="47.89399" lon="6.89854">
        <ele>839.6</ele>
        <time>2023-05-20T16:16:03Z</time>
      </trkpt>
      <trkpt lat="47.89395" lon="6.89854">
        <ele>839.5</ele>
        <time>2023-05-20T16:16:08Z</time>
      </trkpt>
      <trkpt lat="47.8939" lon="6.89851">
        <ele>838.1</ele>
        <time>2023-05-20T16:16:14Z</time>
      </trkpt>
      <trkpt lat="47.89384" lon="6.89852">
        <ele>837</ele>
        <time>2023-05-20T16:16:21Z</time>
      </trkpt>
      <trkpt lat="47.89378" lon="6.89852">
        <ele>835.2</ele>
        <time>2023-05-20T16:16:28Z</time>
      </trkpt>
      <trkpt lat="47.89368" lon="6.89858">
        <ele>834.3</ele>
        <time>2023-05-20T16:16:42Z</time>
      </trkpt>
      <trkpt lat="47.89348" lon="6.89863">
        <ele>830.5</ele>
        <time>2023-05-20T16:17:01Z</time>
      </trkpt>
      <trkpt lat="47.89344" lon="6.89866">
        <ele>830.5</ele>
        <time>2023-05-20T16:17:05Z</time>
      </trkpt>
      <trkpt lat="47.89335" lon="6.89866">
        <ele>827.9</ele>
        <time>2023-05-20T16:17:15Z</time>
      </trkpt>
      <trkpt lat="47.89332" lon="6.89872">
        <ele>828.5</ele>
        <time>2023-05-20T16:17:19Z</time>
      </trkpt>
      <trkpt lat="47.89327" lon="6.89877">
        <ele>827.7</ele>
        <time>2023-05-20T16:17:25Z</time>
      </trkpt>
      <trkpt lat="47.89316" lon="6.89886">
        <ele>825.1</ele>
        <time>2023-05-20T16:17:38Z</time>
      </trkpt>
      <trkpt lat="47.89313" lon="6.89891">
        <ele>825</ele>
        <time>2023-05-20T16:17:41Z</time>
      </trkpt>
      <trkpt lat="47.89309" lon="6.89894">
        <ele>823.8</ele>
        <time>2023-05-20T16:17:46Z</time>
      </trkpt>
      <trkpt lat="47.89304" lon="6.89893">
        <ele>821.2</ele>
        <time>2023-05-20T16:17:50Z</time>
      </trkpt>
      <trkpt lat="47.89298" lon="6.899">
        <ele>820</ele>
        <time>2023-05-20T16:17:58Z</time>
      </trkpt>
      <trkpt lat="47.89293" lon="6.89901">
        <ele>818</ele>
        <time>2023-05-20T16:18:03Z</time>
      </trkpt>
      <trkpt lat="47.89281" lon="6.8991">
        <ele>814.3</ele>
        <time>2023-05-20T16:18:15Z</time>
      </trkpt>
      <trkpt lat="47.89278" lon="6.89916">
        <ele>814</ele>
        <time>2023-05-20T16:18:24Z</time>
      </trkpt>
      <trkpt lat="47.89274" lon="6.89913">
        <ele>812.9</ele>
        <time>2023-05-20T16:18:29Z</time>
      </trkpt>
      <trkpt lat="47.8927" lon="6.89908">
        <ele>811.4</ele>
        <time>2023-05-20T16:18:31Z</time>
      </trkpt>
      <trkpt lat="47.89265" lon="6.89908">
        <ele>810.8</ele>
        <time>2023-05-20T16:18:35Z</time>
      </trkpt>
      <trkpt lat="47.89259" lon="6.89906">
        <ele>809.5</ele>
        <time>2023-05-20T16:18:38Z</time>
      </trkpt>
      <trkpt lat="47.89255" lon="6.89911">
        <ele>810.2</ele>
        <time>2023-05-20T16:18:42Z</time>
      </trkpt>
      <trkpt lat="47.8925" lon="6.89912">
        <ele>809.8</ele>
        <time>2023-05-20T16:18:47Z</time>
      </trkpt>
      <trkpt lat="47.89244" lon="6.89918">
        <ele>811.2</ele>
        <time>2023-05-20T16:18:54Z</time>
      </trkpt>
      <trkpt lat="47.89234" lon="6.89918">
        <ele>810.8</ele>
        <time>2023-05-20T16:19:01Z</time>
      </trkpt>
      <trkpt lat="47.89229" lon="6.89919">
        <ele>810.9</ele>
        <time>2023-05-20T16:19:05Z</time>
      </trkpt>
      <trkpt lat="47.89225" lon="6.89913">
        <ele>809.3</ele>
        <time>2023-05-20T16:19:08Z</time>
      </trkpt>
      <trkpt lat="47.89221" lon="6.89909">
        <ele>808.5</ele>
        <time>2023-05-20T16:19:12Z</time>
      </trkpt>
      <trkpt lat="47.89206" lon="6.89903">
        <ele>808.8</ele>
        <time>2023-05-20T16:19:24Z</time>
      </trkpt>
      <trkpt lat="47.8919" lon="6.89888">
        <ele>805.9</ele>
        <time>2023-05-20T16:19:41Z</time>
      </trkpt>
      <trkpt lat="47.89179" lon="6.89887">
        <ele>806</ele>
        <time>2023-05-20T16:19:48Z</time>
      </trkpt>
      <trkpt lat="47.89168" lon="6.89878">
        <ele>803.8</ele>
        <time>2023-05-20T16:19:59Z</time>
      </trkpt>
      <trkpt lat="47.89165" lon="6.89872">
        <ele>802.3</ele>
        <time>2023-05-20T16:20:03Z</time>
      </trkpt>
      <trkpt lat="47.89143" lon="6.89858">
        <ele>800.6</ele>
        <time>2023-05-20T16:20:24Z</time>
      </trkpt>
      <trkpt lat="47.89136" lon="6.89849">
        <ele>798.6</ele>
        <time>2023-05-20T16:20:33Z</time>
      </trkpt>
      <trkpt lat="47.89124" lon="6.89837">
        <ele>796.5</ele>
        <time>2023-05-20T16:20:46Z</time>
      </trkpt>
      <trkpt lat="47.89105" lon="6.89797">
        <ele>791.6</ele>
        <time>2023-05-20T16:21:10Z</time>
      </trkpt>
      <trkpt lat="47.89101" lon="6.89783">
        <ele>790.1</ele>
        <time>2023-05-20T16:21:18Z</time>
      </trkpt>
      <trkpt lat="47.89101" lon="6.89775">
        <ele>789.3</ele>
        <time>2023-05-20T16:21:22Z</time>
      </trkpt>
      <trkpt lat="47.89103" lon="6.89755">
        <ele>789.3</ele>
        <time>2023-05-20T16:21:31Z</time>
      </trkpt>
      <trkpt lat="47.89098" lon="6.89752">
        <ele>788.3</ele>
        <time>2023-05-20T16:21:36Z</time>
      </trkpt>
      <trkpt lat="47.89094" lon="6.89757">
        <ele>787.9</ele>
        <time>2023-05-20T16:21:41Z</time>
      </trkpt>
      <trkpt lat="47.8909" lon="6.8976">
        <ele>787.6</ele>
        <time>2023-05-20T16:21:46Z</time>
      </trkpt>
      <trkpt lat="47.89082" lon="6.89762">
        <ele>786.9</ele>
        <time>2023-05-20T16:22:00Z</time>
      </trkpt>
      <trkpt lat="47.89067" lon="6.89751">
        <ele>782.2</ele>
        <time>2023-05-20T16:22:16Z</time>
      </trkpt>
      <trkpt lat="47.89061" lon="6.8975">
        <ele>781</ele>
        <time>2023-05-20T16:22:19Z</time>
      </trkpt>
      <trkpt lat="47.89057" lon="6.8975">
        <ele>780.3</ele>
        <time>2023-05-20T16:22:22Z</time>
      </trkpt>
      <trkpt lat="47.89054" lon="6.89745">
        <ele>778.9</ele>
        <time>2023-05-20T16:22:26Z</time>
      </trkpt>
      <trkpt lat="47.89052" lon="6.8974">
        <ele>777.7</ele>
        <time>2023-05-20T16:22:30Z</time>
      </trkpt>
      <trkpt lat="47.89044" lon="6.89733">
        <ele>774.2</ele>
        <time>2023-05-20T16:22:38Z</time>
      </trkpt>
      <trkpt lat="47.89042" lon="6.89725">
        <ele>773.6</ele>
        <time>2023-05-20T16:22:44Z</time>
      </trkpt>
      <trkpt lat="47.89037" lon="6.89722">
        <ele>772</ele>
        <time>2023-05-20T16:22:48Z</time>
      </trkpt>
      <trkpt lat="47.89032" lon="6.89723">
        <ele>770.3</ele>
        <time>2023-05-20T16:22:52Z</time>
      </trkpt>
      <trkpt lat="47.89034" lon="6.89731">
        <ele>770.4</ele>
        <time>2023-05-20T16:22:59Z</time>
      </trkpt>
      <trkpt lat="47.89036" lon="6.89736">
        <ele>770.9</ele>
        <time>2023-05-20T16:23:03Z</time>
      </trkpt>
      <trkpt lat="47.89037" lon="6.89743">
        <ele>771</ele>
        <time>2023-05-20T16:23:07Z</time>
      </trkpt>
      <trkpt lat="47.89029" lon="6.89767">
        <ele>765.6</ele>
        <time>2023-05-20T16:23:20Z</time>
      </trkpt>
      <trkpt lat="47.89029" lon="6.89775">
        <ele>765.1</ele>
        <time>2023-05-20T16:23:23Z</time>
      </trkpt>
      <trkpt lat="47.8903" lon="6.89781">
        <ele>765.2</ele>
        <time>2023-05-20T16:23:28Z</time>
      </trkpt>
      <trkpt lat="47.89031" lon="6.89803">
        <ele>763</ele>
        <time>2023-05-20T16:23:47Z</time>
      </trkpt>
      <trkpt lat="47.89026" lon="6.89799">
        <ele>759.8</ele>
        <time>2023-05-20T16:23:50Z</time>
      </trkpt>
      <trkpt lat="47.89018" lon="6.89789">
        <ele>755.8</ele>
        <time>2023-05-20T16:23:58Z</time>
      </trkpt>
      <trkpt lat="47.88999" lon="6.89772">
        <ele>745</ele>
        <time>2023-05-20T16:24:16Z</time>
      </trkpt>
      <trkpt lat="47.88996" lon="6.89768">
        <ele>744.1</ele>
        <time>2023-05-20T16:24:20Z</time>
      </trkpt>
      <trkpt lat="47.88999" lon="6.89755">
        <ele>746.2</ele>
        <time>2023-05-20T16:24:27Z</time>
      </trkpt>
      <trkpt lat="47.88994" lon="6.89751">
        <ele>744.6</ele>
        <time>2023-05-20T16:24:36Z</time>
      </trkpt>
      <trkpt lat="47.88987" lon="6.89728">
        <ele>744.3</ele>
        <time>2023-05-20T16:24:48Z</time>
      </trkpt>
      <trkpt lat="47.88978" lon="6.89711">
        <ele>741.1</ele>
        <time>2023-05-20T16:25:01Z</time>
      </trkpt>
      <trkpt lat="47.88975" lon="6.89703">
        <ele>740</ele>
        <time>2023-05-20T16:25:06Z</time>
      </trkpt>
      <trkpt lat="47.88974" lon="6.89696">
        <ele>740</ele>
        <time>2023-05-20T16:25:11Z</time>
      </trkpt>
      <trkpt lat="47.88976" lon="6.89689">
        <ele>741.1</ele>
        <time>2023-05-20T16:25:14Z</time>
      </trkpt>
      <trkpt lat="47.88975" lon="6.89682">
        <ele>740.3</ele>
        <time>2023-05-20T16:25:16Z</time>
      </trkpt>
      <trkpt lat="47.8898" lon="6.89665">
        <ele>742.7</ele>
        <time>2023-05-20T16:25:26Z</time>
      </trkpt>
      <trkpt lat="47.88981" lon="6.8965">
        <ele>742.8</ele>
        <time>2023-05-20T16:25:34Z</time>
      </trkpt>
      <trkpt lat="47.88981" lon="6.89639">
        <ele>742.4</ele>
        <time>2023-05-20T16:25:43Z</time>
      </trkpt>
      <trkpt lat="47.88979" lon="6.89624">
        <ele>740.1</ele>
        <time>2023-05-20T16:25:52Z</time>
      </trkpt>
      <trkpt lat="47.88976" lon="6.89619">
        <ele>737.9</ele>
        <time>2023-05-20T16:25:56Z</time>
      </trkpt>
      <trkpt lat="47.88976" lon="6.89622">
        <ele>738.1</ele>
        <time>2023-05-20T16:26:07Z</time>
      </trkpt>
      <trkpt lat="47.88971" lon="6.8964">
        <ele>736.5</ele>
        <time>2023-05-20T16:26:19Z</time>
      </trkpt>
      <trkpt lat="47.88969" lon="6.8965">
        <ele>736.1</ele>
        <time>2023-05-20T16:26:29Z</time>
      </trkpt>
      <trkpt lat="47.88965" lon="6.89664">
        <ele>735.5</ele>
        <time>2023-05-20T16:26:42Z</time>
      </trkpt>
      <trkpt lat="47.8896" lon="6.8966">
        <ele>733.5</ele>
        <time>2023-05-20T16:26:45Z</time>
      </trkpt>
      <trkpt lat="47.88941" lon="6.89633">
        <ele>726.7</ele>
        <time>2023-05-20T16:27:01Z</time>
      </trkpt>
      <trkpt lat="47.88935" lon="6.89632">
        <ele>730.2</ele>
        <time>2023-05-20T16:27:09Z</time>
      </trkpt>
      <trkpt lat="47.88938" lon="6.89635">
        <ele>728.6</ele>
        <time>2023-05-20T16:27:23Z</time>
      </trkpt>
      <trkpt lat="47.88949" lon="6.89647">
        <ele>728</ele>
        <time>2023-05-20T16:27:32Z</time>
      </trkpt>
      <trkpt lat="47.88951" lon="6.89639">
        <ele>727.8</ele>
        <time>2023-05-20T16:28:05Z</time>
      </trkpt>
      <trkpt lat="47.88946" lon="6.89642">
        <ele>726.1</ele>
        <time>2023-05-20T16:30:24Z</time>
      </trkpt>
      <trkpt lat="47.88943" lon="6.89636">
        <ele>725.7</ele>
        <time>2023-05-20T16:30:27Z</time>
      </trkpt>
      <trkpt lat="47.88938" lon="6.89633">
        <ele>728.5</ele>
        <time>2023-05-20T16:30:40Z</time>
      </trkpt>
      <trkpt lat="47.88931" lon="6.89633">
        <ele>732.7</ele>
        <time>2023-05-20T16:30:43Z</time>
      </trkpt>
      <trkpt lat="47.88929" lon="6.89625">
        <ele>733.2</ele>
        <time>2023-05-20T16:30:47Z</time>
      </trkpt>
      <trkpt lat="47.88921" lon="6.89612">
        <ele>736.6</ele>
        <time>2023-05-20T16:30:58Z</time>
      </trkpt>
      <trkpt lat="47.88926" lon="6.89619">
        <ele>734.4</ele>
        <time>2023-05-20T16:31:05Z</time>
      </trkpt>
      <trkpt lat="47.88928" lon="6.89627">
        <ele>734</ele>
        <time>2023-05-20T16:31:09Z</time>
      </trkpt>
      <trkpt lat="47.88931" lon="6.89645">
        <ele>734.2</ele>
        <time>2023-05-20T16:31:20Z</time>
      </trkpt>
      <trkpt lat="47.88931" lon="6.89663">
        <ele>737.1</ele>
        <time>2023-05-20T16:31:34Z</time>
      </trkpt>
      <trkpt lat="47.88937" lon="6.89677">
        <ele>734.4</ele>
        <time>2023-05-20T16:31:44Z</time>
      </trkpt>
      <trkpt lat="47.88937" lon="6.89688">
        <ele>735</ele>
        <time>2023-05-20T16:31:54Z</time>
      </trkpt>
      <trkpt lat="47.88936" lon="6.89704">
        <ele>736.2</ele>
        <time>2023-05-20T16:32:03Z</time>
      </trkpt>
      <trkpt lat="47.88932" lon="6.89709">
        <ele>739.2</ele>
        <time>2023-05-20T16:32:07Z</time>
      </trkpt>
      <trkpt lat="47.88931" lon="6.89716">
        <ele>740.1</ele>
        <time>2023-05-20T16:32:11Z</time>
      </trkpt>
      <trkpt lat="47.88932" lon="6.89724">
        <ele>739.4</ele>
        <time>2023-05-20T16:32:15Z</time>
      </trkpt>
      <trkpt lat="47.88935" lon="6.89731">
        <ele>737.1</ele>
        <time>2023-05-20T16:32:20Z</time>
      </trkpt>
      <trkpt lat="47.88934" lon="6.8974">
        <ele>737.9</ele>
        <time>2023-05-20T16:32:27Z</time>
      </trkpt>
      <trkpt lat="47.88934" lon="6.89764">
        <ele>738.1</ele>
        <time>2023-05-20T16:32:41Z</time>
      </trkpt>
      <trkpt lat="47.88932" lon="6.8977">
        <ele>739.7</ele>
        <time>2023-05-20T16:32:46Z</time>
      </trkpt>
      <trkpt lat="47.88932" lon="6.89783">
        <ele>739.6</ele>
        <time>2023-05-20T16:32:53Z</time>
      </trkpt>
      <trkpt lat="47.88935" lon="6.89789">
        <ele>736.8</ele>
        <time>2023-05-20T16:32:57Z</time>
      </trkpt>
      <trkpt lat="47.88933" lon="6.89795">
        <ele>738.1</ele>
        <time>2023-05-20T16:33:01Z</time>
      </trkpt>
      <trkpt lat="47.88931" lon="6.89803">
        <ele>739.3</ele>
        <time>2023-05-20T16:33:09Z</time>
      </trkpt>
      <trkpt lat="47.88929" lon="6.89819">
        <ele>739.8</ele>
        <time>2023-05-20T16:33:18Z</time>
      </trkpt>
      <trkpt lat="47.88927" lon="6.89827">
        <ele>740.7</ele>
        <time>2023-05-20T16:33:23Z</time>
      </trkpt>
      <trkpt lat="47.88925" lon="6.89841">
        <ele>740.8</ele>
        <time>2023-05-20T16:33:31Z</time>
      </trkpt>
      <trkpt lat="47.88923" lon="6.89847">
        <ele>741.5</ele>
        <time>2023-05-20T16:33:34Z</time>
      </trkpt>
      <trkpt lat="47.88919" lon="6.89859">
        <ele>742.7</ele>
        <time>2023-05-20T16:33:42Z</time>
      </trkpt>
      <trkpt lat="47.88916" lon="6.89866">
        <ele>743.5</ele>
        <time>2023-05-20T16:33:45Z</time>
      </trkpt>
      <trkpt lat="47.88911" lon="6.89884">
        <ele>744.3</ele>
        <time>2023-05-20T16:33:59Z</time>
      </trkpt>
      <trkpt lat="47.8891" lon="6.89891">
        <ele>743.8</ele>
        <time>2023-05-20T16:34:07Z</time>
      </trkpt>
      <trkpt lat="47.88904" lon="6.89905">
        <ele>746.4</ele>
        <time>2023-05-20T16:34:15Z</time>
      </trkpt>
      <trkpt lat="47.88902" lon="6.89912">
        <ele>746.7</ele>
        <time>2023-05-20T16:34:20Z</time>
      </trkpt>
      <trkpt lat="47.88896" lon="6.89925">
        <ele>748.8</ele>
        <time>2023-05-20T16:34:28Z</time>
      </trkpt>
      <trkpt lat="47.88895" lon="6.89934">
        <ele>747.5</ele>
        <time>2023-05-20T16:34:34Z</time>
      </trkpt>
      <trkpt lat="47.88893" lon="6.89943">
        <ele>747</ele>
        <time>2023-05-20T16:34:39Z</time>
      </trkpt>
      <trkpt lat="47.88889" lon="6.89948">
        <ele>749</ele>
        <time>2023-05-20T16:34:42Z</time>
      </trkpt>
      <trkpt lat="47.88879" lon="6.89968">
        <ele>752.4</ele>
        <time>2023-05-20T16:34:53Z</time>
      </trkpt>
      <trkpt lat="47.88878" lon="6.89974">
        <ele>751.6</ele>
        <time>2023-05-20T16:34:58Z</time>
      </trkpt>
      <trkpt lat="47.88877" lon="6.89981">
        <ele>750.9</ele>
        <time>2023-05-20T16:35:03Z</time>
      </trkpt>
      <trkpt lat="47.88878" lon="6.89991">
        <ele>747.8</ele>
        <time>2023-05-20T16:35:14Z</time>
      </trkpt>
      <trkpt lat="47.88875" lon="6.89997">
        <ele>749.1</ele>
        <time>2023-05-20T16:35:18Z</time>
      </trkpt>
      <trkpt lat="47.88874" lon="6.90008">
        <ele>747.2</ele>
        <time>2023-05-20T16:35:23Z</time>
      </trkpt>
      <trkpt lat="47.88871" lon="6.90015">
        <ele>748</ele>
        <time>2023-05-20T16:35:34Z</time>
      </trkpt>
      <trkpt lat="47.88864" lon="6.90019">
        <ele>753</ele>
        <time>2023-05-20T16:35:37Z</time>
      </trkpt>
      <trkpt lat="47.88859" lon="6.90023">
        <ele>756.4</ele>
        <time>2023-05-20T16:35:40Z</time>
      </trkpt>
      <trkpt lat="47.88861" lon="6.90031">
        <ele>752.2</ele>
        <time>2023-05-20T16:35:43Z</time>
      </trkpt>
      <trkpt lat="47.88859" lon="6.90037">
        <ele>752.5</ele>
        <time>2023-05-20T16:35:47Z</time>
      </trkpt>
      <trkpt lat="47.88856" lon="6.90047">
        <ele>752.9</ele>
        <time>2023-05-20T16:35:52Z</time>
      </trkpt>
      <trkpt lat="47.88856" lon="6.90054">
        <ele>751.1</ele>
        <time>2023-05-20T16:35:57Z</time>
      </trkpt>
      <trkpt lat="47.88854" lon="6.9006">
        <ele>751.9</ele>
        <time>2023-05-20T16:36:01Z</time>
      </trkpt>
      <trkpt lat="47.88853" lon="6.90075">
        <ele>749.6</ele>
        <time>2023-05-20T16:36:07Z</time>
      </trkpt>
      <trkpt lat="47.88852" lon="6.90082">
        <ele>749.1</ele>
        <time>2023-05-20T16:36:11Z</time>
      </trkpt>
      <trkpt lat="47.88851" lon="6.90089">
        <ele>748.2</ele>
        <time>2023-05-20T16:36:19Z</time>
      </trkpt>
      <trkpt lat="47.88851" lon="6.90108">
        <ele>742.5</ele>
        <time>2023-05-20T16:36:30Z</time>
      </trkpt>
      <trkpt lat="47.88849" lon="6.90116">
        <ele>742</ele>
        <time>2023-05-20T16:36:33Z</time>
      </trkpt>
      <trkpt lat="47.88845" lon="6.9012">
        <ele>744.7</ele>
        <time>2023-05-20T16:36:38Z</time>
      </trkpt>
      <trkpt lat="47.88843" lon="6.90126">
        <ele>744.6</ele>
        <time>2023-05-20T16:36:41Z</time>
      </trkpt>
      <trkpt lat="47.88842" lon="6.90133">
        <ele>743</ele>
        <time>2023-05-20T16:36:44Z</time>
      </trkpt>
      <trkpt lat="47.88839" lon="6.9014">
        <ele>743.3</ele>
        <time>2023-05-20T16:36:48Z</time>
      </trkpt>
      <trkpt lat="47.88835" lon="6.90144">
        <ele>745.8</ele>
        <time>2023-05-20T16:36:52Z</time>
      </trkpt>
      <trkpt lat="47.88831" lon="6.90147">
        <ele>747.6</ele>
        <time>2023-05-20T16:36:56Z</time>
      </trkpt>
      <trkpt lat="47.88827" lon="6.90151">
        <ele>748.4</ele>
        <time>2023-05-20T16:36:59Z</time>
      </trkpt>
      <trkpt lat="47.88825" lon="6.90159">
        <ele>746.9</ele>
        <time>2023-05-20T16:37:12Z</time>
      </trkpt>
      <trkpt lat="47.88821" lon="6.90165">
        <ele>747.2</ele>
        <time>2023-05-20T16:37:16Z</time>
      </trkpt>
      <trkpt lat="47.88816" lon="6.90168">
        <ele>749</ele>
        <time>2023-05-20T16:37:20Z</time>
      </trkpt>
      <trkpt lat="47.88813" lon="6.90174">
        <ele>748.9</ele>
        <time>2023-05-20T16:37:23Z</time>
      </trkpt>
      <trkpt lat="47.88811" lon="6.90188">
        <ele>746.2</ele>
        <time>2023-05-20T16:37:30Z</time>
      </trkpt>
      <trkpt lat="47.88805" lon="6.90199">
        <ele>747.1</ele>
        <time>2023-05-20T16:37:38Z</time>
      </trkpt>
      <trkpt lat="47.88799" lon="6.90208">
        <ele>748</ele>
        <time>2023-05-20T16:37:45Z</time>
      </trkpt>
      <trkpt lat="47.88797" lon="6.90215">
        <ele>747.4</ele>
        <time>2023-05-20T16:37:49Z</time>
      </trkpt>
      <trkpt lat="47.88782" lon="6.90235">
        <ele>751.7</ele>
        <time>2023-05-20T16:38:06Z</time>
      </trkpt>
      <trkpt lat="47.88775" lon="6.90237">
        <ele>755.5</ele>
        <time>2023-05-20T16:38:12Z</time>
      </trkpt>
      <trkpt lat="47.88769" lon="6.90231">
        <ele>759.9</ele>
        <time>2023-05-20T16:38:17Z</time>
      </trkpt>
      <trkpt lat="47.8877" lon="6.90247">
        <ele>757.2</ele>
        <time>2023-05-20T16:38:29Z</time>
      </trkpt>
      <trkpt lat="47.8876" lon="6.90266">
        <ele>761.5</ele>
        <time>2023-05-20T16:38:45Z</time>
      </trkpt>
      <trkpt lat="47.88762" lon="6.90282">
        <ele>758.9</ele>
        <time>2023-05-20T16:39:02Z</time>
      </trkpt>
      <trkpt lat="47.88759" lon="6.9029">
        <ele>760.3</ele>
        <time>2023-05-20T16:39:16Z</time>
      </trkpt>
      <trkpt lat="47.88752" lon="6.90299">
        <ele>764.2</ele>
        <time>2023-05-20T16:39:26Z</time>
      </trkpt>
      <trkpt lat="47.88749" lon="6.90305">
        <ele>765.9</ele>
        <time>2023-05-20T16:39:31Z</time>
      </trkpt>
      <trkpt lat="47.88748" lon="6.90315">
        <ele>766.3</ele>
        <time>2023-05-20T16:39:37Z</time>
      </trkpt>
      <trkpt lat="47.88747" lon="6.90333">
        <ele>766.3</ele>
        <time>2023-05-20T16:39:47Z</time>
      </trkpt>
      <trkpt lat="47.88742" lon="6.90357">
        <ele>766.6</ele>
        <time>2023-05-20T16:40:02Z</time>
      </trkpt>
      <trkpt lat="47.88739" lon="6.90365">
        <ele>767.6</ele>
        <time>2023-05-20T16:40:07Z</time>
      </trkpt>
      <trkpt lat="47.88739" lon="6.90371">
        <ele>766.5</ele>
        <time>2023-05-20T16:40:10Z</time>
      </trkpt>
      <trkpt lat="47.88731" lon="6.90405">
        <ele>767.2</ele>
        <time>2023-05-20T16:40:32Z</time>
      </trkpt>
      <trkpt lat="47.88731" lon="6.90429">
        <ele>764.8</ele>
        <time>2023-05-20T16:40:46Z</time>
      </trkpt>
      <trkpt lat="47.8873" lon="6.90438">
        <ele>764.9</ele>
        <time>2023-05-20T16:40:50Z</time>
      </trkpt>
      <trkpt lat="47.88731" lon="6.90444">
        <ele>763.7</ele>
        <time>2023-05-20T16:40:55Z</time>
      </trkpt>
      <trkpt lat="47.88728" lon="6.90459">
        <ele>764.8</ele>
        <time>2023-05-20T16:41:03Z</time>
      </trkpt>
      <trkpt lat="47.88728" lon="6.90467">
        <ele>764.2</ele>
        <time>2023-05-20T16:41:08Z</time>
      </trkpt>
      <trkpt lat="47.88722" lon="6.90502">
        <ele>767</ele>
        <time>2023-05-20T16:41:24Z</time>
      </trkpt>
      <trkpt lat="47.88724" lon="6.90512">
        <ele>764.8</ele>
        <time>2023-05-20T16:41:30Z</time>
      </trkpt>
      <trkpt lat="47.88726" lon="6.90524">
        <ele>762.4</ele>
        <time>2023-05-20T16:41:40Z</time>
      </trkpt>
      <trkpt lat="47.88726" lon="6.90531">
        <ele>762</ele>
        <time>2023-05-20T16:41:44Z</time>
      </trkpt>
      <trkpt lat="47.88724" lon="6.9054">
        <ele>763.2</ele>
        <time>2023-05-20T16:41:49Z</time>
      </trkpt>
      <trkpt lat="47.88724" lon="6.90554">
        <ele>762.7</ele>
        <time>2023-05-20T16:41:56Z</time>
      </trkpt>
      <trkpt lat="47.88719" lon="6.90577">
        <ele>766.5</ele>
        <time>2023-05-20T16:42:09Z</time>
      </trkpt>
      <trkpt lat="47.88715" lon="6.90598">
        <ele>768</ele>
        <time>2023-05-20T16:42:19Z</time>
      </trkpt>
      <trkpt lat="47.88718" lon="6.90613">
        <ele>764.2</ele>
        <time>2023-05-20T16:42:29Z</time>
      </trkpt>
      <trkpt lat="47.88716" lon="6.9062">
        <ele>765.2</ele>
        <time>2023-05-20T16:42:33Z</time>
      </trkpt>
      <trkpt lat="47.88713" lon="6.90651">
        <ele>764.4</ele>
        <time>2023-05-20T16:42:49Z</time>
      </trkpt>
      <trkpt lat="47.88711" lon="6.90657">
        <ele>765</ele>
        <time>2023-05-20T16:42:53Z</time>
      </trkpt>
      <trkpt lat="47.88711" lon="6.90667">
        <ele>763.7</ele>
        <time>2023-05-20T16:43:00Z</time>
      </trkpt>
      <trkpt lat="47.88703" lon="6.90706">
        <ele>766.9</ele>
        <time>2023-05-20T16:43:26Z</time>
      </trkpt>
      <trkpt lat="47.88703" lon="6.90716">
        <ele>766</ele>
        <time>2023-05-20T16:43:33Z</time>
      </trkpt>
      <trkpt lat="47.887" lon="6.90723">
        <ele>767.8</ele>
        <time>2023-05-20T16:43:37Z</time>
      </trkpt>
      <trkpt lat="47.88699" lon="6.90734">
        <ele>768</ele>
        <time>2023-05-20T16:43:46Z</time>
      </trkpt>
      <trkpt lat="47.88699" lon="6.90742">
        <ele>767.6</ele>
        <time>2023-05-20T16:43:50Z</time>
      </trkpt>
      <trkpt lat="47.88699" lon="6.90749">
        <ele>767.3</ele>
        <time>2023-05-20T16:43:55Z</time>
      </trkpt>
      <trkpt lat="47.88694" lon="6.90762">
        <ele>769.7</ele>
        <time>2023-05-20T16:44:03Z</time>
      </trkpt>
      <trkpt lat="47.88684" lon="6.90802">
        <ele>771.5</ele>
        <time>2023-05-20T16:44:27Z</time>
      </trkpt>
      <trkpt lat="47.88679" lon="6.90815">
        <ele>772.4</ele>
        <time>2023-05-20T16:44:35Z</time>
      </trkpt>
      <trkpt lat="47.88676" lon="6.90823">
        <ele>772.8</ele>
        <time>2023-05-20T16:44:40Z</time>
      </trkpt>
      <trkpt lat="47.88673" lon="6.90837">
        <ele>771.8</ele>
        <time>2023-05-20T16:44:46Z</time>
      </trkpt>
      <trkpt lat="47.8867" lon="6.90844">
        <ele>772.9</ele>
        <time>2023-05-20T16:44:52Z</time>
      </trkpt>
      <trkpt lat="47.88657" lon="6.90893">
        <ele>774.1</ele>
        <time>2023-05-20T16:45:26Z</time>
      </trkpt>
      <trkpt lat="47.88655" lon="6.909">
        <ele>773.6</ele>
        <time>2023-05-20T16:45:30Z</time>
      </trkpt>
      <trkpt lat="47.88649" lon="6.90913">
        <ele>773.2</ele>
        <time>2023-05-20T16:45:43Z</time>
      </trkpt>
      <trkpt lat="47.8863" lon="6.90937">
        <ele>776.8</ele>
        <time>2023-05-20T16:46:02Z</time>
      </trkpt>
      <trkpt lat="47.88607" lon="6.90973">
        <ele>779.5</ele>
        <time>2023-05-20T16:46:31Z</time>
      </trkpt>
      <trkpt lat="47.88607" lon="6.9098">
        <ele>778.3</ele>
        <time>2023-05-20T16:46:35Z</time>
      </trkpt>
      <trkpt lat="47.88603" lon="6.90993">
        <ele>778.5</ele>
        <time>2023-05-20T16:46:42Z</time>
      </trkpt>
      <trkpt lat="47.88602" lon="6.90999">
        <ele>778.1</ele>
        <time>2023-05-20T16:46:45Z</time>
      </trkpt>
      <trkpt lat="47.88596" lon="6.91005">
        <ele>781</ele>
        <time>2023-05-20T16:46:51Z</time>
      </trkpt>
      <trkpt lat="47.88592" lon="6.91011">
        <ele>782.7</ele>
        <time>2023-05-20T16:46:57Z</time>
      </trkpt>
      <trkpt lat="47.88584" lon="6.91047">
        <ele>782.1</ele>
        <time>2023-05-20T16:47:20Z</time>
      </trkpt>
      <trkpt lat="47.88578" lon="6.91062">
        <ele>783.9</ele>
        <time>2023-05-20T16:47:31Z</time>
      </trkpt>
      <trkpt lat="47.88574" lon="6.91075">
        <ele>784.7</ele>
        <time>2023-05-20T16:47:42Z</time>
      </trkpt>
      <trkpt lat="47.88569" lon="6.91084">
        <ele>786.7</ele>
        <time>2023-05-20T16:47:51Z</time>
      </trkpt>
      <trkpt lat="47.88566" lon="6.91095">
        <ele>787.9</ele>
        <time>2023-05-20T16:47:57Z</time>
      </trkpt>
      <trkpt lat="47.88567" lon="6.91105">
        <ele>786.3</ele>
        <time>2023-05-20T16:48:03Z</time>
      </trkpt>
      <trkpt lat="47.88562" lon="6.91124">
        <ele>788.4</ele>
        <time>2023-05-20T16:48:12Z</time>
      </trkpt>
      <trkpt lat="47.88562" lon="6.91131">
        <ele>787.9</ele>
        <time>2023-05-20T16:48:17Z</time>
      </trkpt>
      <trkpt lat="47.8856" lon="6.91146">
        <ele>789.2</ele>
        <time>2023-05-20T16:48:25Z</time>
      </trkpt>
      <trkpt lat="47.88564" lon="6.91161">
        <ele>787</ele>
        <time>2023-05-20T16:48:36Z</time>
      </trkpt>
      <trkpt lat="47.88563" lon="6.91169">
        <ele>788.1</ele>
        <time>2023-05-20T16:48:41Z</time>
      </trkpt>
      <trkpt lat="47.88564" lon="6.912">
        <ele>787.2</ele>
        <time>2023-05-20T16:48:59Z</time>
      </trkpt>
      <trkpt lat="47.88561" lon="6.91208">
        <ele>788.9</ele>
        <time>2023-05-20T16:49:03Z</time>
      </trkpt>
      <trkpt lat="47.88563" lon="6.9123">
        <ele>786.2</ele>
        <time>2023-05-20T16:49:16Z</time>
      </trkpt>
      <trkpt lat="47.88562" lon="6.91239">
        <ele>786.8</ele>
        <time>2023-05-20T16:49:21Z</time>
      </trkpt>
      <trkpt lat="47.88561" lon="6.91247">
        <ele>787.5</ele>
        <time>2023-05-20T16:49:26Z</time>
      </trkpt>
      <trkpt lat="47.88563" lon="6.91253">
        <ele>785.7</ele>
        <time>2023-05-20T16:49:31Z</time>
      </trkpt>
      <trkpt lat="47.88565" lon="6.9126">
        <ele>783.8</ele>
        <time>2023-05-20T16:49:36Z</time>
      </trkpt>
      <trkpt lat="47.88566" lon="6.91268">
        <ele>782.6</ele>
        <time>2023-05-20T16:49:40Z</time>
      </trkpt>
      <trkpt lat="47.88565" lon="6.91276">
        <ele>783.2</ele>
        <time>2023-05-20T16:49:44Z</time>
      </trkpt>
      <trkpt lat="47.88563" lon="6.91282">
        <ele>784.9</ele>
        <time>2023-05-20T16:49:47Z</time>
      </trkpt>
      <trkpt lat="47.88563" lon="6.91292">
        <ele>784.5</ele>
        <time>2023-05-20T16:49:54Z</time>
      </trkpt>
      <trkpt lat="47.88563" lon="6.91298">
        <ele>784.3</ele>
        <time>2023-05-20T16:49:59Z</time>
      </trkpt>
      <trkpt lat="47.88562" lon="6.91305">
        <ele>785</ele>
        <time>2023-05-20T16:50:03Z</time>
      </trkpt>
      <trkpt lat="47.8856" lon="6.91312">
        <ele>786.1</ele>
        <time>2023-05-20T16:50:07Z</time>
      </trkpt>
      <trkpt lat="47.88558" lon="6.9132">
        <ele>787.2</ele>
        <time>2023-05-20T16:50:11Z</time>
      </trkpt>
      <trkpt lat="47.88557" lon="6.91328">
        <ele>787.2</ele>
        <time>2023-05-20T16:50:21Z</time>
      </trkpt>
      <trkpt lat="47.88556" lon="6.91334">
        <ele>787.5</ele>
        <time>2023-05-20T16:50:27Z</time>
      </trkpt>
      <trkpt lat="47.88558" lon="6.9134">
        <ele>785</ele>
        <time>2023-05-20T16:50:32Z</time>
      </trkpt>
      <trkpt lat="47.88558" lon="6.91347">
        <ele>784.2</ele>
        <time>2023-05-20T16:50:37Z</time>
      </trkpt>
      <trkpt lat="47.88555" lon="6.91352">
        <ele>786.3</ele>
        <time>2023-05-20T16:50:42Z</time>
      </trkpt>
      <trkpt lat="47.88549" lon="6.91365">
        <ele>787.2</ele>
        <time>2023-05-20T16:50:51Z</time>
      </trkpt>
      <trkpt lat="47.88544" lon="6.91368">
        <ele>788.8</ele>
        <time>2023-05-20T16:50:56Z</time>
      </trkpt>
      <trkpt lat="47.88541" lon="6.91376">
        <ele>788</ele>
        <time>2023-05-20T16:51:00Z</time>
      </trkpt>
      <trkpt lat="47.88542" lon="6.91409">
        <ele>778.8</ele>
        <time>2023-05-20T16:51:24Z</time>
      </trkpt>
      <trkpt lat="47.88539" lon="6.91414">
        <ele>778.5</ele>
        <time>2023-05-20T16:51:29Z</time>
      </trkpt>
      <trkpt lat="47.8853" lon="6.91417">
        <ele>780.2</ele>
        <time>2023-05-20T16:51:38Z</time>
      </trkpt>
      <trkpt lat="47.88524" lon="6.91414">
        <ele>781.4</ele>
        <time>2023-05-20T16:51:45Z</time>
      </trkpt>
      <trkpt lat="47.88519" lon="6.91415">
        <ele>780.2</ele>
        <time>2023-05-20T16:51:49Z</time>
      </trkpt>
      <trkpt lat="47.88515" lon="6.91418">
        <ele>777.9</ele>
        <time>2023-05-20T16:51:53Z</time>
      </trkpt>
      <trkpt lat="47.88509" lon="6.91414">
        <ele>779.2</ele>
        <time>2023-05-20T16:51:59Z</time>
      </trkpt>
      <trkpt lat="47.88504" lon="6.91408">
        <ele>782.2</ele>
        <time>2023-05-20T16:52:05Z</time>
      </trkpt>
      <trkpt lat="47.88495" lon="6.9141">
        <ele>780.4</ele>
        <time>2023-05-20T16:52:13Z</time>
      </trkpt>
      <trkpt lat="47.88491" lon="6.91412">
        <ele>778.9</ele>
        <time>2023-05-20T16:52:17Z</time>
      </trkpt>
      <trkpt lat="47.88485" lon="6.91419">
        <ele>774.1</ele>
        <time>2023-05-20T16:52:23Z</time>
      </trkpt>
      <trkpt lat="47.88481" lon="6.91417">
        <ele>775.1</ele>
        <time>2023-05-20T16:52:27Z</time>
      </trkpt>
      <trkpt lat="47.88475" lon="6.91416">
        <ele>775.6</ele>
        <time>2023-05-20T16:52:33Z</time>
      </trkpt>
      <trkpt lat="47.8847" lon="6.91413">
        <ele>778.4</ele>
        <time>2023-05-20T16:52:39Z</time>
      </trkpt>
      <trkpt lat="47.88461" lon="6.91419">
        <ele>778.7</ele>
        <time>2023-05-20T16:52:46Z</time>
      </trkpt>
      <trkpt lat="47.88457" lon="6.9142">
        <ele>779.9</ele>
        <time>2023-05-20T16:52:55Z</time>
      </trkpt>
      <trkpt lat="47.88453" lon="6.91424">
        <ele>779.7</ele>
        <time>2023-05-20T16:53:00Z</time>
      </trkpt>
      <trkpt lat="47.88451" lon="6.91418">
        <ele>783.5</ele>
        <time>2023-05-20T16:53:03Z</time>
      </trkpt>
      <trkpt lat="47.88463" lon="6.91392">
        <ele>793.2</ele>
        <time>2023-05-20T16:53:13Z</time>
      </trkpt>
      <trkpt lat="47.88459" lon="6.914">
        <ele>789.5</ele>
        <time>2023-05-20T16:53:31Z</time>
      </trkpt>
      <trkpt lat="47.88454" lon="6.91403">
        <ele>789.3</ele>
        <time>2023-05-20T16:53:36Z</time>
      </trkpt>
      <trkpt lat="47.88447" lon="6.91408">
        <ele>789.3</ele>
        <time>2023-05-20T16:53:48Z</time>
      </trkpt>
      <trkpt lat="47.88446" lon="6.91414">
        <ele>787.3</ele>
        <time>2023-05-20T16:53:56Z</time>
      </trkpt>
      <trkpt lat="47.88438" lon="6.91414">
        <ele>791.4</ele>
        <time>2023-05-20T16:54:08Z</time>
      </trkpt>
      <trkpt lat="47.88432" lon="6.91413">
        <ele>795</ele>
        <time>2023-05-20T16:54:19Z</time>
      </trkpt>
      <trkpt lat="47.88428" lon="6.91422">
        <ele>792.8</ele>
        <time>2023-05-20T16:54:38Z</time>
      </trkpt>
      <trkpt lat="47.88424" lon="6.91414">
        <ele>798.9</ele>
        <time>2023-05-20T16:54:43Z</time>
      </trkpt>
      <trkpt lat="47.8842" lon="6.91421">
        <ele>797.5</ele>
        <time>2023-05-20T16:54:46Z</time>
      </trkpt>
      <trkpt lat="47.88415" lon="6.91417">
        <ele>801.3</ele>
        <time>2023-05-20T16:54:52Z</time>
      </trkpt>
      <trkpt lat="47.88412" lon="6.9141">
        <ele>802.8</ele>
        <time>2023-05-20T16:54:56Z</time>
      </trkpt>
      <trkpt lat="47.88408" lon="6.91412">
        <ele>800.9</ele>
        <time>2023-05-20T16:55:00Z</time>
      </trkpt>
      <trkpt lat="47.88404" lon="6.91408">
        <ele>801.1</ele>
        <time>2023-05-20T16:55:04Z</time>
      </trkpt>
      <trkpt lat="47.884" lon="6.91403">
        <ele>801.9</ele>
        <time>2023-05-20T16:55:08Z</time>
      </trkpt>
      <trkpt lat="47.88397" lon="6.91406">
        <ele>799.9</ele>
        <time>2023-05-20T16:55:12Z</time>
      </trkpt>
      <trkpt lat="47.88391" lon="6.91395">
        <ele>802.9</ele>
        <time>2023-05-20T16:55:20Z</time>
      </trkpt>
      <trkpt lat="47.88387" lon="6.91393">
        <ele>803.6</ele>
        <time>2023-05-20T16:55:25Z</time>
      </trkpt>
      <trkpt lat="47.88382" lon="6.91393">
        <ele>804.4</ele>
        <time>2023-05-20T16:55:30Z</time>
      </trkpt>
      <trkpt lat="47.88378" lon="6.91392">
        <ele>805.5</ele>
        <time>2023-05-20T16:55:33Z</time>
      </trkpt>
      <trkpt lat="47.88375" lon="6.91397">
        <ele>804.4</ele>
        <time>2023-05-20T16:55:39Z</time>
      </trkpt>
      <trkpt lat="47.88374" lon="6.91405">
        <ele>802</ele>
        <time>2023-05-20T16:55:43Z</time>
      </trkpt>
      <trkpt lat="47.88371" lon="6.91413">
        <ele>800.5</ele>
        <time>2023-05-20T16:55:49Z</time>
      </trkpt>
      <trkpt lat="47.88365" lon="6.91423">
        <ele>799.4</ele>
        <time>2023-05-20T16:55:56Z</time>
      </trkpt>
      <trkpt lat="47.88355" lon="6.91431">
        <ele>800.1</ele>
        <time>2023-05-20T16:56:07Z</time>
      </trkpt>
      <trkpt lat="47.88352" lon="6.91435">
        <ele>799.8</ele>
        <time>2023-05-20T16:56:11Z</time>
      </trkpt>
      <trkpt lat="47.88349" lon="6.91442">
        <ele>798.3</ele>
        <time>2023-05-20T16:56:35Z</time>
      </trkpt>
      <trkpt lat="47.88346" lon="6.91444">
        <ele>798.6</ele>
        <time>2023-05-20T16:56:37Z</time>
      </trkpt>
      <trkpt lat="47.88343" lon="6.91439">
        <ele>801.6</ele>
        <time>2023-05-20T16:56:41Z</time>
      </trkpt>
      <trkpt lat="47.88339" lon="6.91446">
        <ele>800.5</ele>
        <time>2023-05-20T16:56:43Z</time>
      </trkpt>
      <trkpt lat="47.88315" lon="6.91474">
        <ele>801.3</ele>
        <time>2023-05-20T16:57:04Z</time>
      </trkpt>
      <trkpt lat="47.88301" lon="6.91484">
        <ele>801.8</ele>
        <time>2023-05-20T16:57:14Z</time>
      </trkpt>
      <trkpt lat="47.88286" lon="6.91485">
        <ele>803.3</ele>
        <time>2023-05-20T16:57:25Z</time>
      </trkpt>
      <trkpt lat="47.88281" lon="6.91484">
        <ele>804.1</ele>
        <time>2023-05-20T16:57:28Z</time>
      </trkpt>
      <trkpt lat="47.88277" lon="6.91486">
        <ele>804.4</ele>
        <time>2023-05-20T16:57:32Z</time>
      </trkpt>
      <trkpt lat="47.8827" lon="6.91502">
        <ele>803.6</ele>
        <time>2023-05-20T16:57:44Z</time>
      </trkpt>
      <trkpt lat="47.88268" lon="6.91508">
        <ele>802.3</ele>
        <time>2023-05-20T16:57:49Z</time>
      </trkpt>
      <trkpt lat="47.8826" lon="6.91516">
        <ele>802.9</ele>
        <time>2023-05-20T16:57:59Z</time>
      </trkpt>
      <trkpt lat="47.88252" lon="6.91521">
        <ele>804.6</ele>
        <time>2023-05-20T16:58:07Z</time>
      </trkpt>
      <trkpt lat="47.88249" lon="6.91527">
        <ele>803.3</ele>
        <time>2023-05-20T16:58:10Z</time>
      </trkpt>
      <trkpt lat="47.88242" lon="6.91535">
        <ele>800.4</ele>
        <time>2023-05-20T16:58:16Z</time>
      </trkpt>
      <trkpt lat="47.8823" lon="6.91533">
        <ele>801.1</ele>
        <time>2023-05-20T16:58:26Z</time>
      </trkpt>
      <trkpt lat="47.88226" lon="6.9153">
        <ele>802.2</ele>
        <time>2023-05-20T16:58:30Z</time>
      </trkpt>
      <trkpt lat="47.88221" lon="6.91529">
        <ele>803</ele>
        <time>2023-05-20T16:58:33Z</time>
      </trkpt>
      <trkpt lat="47.88212" lon="6.9153">
        <ele>806.2</ele>
        <time>2023-05-20T16:58:40Z</time>
      </trkpt>
      <trkpt lat="47.88209" lon="6.91534">
        <ele>806</ele>
        <time>2023-05-20T16:58:43Z</time>
      </trkpt>
      <trkpt lat="47.88206" lon="6.9154">
        <ele>805</ele>
        <time>2023-05-20T16:58:47Z</time>
      </trkpt>
      <trkpt lat="47.88193" lon="6.91549">
        <ele>806.7</ele>
        <time>2023-05-20T16:59:01Z</time>
      </trkpt>
      <trkpt lat="47.8819" lon="6.91554">
        <ele>805.6</ele>
        <time>2023-05-20T16:59:04Z</time>
      </trkpt>
      <trkpt lat="47.88176" lon="6.91562">
        <ele>806.1</ele>
        <time>2023-05-20T16:59:16Z</time>
      </trkpt>
      <trkpt lat="47.88172" lon="6.91566">
        <ele>806</ele>
        <time>2023-05-20T16:59:21Z</time>
      </trkpt>
      <trkpt lat="47.88165" lon="6.91566">
        <ele>808.2</ele>
        <time>2023-05-20T16:59:27Z</time>
      </trkpt>
      <trkpt lat="47.88159" lon="6.91571">
        <ele>809.9</ele>
        <time>2023-05-20T16:59:31Z</time>
      </trkpt>
      <trkpt lat="47.88156" lon="6.91576">
        <ele>810.3</ele>
        <time>2023-05-20T16:59:34Z</time>
      </trkpt>
      <trkpt lat="47.8815" lon="6.91597">
        <ele>810.9</ele>
        <time>2023-05-20T16:59:52Z</time>
      </trkpt>
      <trkpt lat="47.88147" lon="6.91602">
        <ele>812</ele>
        <time>2023-05-20T16:59:57Z</time>
      </trkpt>
      <trkpt lat="47.88137" lon="6.91644">
        <ele>810.9</ele>
        <time>2023-05-20T17:00:24Z</time>
      </trkpt>
      <trkpt lat="47.88115" lon="6.91685">
        <ele>813.6</ele>
        <time>2023-05-20T17:00:59Z</time>
      </trkpt>
      <trkpt lat="47.88113" lon="6.91691">
        <ele>813</ele>
        <time>2023-05-20T17:01:02Z</time>
      </trkpt>
      <trkpt lat="47.88105" lon="6.91701">
        <ele>812.7</ele>
        <time>2023-05-20T17:01:11Z</time>
      </trkpt>
      <trkpt lat="47.88092" lon="6.91711">
        <ele>812.6</ele>
        <time>2023-05-20T17:01:23Z</time>
      </trkpt>
      <trkpt lat="47.88088" lon="6.91711">
        <ele>813.6</ele>
        <time>2023-05-20T17:01:27Z</time>
      </trkpt>
      <trkpt lat="47.88082" lon="6.91714">
        <ele>813.7</ele>
        <time>2023-05-20T17:01:31Z</time>
      </trkpt>
      <trkpt lat="47.88058" lon="6.91712">
        <ele>816.9</ele>
        <time>2023-05-20T17:01:54Z</time>
      </trkpt>
      <trkpt lat="47.88054" lon="6.91707">
        <ele>819.1</ele>
        <time>2023-05-20T17:01:58Z</time>
      </trkpt>
      <trkpt lat="47.8805" lon="6.91708">
        <ele>817.2</ele>
        <time>2023-05-20T17:02:01Z</time>
      </trkpt>
      <trkpt lat="47.88046" lon="6.91704">
        <ele>817.5</ele>
        <time>2023-05-20T17:02:05Z</time>
      </trkpt>
      <trkpt lat="47.8804" lon="6.91702">
        <ele>816.1</ele>
        <time>2023-05-20T17:02:12Z</time>
      </trkpt>
      <trkpt lat="47.88017" lon="6.9168">
        <ele>813.3</ele>
        <time>2023-05-20T17:02:36Z</time>
      </trkpt>
      <trkpt lat="47.88006" lon="6.91663">
        <ele>813</ele>
        <time>2023-05-20T17:02:51Z</time>
      </trkpt>
      <trkpt lat="47.88" lon="6.91662">
        <ele>810.3</ele>
        <time>2023-05-20T17:02:54Z</time>
      </trkpt>
      <trkpt lat="47.87998" lon="6.91658">
        <ele>810.7</ele>
        <time>2023-05-20T17:02:58Z</time>
      </trkpt>
      <trkpt lat="47.87988" lon="6.91652">
        <ele>808.2</ele>
        <time>2023-05-20T17:03:08Z</time>
      </trkpt>
      <trkpt lat="47.87984" lon="6.91641">
        <ele>809</ele>
        <time>2023-05-20T17:03:15Z</time>
      </trkpt>
      <trkpt lat="47.87976" lon="6.91632">
        <ele>807.1</ele>
        <time>2023-05-20T17:03:23Z</time>
      </trkpt>
      <trkpt lat="47.87971" lon="6.9163">
        <ele>805.4</ele>
        <time>2023-05-20T17:03:27Z</time>
      </trkpt>
      <trkpt lat="47.87958" lon="6.91615">
        <ele>804.9</ele>
        <time>2023-05-20T17:03:42Z</time>
      </trkpt>
      <trkpt lat="47.87952" lon="6.91614">
        <ele>803.5</ele>
        <time>2023-05-20T17:03:46Z</time>
      </trkpt>
      <trkpt lat="47.87948" lon="6.91608">
        <ele>803.2</ele>
        <time>2023-05-20T17:03:50Z</time>
      </trkpt>
      <trkpt lat="47.87945" lon="6.91603">
        <ele>802.7</ele>
        <time>2023-05-20T17:03:53Z</time>
      </trkpt>
      <trkpt lat="47.87942" lon="6.91596">
        <ele>802.6</ele>
        <time>2023-05-20T17:03:57Z</time>
      </trkpt>
      <trkpt lat="47.8794" lon="6.91589">
        <ele>802.8</ele>
        <time>2023-05-20T17:04:02Z</time>
      </trkpt>
      <trkpt lat="47.87941" lon="6.91582">
        <ele>803.5</ele>
        <time>2023-05-20T17:04:05Z</time>
      </trkpt>
      <trkpt lat="47.87939" lon="6.91567">
        <ele>804.4</ele>
        <time>2023-05-20T17:04:14Z</time>
      </trkpt>
      <trkpt lat="47.8794" lon="6.9156">
        <ele>805.3</ele>
        <time>2023-05-20T17:04:17Z</time>
      </trkpt>
      <trkpt lat="47.87937" lon="6.91541">
        <ele>805.6</ele>
        <time>2023-05-20T17:04:28Z</time>
      </trkpt>
      <trkpt lat="47.87937" lon="6.91535">
        <ele>805.9</ele>
        <time>2023-05-20T17:04:30Z</time>
      </trkpt>
      <trkpt lat="47.8794" lon="6.91509">
        <ele>809.3</ele>
        <time>2023-05-20T17:04:47Z</time>
      </trkpt>
      <trkpt lat="47.87936" lon="6.91494">
        <ele>809.4</ele>
        <time>2023-05-20T17:04:58Z</time>
      </trkpt>
      <trkpt lat="47.87937" lon="6.91488">
        <ele>810.5</ele>
        <time>2023-05-20T17:05:02Z</time>
      </trkpt>
      <trkpt lat="47.87935" lon="6.91457">
        <ele>813.2</ele>
        <time>2023-05-20T17:05:22Z</time>
      </trkpt>
      <trkpt lat="47.87937" lon="6.91427">
        <ele>817.9</ele>
        <time>2023-05-20T17:05:40Z</time>
      </trkpt>
      <trkpt lat="47.87935" lon="6.91419">
        <ele>817.9</ele>
        <time>2023-05-20T17:05:43Z</time>
      </trkpt>
      <trkpt lat="47.87936" lon="6.91407">
        <ele>819.8</ele>
        <time>2023-05-20T17:05:54Z</time>
      </trkpt>
      <trkpt lat="47.87933" lon="6.91388">
        <ele>820.3</ele>
        <time>2023-05-20T17:06:07Z</time>
      </trkpt>
      <trkpt lat="47.87935" lon="6.91381">
        <ele>822</ele>
        <time>2023-05-20T17:06:10Z</time>
      </trkpt>
      <trkpt lat="47.87932" lon="6.91376">
        <ele>820.9</ele>
        <time>2023-05-20T17:06:14Z</time>
      </trkpt>
      <trkpt lat="47.87932" lon="6.91369">
        <ele>821.6</ele>
        <time>2023-05-20T17:06:20Z</time>
      </trkpt>
      <trkpt lat="47.87933" lon="6.91357">
        <ele>823.1</ele>
        <time>2023-05-20T17:06:27Z</time>
      </trkpt>
      <trkpt lat="47.87933" lon="6.91341">
        <ele>824.3</ele>
        <time>2023-05-20T17:06:40Z</time>
      </trkpt>
      <trkpt lat="47.87932" lon="6.91327">
        <ele>824.7</ele>
        <time>2023-05-20T17:06:49Z</time>
      </trkpt>
      <trkpt lat="47.87933" lon="6.91316">
        <ele>826.1</ele>
        <time>2023-05-20T17:06:57Z</time>
      </trkpt>
      <trkpt lat="47.87933" lon="6.91301">
        <ele>827.1</ele>
        <time>2023-05-20T17:07:07Z</time>
      </trkpt>
      <trkpt lat="47.87931" lon="6.91294">
        <ele>826.6</ele>
        <time>2023-05-20T17:07:11Z</time>
      </trkpt>
      <trkpt lat="47.87932" lon="6.91283">
        <ele>827.9</ele>
        <time>2023-05-20T17:07:15Z</time>
      </trkpt>
      <trkpt lat="47.87933" lon="6.9127">
        <ele>829.4</ele>
        <time>2023-05-20T17:07:22Z</time>
      </trkpt>
      <trkpt lat="47.87932" lon="6.91263">
        <ele>829.3</ele>
        <time>2023-05-20T17:07:26Z</time>
      </trkpt>
      <trkpt lat="47.87928" lon="6.91258">
        <ele>827.5</ele>
        <time>2023-05-20T17:07:31Z</time>
      </trkpt>
      <trkpt lat="47.87931" lon="6.9125">
        <ele>829.7</ele>
        <time>2023-05-20T17:07:35Z</time>
      </trkpt>
      <trkpt lat="47.8793" lon="6.9121">
        <ele>832.3</ele>
        <time>2023-05-20T17:07:57Z</time>
      </trkpt>
      <trkpt lat="47.87929" lon="6.91195">
        <ele>833.1</ele>
        <time>2023-05-20T17:08:09Z</time>
      </trkpt>
      <trkpt lat="47.87931" lon="6.9118">
        <ele>835.8</ele>
        <time>2023-05-20T17:08:16Z</time>
      </trkpt>
      <trkpt lat="47.87924" lon="6.91171">
        <ele>832.4</ele>
        <time>2023-05-20T17:08:23Z</time>
      </trkpt>
      <trkpt lat="47.87923" lon="6.91158">
        <ele>833.1</ele>
        <time>2023-05-20T17:08:32Z</time>
      </trkpt>
      <trkpt lat="47.87923" lon="6.91151">
        <ele>834</ele>
        <time>2023-05-20T17:08:36Z</time>
      </trkpt>
      <trkpt lat="47.8792" lon="6.91137">
        <ele>834</ele>
        <time>2023-05-20T17:08:45Z</time>
      </trkpt>
      <trkpt lat="47.87918" lon="6.9112">
        <ele>834.8</ele>
        <time>2023-05-20T17:08:56Z</time>
      </trkpt>
      <trkpt lat="47.87912" lon="6.91093">
        <ele>835.4</ele>
        <time>2023-05-20T17:09:13Z</time>
      </trkpt>
      <trkpt lat="47.8791" lon="6.91087">
        <ele>835.6</ele>
        <time>2023-05-20T17:09:17Z</time>
      </trkpt>
      <trkpt lat="47.87909" lon="6.9108">
        <ele>836.2</ele>
        <time>2023-05-20T17:09:21Z</time>
      </trkpt>
      <trkpt lat="47.87898" lon="6.91055">
        <ele>837</ele>
        <time>2023-05-20T17:09:36Z</time>
      </trkpt>
      <trkpt lat="47.87895" lon="6.91034">
        <ele>839.1</ele>
        <time>2023-05-20T17:09:46Z</time>
      </trkpt>
      <trkpt lat="47.87889" lon="6.91024">
        <ele>839.6</ele>
        <time>2023-05-20T17:09:53Z</time>
      </trkpt>
      <trkpt lat="47.87884" lon="6.91023">
        <ele>839.5</ele>
        <time>2023-05-20T17:09:57Z</time>
      </trkpt>
      <trkpt lat="47.8788" lon="6.91019">
        <ele>839.8</ele>
        <time>2023-05-20T17:10:01Z</time>
      </trkpt>
      <trkpt lat="47.87868" lon="6.91019">
        <ele>839.3</ele>
        <time>2023-05-20T17:10:11Z</time>
      </trkpt>
      <trkpt lat="47.87864" lon="6.91019">
        <ele>839.1</ele>
        <time>2023-05-20T17:10:16Z</time>
      </trkpt>
      <trkpt lat="47.87852" lon="6.91022">
        <ele>838.5</ele>
        <time>2023-05-20T17:10:26Z</time>
      </trkpt>
      <trkpt lat="47.87846" lon="6.91027">
        <ele>838.1</ele>
        <time>2023-05-20T17:10:34Z</time>
      </trkpt>
      <trkpt lat="47.87841" lon="6.91029">
        <ele>837.8</ele>
        <time>2023-05-20T17:10:38Z</time>
      </trkpt>
      <trkpt lat="47.87837" lon="6.91032">
        <ele>837.4</ele>
        <time>2023-05-20T17:10:42Z</time>
      </trkpt>
      <trkpt lat="47.87831" lon="6.91035">
        <ele>837.7</ele>
        <time>2023-05-20T17:10:48Z</time>
      </trkpt>
      <trkpt lat="47.87827" lon="6.91038">
        <ele>838.4</ele>
        <time>2023-05-20T17:10:53Z</time>
      </trkpt>
      <trkpt lat="47.87804" lon="6.91076">
        <ele>838.1</ele>
        <time>2023-05-20T17:11:25Z</time>
      </trkpt>
      <trkpt lat="47.878" lon="6.9108">
        <ele>839.5</ele>
        <time>2023-05-20T17:11:29Z</time>
      </trkpt>
      <trkpt lat="47.87792" lon="6.91099">
        <ele>839.4</ele>
        <time>2023-05-20T17:11:41Z</time>
      </trkpt>
      <trkpt lat="47.87786" lon="6.91113">
        <ele>839.6</ele>
        <time>2023-05-20T17:11:51Z</time>
      </trkpt>
      <trkpt lat="47.87784" lon="6.9112">
        <ele>839.6</ele>
        <time>2023-05-20T17:11:55Z</time>
      </trkpt>
      <trkpt lat="47.8778" lon="6.91133">
        <ele>839.7</ele>
        <time>2023-05-20T17:12:03Z</time>
      </trkpt>
      <trkpt lat="47.87758" lon="6.91165">
        <ele>841.5</ele>
        <time>2023-05-20T17:12:27Z</time>
      </trkpt>
      <trkpt lat="47.87754" lon="6.91169">
        <ele>842</ele>
        <time>2023-05-20T17:12:32Z</time>
      </trkpt>
      <trkpt lat="47.87739" lon="6.91189">
        <ele>844</ele>
        <time>2023-05-20T17:12:44Z</time>
      </trkpt>
      <trkpt lat="47.87734" lon="6.91201">
        <ele>844.2</ele>
        <time>2023-05-20T17:12:51Z</time>
      </trkpt>
      <trkpt lat="47.8773" lon="6.91205">
        <ele>845.9</ele>
        <time>2023-05-20T17:12:56Z</time>
      </trkpt>
      <trkpt lat="47.87729" lon="6.91213">
        <ele>845.6</ele>
        <time>2023-05-20T17:13:05Z</time>
      </trkpt>
      <trkpt lat="47.8773" lon="6.91235">
        <ele>843.2</ele>
        <time>2023-05-20T17:13:18Z</time>
      </trkpt>
      <trkpt lat="47.87722" lon="6.91287">
        <ele>844.9</ele>
        <time>2023-05-20T17:13:46Z</time>
      </trkpt>
      <trkpt lat="47.87722" lon="6.91302">
        <ele>844.3</ele>
        <time>2023-05-20T17:13:55Z</time>
      </trkpt>
      <trkpt lat="47.87717" lon="6.91323">
        <ele>848.1</ele>
        <time>2023-05-20T17:14:07Z</time>
      </trkpt>
      <trkpt lat="47.87718" lon="6.9133">
        <ele>847.2</ele>
        <time>2023-05-20T17:14:11Z</time>
      </trkpt>
      <trkpt lat="47.87714" lon="6.91373">
        <ele>851.9</ele>
        <time>2023-05-20T17:14:36Z</time>
      </trkpt>
      <trkpt lat="47.87715" lon="6.91381">
        <ele>852.1</ele>
        <time>2023-05-20T17:14:41Z</time>
      </trkpt>
      <trkpt lat="47.87709" lon="6.91416">
        <ele>851.2</ele>
        <time>2023-05-20T17:15:01Z</time>
      </trkpt>
      <trkpt lat="47.87707" lon="6.91421">
        <ele>851.3</ele>
        <time>2023-05-20T17:15:06Z</time>
      </trkpt>
      <trkpt lat="47.877" lon="6.9143">
        <ele>853.5</ele>
        <time>2023-05-20T17:15:16Z</time>
      </trkpt>
      <trkpt lat="47.87697" lon="6.91435">
        <ele>853.8</ele>
        <time>2023-05-20T17:15:20Z</time>
      </trkpt>
      <trkpt lat="47.87693" lon="6.91439">
        <ele>854.7</ele>
        <time>2023-05-20T17:15:24Z</time>
      </trkpt>
      <trkpt lat="47.87682" lon="6.91441">
        <ele>859.3</ele>
        <time>2023-05-20T17:15:31Z</time>
      </trkpt>
      <trkpt lat="47.87679" lon="6.91447">
        <ele>858.4</ele>
        <time>2023-05-20T17:15:42Z</time>
      </trkpt>
      <trkpt lat="47.87677" lon="6.91437">
        <ele>863.7</ele>
        <time>2023-05-20T17:15:59Z</time>
      </trkpt>
      <trkpt lat="47.87683" lon="6.91439">
        <ele>859.7</ele>
        <time>2023-05-20T17:16:04Z</time>
      </trkpt>
      <trkpt lat="47.87686" lon="6.91444">
        <ele>856.1</ele>
        <time>2023-05-20T17:16:37Z</time>
      </trkpt>
      <trkpt lat="47.87682" lon="6.91449">
        <ele>856.3</ele>
        <time>2023-05-20T17:16:51Z</time>
      </trkpt>
      <trkpt lat="47.87677" lon="6.91442">
        <ele>861.3</ele>
        <time>2023-05-20T17:17:16Z</time>
      </trkpt>
      <trkpt lat="47.87678" lon="6.91435">
        <ele>864.1</ele>
        <time>2023-05-20T17:17:34Z</time>
      </trkpt>
      <trkpt lat="47.87686" lon="6.9144">
        <ele>857.8</ele>
        <time>2023-05-20T17:18:07Z</time>
      </trkpt>
      <trkpt lat="47.87682" lon="6.91445">
        <ele>857.6</ele>
        <time>2023-05-20T17:18:11Z</time>
      </trkpt>
      <trkpt lat="47.87675" lon="6.91437">
        <ele>864.7</ele>
        <time>2023-05-20T17:18:22Z</time>
      </trkpt>
      <trkpt lat="47.87673" lon="6.91447">
        <ele>861.3</ele>
        <time>2023-05-20T17:18:29Z</time>
      </trkpt>
      <trkpt lat="47.87673" lon="6.91455">
        <ele>858.8</ele>
        <time>2023-05-20T17:18:33Z</time>
      </trkpt>
      <trkpt lat="47.8767" lon="6.91469">
        <ele>856.2</ele>
        <time>2023-05-20T17:18:41Z</time>
      </trkpt>
      <trkpt lat="47.87667" lon="6.91478">
        <ele>855.2</ele>
        <time>2023-05-20T17:18:55Z</time>
      </trkpt>
      <trkpt lat="47.8766" lon="6.91484">
        <ele>856.9</ele>
        <time>2023-05-20T17:19:04Z</time>
      </trkpt>
      <trkpt lat="47.87652" lon="6.91491">
        <ele>858.4</ele>
        <time>2023-05-20T17:19:12Z</time>
      </trkpt>
      <trkpt lat="47.87646" lon="6.91504">
        <ele>857.4</ele>
        <time>2023-05-20T17:19:22Z</time>
      </trkpt>
      <trkpt lat="47.87645" lon="6.91512">
        <ele>856.9</ele>
        <time>2023-05-20T17:19:26Z</time>
      </trkpt>
      <trkpt lat="47.87624" lon="6.91546">
        <ele>866.2</ele>
        <time>2023-05-20T17:20:00Z</time>
      </trkpt>
      <trkpt lat="47.87615" lon="6.91571">
        <ele>868.2</ele>
        <time>2023-05-20T17:20:22Z</time>
      </trkpt>
      <trkpt lat="47.87614" lon="6.91591">
        <ele>869.3</ele>
        <time>2023-05-20T17:20:34Z</time>
      </trkpt>
      <trkpt lat="47.87608" lon="6.91602">
        <ele>873.8</ele>
        <time>2023-05-20T17:20:45Z</time>
      </trkpt>
      <trkpt lat="47.87613" lon="6.91609">
        <ele>872.7</ele>
        <time>2023-05-20T17:20:55Z</time>
      </trkpt>
      <trkpt lat="47.8761" lon="6.91617">
        <ele>875.4</ele>
        <time>2023-05-20T17:20:58Z</time>
      </trkpt>
      <trkpt lat="47.87607" lon="6.91663">
        <ele>881.8</ele>
        <time>2023-05-20T17:21:29Z</time>
      </trkpt>
      <trkpt lat="47.87607" lon="6.91676">
        <ele>881.2</ele>
        <time>2023-05-20T17:21:38Z</time>
      </trkpt>
      <trkpt lat="47.87608" lon="6.91685">
        <ele>880.1</ele>
        <time>2023-05-20T17:21:44Z</time>
      </trkpt>
      <trkpt lat="47.87613" lon="6.91678">
        <ele>878.8</ele>
        <time>2023-05-20T17:21:49Z</time>
      </trkpt>
      <trkpt lat="47.87615" lon="6.9167">
        <ele>878.9</ele>
        <time>2023-05-20T17:21:52Z</time>
      </trkpt>
      <trkpt lat="47.87615" lon="6.91664">
        <ele>879.3</ele>
        <time>2023-05-20T17:21:55Z</time>
      </trkpt>
    </trkseg>
  </trk>
</gpx>